<?xml version="1.0" encoding="UTF-8" standalone="no" ?>
<gpx xmlns="http://www.topografix.com/GPX/1/1" xmlns:xsi="http://www.w3.org/2001/XMLSchema-instance" xsi:schemaLocation="http://www.topografix.com/GPX/1/1 http://www.topografix.com/GPX/1/1/gpx.xsd" version="1.1" creator="VisuGPX - https://www.visugpx.com">
  <metadata>
    <name>Lac de lignin 18km 800m</name>
    <desc><![CDATA[Une bien belle boucle à partir du pont de la serre pour atteindre les lacs de Lignin et le col de Lignin. Panorama assuré . A faire dans le sens horaire. Sur le retour on longe la lance et on a ainsi tout le temps de profiter des cascades et des marmites. Et pourquoi pas se rafraichir dedans.]]></desc>
  </metadata>
  <trk>
    <name><![CDATA[Lac de lignin 18km 800m]]></name>
    <extensions>
      <line xmlns="http://www.topografix.com/GPX/gpx_style/0/2">
        <color>0000ff</color>
        <opacity>1</opacity>
        <width>5</width>
          <extensions>
            <sens>1</sens>
          </extensions>
      </line>
    </extensions>
    <trkseg>
      <trkpt lat="44.1575" lon="6.65517">
        <ele>1632.2</ele>
        <time>2020-07-28T07:16:43Z</time>
      </trkpt>
      <trkpt lat="44.15746" lon="6.65519">
        <ele>1633.2</ele>
        <time>2020-07-28T07:16:43.157Z</time>
      </trkpt>
      <trkpt lat="44.15742" lon="6.65522">
        <ele>1634.3</ele>
        <time>2020-07-28T07:16:43.325Z</time>
      </trkpt>
      <trkpt lat="44.15737" lon="6.65524">
        <ele>1635.2</ele>
        <time>2020-07-28T07:16:43.517Z</time>
      </trkpt>
      <trkpt lat="44.15733" lon="6.65526">
        <ele>1636.2</ele>
        <time>2020-07-28T07:16:43.675Z</time>
      </trkpt>
      <trkpt lat="44.15725" lon="6.65528">
        <ele>1638.2</ele>
        <time>2020-07-28T07:16:43.976Z</time>
      </trkpt>
      <trkpt lat="44.15717" lon="6.6553">
        <ele>1640.8</ele>
        <time>2020-07-28T07:16:44.278Z</time>
      </trkpt>
      <trkpt lat="44.15714" lon="6.65538">
        <ele>1641.2</ele>
        <time>2020-07-28T07:16:44.517Z</time>
      </trkpt>
      <trkpt lat="44.1571" lon="6.65546">
        <ele>1641.6</ele>
        <time>2020-07-28T07:16:44.777Z</time>
      </trkpt>
      <trkpt lat="44.15708" lon="6.65552">
        <ele>1641.8</ele>
        <time>2020-07-28T07:16:44.951Z</time>
      </trkpt>
      <trkpt lat="44.15705" lon="6.65557">
        <ele>1642.1</ele>
        <time>2020-07-28T07:16:45.123Z</time>
      </trkpt>
      <trkpt lat="44.15703" lon="6.65563">
        <ele>1642.5</ele>
        <time>2020-07-28T07:16:45.298Z</time>
      </trkpt>
      <trkpt lat="44.157" lon="6.65568">
        <ele>1642.8</ele>
        <time>2020-07-28T07:16:45.471Z</time>
      </trkpt>
      <trkpt lat="44.15698" lon="6.65579">
        <ele>1642.6</ele>
        <time>2020-07-28T07:16:45.772Z</time>
      </trkpt>
      <trkpt lat="44.15695" lon="6.65589">
        <ele>1642.4</ele>
        <time>2020-07-28T07:16:46.060Z</time>
      </trkpt>
      <trkpt lat="44.15694" lon="6.65597">
        <ele>1642.4</ele>
        <time>2020-07-28T07:16:46.275Z</time>
      </trkpt>
      <trkpt lat="44.15692" lon="6.65605">
        <ele>1642.3</ele>
        <time>2020-07-28T07:16:46.500Z</time>
      </trkpt>
      <trkpt lat="44.15691" lon="6.65612">
        <ele>1642.2</ele>
        <time>2020-07-28T07:16:46.690Z</time>
      </trkpt>
      <trkpt lat="44.15689" lon="6.6562">
        <ele>1642.3</ele>
        <time>2020-07-28T07:16:46.916Z</time>
      </trkpt>
      <trkpt lat="44.15688" lon="6.65629">
        <ele>1642.3</ele>
        <time>2020-07-28T07:16:47.157Z</time>
      </trkpt>
      <trkpt lat="44.15686" lon="6.65638">
        <ele>1642.2</ele>
        <time>2020-07-28T07:16:47.408Z</time>
      </trkpt>
      <trkpt lat="44.15684" lon="6.65649">
        <ele>1642.4</ele>
        <time>2020-07-28T07:16:47.710Z</time>
      </trkpt>
      <trkpt lat="44.15682" lon="6.6566">
        <ele>1642.6</ele>
        <time>2020-07-28T07:16:48.011Z</time>
      </trkpt>
      <trkpt lat="44.15679" lon="6.65671">
        <ele>1642.8</ele>
        <time>2020-07-28T07:16:48.325Z</time>
      </trkpt>
      <trkpt lat="44.15674" lon="6.65681">
        <ele>1643.4</ele>
        <time>2020-07-28T07:16:48.649Z</time>
      </trkpt>
      <trkpt lat="44.15669" lon="6.6569">
        <ele>1643.9</ele>
        <time>2020-07-28T07:16:48.953Z</time>
      </trkpt>
      <trkpt lat="44.15666" lon="6.657">
        <ele>1644.1</ele>
        <time>2020-07-28T07:16:49.241Z</time>
      </trkpt>
      <trkpt lat="44.15663" lon="6.65709">
        <ele>1644.6</ele>
        <time>2020-07-28T07:16:49.506Z</time>
      </trkpt>
      <trkpt lat="44.15659" lon="6.65714">
        <ele>1645.2</ele>
        <time>2020-07-28T07:16:49.705Z</time>
      </trkpt>
      <trkpt lat="44.15655" lon="6.65718">
        <ele>1645.7</ele>
        <time>2020-07-28T07:16:49.888Z</time>
      </trkpt>
      <trkpt lat="44.15652" lon="6.65724">
        <ele>1646.2</ele>
        <time>2020-07-28T07:16:50.081Z</time>
      </trkpt>
      <trkpt lat="44.15648" lon="6.65729">
        <ele>1646.6</ele>
        <time>2020-07-28T07:16:50.280Z</time>
      </trkpt>
      <trkpt lat="44.15645" lon="6.65734">
        <ele>1646.9</ele>
        <time>2020-07-28T07:16:50.453Z</time>
      </trkpt>
      <trkpt lat="44.15642" lon="6.65739">
        <ele>1647.1</ele>
        <time>2020-07-28T07:16:50.627Z</time>
      </trkpt>
      <trkpt lat="44.15639" lon="6.65746">
        <ele>1647.2</ele>
        <time>2020-07-28T07:16:50.843Z</time>
      </trkpt>
      <trkpt lat="44.15635" lon="6.65752">
        <ele>1647.5</ele>
        <time>2020-07-28T07:16:51.060Z</time>
      </trkpt>
      <trkpt lat="44.15631" lon="6.65758">
        <ele>1648</ele>
        <time>2020-07-28T07:16:51.278Z</time>
      </trkpt>
      <trkpt lat="44.15627" lon="6.65764">
        <ele>1648.3</ele>
        <time>2020-07-28T07:16:51.497Z</time>
      </trkpt>
      <trkpt lat="44.15624" lon="6.65769">
        <ele>1648.4</ele>
        <time>2020-07-28T07:16:51.671Z</time>
      </trkpt>
      <trkpt lat="44.15621" lon="6.65774">
        <ele>1648.5</ele>
        <time>2020-07-28T07:16:51.845Z</time>
      </trkpt>
      <trkpt lat="44.15619" lon="6.65781">
        <ele>1648.4</ele>
        <time>2020-07-28T07:16:52.044Z</time>
      </trkpt>
      <trkpt lat="44.15616" lon="6.65787">
        <ele>1648.4</ele>
        <time>2020-07-28T07:16:52.238Z</time>
      </trkpt>
      <trkpt lat="44.15612" lon="6.6579">
        <ele>1648.6</ele>
        <time>2020-07-28T07:16:52.405Z</time>
      </trkpt>
      <trkpt lat="44.15607" lon="6.65792">
        <ele>1649.1</ele>
        <time>2020-07-28T07:16:52.598Z</time>
      </trkpt>
      <trkpt lat="44.15604" lon="6.65796">
        <ele>1649.4</ele>
        <time>2020-07-28T07:16:52.752Z</time>
      </trkpt>
      <trkpt lat="44.156" lon="6.658">
        <ele>1649.8</ele>
        <time>2020-07-28T07:16:52.935Z</time>
      </trkpt>
      <trkpt lat="44.15593" lon="6.65802">
        <ele>1650.7</ele>
        <time>2020-07-28T07:16:53.201Z</time>
      </trkpt>
      <trkpt lat="44.15586" lon="6.65804">
        <ele>1651.7</ele>
        <time>2020-07-28T07:16:53.467Z</time>
      </trkpt>
      <trkpt lat="44.15579" lon="6.65806">
        <ele>1652.6</ele>
        <time>2020-07-28T07:16:53.733Z</time>
      </trkpt>
      <trkpt lat="44.15572" lon="6.65808">
        <ele>1653.5</ele>
        <time>2020-07-28T07:16:54Z</time>
      </trkpt>
      <trkpt lat="44.15565" lon="6.65806">
        <ele>1654.6</ele>
        <time>2020-07-28T07:17:02Z</time>
      </trkpt>
      <trkpt lat="44.15559" lon="6.65805">
        <ele>1655.5</ele>
        <time>2020-07-28T07:17:10Z</time>
      </trkpt>
      <trkpt lat="44.15552" lon="6.65806">
        <ele>1656.7</ele>
        <time>2020-07-28T07:17:16Z</time>
      </trkpt>
      <trkpt lat="44.15548" lon="6.65808">
        <ele>1657.5</ele>
        <time>2020-07-28T07:17:21Z</time>
      </trkpt>
      <trkpt lat="44.15543" lon="6.6581">
        <ele>1658.4</ele>
        <time>2020-07-28T07:17:28Z</time>
      </trkpt>
      <trkpt lat="44.15539" lon="6.65813">
        <ele>1659</ele>
        <time>2020-07-28T07:17:35Z</time>
      </trkpt>
      <trkpt lat="44.15533" lon="6.65817">
        <ele>1660</ele>
        <time>2020-07-28T07:17:43Z</time>
      </trkpt>
      <trkpt lat="44.1553" lon="6.65819">
        <ele>1660.6</ele>
        <time>2020-07-28T07:17:46Z</time>
      </trkpt>
      <trkpt lat="44.15522" lon="6.65819">
        <ele>1662.7</ele>
        <time>2020-07-28T07:17:55Z</time>
      </trkpt>
      <trkpt lat="44.15518" lon="6.65825">
        <ele>1663.4</ele>
        <time>2020-07-28T07:18:02Z</time>
      </trkpt>
      <trkpt lat="44.15516" lon="6.65831">
        <ele>1663.6</ele>
        <time>2020-07-28T07:18:06.499Z</time>
      </trkpt>
      <trkpt lat="44.15513" lon="6.65836">
        <ele>1664.1</ele>
        <time>2020-07-28T07:18:11Z</time>
      </trkpt>
      <trkpt lat="44.15511" lon="6.65845">
        <ele>1664.2</ele>
        <time>2020-07-28T07:18:19Z</time>
      </trkpt>
      <trkpt lat="44.15508" lon="6.65852">
        <ele>1664.8</ele>
        <time>2020-07-28T07:18:25Z</time>
      </trkpt>
      <trkpt lat="44.15507" lon="6.65855">
        <ele>1665</ele>
        <time>2020-07-28T07:18:27Z</time>
      </trkpt>
      <trkpt lat="44.15504" lon="6.65865">
        <ele>1665.5</ele>
        <time>2020-07-28T07:18:36Z</time>
      </trkpt>
      <trkpt lat="44.15502" lon="6.65873">
        <ele>1665.9</ele>
        <time>2020-07-28T07:18:44Z</time>
      </trkpt>
      <trkpt lat="44.15501" lon="6.65882">
        <ele>1665.9</ele>
        <time>2020-07-28T07:18:51Z</time>
      </trkpt>
      <trkpt lat="44.155" lon="6.65889">
        <ele>1666</ele>
        <time>2020-07-28T07:18:58Z</time>
      </trkpt>
      <trkpt lat="44.155" lon="6.65899">
        <ele>1666</ele>
        <time>2020-07-28T07:19:06Z</time>
      </trkpt>
      <trkpt lat="44.155" lon="6.65911">
        <ele>1666</ele>
        <time>2020-07-28T07:19:13Z</time>
      </trkpt>
      <trkpt lat="44.155" lon="6.65921">
        <ele>1666.2</ele>
        <time>2020-07-28T07:19:20Z</time>
      </trkpt>
      <trkpt lat="44.155" lon="6.65922">
        <ele>1666.2</ele>
        <time>2020-07-28T07:19:21Z</time>
      </trkpt>
      <trkpt lat="44.15502" lon="6.65933">
        <ele>1666</ele>
        <time>2020-07-28T07:19:29Z</time>
      </trkpt>
      <trkpt lat="44.15505" lon="6.65943">
        <ele>1665.5</ele>
        <time>2020-07-28T07:19:37Z</time>
      </trkpt>
      <trkpt lat="44.15506" lon="6.65951">
        <ele>1665.6</ele>
        <time>2020-07-28T07:19:42Z</time>
      </trkpt>
      <trkpt lat="44.15508" lon="6.65962">
        <ele>1665.7</ele>
        <time>2020-07-28T07:19:50Z</time>
      </trkpt>
      <trkpt lat="44.15511" lon="6.65973">
        <ele>1665.7</ele>
        <time>2020-07-28T07:19:58Z</time>
      </trkpt>
      <trkpt lat="44.15513" lon="6.65982">
        <ele>1665.9</ele>
        <time>2020-07-28T07:20:05Z</time>
      </trkpt>
      <trkpt lat="44.15514" lon="6.6599">
        <ele>1666.3</ele>
        <time>2020-07-28T07:20:09.500Z</time>
      </trkpt>
      <trkpt lat="44.15515" lon="6.65997">
        <ele>1666.5</ele>
        <time>2020-07-28T07:20:14Z</time>
      </trkpt>
      <trkpt lat="44.15517" lon="6.66004">
        <ele>1666.5</ele>
        <time>2020-07-28T07:20:20Z</time>
      </trkpt>
      <trkpt lat="44.15519" lon="6.66016">
        <ele>1666.5</ele>
        <time>2020-07-28T07:20:29Z</time>
      </trkpt>
      <trkpt lat="44.1552" lon="6.66023">
        <ele>1666.5</ele>
        <time>2020-07-28T07:20:35Z</time>
      </trkpt>
      <trkpt lat="44.15521" lon="6.66034">
        <ele>1666.9</ele>
        <time>2020-07-28T07:20:43Z</time>
      </trkpt>
      <trkpt lat="44.15522" lon="6.66045">
        <ele>1667.4</ele>
        <time>2020-07-28T07:20:51Z</time>
      </trkpt>
      <trkpt lat="44.15524" lon="6.66055">
        <ele>1667.6</ele>
        <time>2020-07-28T07:20:58Z</time>
      </trkpt>
      <trkpt lat="44.15525" lon="6.66062">
        <ele>1667.7</ele>
        <time>2020-07-28T07:21:02.500Z</time>
      </trkpt>
      <trkpt lat="44.15526" lon="6.66068">
        <ele>1667.7</ele>
        <time>2020-07-28T07:21:07Z</time>
      </trkpt>
      <trkpt lat="44.15527" lon="6.66075">
        <ele>1667.8</ele>
        <time>2020-07-28T07:21:10.500Z</time>
      </trkpt>
      <trkpt lat="44.15527" lon="6.66081">
        <ele>1668</ele>
        <time>2020-07-28T07:21:14Z</time>
      </trkpt>
      <trkpt lat="44.15528" lon="6.6609">
        <ele>1668.2</ele>
        <time>2020-07-28T07:21:22Z</time>
      </trkpt>
      <trkpt lat="44.15526" lon="6.66099">
        <ele>1668.8</ele>
        <time>2020-07-28T07:21:28Z</time>
      </trkpt>
      <trkpt lat="44.15524" lon="6.6611">
        <ele>1669.5</ele>
        <time>2020-07-28T07:21:36Z</time>
      </trkpt>
      <trkpt lat="44.15522" lon="6.66118">
        <ele>1670.2</ele>
        <time>2020-07-28T07:21:40.999Z</time>
      </trkpt>
      <trkpt lat="44.1552" lon="6.66126">
        <ele>1670.9</ele>
        <time>2020-07-28T07:21:46Z</time>
      </trkpt>
      <trkpt lat="44.15517" lon="6.66136">
        <ele>1671.6</ele>
        <time>2020-07-28T07:21:54Z</time>
      </trkpt>
      <trkpt lat="44.15514" lon="6.66144">
        <ele>1672.1</ele>
        <time>2020-07-28T07:22:00Z</time>
      </trkpt>
      <trkpt lat="44.15509" lon="6.66152">
        <ele>1672.5</ele>
        <time>2020-07-28T07:22:08Z</time>
      </trkpt>
      <trkpt lat="44.15506" lon="6.6616">
        <ele>1672.7</ele>
        <time>2020-07-28T07:22:15Z</time>
      </trkpt>
      <trkpt lat="44.15503" lon="6.66166">
        <ele>1672.9</ele>
        <time>2020-07-28T07:22:18.999Z</time>
      </trkpt>
      <trkpt lat="44.155" lon="6.66171">
        <ele>1673</ele>
        <time>2020-07-28T07:22:23Z</time>
      </trkpt>
      <trkpt lat="44.15496" lon="6.66182">
        <ele>1673.4</ele>
        <time>2020-07-28T07:22:31Z</time>
      </trkpt>
      <trkpt lat="44.15493" lon="6.66189">
        <ele>1673.6</ele>
        <time>2020-07-28T07:22:35.499Z</time>
      </trkpt>
      <trkpt lat="44.1549" lon="6.66195">
        <ele>1673.7</ele>
        <time>2020-07-28T07:22:40Z</time>
      </trkpt>
      <trkpt lat="44.15486" lon="6.66203">
        <ele>1674</ele>
        <time>2020-07-28T07:22:47Z</time>
      </trkpt>
      <trkpt lat="44.1548" lon="6.66212">
        <ele>1674.2</ele>
        <time>2020-07-28T07:22:55Z</time>
      </trkpt>
      <trkpt lat="44.15477" lon="6.66219">
        <ele>1674.1</ele>
        <time>2020-07-28T07:23:01Z</time>
      </trkpt>
      <trkpt lat="44.15472" lon="6.66227">
        <ele>1674</ele>
        <time>2020-07-28T07:23:09Z</time>
      </trkpt>
      <trkpt lat="44.1547" lon="6.66233">
        <ele>1674.2</ele>
        <time>2020-07-28T07:23:16Z</time>
      </trkpt>
      <trkpt lat="44.15471" lon="6.66238">
        <ele>1674.1</ele>
        <time>2020-07-28T07:23:23Z</time>
      </trkpt>
      <trkpt lat="44.15469" lon="6.66241">
        <ele>1674.2</ele>
        <time>2020-07-28T07:23:26Z</time>
      </trkpt>
      <trkpt lat="44.15463" lon="6.66247">
        <ele>1674.4</ele>
        <time>2020-07-28T07:23:29.999Z</time>
      </trkpt>
      <trkpt lat="44.15456" lon="6.66252">
        <ele>1674.6</ele>
        <time>2020-07-28T07:23:34Z</time>
      </trkpt>
      <trkpt lat="44.1545" lon="6.66257">
        <ele>1674.6</ele>
        <time>2020-07-28T07:23:39Z</time>
      </trkpt>
      <trkpt lat="44.15445" lon="6.66261">
        <ele>1674.6</ele>
        <time>2020-07-28T07:23:42.999Z</time>
      </trkpt>
      <trkpt lat="44.1544" lon="6.66265">
        <ele>1674.9</ele>
        <time>2020-07-28T07:23:47Z</time>
      </trkpt>
      <trkpt lat="44.15436" lon="6.66269">
        <ele>1675</ele>
        <time>2020-07-28T07:23:50.499Z</time>
      </trkpt>
      <trkpt lat="44.15432" lon="6.66272">
        <ele>1675.2</ele>
        <time>2020-07-28T07:23:54Z</time>
      </trkpt>
      <trkpt lat="44.15428" lon="6.66278">
        <ele>1675.2</ele>
        <time>2020-07-28T07:23:58.999Z</time>
      </trkpt>
      <trkpt lat="44.15423" lon="6.66283">
        <ele>1675.4</ele>
        <time>2020-07-28T07:24:04Z</time>
      </trkpt>
      <trkpt lat="44.15419" lon="6.66289">
        <ele>1675.5</ele>
        <time>2020-07-28T07:24:08.499Z</time>
      </trkpt>
      <trkpt lat="44.15415" lon="6.66294">
        <ele>1675.6</ele>
        <time>2020-07-28T07:24:13Z</time>
      </trkpt>
      <trkpt lat="44.15411" lon="6.66301">
        <ele>1675.8</ele>
        <time>2020-07-28T07:24:20Z</time>
      </trkpt>
      <trkpt lat="44.15405" lon="6.6631">
        <ele>1676.2</ele>
        <time>2020-07-28T07:24:28Z</time>
      </trkpt>
      <trkpt lat="44.15399" lon="6.66318">
        <ele>1676.6</ele>
        <time>2020-07-28T07:24:35Z</time>
      </trkpt>
      <trkpt lat="44.15396" lon="6.66323">
        <ele>1676.8</ele>
        <time>2020-07-28T07:24:39.499Z</time>
      </trkpt>
      <trkpt lat="44.15393" lon="6.66328">
        <ele>1676.9</ele>
        <time>2020-07-28T07:24:44Z</time>
      </trkpt>
      <trkpt lat="44.15389" lon="6.66333">
        <ele>1677</ele>
        <time>2020-07-28T07:24:48.499Z</time>
      </trkpt>
      <trkpt lat="44.15384" lon="6.66337">
        <ele>1677.7</ele>
        <time>2020-07-28T07:24:53Z</time>
      </trkpt>
      <trkpt lat="44.15382" lon="6.66341">
        <ele>1677.9</ele>
        <time>2020-07-28T07:24:56Z</time>
      </trkpt>
      <trkpt lat="44.15377" lon="6.66347">
        <ele>1678.3</ele>
        <time>2020-07-28T07:25:02Z</time>
      </trkpt>
      <trkpt lat="44.15373" lon="6.66352">
        <ele>1678.5</ele>
        <time>2020-07-28T07:25:06.999Z</time>
      </trkpt>
      <trkpt lat="44.15368" lon="6.66356">
        <ele>1678.8</ele>
        <time>2020-07-28T07:25:12Z</time>
      </trkpt>
      <trkpt lat="44.15361" lon="6.66363">
        <ele>1679</ele>
        <time>2020-07-28T07:25:21Z</time>
      </trkpt>
      <trkpt lat="44.15356" lon="6.66371">
        <ele>1679.5</ele>
        <time>2020-07-28T07:25:30Z</time>
      </trkpt>
      <trkpt lat="44.15351" lon="6.66376">
        <ele>1680.1</ele>
        <time>2020-07-28T07:25:36Z</time>
      </trkpt>
      <trkpt lat="44.15347" lon="6.6638">
        <ele>1680.5</ele>
        <time>2020-07-28T07:25:39.499Z</time>
      </trkpt>
      <trkpt lat="44.15343" lon="6.66384">
        <ele>1680.9</ele>
        <time>2020-07-28T07:25:43Z</time>
      </trkpt>
      <trkpt lat="44.15337" lon="6.66392">
        <ele>1681.2</ele>
        <time>2020-07-28T07:25:51Z</time>
      </trkpt>
      <trkpt lat="44.15332" lon="6.664">
        <ele>1681</ele>
        <time>2020-07-28T07:25:59Z</time>
      </trkpt>
      <trkpt lat="44.15329" lon="6.66405">
        <ele>1680.9</ele>
        <time>2020-07-28T07:26:02.499Z</time>
      </trkpt>
      <trkpt lat="44.15325" lon="6.66409">
        <ele>1681.1</ele>
        <time>2020-07-28T07:26:06Z</time>
      </trkpt>
      <trkpt lat="44.1532" lon="6.66413">
        <ele>1681.4</ele>
        <time>2020-07-28T07:26:12Z</time>
      </trkpt>
      <trkpt lat="44.15316" lon="6.66417">
        <ele>1681.5</ele>
        <time>2020-07-28T07:26:15.499Z</time>
      </trkpt>
      <trkpt lat="44.15311" lon="6.6642">
        <ele>1681.8</ele>
        <time>2020-07-28T07:26:19Z</time>
      </trkpt>
      <trkpt lat="44.15309" lon="6.66425">
        <ele>1681.5</ele>
        <time>2020-07-28T07:26:22Z</time>
      </trkpt>
      <trkpt lat="44.15312" lon="6.66436">
        <ele>1679.9</ele>
        <time>2020-07-28T07:26:28Z</time>
      </trkpt>
      <trkpt lat="44.15314" lon="6.66444">
        <ele>1679</ele>
        <time>2020-07-28T07:26:33.500Z</time>
      </trkpt>
      <trkpt lat="44.15315" lon="6.66452">
        <ele>1679.1</ele>
        <time>2020-07-28T07:26:39Z</time>
      </trkpt>
      <trkpt lat="44.15314" lon="6.66459">
        <ele>1679.2</ele>
        <time>2020-07-28T07:26:43.499Z</time>
      </trkpt>
      <trkpt lat="44.15313" lon="6.66465">
        <ele>1679.2</ele>
        <time>2020-07-28T07:26:48Z</time>
      </trkpt>
      <trkpt lat="44.15312" lon="6.66474">
        <ele>1679.4</ele>
        <time>2020-07-28T07:26:53.499Z</time>
      </trkpt>
      <trkpt lat="44.15311" lon="6.66483">
        <ele>1680</ele>
        <time>2020-07-28T07:26:59Z</time>
      </trkpt>
      <trkpt lat="44.15312" lon="6.66491">
        <ele>1680.6</ele>
        <time>2020-07-28T07:27:04.000Z</time>
      </trkpt>
      <trkpt lat="44.15312" lon="6.66499">
        <ele>1681.2</ele>
        <time>2020-07-28T07:27:09Z</time>
      </trkpt>
      <trkpt lat="44.15314" lon="6.6651">
        <ele>1681.8</ele>
        <time>2020-07-28T07:27:16Z</time>
      </trkpt>
      <trkpt lat="44.15315" lon="6.66517">
        <ele>1682.2</ele>
        <time>2020-07-28T07:27:20.000Z</time>
      </trkpt>
      <trkpt lat="44.15316" lon="6.66523">
        <ele>1682.5</ele>
        <time>2020-07-28T07:27:24Z</time>
      </trkpt>
      <trkpt lat="44.15318" lon="6.66533">
        <ele>1683.3</ele>
        <time>2020-07-28T07:27:32Z</time>
      </trkpt>
      <trkpt lat="44.15319" lon="6.66539">
        <ele>1683.8</ele>
        <time>2020-07-28T07:27:36Z</time>
      </trkpt>
      <trkpt lat="44.15316" lon="6.6655">
        <ele>1684.4</ele>
        <time>2020-07-28T07:27:45Z</time>
      </trkpt>
      <trkpt lat="44.15314" lon="6.66556">
        <ele>1684.6</ele>
        <time>2020-07-28T07:27:49.499Z</time>
      </trkpt>
      <trkpt lat="44.15312" lon="6.66562">
        <ele>1684.9</ele>
        <time>2020-07-28T07:27:54Z</time>
      </trkpt>
      <trkpt lat="44.15311" lon="6.66569">
        <ele>1685.4</ele>
        <time>2020-07-28T07:27:58.499Z</time>
      </trkpt>
      <trkpt lat="44.1531" lon="6.66575">
        <ele>1685.7</ele>
        <time>2020-07-28T07:28:03Z</time>
      </trkpt>
      <trkpt lat="44.15309" lon="6.66584">
        <ele>1686.3</ele>
        <time>2020-07-28T07:28:10Z</time>
      </trkpt>
      <trkpt lat="44.1531" lon="6.66591">
        <ele>1687</ele>
        <time>2020-07-28T07:28:14.000Z</time>
      </trkpt>
      <trkpt lat="44.1531" lon="6.66597">
        <ele>1687.5</ele>
        <time>2020-07-28T07:28:18Z</time>
      </trkpt>
      <trkpt lat="44.15311" lon="6.66608">
        <ele>1688.5</ele>
        <time>2020-07-28T07:28:27Z</time>
      </trkpt>
      <trkpt lat="44.15309" lon="6.66617">
        <ele>1689.2</ele>
        <time>2020-07-28T07:28:34Z</time>
      </trkpt>
      <trkpt lat="44.15309" lon="6.6662">
        <ele>1689.5</ele>
        <time>2020-07-28T07:28:36Z</time>
      </trkpt>
      <trkpt lat="44.15307" lon="6.66629">
        <ele>1690.2</ele>
        <time>2020-07-28T07:28:44Z</time>
      </trkpt>
      <trkpt lat="44.15305" lon="6.66639">
        <ele>1691</ele>
        <time>2020-07-28T07:28:51Z</time>
      </trkpt>
      <trkpt lat="44.15303" lon="6.66648">
        <ele>1691.6</ele>
        <time>2020-07-28T07:28:59Z</time>
      </trkpt>
      <trkpt lat="44.15299" lon="6.66658">
        <ele>1692</ele>
        <time>2020-07-28T07:29:07Z</time>
      </trkpt>
      <trkpt lat="44.15298" lon="6.66665">
        <ele>1692.5</ele>
        <time>2020-07-28T07:29:11.499Z</time>
      </trkpt>
      <trkpt lat="44.15297" lon="6.66671">
        <ele>1692.7</ele>
        <time>2020-07-28T07:29:16Z</time>
      </trkpt>
      <trkpt lat="44.15294" lon="6.6668">
        <ele>1692.6</ele>
        <time>2020-07-28T07:29:23Z</time>
      </trkpt>
      <trkpt lat="44.15293" lon="6.66688">
        <ele>1692.9</ele>
        <time>2020-07-28T07:29:30Z</time>
      </trkpt>
      <trkpt lat="44.15292" lon="6.66699">
        <ele>1693.3</ele>
        <time>2020-07-28T07:29:38Z</time>
      </trkpt>
      <trkpt lat="44.15293" lon="6.66704">
        <ele>1693.7</ele>
        <time>2020-07-28T07:29:46Z</time>
      </trkpt>
      <trkpt lat="44.15293" lon="6.66708">
        <ele>1693.9</ele>
        <time>2020-07-28T07:29:54Z</time>
      </trkpt>
      <trkpt lat="44.15292" lon="6.66718">
        <ele>1694.3</ele>
        <time>2020-07-28T07:30:02Z</time>
      </trkpt>
      <trkpt lat="44.15288" lon="6.66728">
        <ele>1694.4</ele>
        <time>2020-07-28T07:30:11Z</time>
      </trkpt>
      <trkpt lat="44.15285" lon="6.66734">
        <ele>1694.3</ele>
        <time>2020-07-28T07:30:15.999Z</time>
      </trkpt>
      <trkpt lat="44.15281" lon="6.6674">
        <ele>1694.1</ele>
        <time>2020-07-28T07:30:21Z</time>
      </trkpt>
      <trkpt lat="44.15277" lon="6.66744">
        <ele>1693.7</ele>
        <time>2020-07-28T07:30:25.499Z</time>
      </trkpt>
      <trkpt lat="44.15272" lon="6.66747">
        <ele>1693.5</ele>
        <time>2020-07-28T07:30:30Z</time>
      </trkpt>
      <trkpt lat="44.15265" lon="6.66754">
        <ele>1693.3</ele>
        <time>2020-07-28T07:30:37Z</time>
      </trkpt>
      <trkpt lat="44.1526" lon="6.6676">
        <ele>1693.2</ele>
        <time>2020-07-28T07:30:43Z</time>
      </trkpt>
      <trkpt lat="44.15254" lon="6.66768">
        <ele>1693</ele>
        <time>2020-07-28T07:30:50Z</time>
      </trkpt>
      <trkpt lat="44.15252" lon="6.66772">
        <ele>1693</ele>
        <time>2020-07-28T07:30:53Z</time>
      </trkpt>
      <trkpt lat="44.15252" lon="6.66783">
        <ele>1693.4</ele>
        <time>2020-07-28T07:31:00Z</time>
      </trkpt>
      <trkpt lat="44.15253" lon="6.6679">
        <ele>1693.8</ele>
        <time>2020-07-28T07:31:06Z</time>
      </trkpt>
      <trkpt lat="44.15253" lon="6.66799">
        <ele>1694.2</ele>
        <time>2020-07-28T07:31:13Z</time>
      </trkpt>
      <trkpt lat="44.15251" lon="6.66806">
        <ele>1694.2</ele>
        <time>2020-07-28T07:31:17Z</time>
      </trkpt>
      <trkpt lat="44.15249" lon="6.66817">
        <ele>1694.3</ele>
        <time>2020-07-28T07:31:24Z</time>
      </trkpt>
      <trkpt lat="44.15248" lon="6.66821">
        <ele>1694.3</ele>
        <time>2020-07-28T07:31:31Z</time>
      </trkpt>
      <trkpt lat="44.15245" lon="6.66828">
        <ele>1694.3</ele>
        <time>2020-07-28T07:31:36Z</time>
      </trkpt>
      <trkpt lat="44.15243" lon="6.66835">
        <ele>1694.4</ele>
        <time>2020-07-28T07:31:40.499Z</time>
      </trkpt>
      <trkpt lat="44.15241" lon="6.66841">
        <ele>1694.8</ele>
        <time>2020-07-28T07:31:45Z</time>
      </trkpt>
      <trkpt lat="44.15239" lon="6.66847">
        <ele>1695.1</ele>
        <time>2020-07-28T07:31:48.999Z</time>
      </trkpt>
      <trkpt lat="44.15236" lon="6.66852">
        <ele>1695.2</ele>
        <time>2020-07-28T07:31:53Z</time>
      </trkpt>
      <trkpt lat="44.15233" lon="6.66857">
        <ele>1695.2</ele>
        <time>2020-07-28T07:31:56.999Z</time>
      </trkpt>
      <trkpt lat="44.15229" lon="6.66862">
        <ele>1695.1</ele>
        <time>2020-07-28T07:32:01Z</time>
      </trkpt>
      <trkpt lat="44.15225" lon="6.66869">
        <ele>1695.3</ele>
        <time>2020-07-28T07:32:07Z</time>
      </trkpt>
      <trkpt lat="44.15222" lon="6.66874">
        <ele>1695.4</ele>
        <time>2020-07-28T07:32:10.999Z</time>
      </trkpt>
      <trkpt lat="44.15218" lon="6.66878">
        <ele>1695.4</ele>
        <time>2020-07-28T07:32:15Z</time>
      </trkpt>
      <trkpt lat="44.15215" lon="6.66883">
        <ele>1695.6</ele>
        <time>2020-07-28T07:32:18.499Z</time>
      </trkpt>
      <trkpt lat="44.15212" lon="6.66888">
        <ele>1695.8</ele>
        <time>2020-07-28T07:32:22Z</time>
      </trkpt>
      <trkpt lat="44.15207" lon="6.66896">
        <ele>1696.5</ele>
        <time>2020-07-28T07:32:28Z</time>
      </trkpt>
      <trkpt lat="44.15206" lon="6.66899">
        <ele>1696.8</ele>
        <time>2020-07-28T07:32:30Z</time>
      </trkpt>
      <trkpt lat="44.152" lon="6.66908">
        <ele>1697.1</ele>
        <time>2020-07-28T07:32:38Z</time>
      </trkpt>
      <trkpt lat="44.15195" lon="6.66916">
        <ele>1697</ele>
        <time>2020-07-28T07:32:45Z</time>
      </trkpt>
      <trkpt lat="44.1519" lon="6.66922">
        <ele>1697.2</ele>
        <time>2020-07-28T07:32:51Z</time>
      </trkpt>
      <trkpt lat="44.15187" lon="6.66924">
        <ele>1697.1</ele>
        <time>2020-07-28T07:32:54Z</time>
      </trkpt>
      <trkpt lat="44.15181" lon="6.66932">
        <ele>1697.2</ele>
        <time>2020-07-28T07:33:02Z</time>
      </trkpt>
      <trkpt lat="44.15176" lon="6.6694">
        <ele>1697.3</ele>
        <time>2020-07-28T07:33:09Z</time>
      </trkpt>
      <trkpt lat="44.15174" lon="6.66944">
        <ele>1697.3</ele>
        <time>2020-07-28T07:33:12Z</time>
      </trkpt>
      <trkpt lat="44.15169" lon="6.66954">
        <ele>1697.5</ele>
        <time>2020-07-28T07:33:21Z</time>
      </trkpt>
      <trkpt lat="44.15166" lon="6.66961">
        <ele>1697.7</ele>
        <time>2020-07-28T07:33:28Z</time>
      </trkpt>
      <trkpt lat="44.15162" lon="6.66971">
        <ele>1698.5</ele>
        <time>2020-07-28T07:33:35Z</time>
      </trkpt>
      <trkpt lat="44.15159" lon="6.66977">
        <ele>1698.9</ele>
        <time>2020-07-28T07:33:39.499Z</time>
      </trkpt>
      <trkpt lat="44.15156" lon="6.66983">
        <ele>1699.2</ele>
        <time>2020-07-28T07:33:44Z</time>
      </trkpt>
      <trkpt lat="44.15153" lon="6.66992">
        <ele>1699.8</ele>
        <time>2020-07-28T07:33:51Z</time>
      </trkpt>
      <trkpt lat="44.15148" lon="6.67002">
        <ele>1700.1</ele>
        <time>2020-07-28T07:33:59Z</time>
      </trkpt>
      <trkpt lat="44.15142" lon="6.67009">
        <ele>1700</ele>
        <time>2020-07-28T07:34:07Z</time>
      </trkpt>
      <trkpt lat="44.15138" lon="6.67016">
        <ele>1700.1</ele>
        <time>2020-07-28T07:34:13Z</time>
      </trkpt>
      <trkpt lat="44.15136" lon="6.67028">
        <ele>1700.8</ele>
        <time>2020-07-28T07:34:21Z</time>
      </trkpt>
      <trkpt lat="44.15132" lon="6.67038">
        <ele>1700.9</ele>
        <time>2020-07-28T07:34:29Z</time>
      </trkpt>
      <trkpt lat="44.15131" lon="6.67048">
        <ele>1701.2</ele>
        <time>2020-07-28T07:34:37Z</time>
      </trkpt>
      <trkpt lat="44.15133" lon="6.67056">
        <ele>1701.6</ele>
        <time>2020-07-28T07:34:43Z</time>
      </trkpt>
      <trkpt lat="44.15136" lon="6.67067">
        <ele>1702.6</ele>
        <time>2020-07-28T07:34:51Z</time>
      </trkpt>
      <trkpt lat="44.15139" lon="6.67076">
        <ele>1703.5</ele>
        <time>2020-07-28T07:34:58Z</time>
      </trkpt>
      <trkpt lat="44.15145" lon="6.67084">
        <ele>1704.7</ele>
        <time>2020-07-28T07:35:08Z</time>
      </trkpt>
      <trkpt lat="44.15149" lon="6.6709">
        <ele>1705.3</ele>
        <time>2020-07-28T07:35:15Z</time>
      </trkpt>
      <trkpt lat="44.15153" lon="6.67097">
        <ele>1706</ele>
        <time>2020-07-28T07:35:23Z</time>
      </trkpt>
      <trkpt lat="44.15158" lon="6.67103">
        <ele>1706.8</ele>
        <time>2020-07-28T07:35:30Z</time>
      </trkpt>
      <trkpt lat="44.15162" lon="6.6711">
        <ele>1707.5</ele>
        <time>2020-07-28T07:35:38Z</time>
      </trkpt>
      <trkpt lat="44.15164" lon="6.67115">
        <ele>1708</ele>
        <time>2020-07-28T07:35:43Z</time>
      </trkpt>
      <trkpt lat="44.15165" lon="6.6712">
        <ele>1708.5</ele>
        <time>2020-07-28T07:35:48Z</time>
      </trkpt>
      <trkpt lat="44.15166" lon="6.67127">
        <ele>1709.1</ele>
        <time>2020-07-28T07:35:52.500Z</time>
      </trkpt>
      <trkpt lat="44.15166" lon="6.67133">
        <ele>1709.5</ele>
        <time>2020-07-28T07:35:57Z</time>
      </trkpt>
      <trkpt lat="44.15167" lon="6.67141">
        <ele>1710.1</ele>
        <time>2020-07-28T07:36:04Z</time>
      </trkpt>
      <trkpt lat="44.15167" lon="6.67148">
        <ele>1710.4</ele>
        <time>2020-07-28T07:36:10Z</time>
      </trkpt>
      <trkpt lat="44.15166" lon="6.67156">
        <ele>1710.6</ele>
        <time>2020-07-28T07:36:17Z</time>
      </trkpt>
      <trkpt lat="44.15163" lon="6.67162">
        <ele>1710.5</ele>
        <time>2020-07-28T07:36:22Z</time>
      </trkpt>
      <trkpt lat="44.1516" lon="6.67172">
        <ele>1711.1</ele>
        <time>2020-07-28T07:36:30Z</time>
      </trkpt>
      <trkpt lat="44.15156" lon="6.6718">
        <ele>1711.7</ele>
        <time>2020-07-28T07:36:37Z</time>
      </trkpt>
      <trkpt lat="44.15153" lon="6.67189">
        <ele>1712.4</ele>
        <time>2020-07-28T07:36:45Z</time>
      </trkpt>
      <trkpt lat="44.15153" lon="6.67197">
        <ele>1713.4</ele>
        <time>2020-07-28T07:36:51Z</time>
      </trkpt>
      <trkpt lat="44.15152" lon="6.67205">
        <ele>1714.5</ele>
        <time>2020-07-28T07:36:58Z</time>
      </trkpt>
      <trkpt lat="44.15154" lon="6.6721">
        <ele>1715.3</ele>
        <time>2020-07-28T07:37:03Z</time>
      </trkpt>
      <trkpt lat="44.15156" lon="6.67216">
        <ele>1716.2</ele>
        <time>2020-07-28T07:37:09Z</time>
      </trkpt>
      <trkpt lat="44.15159" lon="6.67225">
        <ele>1717.6</ele>
        <time>2020-07-28T07:37:17Z</time>
      </trkpt>
      <trkpt lat="44.15162" lon="6.67228">
        <ele>1718.2</ele>
        <time>2020-07-28T07:37:22Z</time>
      </trkpt>
      <trkpt lat="44.1517" lon="6.67228">
        <ele>1719</ele>
        <time>2020-07-28T07:37:32Z</time>
      </trkpt>
      <trkpt lat="44.15175" lon="6.67224">
        <ele>1719.2</ele>
        <time>2020-07-28T07:37:38Z</time>
      </trkpt>
      <trkpt lat="44.1518" lon="6.6722">
        <ele>1719.6</ele>
        <time>2020-07-28T07:37:45Z</time>
      </trkpt>
      <trkpt lat="44.15186" lon="6.67213">
        <ele>1719.9</ele>
        <time>2020-07-28T07:37:53Z</time>
      </trkpt>
      <trkpt lat="44.15191" lon="6.67209">
        <ele>1720.4</ele>
        <time>2020-07-28T07:37:57.000Z</time>
      </trkpt>
      <trkpt lat="44.15196" lon="6.67204">
        <ele>1721</ele>
        <time>2020-07-28T07:38:01Z</time>
      </trkpt>
      <trkpt lat="44.152" lon="6.67196">
        <ele>1721.4</ele>
        <time>2020-07-28T07:38:08Z</time>
      </trkpt>
      <trkpt lat="44.15203" lon="6.67191">
        <ele>1722</ele>
        <time>2020-07-28T07:38:14Z</time>
      </trkpt>
      <trkpt lat="44.15209" lon="6.67183">
        <ele>1723.3</ele>
        <time>2020-07-28T07:38:21Z</time>
      </trkpt>
      <trkpt lat="44.15212" lon="6.67178">
        <ele>1723.8</ele>
        <time>2020-07-28T07:38:25.500Z</time>
      </trkpt>
      <trkpt lat="44.15215" lon="6.67172">
        <ele>1724.1</ele>
        <time>2020-07-28T07:38:30Z</time>
      </trkpt>
      <trkpt lat="44.1522" lon="6.67164">
        <ele>1724.8</ele>
        <time>2020-07-28T07:38:37Z</time>
      </trkpt>
      <trkpt lat="44.15224" lon="6.67156">
        <ele>1725.3</ele>
        <time>2020-07-28T07:38:45Z</time>
      </trkpt>
      <trkpt lat="44.15229" lon="6.67151">
        <ele>1726.8</ele>
        <time>2020-07-28T07:38:51Z</time>
      </trkpt>
      <trkpt lat="44.15234" lon="6.67142">
        <ele>1727.6</ele>
        <time>2020-07-28T07:39:00Z</time>
      </trkpt>
      <trkpt lat="44.15237" lon="6.67132">
        <ele>1727.8</ele>
        <time>2020-07-28T07:39:07Z</time>
      </trkpt>
      <trkpt lat="44.1524" lon="6.67127">
        <ele>1728.6</ele>
        <time>2020-07-28T07:39:15Z</time>
      </trkpt>
      <trkpt lat="44.15243" lon="6.67117">
        <ele>1728.8</ele>
        <time>2020-07-28T07:39:25Z</time>
      </trkpt>
      <trkpt lat="44.15244" lon="6.67105">
        <ele>1728.3</ele>
        <time>2020-07-28T07:39:31Z</time>
      </trkpt>
      <trkpt lat="44.15245" lon="6.67098">
        <ele>1728.2</ele>
        <time>2020-07-28T07:39:36.000Z</time>
      </trkpt>
      <trkpt lat="44.15246" lon="6.67091">
        <ele>1728.2</ele>
        <time>2020-07-28T07:39:41Z</time>
      </trkpt>
      <trkpt lat="44.15248" lon="6.67083">
        <ele>1728.4</ele>
        <time>2020-07-28T07:39:48Z</time>
      </trkpt>
      <trkpt lat="44.1525" lon="6.67075">
        <ele>1729</ele>
        <time>2020-07-28T07:39:56Z</time>
      </trkpt>
      <trkpt lat="44.15255" lon="6.67067">
        <ele>1730.9</ele>
        <time>2020-07-28T07:40:04Z</time>
      </trkpt>
      <trkpt lat="44.15257" lon="6.67057">
        <ele>1731.5</ele>
        <time>2020-07-28T07:40:13Z</time>
      </trkpt>
      <trkpt lat="44.1526" lon="6.67046">
        <ele>1732.3</ele>
        <time>2020-07-28T07:40:21Z</time>
      </trkpt>
      <trkpt lat="44.15263" lon="6.6704">
        <ele>1733.1</ele>
        <time>2020-07-28T07:40:28Z</time>
      </trkpt>
      <trkpt lat="44.15266" lon="6.67032">
        <ele>1733.9</ele>
        <time>2020-07-28T07:40:36Z</time>
      </trkpt>
      <trkpt lat="44.15269" lon="6.67022">
        <ele>1734.3</ele>
        <time>2020-07-28T07:40:44Z</time>
      </trkpt>
      <trkpt lat="44.15271" lon="6.67017">
        <ele>1734.6</ele>
        <time>2020-07-28T07:40:51Z</time>
      </trkpt>
      <trkpt lat="44.15275" lon="6.67011">
        <ele>1735.3</ele>
        <time>2020-07-28T07:41:00Z</time>
      </trkpt>
      <trkpt lat="44.15278" lon="6.6701">
        <ele>1736.2</ele>
        <time>2020-07-28T07:41:07Z</time>
      </trkpt>
      <trkpt lat="44.15283" lon="6.67011">
        <ele>1738</ele>
        <time>2020-07-28T07:41:16Z</time>
      </trkpt>
      <trkpt lat="44.15289" lon="6.6701">
        <ele>1739.9</ele>
        <time>2020-07-28T07:41:24Z</time>
      </trkpt>
      <trkpt lat="44.15293" lon="6.67009">
        <ele>1741.1</ele>
        <time>2020-07-28T07:41:32Z</time>
      </trkpt>
      <trkpt lat="44.15298" lon="6.67004">
        <ele>1742.1</ele>
        <time>2020-07-28T07:41:41Z</time>
      </trkpt>
      <trkpt lat="44.15303" lon="6.67001">
        <ele>1743.3</ele>
        <time>2020-07-28T07:41:45.500Z</time>
      </trkpt>
      <trkpt lat="44.15308" lon="6.66998">
        <ele>1744.6</ele>
        <time>2020-07-28T07:41:50Z</time>
      </trkpt>
      <trkpt lat="44.15312" lon="6.66993">
        <ele>1745.3</ele>
        <time>2020-07-28T07:41:54.000Z</time>
      </trkpt>
      <trkpt lat="44.15315" lon="6.66988">
        <ele>1745.5</ele>
        <time>2020-07-28T07:41:58Z</time>
      </trkpt>
      <trkpt lat="44.15319" lon="6.66977">
        <ele>1745.1</ele>
        <time>2020-07-28T07:42:06Z</time>
      </trkpt>
      <trkpt lat="44.15325" lon="6.66969">
        <ele>1745.6</ele>
        <time>2020-07-28T07:42:14Z</time>
      </trkpt>
      <trkpt lat="44.15327" lon="6.66963">
        <ele>1745</ele>
        <time>2020-07-28T07:42:23Z</time>
      </trkpt>
      <trkpt lat="44.1533" lon="6.6697">
        <ele>1747.4</ele>
        <time>2020-07-28T07:42:31Z</time>
      </trkpt>
      <trkpt lat="44.15331" lon="6.66979">
        <ele>1749.4</ele>
        <time>2020-07-28T07:42:39Z</time>
      </trkpt>
      <trkpt lat="44.15329" lon="6.66985">
        <ele>1749.8</ele>
        <time>2020-07-28T07:42:46Z</time>
      </trkpt>
      <trkpt lat="44.15328" lon="6.66996">
        <ele>1751.4</ele>
        <time>2020-07-28T07:42:55Z</time>
      </trkpt>
      <trkpt lat="44.15328" lon="6.67006">
        <ele>1753.1</ele>
        <time>2020-07-28T07:43:04Z</time>
      </trkpt>
      <trkpt lat="44.15327" lon="6.67016">
        <ele>1754.5</ele>
        <time>2020-07-28T07:43:15Z</time>
      </trkpt>
      <trkpt lat="44.15324" lon="6.67025">
        <ele>1754.8</ele>
        <time>2020-07-28T07:43:22Z</time>
      </trkpt>
      <trkpt lat="44.15322" lon="6.67035">
        <ele>1755.4</ele>
        <time>2020-07-28T07:43:30Z</time>
      </trkpt>
      <trkpt lat="44.1532" lon="6.67039">
        <ele>1755.1</ele>
        <time>2020-07-28T07:43:37Z</time>
      </trkpt>
      <trkpt lat="44.1532" lon="6.67042">
        <ele>1755.5</ele>
        <time>2020-07-28T07:43:48Z</time>
      </trkpt>
      <trkpt lat="44.15318" lon="6.67049">
        <ele>1755.6</ele>
        <time>2020-07-28T07:43:55Z</time>
      </trkpt>
      <trkpt lat="44.15314" lon="6.67058">
        <ele>1754.9</ele>
        <time>2020-07-28T07:44:02Z</time>
      </trkpt>
      <trkpt lat="44.15313" lon="6.67064">
        <ele>1755.2</ele>
        <time>2020-07-28T07:44:10Z</time>
      </trkpt>
      <trkpt lat="44.15313" lon="6.67068">
        <ele>1755.7</ele>
        <time>2020-07-28T07:44:16Z</time>
      </trkpt>
      <trkpt lat="44.15315" lon="6.67075">
        <ele>1757.4</ele>
        <time>2020-07-28T07:44:20.000Z</time>
      </trkpt>
      <trkpt lat="44.15316" lon="6.67081">
        <ele>1758.6</ele>
        <time>2020-07-28T07:44:24Z</time>
      </trkpt>
      <trkpt lat="44.15315" lon="6.67091">
        <ele>1759.2</ele>
        <time>2020-07-28T07:44:33Z</time>
      </trkpt>
      <trkpt lat="44.15315" lon="6.67098">
        <ele>1760</ele>
        <time>2020-07-28T07:44:40Z</time>
      </trkpt>
      <trkpt lat="44.15313" lon="6.67105">
        <ele>1759.8</ele>
        <time>2020-07-28T07:44:48Z</time>
      </trkpt>
      <trkpt lat="44.15311" lon="6.67117">
        <ele>1760.6</ele>
        <time>2020-07-28T07:44:58Z</time>
      </trkpt>
      <trkpt lat="44.15309" lon="6.67125">
        <ele>1761.1</ele>
        <time>2020-07-28T07:45:06Z</time>
      </trkpt>
      <trkpt lat="44.15307" lon="6.6713">
        <ele>1761.1</ele>
        <time>2020-07-28T07:45:12Z</time>
      </trkpt>
      <trkpt lat="44.15307" lon="6.67138">
        <ele>1762.5</ele>
        <time>2020-07-28T07:45:19Z</time>
      </trkpt>
      <trkpt lat="44.15305" lon="6.67144">
        <ele>1762.6</ele>
        <time>2020-07-28T07:45:26Z</time>
      </trkpt>
      <trkpt lat="44.153" lon="6.67151">
        <ele>1761.5</ele>
        <time>2020-07-28T07:45:34Z</time>
      </trkpt>
      <trkpt lat="44.15296" lon="6.67159">
        <ele>1761.1</ele>
        <time>2020-07-28T07:45:42Z</time>
      </trkpt>
      <trkpt lat="44.15296" lon="6.67165">
        <ele>1762.2</ele>
        <time>2020-07-28T07:45:49Z</time>
      </trkpt>
      <trkpt lat="44.15296" lon="6.67171">
        <ele>1763.5</ele>
        <time>2020-07-28T07:45:55Z</time>
      </trkpt>
      <trkpt lat="44.15295" lon="6.67181">
        <ele>1765.2</ele>
        <time>2020-07-28T07:46:01Z</time>
      </trkpt>
      <trkpt lat="44.15294" lon="6.67187">
        <ele>1766</ele>
        <time>2020-07-28T07:46:09Z</time>
      </trkpt>
      <trkpt lat="44.15294" lon="6.67192">
        <ele>1767.1</ele>
        <time>2020-07-28T07:46:15Z</time>
      </trkpt>
      <trkpt lat="44.15295" lon="6.672">
        <ele>1769.3</ele>
        <time>2020-07-28T07:46:23Z</time>
      </trkpt>
      <trkpt lat="44.15292" lon="6.67208">
        <ele>1769.6</ele>
        <time>2020-07-28T07:46:31Z</time>
      </trkpt>
      <trkpt lat="44.15292" lon="6.67219">
        <ele>1772</ele>
        <time>2020-07-28T07:46:40Z</time>
      </trkpt>
      <trkpt lat="44.1529" lon="6.67228">
        <ele>1772.8</ele>
        <time>2020-07-28T07:46:48Z</time>
      </trkpt>
      <trkpt lat="44.15289" lon="6.67235">
        <ele>1773.6</ele>
        <time>2020-07-28T07:46:56Z</time>
      </trkpt>
      <trkpt lat="44.15285" lon="6.67242">
        <ele>1772.9</ele>
        <time>2020-07-28T07:47:03Z</time>
      </trkpt>
      <trkpt lat="44.15284" lon="6.67247">
        <ele>1773.4</ele>
        <time>2020-07-28T07:47:11Z</time>
      </trkpt>
      <trkpt lat="44.15284" lon="6.67248">
        <ele>1773.6</ele>
        <time>2020-07-28T07:47:24Z</time>
      </trkpt>
      <trkpt lat="44.15284" lon="6.6725">
        <ele>1773.9</ele>
        <time>2020-07-28T07:47:35Z</time>
      </trkpt>
      <trkpt lat="44.15285" lon="6.67249">
        <ele>1774.2</ele>
        <time>2020-07-28T07:47:48Z</time>
      </trkpt>
      <trkpt lat="44.15286" lon="6.67249">
        <ele>1774.7</ele>
        <time>2020-07-28T07:47:57Z</time>
      </trkpt>
      <trkpt lat="44.15285" lon="6.67248">
        <ele>1774</ele>
        <time>2020-07-28T07:48:13Z</time>
      </trkpt>
      <trkpt lat="44.15284" lon="6.67248">
        <ele>1773.6</ele>
        <time>2020-07-28T07:48:30Z</time>
      </trkpt>
      <trkpt lat="44.15283" lon="6.67251">
        <ele>1773.6</ele>
        <time>2020-07-28T07:48:42Z</time>
      </trkpt>
      <trkpt lat="44.15277" lon="6.6726">
        <ele>1772.4</ele>
        <time>2020-07-28T07:48:50Z</time>
      </trkpt>
      <trkpt lat="44.15277" lon="6.67261">
        <ele>1772.6</ele>
        <time>2020-07-28T07:48:51Z</time>
      </trkpt>
      <trkpt lat="44.15275" lon="6.6727">
        <ele>1773.3</ele>
        <time>2020-07-28T07:48:59Z</time>
      </trkpt>
      <trkpt lat="44.15274" lon="6.67278">
        <ele>1774.3</ele>
        <time>2020-07-28T07:49:07Z</time>
      </trkpt>
      <trkpt lat="44.1527" lon="6.67285">
        <ele>1773.8</ele>
        <time>2020-07-28T07:49:13Z</time>
      </trkpt>
      <trkpt lat="44.15269" lon="6.67295">
        <ele>1775.4</ele>
        <time>2020-07-28T07:49:21Z</time>
      </trkpt>
      <trkpt lat="44.15268" lon="6.67301">
        <ele>1776.1</ele>
        <time>2020-07-28T07:49:28Z</time>
      </trkpt>
      <trkpt lat="44.15268" lon="6.67308">
        <ele>1777.6</ele>
        <time>2020-07-28T07:49:35Z</time>
      </trkpt>
      <trkpt lat="44.15267" lon="6.67315">
        <ele>1778.6</ele>
        <time>2020-07-28T07:49:44Z</time>
      </trkpt>
      <trkpt lat="44.15268" lon="6.67324">
        <ele>1781.1</ele>
        <time>2020-07-28T07:49:52Z</time>
      </trkpt>
      <trkpt lat="44.15267" lon="6.6733">
        <ele>1781.8</ele>
        <time>2020-07-28T07:49:59Z</time>
      </trkpt>
      <trkpt lat="44.15262" lon="6.6734">
        <ele>1781.6</ele>
        <time>2020-07-28T07:50:07Z</time>
      </trkpt>
      <trkpt lat="44.15257" lon="6.67346">
        <ele>1780.6</ele>
        <time>2020-07-28T07:50:15Z</time>
      </trkpt>
      <trkpt lat="44.15253" lon="6.67353">
        <ele>1780.4</ele>
        <time>2020-07-28T07:50:23Z</time>
      </trkpt>
      <trkpt lat="44.15251" lon="6.67359">
        <ele>1780.9</ele>
        <time>2020-07-28T07:50:29Z</time>
      </trkpt>
      <trkpt lat="44.15248" lon="6.67364">
        <ele>1781.1</ele>
        <time>2020-07-28T07:50:32.999Z</time>
      </trkpt>
      <trkpt lat="44.15244" lon="6.67368">
        <ele>1780.6</ele>
        <time>2020-07-28T07:50:37Z</time>
      </trkpt>
      <trkpt lat="44.15239" lon="6.67374">
        <ele>1780.4</ele>
        <time>2020-07-28T07:50:44Z</time>
      </trkpt>
      <trkpt lat="44.15234" lon="6.67383">
        <ele>1781.2</ele>
        <time>2020-07-28T07:50:51Z</time>
      </trkpt>
      <trkpt lat="44.15232" lon="6.67387">
        <ele>1781.6</ele>
        <time>2020-07-28T07:50:59Z</time>
      </trkpt>
      <trkpt lat="44.15229" lon="6.67392">
        <ele>1782</ele>
        <time>2020-07-28T07:51:06Z</time>
      </trkpt>
      <trkpt lat="44.15226" lon="6.67401">
        <ele>1783.9</ele>
        <time>2020-07-28T07:51:14Z</time>
      </trkpt>
      <trkpt lat="44.15223" lon="6.67409">
        <ele>1785.6</ele>
        <time>2020-07-28T07:51:21Z</time>
      </trkpt>
      <trkpt lat="44.15219" lon="6.67417">
        <ele>1787.1</ele>
        <time>2020-07-28T07:51:26Z</time>
      </trkpt>
      <trkpt lat="44.15215" lon="6.67424">
        <ele>1788</ele>
        <time>2020-07-28T07:51:35Z</time>
      </trkpt>
      <trkpt lat="44.1521" lon="6.67431">
        <ele>1788.5</ele>
        <time>2020-07-28T07:51:42Z</time>
      </trkpt>
      <trkpt lat="44.15205" lon="6.67436">
        <ele>1788.3</ele>
        <time>2020-07-28T07:51:49Z</time>
      </trkpt>
      <trkpt lat="44.15202" lon="6.6744">
        <ele>1788.4</ele>
        <time>2020-07-28T07:51:55Z</time>
      </trkpt>
      <trkpt lat="44.15202" lon="6.67439">
        <ele>1788.1</ele>
        <time>2020-07-28T07:52:07Z</time>
      </trkpt>
      <trkpt lat="44.15198" lon="6.67442">
        <ele>1787.6</ele>
        <time>2020-07-28T07:52:10.999Z</time>
      </trkpt>
      <trkpt lat="44.15194" lon="6.67445">
        <ele>1787.1</ele>
        <time>2020-07-28T07:52:15Z</time>
      </trkpt>
      <trkpt lat="44.15193" lon="6.67445">
        <ele>1787.1</ele>
        <time>2020-07-28T07:52:16Z</time>
      </trkpt>
      <trkpt lat="44.15188" lon="6.67449">
        <ele>1787.9</ele>
        <time>2020-07-28T07:52:23Z</time>
      </trkpt>
      <trkpt lat="44.15182" lon="6.67454">
        <ele>1788.9</ele>
        <time>2020-07-28T07:52:30Z</time>
      </trkpt>
      <trkpt lat="44.15179" lon="6.67459">
        <ele>1790</ele>
        <time>2020-07-28T07:52:33.999Z</time>
      </trkpt>
      <trkpt lat="44.15175" lon="6.67463">
        <ele>1790.7</ele>
        <time>2020-07-28T07:52:38Z</time>
      </trkpt>
      <trkpt lat="44.15172" lon="6.67468">
        <ele>1791.6</ele>
        <time>2020-07-28T07:52:45Z</time>
      </trkpt>
      <trkpt lat="44.1517" lon="6.67474">
        <ele>1793</ele>
        <time>2020-07-28T07:52:48.999Z</time>
      </trkpt>
      <trkpt lat="44.15167" lon="6.6748">
        <ele>1794</ele>
        <time>2020-07-28T07:52:53Z</time>
      </trkpt>
      <trkpt lat="44.15163" lon="6.67485">
        <ele>1795.4</ele>
        <time>2020-07-28T07:52:56.999Z</time>
      </trkpt>
      <trkpt lat="44.15159" lon="6.67489">
        <ele>1796.4</ele>
        <time>2020-07-28T07:53:01Z</time>
      </trkpt>
      <trkpt lat="44.15153" lon="6.67491">
        <ele>1796.9</ele>
        <time>2020-07-28T07:53:09Z</time>
      </trkpt>
      <trkpt lat="44.15149" lon="6.67496">
        <ele>1797.7</ele>
        <time>2020-07-28T07:53:17Z</time>
      </trkpt>
      <trkpt lat="44.15146" lon="6.67502">
        <ele>1798.7</ele>
        <time>2020-07-28T07:53:24Z</time>
      </trkpt>
      <trkpt lat="44.15138" lon="6.67507">
        <ele>1799.3</ele>
        <time>2020-07-28T07:53:32Z</time>
      </trkpt>
      <trkpt lat="44.15133" lon="6.67508">
        <ele>1800</ele>
        <time>2020-07-28T07:53:39Z</time>
      </trkpt>
      <trkpt lat="44.15128" lon="6.67507">
        <ele>1800.3</ele>
        <time>2020-07-28T07:53:46Z</time>
      </trkpt>
      <trkpt lat="44.15125" lon="6.67506">
        <ele>1800.5</ele>
        <time>2020-07-28T07:53:55Z</time>
      </trkpt>
      <trkpt lat="44.15122" lon="6.67505">
        <ele>1800.8</ele>
        <time>2020-07-28T07:54:02Z</time>
      </trkpt>
      <trkpt lat="44.15119" lon="6.67507">
        <ele>1801.2</ele>
        <time>2020-07-28T07:54:09Z</time>
      </trkpt>
      <trkpt lat="44.15116" lon="6.67515">
        <ele>1801.8</ele>
        <time>2020-07-28T07:54:19Z</time>
      </trkpt>
      <trkpt lat="44.15112" lon="6.67519">
        <ele>1802</ele>
        <time>2020-07-28T07:54:25Z</time>
      </trkpt>
      <trkpt lat="44.15106" lon="6.67522">
        <ele>1802.8</ele>
        <time>2020-07-28T07:54:32Z</time>
      </trkpt>
      <trkpt lat="44.15103" lon="6.67525">
        <ele>1803.2</ele>
        <time>2020-07-28T07:54:38Z</time>
      </trkpt>
      <trkpt lat="44.15097" lon="6.67526">
        <ele>1804.1</ele>
        <time>2020-07-28T07:54:46Z</time>
      </trkpt>
      <trkpt lat="44.15093" lon="6.67526">
        <ele>1804.7</ele>
        <time>2020-07-28T07:54:53Z</time>
      </trkpt>
      <trkpt lat="44.15089" lon="6.67528">
        <ele>1805.2</ele>
        <time>2020-07-28T07:54:59Z</time>
      </trkpt>
      <trkpt lat="44.15084" lon="6.67533">
        <ele>1806.1</ele>
        <time>2020-07-28T07:55:07Z</time>
      </trkpt>
      <trkpt lat="44.15079" lon="6.67539">
        <ele>1806.9</ele>
        <time>2020-07-28T07:55:15Z</time>
      </trkpt>
      <trkpt lat="44.15076" lon="6.67543">
        <ele>1807.5</ele>
        <time>2020-07-28T07:55:22Z</time>
      </trkpt>
      <trkpt lat="44.15072" lon="6.67548">
        <ele>1808.2</ele>
        <time>2020-07-28T07:55:29Z</time>
      </trkpt>
      <trkpt lat="44.15068" lon="6.67554">
        <ele>1809.1</ele>
        <time>2020-07-28T07:55:37Z</time>
      </trkpt>
      <trkpt lat="44.15064" lon="6.67555">
        <ele>1809.8</ele>
        <time>2020-07-28T07:55:45Z</time>
      </trkpt>
      <trkpt lat="44.15063" lon="6.67558">
        <ele>1810.2</ele>
        <time>2020-07-28T07:55:52Z</time>
      </trkpt>
      <trkpt lat="44.15062" lon="6.6756">
        <ele>1810.6</ele>
        <time>2020-07-28T07:56:01Z</time>
      </trkpt>
      <trkpt lat="44.15062" lon="6.6756">
        <ele>1810.6</ele>
        <time>2020-07-28T07:56:13Z</time>
      </trkpt>
      <trkpt lat="44.15057" lon="6.67564">
        <ele>1811.7</ele>
        <time>2020-07-28T07:56:21Z</time>
      </trkpt>
      <trkpt lat="44.1505" lon="6.6757">
        <ele>1813.1</ele>
        <time>2020-07-28T07:56:30Z</time>
      </trkpt>
      <trkpt lat="44.15045" lon="6.67574">
        <ele>1814</ele>
        <time>2020-07-28T07:56:39Z</time>
      </trkpt>
      <trkpt lat="44.15041" lon="6.67574">
        <ele>1814.4</ele>
        <time>2020-07-28T07:56:45Z</time>
      </trkpt>
      <trkpt lat="44.15037" lon="6.67577">
        <ele>1815.2</ele>
        <time>2020-07-28T07:56:52Z</time>
      </trkpt>
      <trkpt lat="44.15033" lon="6.67583">
        <ele>1816.4</ele>
        <time>2020-07-28T07:57:01Z</time>
      </trkpt>
      <trkpt lat="44.15029" lon="6.67589">
        <ele>1817.9</ele>
        <time>2020-07-28T07:57:05.999Z</time>
      </trkpt>
      <trkpt lat="44.15024" lon="6.67594">
        <ele>1818.9</ele>
        <time>2020-07-28T07:57:11Z</time>
      </trkpt>
      <trkpt lat="44.15023" lon="6.67595">
        <ele>1819.1</ele>
        <time>2020-07-28T07:57:12Z</time>
      </trkpt>
      <trkpt lat="44.15019" lon="6.67601">
        <ele>1820.2</ele>
        <time>2020-07-28T07:57:19Z</time>
      </trkpt>
      <trkpt lat="44.15016" lon="6.67605">
        <ele>1820.9</ele>
        <time>2020-07-28T07:57:26Z</time>
      </trkpt>
      <trkpt lat="44.15013" lon="6.67611">
        <ele>1822</ele>
        <time>2020-07-28T07:57:35Z</time>
      </trkpt>
      <trkpt lat="44.15011" lon="6.67617">
        <ele>1823.4</ele>
        <time>2020-07-28T07:57:40Z</time>
      </trkpt>
      <trkpt lat="44.15008" lon="6.67624">
        <ele>1825.1</ele>
        <time>2020-07-28T07:57:49Z</time>
      </trkpt>
      <trkpt lat="44.15006" lon="6.67627">
        <ele>1825.9</ele>
        <time>2020-07-28T07:57:57Z</time>
      </trkpt>
      <trkpt lat="44.15006" lon="6.67629">
        <ele>1826.4</ele>
        <time>2020-07-28T07:58:06Z</time>
      </trkpt>
      <trkpt lat="44.15002" lon="6.67637">
        <ele>1828.5</ele>
        <time>2020-07-28T07:58:19Z</time>
      </trkpt>
      <trkpt lat="44.14998" lon="6.67643">
        <ele>1830.3</ele>
        <time>2020-07-28T07:58:23.499Z</time>
      </trkpt>
      <trkpt lat="44.14994" lon="6.67649">
        <ele>1832.1</ele>
        <time>2020-07-28T07:58:28Z</time>
      </trkpt>
      <trkpt lat="44.14988" lon="6.67657">
        <ele>1834.6</ele>
        <time>2020-07-28T07:58:37Z</time>
      </trkpt>
      <trkpt lat="44.14984" lon="6.6766">
        <ele>1835.7</ele>
        <time>2020-07-28T07:58:45Z</time>
      </trkpt>
      <trkpt lat="44.14982" lon="6.67664">
        <ele>1836.9</ele>
        <time>2020-07-28T07:58:52Z</time>
      </trkpt>
      <trkpt lat="44.14977" lon="6.67672">
        <ele>1838.9</ele>
        <time>2020-07-28T07:59:00Z</time>
      </trkpt>
      <trkpt lat="44.14977" lon="6.67678">
        <ele>1840</ele>
        <time>2020-07-28T07:59:09Z</time>
      </trkpt>
      <trkpt lat="44.14974" lon="6.67682">
        <ele>1840.8</ele>
        <time>2020-07-28T07:59:17Z</time>
      </trkpt>
      <trkpt lat="44.14971" lon="6.67688">
        <ele>1841.8</ele>
        <time>2020-07-28T07:59:25Z</time>
      </trkpt>
      <trkpt lat="44.14966" lon="6.67694">
        <ele>1842.5</ele>
        <time>2020-07-28T07:59:32Z</time>
      </trkpt>
      <trkpt lat="44.1496" lon="6.67697">
        <ele>1842.5</ele>
        <time>2020-07-28T07:59:39Z</time>
      </trkpt>
      <trkpt lat="44.14956" lon="6.67699">
        <ele>1842.5</ele>
        <time>2020-07-28T07:59:48Z</time>
      </trkpt>
      <trkpt lat="44.14951" lon="6.67702">
        <ele>1842.4</ele>
        <time>2020-07-28T07:59:51.999Z</time>
      </trkpt>
      <trkpt lat="44.14945" lon="6.67704">
        <ele>1842.1</ele>
        <time>2020-07-28T07:59:56Z</time>
      </trkpt>
      <trkpt lat="44.14941" lon="6.67707">
        <ele>1841.7</ele>
        <time>2020-07-28T08:00:00.499Z</time>
      </trkpt>
      <trkpt lat="44.14936" lon="6.6771">
        <ele>1841</ele>
        <time>2020-07-28T08:00:05Z</time>
      </trkpt>
      <trkpt lat="44.14929" lon="6.67715">
        <ele>1840.3</ele>
        <time>2020-07-28T08:00:14Z</time>
      </trkpt>
      <trkpt lat="44.14921" lon="6.6772">
        <ele>1839.5</ele>
        <time>2020-07-28T08:00:24Z</time>
      </trkpt>
      <trkpt lat="44.14915" lon="6.67728">
        <ele>1839.6</ele>
        <time>2020-07-28T08:00:32Z</time>
      </trkpt>
      <trkpt lat="44.14912" lon="6.67738">
        <ele>1840.8</ele>
        <time>2020-07-28T08:00:40Z</time>
      </trkpt>
      <trkpt lat="44.14908" lon="6.67746">
        <ele>1841.7</ele>
        <time>2020-07-28T08:00:48Z</time>
      </trkpt>
      <trkpt lat="44.14906" lon="6.67757">
        <ele>1843.4</ele>
        <time>2020-07-28T08:00:57Z</time>
      </trkpt>
      <trkpt lat="44.14908" lon="6.67754">
        <ele>1843</ele>
        <time>2020-07-28T08:01:04Z</time>
      </trkpt>
      <trkpt lat="44.14906" lon="6.67755">
        <ele>1843.1</ele>
        <time>2020-07-28T08:01:12Z</time>
      </trkpt>
      <trkpt lat="44.14901" lon="6.67761">
        <ele>1843.9</ele>
        <time>2020-07-28T08:01:20Z</time>
      </trkpt>
      <trkpt lat="44.14897" lon="6.67767">
        <ele>1844.9</ele>
        <time>2020-07-28T08:01:27Z</time>
      </trkpt>
      <trkpt lat="44.14892" lon="6.67773">
        <ele>1846</ele>
        <time>2020-07-28T08:01:34Z</time>
      </trkpt>
      <trkpt lat="44.14886" lon="6.6778">
        <ele>1847.4</ele>
        <time>2020-07-28T08:01:41Z</time>
      </trkpt>
      <trkpt lat="44.14882" lon="6.67785">
        <ele>1848.3</ele>
        <time>2020-07-28T08:01:49Z</time>
      </trkpt>
      <trkpt lat="44.14879" lon="6.67789">
        <ele>1849.1</ele>
        <time>2020-07-28T08:01:52.999Z</time>
      </trkpt>
      <trkpt lat="44.14875" lon="6.67793">
        <ele>1849.8</ele>
        <time>2020-07-28T08:01:57Z</time>
      </trkpt>
      <trkpt lat="44.14871" lon="6.67799">
        <ele>1850.9</ele>
        <time>2020-07-28T08:02:04Z</time>
      </trkpt>
      <trkpt lat="44.14869" lon="6.67806">
        <ele>1852.4</ele>
        <time>2020-07-28T08:02:12Z</time>
      </trkpt>
      <trkpt lat="44.14866" lon="6.67813">
        <ele>1853.7</ele>
        <time>2020-07-28T08:02:20Z</time>
      </trkpt>
      <trkpt lat="44.14862" lon="6.67817">
        <ele>1854.5</ele>
        <time>2020-07-28T08:02:23.999Z</time>
      </trkpt>
      <trkpt lat="44.14858" lon="6.67821">
        <ele>1855.1</ele>
        <time>2020-07-28T08:02:28Z</time>
      </trkpt>
      <trkpt lat="44.14855" lon="6.67825">
        <ele>1855.8</ele>
        <time>2020-07-28T08:02:36Z</time>
      </trkpt>
      <trkpt lat="44.14849" lon="6.67831">
        <ele>1856.6</ele>
        <time>2020-07-28T08:02:44Z</time>
      </trkpt>
      <trkpt lat="44.14848" lon="6.67835">
        <ele>1857.4</ele>
        <time>2020-07-28T08:02:52Z</time>
      </trkpt>
      <trkpt lat="44.14846" lon="6.67839">
        <ele>1858.1</ele>
        <time>2020-07-28T08:02:59Z</time>
      </trkpt>
      <trkpt lat="44.14841" lon="6.67845">
        <ele>1859.1</ele>
        <time>2020-07-28T08:03:10Z</time>
      </trkpt>
      <trkpt lat="44.14836" lon="6.67852">
        <ele>1860.2</ele>
        <time>2020-07-28T08:03:18Z</time>
      </trkpt>
      <trkpt lat="44.14834" lon="6.67856">
        <ele>1860.9</ele>
        <time>2020-07-28T08:03:25Z</time>
      </trkpt>
      <trkpt lat="44.14831" lon="6.67863">
        <ele>1862.2</ele>
        <time>2020-07-28T08:03:31Z</time>
      </trkpt>
      <trkpt lat="44.14827" lon="6.67866">
        <ele>1862.4</ele>
        <time>2020-07-28T08:03:38Z</time>
      </trkpt>
      <trkpt lat="44.14826" lon="6.6787">
        <ele>1863.2</ele>
        <time>2020-07-28T08:03:44Z</time>
      </trkpt>
      <trkpt lat="44.1482" lon="6.67874">
        <ele>1863.6</ele>
        <time>2020-07-28T08:03:52Z</time>
      </trkpt>
      <trkpt lat="44.14812" lon="6.67878">
        <ele>1863.8</ele>
        <time>2020-07-28T08:04:00Z</time>
      </trkpt>
      <trkpt lat="44.14805" lon="6.67883">
        <ele>1864.5</ele>
        <time>2020-07-28T08:04:08Z</time>
      </trkpt>
      <trkpt lat="44.14801" lon="6.67886">
        <ele>1865.1</ele>
        <time>2020-07-28T08:04:15Z</time>
      </trkpt>
      <trkpt lat="44.14799" lon="6.67887">
        <ele>1865.2</ele>
        <time>2020-07-28T08:04:22Z</time>
      </trkpt>
      <trkpt lat="44.14796" lon="6.6789">
        <ele>1865.9</ele>
        <time>2020-07-28T08:04:28Z</time>
      </trkpt>
      <trkpt lat="44.14794" lon="6.67892">
        <ele>1866.4</ele>
        <time>2020-07-28T08:04:32Z</time>
      </trkpt>
      <trkpt lat="44.1479" lon="6.67896">
        <ele>1867.2</ele>
        <time>2020-07-28T08:04:39Z</time>
      </trkpt>
      <trkpt lat="44.14788" lon="6.67901">
        <ele>1868.4</ele>
        <time>2020-07-28T08:04:45Z</time>
      </trkpt>
      <trkpt lat="44.14785" lon="6.67906">
        <ele>1869.6</ele>
        <time>2020-07-28T08:04:54Z</time>
      </trkpt>
      <trkpt lat="44.1478" lon="6.67905">
        <ele>1869.1</ele>
        <time>2020-07-28T08:05:01Z</time>
      </trkpt>
      <trkpt lat="44.1478" lon="6.67905">
        <ele>1869.1</ele>
        <time>2020-07-28T08:05:02Z</time>
      </trkpt>
      <trkpt lat="44.14777" lon="6.67906">
        <ele>1869.1</ele>
        <time>2020-07-28T08:05:05Z</time>
      </trkpt>
      <trkpt lat="44.14772" lon="6.6791">
        <ele>1868.8</ele>
        <time>2020-07-28T08:05:12Z</time>
      </trkpt>
      <trkpt lat="44.1477" lon="6.67915">
        <ele>1869.4</ele>
        <time>2020-07-28T08:05:18Z</time>
      </trkpt>
      <trkpt lat="44.14768" lon="6.67924">
        <ele>1870.8</ele>
        <time>2020-07-28T08:05:27Z</time>
      </trkpt>
      <trkpt lat="44.14767" lon="6.67932">
        <ele>1872.2</ele>
        <time>2020-07-28T08:05:35Z</time>
      </trkpt>
      <trkpt lat="44.14766" lon="6.67939">
        <ele>1873.4</ele>
        <time>2020-07-28T08:05:44Z</time>
      </trkpt>
      <trkpt lat="44.14762" lon="6.67945">
        <ele>1873.6</ele>
        <time>2020-07-28T08:05:52Z</time>
      </trkpt>
      <trkpt lat="44.14757" lon="6.67948">
        <ele>1873.1</ele>
        <time>2020-07-28T08:05:59Z</time>
      </trkpt>
      <trkpt lat="44.14754" lon="6.67948">
        <ele>1872.2</ele>
        <time>2020-07-28T08:06:06Z</time>
      </trkpt>
      <trkpt lat="44.14752" lon="6.67949">
        <ele>1872</ele>
        <time>2020-07-28T08:06:10Z</time>
      </trkpt>
      <trkpt lat="44.14748" lon="6.67953">
        <ele>1872</ele>
        <time>2020-07-28T08:06:18Z</time>
      </trkpt>
      <trkpt lat="44.14743" lon="6.6796">
        <ele>1872.6</ele>
        <time>2020-07-28T08:06:26Z</time>
      </trkpt>
      <trkpt lat="44.1474" lon="6.67967">
        <ele>1874.4</ele>
        <time>2020-07-28T08:06:34Z</time>
      </trkpt>
      <trkpt lat="44.14735" lon="6.67973">
        <ele>1875.5</ele>
        <time>2020-07-28T08:06:42Z</time>
      </trkpt>
      <trkpt lat="44.14729" lon="6.67977">
        <ele>1875.9</ele>
        <time>2020-07-28T08:06:52Z</time>
      </trkpt>
      <trkpt lat="44.14724" lon="6.67981">
        <ele>1876.8</ele>
        <time>2020-07-28T08:06:59Z</time>
      </trkpt>
      <trkpt lat="44.14718" lon="6.67987">
        <ele>1878.9</ele>
        <time>2020-07-28T08:07:08Z</time>
      </trkpt>
      <trkpt lat="44.14715" lon="6.67994">
        <ele>1882.3</ele>
        <time>2020-07-28T08:07:17Z</time>
      </trkpt>
      <trkpt lat="44.14709" lon="6.68">
        <ele>1885</ele>
        <time>2020-07-28T08:07:25Z</time>
      </trkpt>
      <trkpt lat="44.14703" lon="6.68004">
        <ele>1886.4</ele>
        <time>2020-07-28T08:07:32Z</time>
      </trkpt>
      <trkpt lat="44.14699" lon="6.68006">
        <ele>1887.1</ele>
        <time>2020-07-28T08:07:42Z</time>
      </trkpt>
      <trkpt lat="44.14697" lon="6.68009">
        <ele>1888.3</ele>
        <time>2020-07-28T08:07:50Z</time>
      </trkpt>
      <trkpt lat="44.14694" lon="6.68011">
        <ele>1889.1</ele>
        <time>2020-07-28T08:07:58Z</time>
      </trkpt>
      <trkpt lat="44.1469" lon="6.68014">
        <ele>1889.7</ele>
        <time>2020-07-28T08:08:05Z</time>
      </trkpt>
      <trkpt lat="44.14687" lon="6.68017">
        <ele>1890.5</ele>
        <time>2020-07-28T08:08:12Z</time>
      </trkpt>
      <trkpt lat="44.14684" lon="6.68021">
        <ele>1891.9</ele>
        <time>2020-07-28T08:08:20Z</time>
      </trkpt>
      <trkpt lat="44.14683" lon="6.68022">
        <ele>1892.2</ele>
        <time>2020-07-28T08:08:28Z</time>
      </trkpt>
      <trkpt lat="44.14683" lon="6.68023">
        <ele>1892.6</ele>
        <time>2020-07-28T08:08:40Z</time>
      </trkpt>
      <trkpt lat="44.14679" lon="6.68025">
        <ele>1892.9</ele>
        <time>2020-07-28T08:08:49Z</time>
      </trkpt>
      <trkpt lat="44.14676" lon="6.68028">
        <ele>1893.8</ele>
        <time>2020-07-28T08:08:56Z</time>
      </trkpt>
      <trkpt lat="44.14671" lon="6.6803">
        <ele>1893.8</ele>
        <time>2020-07-28T08:09:04Z</time>
      </trkpt>
      <trkpt lat="44.1467" lon="6.68032">
        <ele>1894.5</ele>
        <time>2020-07-28T08:09:12Z</time>
      </trkpt>
      <trkpt lat="44.14665" lon="6.68033">
        <ele>1894</ele>
        <time>2020-07-28T08:09:19Z</time>
      </trkpt>
      <trkpt lat="44.1466" lon="6.68033">
        <ele>1892.5</ele>
        <time>2020-07-28T08:09:27Z</time>
      </trkpt>
      <trkpt lat="44.14654" lon="6.68036">
        <ele>1892.2</ele>
        <time>2020-07-28T08:09:34Z</time>
      </trkpt>
      <trkpt lat="44.14651" lon="6.68039">
        <ele>1892.7</ele>
        <time>2020-07-28T08:09:41Z</time>
      </trkpt>
      <trkpt lat="44.14646" lon="6.68044">
        <ele>1893.6</ele>
        <time>2020-07-28T08:09:49Z</time>
      </trkpt>
      <trkpt lat="44.14642" lon="6.6805">
        <ele>1895.3</ele>
        <time>2020-07-28T08:09:58Z</time>
      </trkpt>
      <trkpt lat="44.14638" lon="6.68056">
        <ele>1897</ele>
        <time>2020-07-28T08:10:06Z</time>
      </trkpt>
      <trkpt lat="44.14634" lon="6.68061">
        <ele>1898.3</ele>
        <time>2020-07-28T08:10:13Z</time>
      </trkpt>
      <trkpt lat="44.1463" lon="6.68065">
        <ele>1899.2</ele>
        <time>2020-07-28T08:10:21Z</time>
      </trkpt>
      <trkpt lat="44.14628" lon="6.6807">
        <ele>1901</ele>
        <time>2020-07-28T08:10:28Z</time>
      </trkpt>
      <trkpt lat="44.14625" lon="6.68074">
        <ele>1902.1</ele>
        <time>2020-07-28T08:10:36Z</time>
      </trkpt>
      <trkpt lat="44.14621" lon="6.68081">
        <ele>1904.4</ele>
        <time>2020-07-28T08:10:44Z</time>
      </trkpt>
      <trkpt lat="44.14616" lon="6.68089">
        <ele>1906.5</ele>
        <time>2020-07-28T08:10:52Z</time>
      </trkpt>
      <trkpt lat="44.14613" lon="6.68095">
        <ele>1908.1</ele>
        <time>2020-07-28T08:11:00Z</time>
      </trkpt>
      <trkpt lat="44.14611" lon="6.68098">
        <ele>1908.8</ele>
        <time>2020-07-28T08:11:08Z</time>
      </trkpt>
      <trkpt lat="44.14608" lon="6.68102">
        <ele>1909.8</ele>
        <time>2020-07-28T08:11:16Z</time>
      </trkpt>
      <trkpt lat="44.14606" lon="6.68108">
        <ele>1911.8</ele>
        <time>2020-07-28T08:11:24Z</time>
      </trkpt>
      <trkpt lat="44.146" lon="6.68108">
        <ele>1910.7</ele>
        <time>2020-07-28T08:11:31Z</time>
      </trkpt>
      <trkpt lat="44.14595" lon="6.68108">
        <ele>1909.8</ele>
        <time>2020-07-28T08:11:37Z</time>
      </trkpt>
      <trkpt lat="44.14592" lon="6.68106">
        <ele>1908.4</ele>
        <time>2020-07-28T08:11:44Z</time>
      </trkpt>
      <trkpt lat="44.14589" lon="6.68109">
        <ele>1909.1</ele>
        <time>2020-07-28T08:11:50Z</time>
      </trkpt>
      <trkpt lat="44.14587" lon="6.68108">
        <ele>1908.3</ele>
        <time>2020-07-28T08:11:57Z</time>
      </trkpt>
      <trkpt lat="44.14583" lon="6.68109">
        <ele>1908.1</ele>
        <time>2020-07-28T08:12:05Z</time>
      </trkpt>
      <trkpt lat="44.1458" lon="6.68108">
        <ele>1907.5</ele>
        <time>2020-07-28T08:12:11Z</time>
      </trkpt>
      <trkpt lat="44.14577" lon="6.68108">
        <ele>1907.4</ele>
        <time>2020-07-28T08:12:18Z</time>
      </trkpt>
      <trkpt lat="44.14571" lon="6.68107">
        <ele>1906.7</ele>
        <time>2020-07-28T08:12:26Z</time>
      </trkpt>
      <trkpt lat="44.14566" lon="6.68108">
        <ele>1907</ele>
        <time>2020-07-28T08:12:34Z</time>
      </trkpt>
      <trkpt lat="44.14564" lon="6.6811">
        <ele>1907.8</ele>
        <time>2020-07-28T08:12:44Z</time>
      </trkpt>
      <trkpt lat="44.14557" lon="6.68114">
        <ele>1909.2</ele>
        <time>2020-07-28T08:12:52Z</time>
      </trkpt>
      <trkpt lat="44.14554" lon="6.68115">
        <ele>1909.5</ele>
        <time>2020-07-28T08:12:59Z</time>
      </trkpt>
      <trkpt lat="44.14548" lon="6.68119">
        <ele>1910.9</ele>
        <time>2020-07-28T08:13:08Z</time>
      </trkpt>
      <trkpt lat="44.14544" lon="6.68126">
        <ele>1913.5</ele>
        <time>2020-07-28T08:13:17Z</time>
      </trkpt>
      <trkpt lat="44.14541" lon="6.68133">
        <ele>1916.1</ele>
        <time>2020-07-28T08:13:24Z</time>
      </trkpt>
      <trkpt lat="44.14538" lon="6.68135">
        <ele>1916.8</ele>
        <time>2020-07-28T08:13:31Z</time>
      </trkpt>
      <trkpt lat="44.14533" lon="6.6814">
        <ele>1918.5</ele>
        <time>2020-07-28T08:13:40Z</time>
      </trkpt>
      <trkpt lat="44.14527" lon="6.68145">
        <ele>1919.7</ele>
        <time>2020-07-28T08:13:48Z</time>
      </trkpt>
      <trkpt lat="44.14523" lon="6.68146">
        <ele>1919.5</ele>
        <time>2020-07-28T08:13:56Z</time>
      </trkpt>
      <trkpt lat="44.14517" lon="6.68152">
        <ele>1920.6</ele>
        <time>2020-07-28T08:14:05Z</time>
      </trkpt>
      <trkpt lat="44.14512" lon="6.68154">
        <ele>1920.6</ele>
        <time>2020-07-28T08:14:13Z</time>
      </trkpt>
      <trkpt lat="44.14505" lon="6.68161">
        <ele>1921.9</ele>
        <time>2020-07-28T08:14:21Z</time>
      </trkpt>
      <trkpt lat="44.14498" lon="6.68166">
        <ele>1922.5</ele>
        <time>2020-07-28T08:14:30Z</time>
      </trkpt>
      <trkpt lat="44.14493" lon="6.6817">
        <ele>1922.9</ele>
        <time>2020-07-28T08:14:38Z</time>
      </trkpt>
      <trkpt lat="44.14491" lon="6.68175">
        <ele>1924</ele>
        <time>2020-07-28T08:14:45Z</time>
      </trkpt>
      <trkpt lat="44.14489" lon="6.68177">
        <ele>1924.2</ele>
        <time>2020-07-28T08:14:52Z</time>
      </trkpt>
      <trkpt lat="44.14489" lon="6.68177">
        <ele>1924.2</ele>
        <time>2020-07-28T08:14:58Z</time>
      </trkpt>
      <trkpt lat="44.14486" lon="6.68181">
        <ele>1924.9</ele>
        <time>2020-07-28T08:15:05Z</time>
      </trkpt>
      <trkpt lat="44.14483" lon="6.68185">
        <ele>1925.4</ele>
        <time>2020-07-28T08:15:11Z</time>
      </trkpt>
      <trkpt lat="44.14476" lon="6.68186">
        <ele>1924.5</ele>
        <time>2020-07-28T08:15:19Z</time>
      </trkpt>
      <trkpt lat="44.14474" lon="6.68187">
        <ele>1924.4</ele>
        <time>2020-07-28T08:15:28Z</time>
      </trkpt>
      <trkpt lat="44.14473" lon="6.68188">
        <ele>1924.5</ele>
        <time>2020-07-28T08:15:35Z</time>
      </trkpt>
      <trkpt lat="44.14473" lon="6.68193">
        <ele>1925.8</ele>
        <time>2020-07-28T08:15:44Z</time>
      </trkpt>
      <trkpt lat="44.1447" lon="6.68199">
        <ele>1926.7</ele>
        <time>2020-07-28T08:15:51Z</time>
      </trkpt>
      <trkpt lat="44.14469" lon="6.68203">
        <ele>1927.5</ele>
        <time>2020-07-28T08:15:58Z</time>
      </trkpt>
      <trkpt lat="44.14464" lon="6.68206">
        <ele>1927.3</ele>
        <time>2020-07-28T08:16:07Z</time>
      </trkpt>
      <trkpt lat="44.14459" lon="6.68209">
        <ele>1927</ele>
        <time>2020-07-28T08:16:15Z</time>
      </trkpt>
      <trkpt lat="44.14454" lon="6.68213">
        <ele>1927</ele>
        <time>2020-07-28T08:16:23Z</time>
      </trkpt>
      <trkpt lat="44.14447" lon="6.68218">
        <ele>1926.6</ele>
        <time>2020-07-28T08:16:31Z</time>
      </trkpt>
      <trkpt lat="44.14441" lon="6.68222">
        <ele>1926.5</ele>
        <time>2020-07-28T08:16:39Z</time>
      </trkpt>
      <trkpt lat="44.14438" lon="6.68225">
        <ele>1926.7</ele>
        <time>2020-07-28T08:16:42Z</time>
      </trkpt>
      <trkpt lat="44.14431" lon="6.6823">
        <ele>1926.8</ele>
        <time>2020-07-28T08:16:51Z</time>
      </trkpt>
      <trkpt lat="44.14426" lon="6.68237">
        <ele>1927.4</ele>
        <time>2020-07-28T08:17:00Z</time>
      </trkpt>
      <trkpt lat="44.14421" lon="6.68243">
        <ele>1927.6</ele>
        <time>2020-07-28T08:17:08Z</time>
      </trkpt>
      <trkpt lat="44.14415" lon="6.68249">
        <ele>1927.7</ele>
        <time>2020-07-28T08:17:16Z</time>
      </trkpt>
      <trkpt lat="44.14413" lon="6.68251">
        <ele>1927.9</ele>
        <time>2020-07-28T08:17:22Z</time>
      </trkpt>
      <trkpt lat="44.14409" lon="6.68256">
        <ele>1928.7</ele>
        <time>2020-07-28T08:17:29Z</time>
      </trkpt>
      <trkpt lat="44.14404" lon="6.68261">
        <ele>1929.3</ele>
        <time>2020-07-28T08:17:36Z</time>
      </trkpt>
      <trkpt lat="44.144" lon="6.6827">
        <ele>1930.7</ele>
        <time>2020-07-28T08:17:45Z</time>
      </trkpt>
      <trkpt lat="44.14395" lon="6.6828">
        <ele>1932.1</ele>
        <time>2020-07-28T08:17:55Z</time>
      </trkpt>
      <trkpt lat="44.14391" lon="6.68284">
        <ele>1932.4</ele>
        <time>2020-07-28T08:17:59.999Z</time>
      </trkpt>
      <trkpt lat="44.14387" lon="6.68288">
        <ele>1932.8</ele>
        <time>2020-07-28T08:18:05Z</time>
      </trkpt>
      <trkpt lat="44.14382" lon="6.68291">
        <ele>1933</ele>
        <time>2020-07-28T08:18:09.999Z</time>
      </trkpt>
      <trkpt lat="44.14377" lon="6.68293">
        <ele>1933</ele>
        <time>2020-07-28T08:18:15Z</time>
      </trkpt>
      <trkpt lat="44.14369" lon="6.68297">
        <ele>1933</ele>
        <time>2020-07-28T08:18:24Z</time>
      </trkpt>
      <trkpt lat="44.14364" lon="6.68301">
        <ele>1932.9</ele>
        <time>2020-07-28T08:18:28.999Z</time>
      </trkpt>
      <trkpt lat="44.14359" lon="6.68304">
        <ele>1933</ele>
        <time>2020-07-28T08:18:34Z</time>
      </trkpt>
      <trkpt lat="44.14353" lon="6.68309">
        <ele>1933.9</ele>
        <time>2020-07-28T08:18:42Z</time>
      </trkpt>
      <trkpt lat="44.14353" lon="6.6831">
        <ele>1934</ele>
        <time>2020-07-28T08:18:54Z</time>
      </trkpt>
      <trkpt lat="44.14348" lon="6.68314">
        <ele>1934.6</ele>
        <time>2020-07-28T08:19:03Z</time>
      </trkpt>
      <trkpt lat="44.14348" lon="6.68316">
        <ele>1934.7</ele>
        <time>2020-07-28T08:19:11Z</time>
      </trkpt>
      <trkpt lat="44.14347" lon="6.68317">
        <ele>1934.8</ele>
        <time>2020-07-28T08:19:22Z</time>
      </trkpt>
      <trkpt lat="44.14345" lon="6.6832">
        <ele>1935</ele>
        <time>2020-07-28T08:19:28Z</time>
      </trkpt>
      <trkpt lat="44.14344" lon="6.68322">
        <ele>1935.1</ele>
        <time>2020-07-28T08:19:37Z</time>
      </trkpt>
      <trkpt lat="44.14344" lon="6.68324">
        <ele>1935.3</ele>
        <time>2020-07-28T08:19:44Z</time>
      </trkpt>
      <trkpt lat="44.14344" lon="6.68325">
        <ele>1935.3</ele>
        <time>2020-07-28T08:19:51Z</time>
      </trkpt>
      <trkpt lat="44.14344" lon="6.68326">
        <ele>1935.4</ele>
        <time>2020-07-28T08:19:59Z</time>
      </trkpt>
      <trkpt lat="44.14344" lon="6.68326">
        <ele>1935.4</ele>
        <time>2020-07-28T08:20:08Z</time>
      </trkpt>
      <trkpt lat="44.14344" lon="6.68325">
        <ele>1935.3</ele>
        <time>2020-07-28T08:20:23Z</time>
      </trkpt>
      <trkpt lat="44.14343" lon="6.68324">
        <ele>1935.2</ele>
        <time>2020-07-28T08:20:32Z</time>
      </trkpt>
      <trkpt lat="44.14343" lon="6.68325">
        <ele>1935.3</ele>
        <time>2020-07-28T08:20:41Z</time>
      </trkpt>
      <trkpt lat="44.14342" lon="6.68328">
        <ele>1935.4</ele>
        <time>2020-07-28T08:20:48Z</time>
      </trkpt>
      <trkpt lat="44.14343" lon="6.68329">
        <ele>1935.5</ele>
        <time>2020-07-28T08:21:01Z</time>
      </trkpt>
      <trkpt lat="44.14342" lon="6.6833">
        <ele>1935.5</ele>
        <time>2020-07-28T08:21:13Z</time>
      </trkpt>
      <trkpt lat="44.1434" lon="6.68332">
        <ele>1935.4</ele>
        <time>2020-07-28T08:21:20Z</time>
      </trkpt>
      <trkpt lat="44.14337" lon="6.68335">
        <ele>1935.4</ele>
        <time>2020-07-28T08:21:28Z</time>
      </trkpt>
      <trkpt lat="44.14336" lon="6.68337">
        <ele>1935.5</ele>
        <time>2020-07-28T08:21:31Z</time>
      </trkpt>
      <trkpt lat="44.14335" lon="6.68338">
        <ele>1935.5</ele>
        <time>2020-07-28T08:21:32Z</time>
      </trkpt>
      <trkpt lat="44.14333" lon="6.68339">
        <ele>1935.4</ele>
        <time>2020-07-28T08:21:38Z</time>
      </trkpt>
      <trkpt lat="44.1433" lon="6.6834">
        <ele>1935.8</ele>
        <time>2020-07-28T08:21:46Z</time>
      </trkpt>
      <trkpt lat="44.14329" lon="6.68342">
        <ele>1936</ele>
        <time>2020-07-28T08:21:55Z</time>
      </trkpt>
      <trkpt lat="44.14329" lon="6.68342">
        <ele>1936</ele>
        <time>2020-07-28T08:22:08Z</time>
      </trkpt>
      <trkpt lat="44.14327" lon="6.68342">
        <ele>1936.2</ele>
        <time>2020-07-28T08:22:18Z</time>
      </trkpt>
      <trkpt lat="44.14324" lon="6.68341">
        <ele>1936.4</ele>
        <time>2020-07-28T08:22:24Z</time>
      </trkpt>
      <trkpt lat="44.14319" lon="6.68342">
        <ele>1936.9</ele>
        <time>2020-07-28T08:22:32Z</time>
      </trkpt>
      <trkpt lat="44.14316" lon="6.68341">
        <ele>1937.1</ele>
        <time>2020-07-28T08:22:39Z</time>
      </trkpt>
      <trkpt lat="44.14311" lon="6.68341">
        <ele>1937.5</ele>
        <time>2020-07-28T08:22:46Z</time>
      </trkpt>
      <trkpt lat="44.1431" lon="6.68341">
        <ele>1937.6</ele>
        <time>2020-07-28T08:22:57Z</time>
      </trkpt>
      <trkpt lat="44.14307" lon="6.68342">
        <ele>1937.9</ele>
        <time>2020-07-28T08:23:06Z</time>
      </trkpt>
      <trkpt lat="44.14305" lon="6.68342">
        <ele>1938.1</ele>
        <time>2020-07-28T08:23:15Z</time>
      </trkpt>
      <trkpt lat="44.14301" lon="6.68342">
        <ele>1939</ele>
        <time>2020-07-28T08:23:23Z</time>
      </trkpt>
      <trkpt lat="44.14297" lon="6.68344">
        <ele>1940</ele>
        <time>2020-07-28T08:23:32Z</time>
      </trkpt>
      <trkpt lat="44.14294" lon="6.68345">
        <ele>1940.7</ele>
        <time>2020-07-28T08:23:40Z</time>
      </trkpt>
      <trkpt lat="44.14293" lon="6.68346">
        <ele>1940.9</ele>
        <time>2020-07-28T08:23:47Z</time>
      </trkpt>
      <trkpt lat="44.1429" lon="6.68348">
        <ele>1941.7</ele>
        <time>2020-07-28T08:23:54Z</time>
      </trkpt>
      <trkpt lat="44.14287" lon="6.6835">
        <ele>1942.4</ele>
        <time>2020-07-28T08:24:01Z</time>
      </trkpt>
      <trkpt lat="44.14287" lon="6.6835">
        <ele>1942.4</ele>
        <time>2020-07-28T08:24:09Z</time>
      </trkpt>
      <trkpt lat="44.14282" lon="6.68352">
        <ele>1943.7</ele>
        <time>2020-07-28T08:24:17Z</time>
      </trkpt>
      <trkpt lat="44.14278" lon="6.68354">
        <ele>1944.7</ele>
        <time>2020-07-28T08:24:25Z</time>
      </trkpt>
      <trkpt lat="44.14279" lon="6.68354">
        <ele>1944.4</ele>
        <time>2020-07-28T08:24:41Z</time>
      </trkpt>
      <trkpt lat="44.14279" lon="6.68354">
        <ele>1944.4</ele>
        <time>2020-07-28T08:24:58Z</time>
      </trkpt>
      <trkpt lat="44.14278" lon="6.68355">
        <ele>1944.7</ele>
        <time>2020-07-28T08:25:12Z</time>
      </trkpt>
      <trkpt lat="44.14278" lon="6.68355">
        <ele>1944.7</ele>
        <time>2020-07-28T08:25:27Z</time>
      </trkpt>
      <trkpt lat="44.14272" lon="6.68354">
        <ele>1945.9</ele>
        <time>2020-07-28T08:25:35Z</time>
      </trkpt>
      <trkpt lat="44.1427" lon="6.68346">
        <ele>1946</ele>
        <time>2020-07-28T08:25:43Z</time>
      </trkpt>
      <trkpt lat="44.1427" lon="6.68335">
        <ele>1945.5</ele>
        <time>2020-07-28T08:25:52Z</time>
      </trkpt>
      <trkpt lat="44.14269" lon="6.68328">
        <ele>1945.6</ele>
        <time>2020-07-28T08:26:00Z</time>
      </trkpt>
      <trkpt lat="44.1427" lon="6.68323">
        <ele>1945.5</ele>
        <time>2020-07-28T08:26:08Z</time>
      </trkpt>
      <trkpt lat="44.14271" lon="6.6832">
        <ele>1945.3</ele>
        <time>2020-07-28T08:26:16Z</time>
      </trkpt>
      <trkpt lat="44.1427" lon="6.68319">
        <ele>1945.5</ele>
        <time>2020-07-28T08:26:27Z</time>
      </trkpt>
      <trkpt lat="44.14265" lon="6.68318">
        <ele>1946.1</ele>
        <time>2020-07-28T08:26:35Z</time>
      </trkpt>
      <trkpt lat="44.14262" lon="6.68323">
        <ele>1946.6</ele>
        <time>2020-07-28T08:26:42Z</time>
      </trkpt>
      <trkpt lat="44.14262" lon="6.68323">
        <ele>1946.6</ele>
        <time>2020-07-28T08:26:51Z</time>
      </trkpt>
      <trkpt lat="44.14263" lon="6.68323">
        <ele>1946.4</ele>
        <time>2020-07-28T08:27:07Z</time>
      </trkpt>
      <trkpt lat="44.14262" lon="6.68323">
        <ele>1946.6</ele>
        <time>2020-07-28T08:27:18Z</time>
      </trkpt>
      <trkpt lat="44.14262" lon="6.68323">
        <ele>1946.6</ele>
        <time>2020-07-28T08:27:27Z</time>
      </trkpt>
      <trkpt lat="44.14263" lon="6.68321">
        <ele>1946.4</ele>
        <time>2020-07-28T08:27:39Z</time>
      </trkpt>
      <trkpt lat="44.14266" lon="6.68319">
        <ele>1946</ele>
        <time>2020-07-28T08:27:48Z</time>
      </trkpt>
      <trkpt lat="44.14267" lon="6.68319">
        <ele>1945.9</ele>
        <time>2020-07-28T08:27:56Z</time>
      </trkpt>
      <trkpt lat="44.14269" lon="6.68319">
        <ele>1945.6</ele>
        <time>2020-07-28T08:28:03Z</time>
      </trkpt>
      <trkpt lat="44.14268" lon="6.6832">
        <ele>1945.7</ele>
        <time>2020-07-28T08:28:11Z</time>
      </trkpt>
      <trkpt lat="44.14267" lon="6.68323">
        <ele>1945.9</ele>
        <time>2020-07-28T08:28:18Z</time>
      </trkpt>
      <trkpt lat="44.14267" lon="6.68323">
        <ele>1945.9</ele>
        <time>2020-07-28T08:28:26Z</time>
      </trkpt>
      <trkpt lat="44.14266" lon="6.68319">
        <ele>1946</ele>
        <time>2020-07-28T08:28:38Z</time>
      </trkpt>
      <trkpt lat="44.14265" lon="6.68317">
        <ele>1946.1</ele>
        <time>2020-07-28T08:28:44Z</time>
      </trkpt>
      <trkpt lat="44.14265" lon="6.68317">
        <ele>1946.1</ele>
        <time>2020-07-28T08:28:54Z</time>
      </trkpt>
      <trkpt lat="44.14265" lon="6.68316">
        <ele>1946.1</ele>
        <time>2020-07-28T08:29:11Z</time>
      </trkpt>
      <trkpt lat="44.14265" lon="6.68316">
        <ele>1946.1</ele>
        <time>2020-07-28T08:29:25Z</time>
      </trkpt>
      <trkpt lat="44.14265" lon="6.68316">
        <ele>1946.1</ele>
        <time>2020-07-28T08:29:40Z</time>
      </trkpt>
      <trkpt lat="44.14265" lon="6.68316">
        <ele>1946.1</ele>
        <time>2020-07-28T08:29:56Z</time>
      </trkpt>
      <trkpt lat="44.14263" lon="6.68317">
        <ele>1946.3</ele>
        <time>2020-07-28T08:30:05Z</time>
      </trkpt>
      <trkpt lat="44.14256" lon="6.68324">
        <ele>1947.5</ele>
        <time>2020-07-28T08:30:13Z</time>
      </trkpt>
      <trkpt lat="44.14252" lon="6.68325">
        <ele>1948.1</ele>
        <time>2020-07-28T08:30:17Z</time>
      </trkpt>
      <trkpt lat="44.14249" lon="6.68333">
        <ele>1949</ele>
        <time>2020-07-28T08:30:25Z</time>
      </trkpt>
      <trkpt lat="44.14246" lon="6.68339">
        <ele>1949.5</ele>
        <time>2020-07-28T08:30:29.999Z</time>
      </trkpt>
      <trkpt lat="44.14243" lon="6.68345">
        <ele>1950.1</ele>
        <time>2020-07-28T08:30:35Z</time>
      </trkpt>
      <trkpt lat="44.14239" lon="6.6835">
        <ele>1950.7</ele>
        <time>2020-07-28T08:30:39.999Z</time>
      </trkpt>
      <trkpt lat="44.14235" lon="6.68354">
        <ele>1951.3</ele>
        <time>2020-07-28T08:30:45Z</time>
      </trkpt>
      <trkpt lat="44.14229" lon="6.68358">
        <ele>1952.1</ele>
        <time>2020-07-28T08:30:52Z</time>
      </trkpt>
      <trkpt lat="44.14228" lon="6.68358">
        <ele>1952.2</ele>
        <time>2020-07-28T08:30:59Z</time>
      </trkpt>
      <trkpt lat="44.14228" lon="6.68358">
        <ele>1952.2</ele>
        <time>2020-07-28T08:31:13Z</time>
      </trkpt>
      <trkpt lat="44.14228" lon="6.68359">
        <ele>1952.3</ele>
        <time>2020-07-28T08:31:18Z</time>
      </trkpt>
      <trkpt lat="44.14221" lon="6.68364">
        <ele>1953.5</ele>
        <time>2020-07-28T08:31:27Z</time>
      </trkpt>
      <trkpt lat="44.14219" lon="6.68365">
        <ele>1953.4</ele>
        <time>2020-07-28T08:31:29Z</time>
      </trkpt>
      <trkpt lat="44.14215" lon="6.68368">
        <ele>1953.5</ele>
        <time>2020-07-28T08:31:33.499Z</time>
      </trkpt>
      <trkpt lat="44.1421" lon="6.6837">
        <ele>1953.3</ele>
        <time>2020-07-28T08:31:38Z</time>
      </trkpt>
      <trkpt lat="44.14202" lon="6.68374">
        <ele>1953.2</ele>
        <time>2020-07-28T08:31:45Z</time>
      </trkpt>
      <trkpt lat="44.14198" lon="6.68377">
        <ele>1953.4</ele>
        <time>2020-07-28T08:31:49.999Z</time>
      </trkpt>
      <trkpt lat="44.14193" lon="6.68379">
        <ele>1953.1</ele>
        <time>2020-07-28T08:31:55Z</time>
      </trkpt>
      <trkpt lat="44.14185" lon="6.68382">
        <ele>1951.9</ele>
        <time>2020-07-28T08:32:03Z</time>
      </trkpt>
      <trkpt lat="44.14181" lon="6.68386">
        <ele>1951.9</ele>
        <time>2020-07-28T08:32:07.499Z</time>
      </trkpt>
      <trkpt lat="44.14176" lon="6.68389">
        <ele>1951.4</ele>
        <time>2020-07-28T08:32:12Z</time>
      </trkpt>
      <trkpt lat="44.14168" lon="6.68392">
        <ele>1950.3</ele>
        <time>2020-07-28T08:32:22Z</time>
      </trkpt>
      <trkpt lat="44.1416" lon="6.68397">
        <ele>1949.6</ele>
        <time>2020-07-28T08:32:32Z</time>
      </trkpt>
      <trkpt lat="44.14158" lon="6.68396">
        <ele>1948.7</ele>
        <time>2020-07-28T08:32:35Z</time>
      </trkpt>
      <trkpt lat="44.14156" lon="6.68397">
        <ele>1948.4</ele>
        <time>2020-07-28T08:32:37Z</time>
      </trkpt>
      <trkpt lat="44.14151" lon="6.68398">
        <ele>1947.2</ele>
        <time>2020-07-28T08:32:41.500Z</time>
      </trkpt>
      <trkpt lat="44.14146" lon="6.68399">
        <ele>1946.1</ele>
        <time>2020-07-28T08:32:46Z</time>
      </trkpt>
      <trkpt lat="44.14141" lon="6.684">
        <ele>1945</ele>
        <time>2020-07-28T08:32:51Z</time>
      </trkpt>
      <trkpt lat="44.14136" lon="6.68404">
        <ele>1945.4</ele>
        <time>2020-07-28T08:32:57Z</time>
      </trkpt>
      <trkpt lat="44.14131" lon="6.68403">
        <ele>1944</ele>
        <time>2020-07-28T08:33:01.500Z</time>
      </trkpt>
      <trkpt lat="44.14125" lon="6.68402">
        <ele>1942.5</ele>
        <time>2020-07-28T08:33:06Z</time>
      </trkpt>
      <trkpt lat="44.14117" lon="6.68402">
        <ele>1940.9</ele>
        <time>2020-07-28T08:33:14Z</time>
      </trkpt>
      <trkpt lat="44.14116" lon="6.68402">
        <ele>1940.7</ele>
        <time>2020-07-28T08:33:15Z</time>
      </trkpt>
      <trkpt lat="44.14111" lon="6.68404">
        <ele>1940.3</ele>
        <time>2020-07-28T08:33:19.499Z</time>
      </trkpt>
      <trkpt lat="44.14106" lon="6.68406">
        <ele>1940.5</ele>
        <time>2020-07-28T08:33:24Z</time>
      </trkpt>
      <trkpt lat="44.14101" lon="6.68409">
        <ele>1940.9</ele>
        <time>2020-07-28T08:33:29Z</time>
      </trkpt>
      <trkpt lat="44.14097" lon="6.68408">
        <ele>1940.3</ele>
        <time>2020-07-28T08:33:32Z</time>
      </trkpt>
      <trkpt lat="44.14091" lon="6.68409">
        <ele>1940</ele>
        <time>2020-07-28T08:33:38Z</time>
      </trkpt>
      <trkpt lat="44.14086" lon="6.6841">
        <ele>1939.8</ele>
        <time>2020-07-28T08:33:42.500Z</time>
      </trkpt>
      <trkpt lat="44.14081" lon="6.6841">
        <ele>1939.3</ele>
        <time>2020-07-28T08:33:47Z</time>
      </trkpt>
      <trkpt lat="44.14077" lon="6.68411">
        <ele>1939</ele>
        <time>2020-07-28T08:33:50.500Z</time>
      </trkpt>
      <trkpt lat="44.14072" lon="6.68412">
        <ele>1938.6</ele>
        <time>2020-07-28T08:33:54Z</time>
      </trkpt>
      <trkpt lat="44.14065" lon="6.68416">
        <ele>1938.3</ele>
        <time>2020-07-28T08:34:02Z</time>
      </trkpt>
      <trkpt lat="44.14061" lon="6.6842">
        <ele>1938.6</ele>
        <time>2020-07-28T08:34:06Z</time>
      </trkpt>
      <trkpt lat="44.14057" lon="6.68424">
        <ele>1938.8</ele>
        <time>2020-07-28T08:34:09.999Z</time>
      </trkpt>
      <trkpt lat="44.14053" lon="6.68427">
        <ele>1938.9</ele>
        <time>2020-07-28T08:34:14Z</time>
      </trkpt>
      <trkpt lat="44.14047" lon="6.68429">
        <ele>1938.3</ele>
        <time>2020-07-28T08:34:18.999Z</time>
      </trkpt>
      <trkpt lat="44.14041" lon="6.68431">
        <ele>1937.7</ele>
        <time>2020-07-28T08:34:24Z</time>
      </trkpt>
      <trkpt lat="44.14035" lon="6.68433">
        <ele>1937</ele>
        <time>2020-07-28T08:34:29.499Z</time>
      </trkpt>
      <trkpt lat="44.14029" lon="6.68435">
        <ele>1936.2</ele>
        <time>2020-07-28T08:34:35Z</time>
      </trkpt>
      <trkpt lat="44.14028" lon="6.68436">
        <ele>1936.1</ele>
        <time>2020-07-28T08:34:36Z</time>
      </trkpt>
      <trkpt lat="44.14024" lon="6.68435">
        <ele>1935.9</ele>
        <time>2020-07-28T08:34:40.000Z</time>
      </trkpt>
      <trkpt lat="44.14019" lon="6.68434">
        <ele>1935.7</ele>
        <time>2020-07-28T08:34:44Z</time>
      </trkpt>
      <trkpt lat="44.14014" lon="6.68435">
        <ele>1935.7</ele>
        <time>2020-07-28T08:34:48.000Z</time>
      </trkpt>
      <trkpt lat="44.14009" lon="6.68435">
        <ele>1935.5</ele>
        <time>2020-07-28T08:34:52Z</time>
      </trkpt>
      <trkpt lat="44.14005" lon="6.68435">
        <ele>1935.4</ele>
        <time>2020-07-28T08:34:56.000Z</time>
      </trkpt>
      <trkpt lat="44.14" lon="6.68434">
        <ele>1935.2</ele>
        <time>2020-07-28T08:35:00Z</time>
      </trkpt>
      <trkpt lat="44.13995" lon="6.68435">
        <ele>1935.4</ele>
        <time>2020-07-28T08:35:04.500Z</time>
      </trkpt>
      <trkpt lat="44.1399" lon="6.68436">
        <ele>1935.5</ele>
        <time>2020-07-28T08:35:09Z</time>
      </trkpt>
      <trkpt lat="44.13986" lon="6.68438">
        <ele>1935.7</ele>
        <time>2020-07-28T08:35:12.999Z</time>
      </trkpt>
      <trkpt lat="44.13981" lon="6.6844">
        <ele>1935.8</ele>
        <time>2020-07-28T08:35:17Z</time>
      </trkpt>
      <trkpt lat="44.13975" lon="6.68443">
        <ele>1935.9</ele>
        <time>2020-07-28T08:35:21.999Z</time>
      </trkpt>
      <trkpt lat="44.13969" lon="6.68446">
        <ele>1936.2</ele>
        <time>2020-07-28T08:35:27Z</time>
      </trkpt>
      <trkpt lat="44.13965" lon="6.68447">
        <ele>1936.3</ele>
        <time>2020-07-28T08:35:31.500Z</time>
      </trkpt>
      <trkpt lat="44.1396" lon="6.68448">
        <ele>1936.5</ele>
        <time>2020-07-28T08:35:36Z</time>
      </trkpt>
      <trkpt lat="44.13952" lon="6.68453">
        <ele>1937</ele>
        <time>2020-07-28T08:35:44Z</time>
      </trkpt>
      <trkpt lat="44.13947" lon="6.68457">
        <ele>1937.4</ele>
        <time>2020-07-28T08:35:49Z</time>
      </trkpt>
      <trkpt lat="44.13943" lon="6.68459">
        <ele>1937.5</ele>
        <time>2020-07-28T08:35:53Z</time>
      </trkpt>
      <trkpt lat="44.13939" lon="6.68465">
        <ele>1937.9</ele>
        <time>2020-07-28T08:35:57.999Z</time>
      </trkpt>
      <trkpt lat="44.13935" lon="6.6847">
        <ele>1938.1</ele>
        <time>2020-07-28T08:36:03Z</time>
      </trkpt>
      <trkpt lat="44.13929" lon="6.68479">
        <ele>1938.8</ele>
        <time>2020-07-28T08:36:12Z</time>
      </trkpt>
      <trkpt lat="44.13925" lon="6.68486">
        <ele>1939.4</ele>
        <time>2020-07-28T08:36:20Z</time>
      </trkpt>
      <trkpt lat="44.13924" lon="6.6849">
        <ele>1939.8</ele>
        <time>2020-07-28T08:36:29Z</time>
      </trkpt>
      <trkpt lat="44.13924" lon="6.68491">
        <ele>1939.9</ele>
        <time>2020-07-28T08:36:47Z</time>
      </trkpt>
      <trkpt lat="44.13922" lon="6.68493">
        <ele>1939.9</ele>
        <time>2020-07-28T08:36:49Z</time>
      </trkpt>
      <trkpt lat="44.13914" lon="6.68497">
        <ele>1939.6</ele>
        <time>2020-07-28T08:36:57Z</time>
      </trkpt>
      <trkpt lat="44.13909" lon="6.68499">
        <ele>1939.6</ele>
        <time>2020-07-28T08:37:01.500Z</time>
      </trkpt>
      <trkpt lat="44.13903" lon="6.685">
        <ele>1939.5</ele>
        <time>2020-07-28T08:37:06Z</time>
      </trkpt>
      <trkpt lat="44.13897" lon="6.68502">
        <ele>1939.6</ele>
        <time>2020-07-28T08:37:10.499Z</time>
      </trkpt>
      <trkpt lat="44.13891" lon="6.68504">
        <ele>1939.6</ele>
        <time>2020-07-28T08:37:15Z</time>
      </trkpt>
      <trkpt lat="44.13885" lon="6.68507">
        <ele>1939.8</ele>
        <time>2020-07-28T08:37:20Z</time>
      </trkpt>
      <trkpt lat="44.13878" lon="6.6851">
        <ele>1939.9</ele>
        <time>2020-07-28T08:37:24.999Z</time>
      </trkpt>
      <trkpt lat="44.13871" lon="6.68513">
        <ele>1939.9</ele>
        <time>2020-07-28T08:37:30Z</time>
      </trkpt>
      <trkpt lat="44.13866" lon="6.68516">
        <ele>1940</ele>
        <time>2020-07-28T08:37:33.999Z</time>
      </trkpt>
      <trkpt lat="44.13861" lon="6.68519">
        <ele>1940.1</ele>
        <time>2020-07-28T08:37:38Z</time>
      </trkpt>
      <trkpt lat="44.13856" lon="6.68522">
        <ele>1940.3</ele>
        <time>2020-07-28T08:37:42.499Z</time>
      </trkpt>
      <trkpt lat="44.1385" lon="6.68525">
        <ele>1940.4</ele>
        <time>2020-07-28T08:37:47Z</time>
      </trkpt>
      <trkpt lat="44.13845" lon="6.68529">
        <ele>1940.6</ele>
        <time>2020-07-28T08:37:50.999Z</time>
      </trkpt>
      <trkpt lat="44.1384" lon="6.68532">
        <ele>1940.9</ele>
        <time>2020-07-28T08:37:55Z</time>
      </trkpt>
      <trkpt lat="44.13839" lon="6.68532">
        <ele>1940.9</ele>
        <time>2020-07-28T08:37:56Z</time>
      </trkpt>
      <trkpt lat="44.13835" lon="6.68536">
        <ele>1941.3</ele>
        <time>2020-07-28T08:37:59.999Z</time>
      </trkpt>
      <trkpt lat="44.1383" lon="6.6854">
        <ele>1941.8</ele>
        <time>2020-07-28T08:38:04Z</time>
      </trkpt>
      <trkpt lat="44.13829" lon="6.68541">
        <ele>1941.9</ele>
        <time>2020-07-28T08:38:05Z</time>
      </trkpt>
      <trkpt lat="44.13827" lon="6.68544">
        <ele>1942.3</ele>
        <time>2020-07-28T08:38:10Z</time>
      </trkpt>
      <trkpt lat="44.13823" lon="6.68548">
        <ele>1942.6</ele>
        <time>2020-07-28T08:38:14.499Z</time>
      </trkpt>
      <trkpt lat="44.13819" lon="6.68551">
        <ele>1942.7</ele>
        <time>2020-07-28T08:38:19Z</time>
      </trkpt>
      <trkpt lat="44.13816" lon="6.68553">
        <ele>1942.6</ele>
        <time>2020-07-28T08:38:22Z</time>
      </trkpt>
      <trkpt lat="44.13812" lon="6.68557">
        <ele>1942.6</ele>
        <time>2020-07-28T08:38:25.999Z</time>
      </trkpt>
      <trkpt lat="44.13808" lon="6.6856">
        <ele>1942.5</ele>
        <time>2020-07-28T08:38:30Z</time>
      </trkpt>
      <trkpt lat="44.13805" lon="6.68568">
        <ele>1942.9</ele>
        <time>2020-07-28T08:38:36Z</time>
      </trkpt>
      <trkpt lat="44.13801" lon="6.68572">
        <ele>1943.5</ele>
        <time>2020-07-28T08:38:42Z</time>
      </trkpt>
      <trkpt lat="44.13799" lon="6.68572">
        <ele>1943.7</ele>
        <time>2020-07-28T08:38:44Z</time>
      </trkpt>
      <trkpt lat="44.13796" lon="6.68581">
        <ele>1944.5</ele>
        <time>2020-07-28T08:38:52Z</time>
      </trkpt>
      <trkpt lat="44.13796" lon="6.68583">
        <ele>1944.7</ele>
        <time>2020-07-28T08:39:01Z</time>
      </trkpt>
      <trkpt lat="44.13797" lon="6.68587">
        <ele>1945.2</ele>
        <time>2020-07-28T08:39:09Z</time>
      </trkpt>
      <trkpt lat="44.13798" lon="6.68592">
        <ele>1945.9</ele>
        <time>2020-07-28T08:39:22Z</time>
      </trkpt>
      <trkpt lat="44.13799" lon="6.6859">
        <ele>1945.5</ele>
        <time>2020-07-28T08:39:32Z</time>
      </trkpt>
      <trkpt lat="44.13795" lon="6.68588">
        <ele>1945.6</ele>
        <time>2020-07-28T08:39:39Z</time>
      </trkpt>
      <trkpt lat="44.13794" lon="6.68587">
        <ele>1945.5</ele>
        <time>2020-07-28T08:39:41Z</time>
      </trkpt>
      <trkpt lat="44.13789" lon="6.6859">
        <ele>1946.6</ele>
        <time>2020-07-28T08:39:47Z</time>
      </trkpt>
      <trkpt lat="44.13785" lon="6.68593">
        <ele>1947.8</ele>
        <time>2020-07-28T08:39:54Z</time>
      </trkpt>
      <trkpt lat="44.13783" lon="6.68599">
        <ele>1949.6</ele>
        <time>2020-07-28T08:40:00Z</time>
      </trkpt>
      <trkpt lat="44.1378" lon="6.68605">
        <ele>1951.8</ele>
        <time>2020-07-28T08:40:07Z</time>
      </trkpt>
      <trkpt lat="44.13779" lon="6.68605">
        <ele>1952</ele>
        <time>2020-07-28T08:40:08Z</time>
      </trkpt>
      <trkpt lat="44.13773" lon="6.68609">
        <ele>1953</ele>
        <time>2020-07-28T08:40:15Z</time>
      </trkpt>
      <trkpt lat="44.13768" lon="6.68614">
        <ele>1953.9</ele>
        <time>2020-07-28T08:40:22Z</time>
      </trkpt>
      <trkpt lat="44.13765" lon="6.68616">
        <ele>1954.2</ele>
        <time>2020-07-28T08:40:29Z</time>
      </trkpt>
      <trkpt lat="44.13761" lon="6.68617">
        <ele>1954.1</ele>
        <time>2020-07-28T08:40:35Z</time>
      </trkpt>
      <trkpt lat="44.13757" lon="6.68618">
        <ele>1954</ele>
        <time>2020-07-28T08:40:39.500Z</time>
      </trkpt>
      <trkpt lat="44.13752" lon="6.68618">
        <ele>1953.4</ele>
        <time>2020-07-28T08:40:44Z</time>
      </trkpt>
      <trkpt lat="44.13745" lon="6.6862">
        <ele>1954.1</ele>
        <time>2020-07-28T08:40:52Z</time>
      </trkpt>
      <trkpt lat="44.13744" lon="6.68625">
        <ele>1955.5</ele>
        <time>2020-07-28T08:41:01Z</time>
      </trkpt>
      <trkpt lat="44.13743" lon="6.68628">
        <ele>1956.3</ele>
        <time>2020-07-28T08:41:05Z</time>
      </trkpt>
      <trkpt lat="44.13738" lon="6.68637">
        <ele>1957.9</ele>
        <time>2020-07-28T08:41:13Z</time>
      </trkpt>
      <trkpt lat="44.13738" lon="6.68638">
        <ele>1958.1</ele>
        <time>2020-07-28T08:41:14Z</time>
      </trkpt>
      <trkpt lat="44.13733" lon="6.68644">
        <ele>1958.6</ele>
        <time>2020-07-28T08:41:21Z</time>
      </trkpt>
      <trkpt lat="44.13728" lon="6.68653">
        <ele>1959.6</ele>
        <time>2020-07-28T08:41:30Z</time>
      </trkpt>
      <trkpt lat="44.13724" lon="6.68658">
        <ele>1959.8</ele>
        <time>2020-07-28T08:41:37Z</time>
      </trkpt>
      <trkpt lat="44.13721" lon="6.68664">
        <ele>1960.4</ele>
        <time>2020-07-28T08:41:45Z</time>
      </trkpt>
      <trkpt lat="44.13717" lon="6.68668">
        <ele>1960.9</ele>
        <time>2020-07-28T08:41:50Z</time>
      </trkpt>
      <trkpt lat="44.1371" lon="6.68674">
        <ele>1961.7</ele>
        <time>2020-07-28T08:41:58Z</time>
      </trkpt>
      <trkpt lat="44.13705" lon="6.68678">
        <ele>1962.2</ele>
        <time>2020-07-28T08:42:05Z</time>
      </trkpt>
      <trkpt lat="44.13701" lon="6.68683">
        <ele>1963</ele>
        <time>2020-07-28T08:42:11Z</time>
      </trkpt>
      <trkpt lat="44.13697" lon="6.68689">
        <ele>1964</ele>
        <time>2020-07-28T08:42:19Z</time>
      </trkpt>
      <trkpt lat="44.13694" lon="6.68692">
        <ele>1964.5</ele>
        <time>2020-07-28T08:42:26Z</time>
      </trkpt>
      <trkpt lat="44.13691" lon="6.68696">
        <ele>1965.4</ele>
        <time>2020-07-28T08:42:32Z</time>
      </trkpt>
      <trkpt lat="44.13689" lon="6.68703">
        <ele>1966.7</ele>
        <time>2020-07-28T08:42:39Z</time>
      </trkpt>
      <trkpt lat="44.13684" lon="6.68707">
        <ele>1967.6</ele>
        <time>2020-07-28T08:42:47Z</time>
      </trkpt>
      <trkpt lat="44.1368" lon="6.68711">
        <ele>1968.5</ele>
        <time>2020-07-28T08:42:55Z</time>
      </trkpt>
      <trkpt lat="44.13675" lon="6.68714">
        <ele>1969.2</ele>
        <time>2020-07-28T08:43:02Z</time>
      </trkpt>
      <trkpt lat="44.13672" lon="6.68719">
        <ele>1970.2</ele>
        <time>2020-07-28T08:43:10Z</time>
      </trkpt>
      <trkpt lat="44.13668" lon="6.68723">
        <ele>1971</ele>
        <time>2020-07-28T08:43:17Z</time>
      </trkpt>
      <trkpt lat="44.1366" lon="6.68725">
        <ele>1971.3</ele>
        <time>2020-07-28T08:43:25Z</time>
      </trkpt>
      <trkpt lat="44.13655" lon="6.68729">
        <ele>1971.5</ele>
        <time>2020-07-28T08:43:32Z</time>
      </trkpt>
      <trkpt lat="44.13649" lon="6.68733">
        <ele>1971.9</ele>
        <time>2020-07-28T08:43:40Z</time>
      </trkpt>
      <trkpt lat="44.13645" lon="6.68737">
        <ele>1972.2</ele>
        <time>2020-07-28T08:43:46Z</time>
      </trkpt>
      <trkpt lat="44.13638" lon="6.6874">
        <ele>1972.8</ele>
        <time>2020-07-28T08:43:55Z</time>
      </trkpt>
      <trkpt lat="44.13631" lon="6.68741">
        <ele>1973.8</ele>
        <time>2020-07-28T08:44:04Z</time>
      </trkpt>
      <trkpt lat="44.13625" lon="6.68745">
        <ele>1974.8</ele>
        <time>2020-07-28T08:44:11Z</time>
      </trkpt>
      <trkpt lat="44.13623" lon="6.68748">
        <ele>1975.2</ele>
        <time>2020-07-28T08:44:15Z</time>
      </trkpt>
      <trkpt lat="44.13619" lon="6.68752">
        <ele>1975.8</ele>
        <time>2020-07-28T08:44:20Z</time>
      </trkpt>
      <trkpt lat="44.13614" lon="6.68759">
        <ele>1976.3</ele>
        <time>2020-07-28T08:44:27Z</time>
      </trkpt>
      <trkpt lat="44.13609" lon="6.68763">
        <ele>1976.8</ele>
        <time>2020-07-28T08:44:31.499Z</time>
      </trkpt>
      <trkpt lat="44.13604" lon="6.68767">
        <ele>1977.4</ele>
        <time>2020-07-28T08:44:36Z</time>
      </trkpt>
      <trkpt lat="44.13603" lon="6.68767">
        <ele>1977.6</ele>
        <time>2020-07-28T08:44:37Z</time>
      </trkpt>
      <trkpt lat="44.13598" lon="6.6877">
        <ele>1978.2</ele>
        <time>2020-07-28T08:44:42Z</time>
      </trkpt>
      <trkpt lat="44.13596" lon="6.68771">
        <ele>1978.4</ele>
        <time>2020-07-28T08:44:44Z</time>
      </trkpt>
      <trkpt lat="44.13592" lon="6.68775">
        <ele>1978.9</ele>
        <time>2020-07-28T08:44:48.499Z</time>
      </trkpt>
      <trkpt lat="44.13588" lon="6.68779">
        <ele>1979.2</ele>
        <time>2020-07-28T08:44:53Z</time>
      </trkpt>
      <trkpt lat="44.13584" lon="6.68782">
        <ele>1979.3</ele>
        <time>2020-07-28T08:44:57.499Z</time>
      </trkpt>
      <trkpt lat="44.1358" lon="6.68785">
        <ele>1979.4</ele>
        <time>2020-07-28T08:45:02Z</time>
      </trkpt>
      <trkpt lat="44.13573" lon="6.6879">
        <ele>1979.7</ele>
        <time>2020-07-28T08:45:09Z</time>
      </trkpt>
      <trkpt lat="44.13569" lon="6.68794">
        <ele>1979.7</ele>
        <time>2020-07-28T08:45:13.499Z</time>
      </trkpt>
      <trkpt lat="44.13565" lon="6.68797">
        <ele>1979.9</ele>
        <time>2020-07-28T08:45:18Z</time>
      </trkpt>
      <trkpt lat="44.1356" lon="6.68802">
        <ele>1979.9</ele>
        <time>2020-07-28T08:45:25Z</time>
      </trkpt>
      <trkpt lat="44.13556" lon="6.68805">
        <ele>1980</ele>
        <time>2020-07-28T08:45:29.499Z</time>
      </trkpt>
      <trkpt lat="44.13551" lon="6.68808">
        <ele>1980.1</ele>
        <time>2020-07-28T08:45:34Z</time>
      </trkpt>
      <trkpt lat="44.13544" lon="6.68813">
        <ele>1979.9</ele>
        <time>2020-07-28T08:45:43Z</time>
      </trkpt>
      <trkpt lat="44.13537" lon="6.68819">
        <ele>1979.6</ele>
        <time>2020-07-28T08:45:52Z</time>
      </trkpt>
      <trkpt lat="44.1353" lon="6.68821">
        <ele>1980.3</ele>
        <time>2020-07-28T08:45:59Z</time>
      </trkpt>
      <trkpt lat="44.13525" lon="6.68823">
        <ele>1980.8</ele>
        <time>2020-07-28T08:46:05Z</time>
      </trkpt>
      <trkpt lat="44.13518" lon="6.68828">
        <ele>1981.3</ele>
        <time>2020-07-28T08:46:12Z</time>
      </trkpt>
      <trkpt lat="44.13514" lon="6.68831">
        <ele>1981.5</ele>
        <time>2020-07-28T08:46:16.499Z</time>
      </trkpt>
      <trkpt lat="44.13509" lon="6.68834">
        <ele>1981.9</ele>
        <time>2020-07-28T08:46:21Z</time>
      </trkpt>
      <trkpt lat="44.13502" lon="6.68839">
        <ele>1982.7</ele>
        <time>2020-07-28T08:46:28Z</time>
      </trkpt>
      <trkpt lat="44.13499" lon="6.68839">
        <ele>1983.5</ele>
        <time>2020-07-28T08:46:30Z</time>
      </trkpt>
      <trkpt lat="44.13492" lon="6.68844">
        <ele>1984.5</ele>
        <time>2020-07-28T08:46:37Z</time>
      </trkpt>
      <trkpt lat="44.13485" lon="6.68847">
        <ele>1985.8</ele>
        <time>2020-07-28T08:46:44Z</time>
      </trkpt>
      <trkpt lat="44.13478" lon="6.68851">
        <ele>1986.8</ele>
        <time>2020-07-28T08:46:52Z</time>
      </trkpt>
      <trkpt lat="44.13474" lon="6.68854">
        <ele>1987.1</ele>
        <time>2020-07-28T08:46:56.499Z</time>
      </trkpt>
      <trkpt lat="44.1347" lon="6.68857">
        <ele>1987.7</ele>
        <time>2020-07-28T08:47:01Z</time>
      </trkpt>
      <trkpt lat="44.13465" lon="6.68862">
        <ele>1988.6</ele>
        <time>2020-07-28T08:47:08Z</time>
      </trkpt>
      <trkpt lat="44.1346" lon="6.68865">
        <ele>1990.2</ele>
        <time>2020-07-28T08:47:16Z</time>
      </trkpt>
      <trkpt lat="44.13454" lon="6.68871">
        <ele>1991.7</ele>
        <time>2020-07-28T08:47:24Z</time>
      </trkpt>
      <trkpt lat="44.1345" lon="6.68877">
        <ele>1992.3</ele>
        <time>2020-07-28T08:47:30Z</time>
      </trkpt>
      <trkpt lat="44.13445" lon="6.68882">
        <ele>1992.9</ele>
        <time>2020-07-28T08:47:38Z</time>
      </trkpt>
      <trkpt lat="44.13438" lon="6.68884">
        <ele>1994.6</ele>
        <time>2020-07-28T08:47:45Z</time>
      </trkpt>
      <trkpt lat="44.13435" lon="6.68887">
        <ele>1995</ele>
        <time>2020-07-28T08:47:51Z</time>
      </trkpt>
      <trkpt lat="44.1343" lon="6.68892">
        <ele>1996.2</ele>
        <time>2020-07-28T08:47:58Z</time>
      </trkpt>
      <trkpt lat="44.13426" lon="6.68896">
        <ele>1997.2</ele>
        <time>2020-07-28T08:48:04Z</time>
      </trkpt>
      <trkpt lat="44.1342" lon="6.68898">
        <ele>1998.6</ele>
        <time>2020-07-28T08:48:10Z</time>
      </trkpt>
      <trkpt lat="44.13415" lon="6.68905">
        <ele>1999.2</ele>
        <time>2020-07-28T08:48:17Z</time>
      </trkpt>
      <trkpt lat="44.13409" lon="6.68911">
        <ele>1999.7</ele>
        <time>2020-07-28T08:48:24Z</time>
      </trkpt>
      <trkpt lat="44.13404" lon="6.68916">
        <ele>1999.9</ele>
        <time>2020-07-28T08:48:30Z</time>
      </trkpt>
      <trkpt lat="44.13399" lon="6.6892">
        <ele>2000.6</ele>
        <time>2020-07-28T08:48:35Z</time>
      </trkpt>
      <trkpt lat="44.13396" lon="6.68925">
        <ele>2001.1</ele>
        <time>2020-07-28T08:48:39Z</time>
      </trkpt>
      <trkpt lat="44.13394" lon="6.68926">
        <ele>2001.4</ele>
        <time>2020-07-28T08:48:42Z</time>
      </trkpt>
      <trkpt lat="44.13389" lon="6.6893">
        <ele>2002</ele>
        <time>2020-07-28T08:48:49Z</time>
      </trkpt>
      <trkpt lat="44.13388" lon="6.6893">
        <ele>2002.1</ele>
        <time>2020-07-28T08:48:50Z</time>
      </trkpt>
      <trkpt lat="44.13383" lon="6.68934">
        <ele>2002.7</ele>
        <time>2020-07-28T08:48:57Z</time>
      </trkpt>
      <trkpt lat="44.13378" lon="6.68935">
        <ele>2003.3</ele>
        <time>2020-07-28T08:49:03Z</time>
      </trkpt>
      <trkpt lat="44.13371" lon="6.68939">
        <ele>2003.8</ele>
        <time>2020-07-28T08:49:12Z</time>
      </trkpt>
      <trkpt lat="44.13365" lon="6.68942">
        <ele>2004</ele>
        <time>2020-07-28T08:49:19Z</time>
      </trkpt>
      <trkpt lat="44.13358" lon="6.68947">
        <ele>2004.6</ele>
        <time>2020-07-28T08:49:27Z</time>
      </trkpt>
      <trkpt lat="44.13354" lon="6.6895">
        <ele>2005.4</ele>
        <time>2020-07-28T08:49:30.999Z</time>
      </trkpt>
      <trkpt lat="44.1335" lon="6.68953">
        <ele>2006</ele>
        <time>2020-07-28T08:49:35Z</time>
      </trkpt>
      <trkpt lat="44.13347" lon="6.68957">
        <ele>2006.4</ele>
        <time>2020-07-28T08:49:39Z</time>
      </trkpt>
      <trkpt lat="44.13345" lon="6.68966">
        <ele>2006.1</ele>
        <time>2020-07-28T08:49:46Z</time>
      </trkpt>
      <trkpt lat="44.13347" lon="6.6897">
        <ele>2005.6</ele>
        <time>2020-07-28T08:49:52Z</time>
      </trkpt>
      <trkpt lat="44.13345" lon="6.68971">
        <ele>2005.8</ele>
        <time>2020-07-28T08:50:11Z</time>
      </trkpt>
      <trkpt lat="44.13346" lon="6.68971">
        <ele>2005.7</ele>
        <time>2020-07-28T08:50:30Z</time>
      </trkpt>
      <trkpt lat="44.13346" lon="6.68971">
        <ele>2005.7</ele>
        <time>2020-07-28T08:50:51Z</time>
      </trkpt>
      <trkpt lat="44.13345" lon="6.68971">
        <ele>2005.8</ele>
        <time>2020-07-28T08:51:02Z</time>
      </trkpt>
      <trkpt lat="44.13344" lon="6.68969">
        <ele>2006.1</ele>
        <time>2020-07-28T08:51:13Z</time>
      </trkpt>
      <trkpt lat="44.13343" lon="6.68968">
        <ele>2006.3</ele>
        <time>2020-07-28T08:51:15Z</time>
      </trkpt>
      <trkpt lat="44.13337" lon="6.68972">
        <ele>2006.6</ele>
        <time>2020-07-28T08:51:22Z</time>
      </trkpt>
      <trkpt lat="44.13337" lon="6.68974">
        <ele>2006.6</ele>
        <time>2020-07-28T08:51:23Z</time>
      </trkpt>
      <trkpt lat="44.13333" lon="6.68979">
        <ele>2007</ele>
        <time>2020-07-28T08:51:30Z</time>
      </trkpt>
      <trkpt lat="44.13328" lon="6.68985">
        <ele>2007.6</ele>
        <time>2020-07-28T08:51:38Z</time>
      </trkpt>
      <trkpt lat="44.13328" lon="6.68985">
        <ele>2007.6</ele>
        <time>2020-07-28T08:51:39Z</time>
      </trkpt>
      <trkpt lat="44.13323" lon="6.6899">
        <ele>2008</ele>
        <time>2020-07-28T08:51:47Z</time>
      </trkpt>
      <trkpt lat="44.13323" lon="6.68992">
        <ele>2008</ele>
        <time>2020-07-28T08:51:55Z</time>
      </trkpt>
      <trkpt lat="44.1332" lon="6.68994">
        <ele>2008.2</ele>
        <time>2020-07-28T08:52:08Z</time>
      </trkpt>
      <trkpt lat="44.13315" lon="6.68998">
        <ele>2008.4</ele>
        <time>2020-07-28T08:52:16Z</time>
      </trkpt>
      <trkpt lat="44.13315" lon="6.68997">
        <ele>2008.5</ele>
        <time>2020-07-28T08:52:17Z</time>
      </trkpt>
      <trkpt lat="44.13318" lon="6.68997">
        <ele>2008.2</ele>
        <time>2020-07-28T08:52:20Z</time>
      </trkpt>
      <trkpt lat="44.13324" lon="6.68993">
        <ele>2007.8</ele>
        <time>2020-07-28T08:52:25.000Z</time>
      </trkpt>
      <trkpt lat="44.13329" lon="6.68989">
        <ele>2007.4</ele>
        <time>2020-07-28T08:52:30Z</time>
      </trkpt>
      <trkpt lat="44.13335" lon="6.68983">
        <ele>2006.8</ele>
        <time>2020-07-28T08:52:35.000Z</time>
      </trkpt>
      <trkpt lat="44.13341" lon="6.68977">
        <ele>2006.2</ele>
        <time>2020-07-28T08:52:40Z</time>
      </trkpt>
      <trkpt lat="44.13346" lon="6.68973">
        <ele>2005.6</ele>
        <time>2020-07-28T08:52:45Z</time>
      </trkpt>
      <trkpt lat="44.13345" lon="6.68972">
        <ele>2005.8</ele>
        <time>2020-07-28T08:52:52Z</time>
      </trkpt>
      <trkpt lat="44.13337" lon="6.68975">
        <ele>2006.6</ele>
        <time>2020-07-28T08:53:00Z</time>
      </trkpt>
      <trkpt lat="44.13334" lon="6.6898">
        <ele>2006.9</ele>
        <time>2020-07-28T08:53:05Z</time>
      </trkpt>
      <trkpt lat="44.13328" lon="6.68987">
        <ele>2007.6</ele>
        <time>2020-07-28T08:53:11Z</time>
      </trkpt>
      <trkpt lat="44.1332" lon="6.68992">
        <ele>2008.2</ele>
        <time>2020-07-28T08:53:19Z</time>
      </trkpt>
      <trkpt lat="44.13317" lon="6.68995">
        <ele>2008.4</ele>
        <time>2020-07-28T08:53:23Z</time>
      </trkpt>
      <trkpt lat="44.13316" lon="6.68997">
        <ele>2008.4</ele>
        <time>2020-07-28T08:53:25Z</time>
      </trkpt>
      <trkpt lat="44.13312" lon="6.69">
        <ele>2008.5</ele>
        <time>2020-07-28T08:53:28Z</time>
      </trkpt>
      <trkpt lat="44.13306" lon="6.69004">
        <ele>2009.1</ele>
        <time>2020-07-28T08:53:34Z</time>
      </trkpt>
      <trkpt lat="44.13304" lon="6.69005">
        <ele>2009.4</ele>
        <time>2020-07-28T08:53:36Z</time>
      </trkpt>
      <trkpt lat="44.133" lon="6.69008">
        <ele>2010</ele>
        <time>2020-07-28T08:53:39.999Z</time>
      </trkpt>
      <trkpt lat="44.13295" lon="6.69011">
        <ele>2010.8</ele>
        <time>2020-07-28T08:53:44Z</time>
      </trkpt>
      <trkpt lat="44.13291" lon="6.69013">
        <ele>2011.3</ele>
        <time>2020-07-28T08:53:48Z</time>
      </trkpt>
      <trkpt lat="44.13288" lon="6.69015">
        <ele>2011.7</ele>
        <time>2020-07-28T08:53:51Z</time>
      </trkpt>
      <trkpt lat="44.13284" lon="6.69019">
        <ele>2012.3</ele>
        <time>2020-07-28T08:53:59Z</time>
      </trkpt>
      <trkpt lat="44.13278" lon="6.69025">
        <ele>2013</ele>
        <time>2020-07-28T08:54:06Z</time>
      </trkpt>
      <trkpt lat="44.13274" lon="6.69029">
        <ele>2013</ele>
        <time>2020-07-28T08:54:09.999Z</time>
      </trkpt>
      <trkpt lat="44.1327" lon="6.69032">
        <ele>2013.2</ele>
        <time>2020-07-28T08:54:14Z</time>
      </trkpt>
      <trkpt lat="44.13265" lon="6.69037">
        <ele>2013.5</ele>
        <time>2020-07-28T08:54:19Z</time>
      </trkpt>
      <trkpt lat="44.13262" lon="6.6904">
        <ele>2013.7</ele>
        <time>2020-07-28T08:54:22Z</time>
      </trkpt>
      <trkpt lat="44.1326" lon="6.69041">
        <ele>2013.8</ele>
        <time>2020-07-28T08:54:24Z</time>
      </trkpt>
      <trkpt lat="44.13256" lon="6.69042">
        <ele>2013.9</ele>
        <time>2020-07-28T08:54:27Z</time>
      </trkpt>
      <trkpt lat="44.13248" lon="6.69047">
        <ele>2014.5</ele>
        <time>2020-07-28T08:54:36Z</time>
      </trkpt>
      <trkpt lat="44.13242" lon="6.6905">
        <ele>2014.8</ele>
        <time>2020-07-28T08:54:42Z</time>
      </trkpt>
      <trkpt lat="44.13238" lon="6.69054">
        <ele>2015</ele>
        <time>2020-07-28T08:54:45.999Z</time>
      </trkpt>
      <trkpt lat="44.13234" lon="6.69057">
        <ele>2015.1</ele>
        <time>2020-07-28T08:54:50Z</time>
      </trkpt>
      <trkpt lat="44.13227" lon="6.69061">
        <ele>2015.7</ele>
        <time>2020-07-28T08:54:57Z</time>
      </trkpt>
      <trkpt lat="44.13221" lon="6.69067">
        <ele>2016.7</ele>
        <time>2020-07-28T08:55:05Z</time>
      </trkpt>
      <trkpt lat="44.13217" lon="6.69071">
        <ele>2017.5</ele>
        <time>2020-07-28T08:55:08.999Z</time>
      </trkpt>
      <trkpt lat="44.13212" lon="6.69074">
        <ele>2018</ele>
        <time>2020-07-28T08:55:13Z</time>
      </trkpt>
      <trkpt lat="44.13206" lon="6.69078">
        <ele>2018.6</ele>
        <time>2020-07-28T08:55:20Z</time>
      </trkpt>
      <trkpt lat="44.13201" lon="6.69082">
        <ele>2018.9</ele>
        <time>2020-07-28T08:55:26Z</time>
      </trkpt>
      <trkpt lat="44.13196" lon="6.69087">
        <ele>2019.1</ele>
        <time>2020-07-28T08:55:33Z</time>
      </trkpt>
      <trkpt lat="44.13189" lon="6.6909">
        <ele>2019.4</ele>
        <time>2020-07-28T08:55:40Z</time>
      </trkpt>
      <trkpt lat="44.13185" lon="6.69092">
        <ele>2019.7</ele>
        <time>2020-07-28T08:55:43.999Z</time>
      </trkpt>
      <trkpt lat="44.1318" lon="6.69094">
        <ele>2019.9</ele>
        <time>2020-07-28T08:55:48Z</time>
      </trkpt>
      <trkpt lat="44.13179" lon="6.69095">
        <ele>2020</ele>
        <time>2020-07-28T08:55:49Z</time>
      </trkpt>
      <trkpt lat="44.13173" lon="6.69099">
        <ele>2020.3</ele>
        <time>2020-07-28T08:55:55Z</time>
      </trkpt>
      <trkpt lat="44.13166" lon="6.69106">
        <ele>2020.9</ele>
        <time>2020-07-28T08:56:02Z</time>
      </trkpt>
      <trkpt lat="44.13162" lon="6.69109">
        <ele>2021.1</ele>
        <time>2020-07-28T08:56:05.999Z</time>
      </trkpt>
      <trkpt lat="44.13158" lon="6.69112">
        <ele>2021.3</ele>
        <time>2020-07-28T08:56:10Z</time>
      </trkpt>
      <trkpt lat="44.13153" lon="6.69117">
        <ele>2021.6</ele>
        <time>2020-07-28T08:56:16Z</time>
      </trkpt>
      <trkpt lat="44.13153" lon="6.69118">
        <ele>2021.6</ele>
        <time>2020-07-28T08:56:17Z</time>
      </trkpt>
      <trkpt lat="44.13149" lon="6.69122">
        <ele>2021.9</ele>
        <time>2020-07-28T08:56:22Z</time>
      </trkpt>
      <trkpt lat="44.13142" lon="6.69128">
        <ele>2022.4</ele>
        <time>2020-07-28T08:56:30Z</time>
      </trkpt>
      <trkpt lat="44.13134" lon="6.69132">
        <ele>2023.1</ele>
        <time>2020-07-28T08:56:37Z</time>
      </trkpt>
      <trkpt lat="44.13128" lon="6.69136">
        <ele>2023.7</ele>
        <time>2020-07-28T08:56:44Z</time>
      </trkpt>
      <trkpt lat="44.13126" lon="6.69137">
        <ele>2023.9</ele>
        <time>2020-07-28T08:56:46Z</time>
      </trkpt>
      <trkpt lat="44.13122" lon="6.6914">
        <ele>2024.2</ele>
        <time>2020-07-28T08:56:50.499Z</time>
      </trkpt>
      <trkpt lat="44.13118" lon="6.69143">
        <ele>2024.5</ele>
        <time>2020-07-28T08:56:55Z</time>
      </trkpt>
      <trkpt lat="44.13111" lon="6.69147">
        <ele>2025.3</ele>
        <time>2020-07-28T08:57:02Z</time>
      </trkpt>
      <trkpt lat="44.13103" lon="6.69152">
        <ele>2026.5</ele>
        <time>2020-07-28T08:57:11Z</time>
      </trkpt>
      <trkpt lat="44.13097" lon="6.69155">
        <ele>2027.3</ele>
        <time>2020-07-28T08:57:17Z</time>
      </trkpt>
      <trkpt lat="44.13091" lon="6.69159">
        <ele>2028.1</ele>
        <time>2020-07-28T08:57:24Z</time>
      </trkpt>
      <trkpt lat="44.13088" lon="6.6916">
        <ele>2028.5</ele>
        <time>2020-07-28T08:57:27Z</time>
      </trkpt>
      <trkpt lat="44.13082" lon="6.69165">
        <ele>2029.2</ele>
        <time>2020-07-28T08:57:34Z</time>
      </trkpt>
      <trkpt lat="44.13076" lon="6.69168">
        <ele>2030</ele>
        <time>2020-07-28T08:57:41Z</time>
      </trkpt>
      <trkpt lat="44.13068" lon="6.69171">
        <ele>2031.1</ele>
        <time>2020-07-28T08:57:48Z</time>
      </trkpt>
      <trkpt lat="44.13064" lon="6.69174">
        <ele>2031.5</ele>
        <time>2020-07-28T08:57:52.499Z</time>
      </trkpt>
      <trkpt lat="44.13059" lon="6.69176">
        <ele>2032.2</ele>
        <time>2020-07-28T08:57:57Z</time>
      </trkpt>
      <trkpt lat="44.13053" lon="6.69177">
        <ele>2032.8</ele>
        <time>2020-07-28T08:58:03Z</time>
      </trkpt>
      <trkpt lat="44.13049" lon="6.69178">
        <ele>2032.9</ele>
        <time>2020-07-28T08:58:07.000Z</time>
      </trkpt>
      <trkpt lat="44.13044" lon="6.69179">
        <ele>2033.2</ele>
        <time>2020-07-28T08:58:11Z</time>
      </trkpt>
      <trkpt lat="44.13038" lon="6.6918">
        <ele>2033.5</ele>
        <time>2020-07-28T08:58:17Z</time>
      </trkpt>
      <trkpt lat="44.13034" lon="6.6918">
        <ele>2033.7</ele>
        <time>2020-07-28T08:58:20Z</time>
      </trkpt>
      <trkpt lat="44.13026" lon="6.69179">
        <ele>2034.1</ele>
        <time>2020-07-28T08:58:28Z</time>
      </trkpt>
      <trkpt lat="44.13022" lon="6.69179">
        <ele>2034.2</ele>
        <time>2020-07-28T08:58:32.000Z</time>
      </trkpt>
      <trkpt lat="44.13017" lon="6.69179">
        <ele>2034.4</ele>
        <time>2020-07-28T08:58:36Z</time>
      </trkpt>
      <trkpt lat="44.13009" lon="6.69179">
        <ele>2034.8</ele>
        <time>2020-07-28T08:58:44Z</time>
      </trkpt>
      <trkpt lat="44.13003" lon="6.69181">
        <ele>2034.9</ele>
        <time>2020-07-28T08:58:50Z</time>
      </trkpt>
      <trkpt lat="44.12998" lon="6.69181">
        <ele>2034.9</ele>
        <time>2020-07-28T08:58:54.500Z</time>
      </trkpt>
      <trkpt lat="44.12993" lon="6.6918">
        <ele>2034.7</ele>
        <time>2020-07-28T08:58:59Z</time>
      </trkpt>
      <trkpt lat="44.12989" lon="6.69178">
        <ele>2034.6</ele>
        <time>2020-07-28T08:59:04Z</time>
      </trkpt>
      <trkpt lat="44.12983" lon="6.69176">
        <ele>2034.5</ele>
        <time>2020-07-28T08:59:10Z</time>
      </trkpt>
      <trkpt lat="44.12978" lon="6.69182">
        <ele>2033.7</ele>
        <time>2020-07-28T08:59:16Z</time>
      </trkpt>
      <trkpt lat="44.12972" lon="6.69187">
        <ele>2032.8</ele>
        <time>2020-07-28T08:59:22Z</time>
      </trkpt>
      <trkpt lat="44.12964" lon="6.69186">
        <ele>2033.5</ele>
        <time>2020-07-28T08:59:28Z</time>
      </trkpt>
      <trkpt lat="44.12959" lon="6.69189">
        <ele>2033.5</ele>
        <time>2020-07-28T08:59:32.499Z</time>
      </trkpt>
      <trkpt lat="44.12953" lon="6.69191">
        <ele>2033.8</ele>
        <time>2020-07-28T08:59:37Z</time>
      </trkpt>
      <trkpt lat="44.12952" lon="6.69191">
        <ele>2033.8</ele>
        <time>2020-07-28T08:59:38Z</time>
      </trkpt>
      <trkpt lat="44.12948" lon="6.69193">
        <ele>2033.9</ele>
        <time>2020-07-28T08:59:41.500Z</time>
      </trkpt>
      <trkpt lat="44.12943" lon="6.69194">
        <ele>2034.2</ele>
        <time>2020-07-28T08:59:45Z</time>
      </trkpt>
      <trkpt lat="44.12941" lon="6.69195">
        <ele>2034.3</ele>
        <time>2020-07-28T08:59:47Z</time>
      </trkpt>
      <trkpt lat="44.12937" lon="6.69197">
        <ele>2034.5</ele>
        <time>2020-07-28T08:59:51Z</time>
      </trkpt>
      <trkpt lat="44.12932" lon="6.69199">
        <ele>2034.7</ele>
        <time>2020-07-28T08:59:55.499Z</time>
      </trkpt>
      <trkpt lat="44.12927" lon="6.69201">
        <ele>2034.9</ele>
        <time>2020-07-28T09:00:00Z</time>
      </trkpt>
      <trkpt lat="44.12922" lon="6.69202">
        <ele>2035.2</ele>
        <time>2020-07-28T09:00:05.000Z</time>
      </trkpt>
      <trkpt lat="44.12916" lon="6.69202">
        <ele>2035.7</ele>
        <time>2020-07-28T09:00:10Z</time>
      </trkpt>
      <trkpt lat="44.12912" lon="6.69205">
        <ele>2035.8</ele>
        <time>2020-07-28T09:00:15Z</time>
      </trkpt>
      <trkpt lat="44.12908" lon="6.69209">
        <ele>2035.6</ele>
        <time>2020-07-28T09:00:19.499Z</time>
      </trkpt>
      <trkpt lat="44.12904" lon="6.69213">
        <ele>2035.3</ele>
        <time>2020-07-28T09:00:24Z</time>
      </trkpt>
      <trkpt lat="44.12903" lon="6.69215">
        <ele>2035</ele>
        <time>2020-07-28T09:00:26Z</time>
      </trkpt>
      <trkpt lat="44.12895" lon="6.69218">
        <ele>2035.3</ele>
        <time>2020-07-28T09:00:34Z</time>
      </trkpt>
      <trkpt lat="44.1289" lon="6.69218">
        <ele>2035.9</ele>
        <time>2020-07-28T09:00:39Z</time>
      </trkpt>
      <trkpt lat="44.12885" lon="6.69221">
        <ele>2036.5</ele>
        <time>2020-07-28T09:00:45Z</time>
      </trkpt>
      <trkpt lat="44.1288" lon="6.69226">
        <ele>2037.1</ele>
        <time>2020-07-28T09:00:51Z</time>
      </trkpt>
      <trkpt lat="44.12875" lon="6.69227">
        <ele>2038.6</ele>
        <time>2020-07-28T09:00:56Z</time>
      </trkpt>
      <trkpt lat="44.1287" lon="6.69235">
        <ele>2038.7</ele>
        <time>2020-07-28T09:01:04Z</time>
      </trkpt>
      <trkpt lat="44.12864" lon="6.69241">
        <ele>2039.6</ele>
        <time>2020-07-28T09:01:11Z</time>
      </trkpt>
      <trkpt lat="44.12862" lon="6.69242">
        <ele>2040.1</ele>
        <time>2020-07-28T09:01:13Z</time>
      </trkpt>
      <trkpt lat="44.12857" lon="6.69247">
        <ele>2040.6</ele>
        <time>2020-07-28T09:01:18Z</time>
      </trkpt>
      <trkpt lat="44.12854" lon="6.69252">
        <ele>2040.5</ele>
        <time>2020-07-28T09:01:23Z</time>
      </trkpt>
      <trkpt lat="44.12848" lon="6.69258">
        <ele>2041.2</ele>
        <time>2020-07-28T09:01:30Z</time>
      </trkpt>
      <trkpt lat="44.12841" lon="6.69259">
        <ele>2042.8</ele>
        <time>2020-07-28T09:01:37Z</time>
      </trkpt>
      <trkpt lat="44.12837" lon="6.69262">
        <ele>2043.3</ele>
        <time>2020-07-28T09:01:41Z</time>
      </trkpt>
      <trkpt lat="44.12832" lon="6.69267">
        <ele>2043.8</ele>
        <time>2020-07-28T09:01:46Z</time>
      </trkpt>
      <trkpt lat="44.12827" lon="6.69273">
        <ele>2043.8</ele>
        <time>2020-07-28T09:01:52Z</time>
      </trkpt>
      <trkpt lat="44.12824" lon="6.6928">
        <ele>2043.4</ele>
        <time>2020-07-28T09:01:57Z</time>
      </trkpt>
      <trkpt lat="44.12821" lon="6.69284">
        <ele>2043.4</ele>
        <time>2020-07-28T09:02:02Z</time>
      </trkpt>
      <trkpt lat="44.12813" lon="6.69288">
        <ele>2044.3</ele>
        <time>2020-07-28T09:02:10Z</time>
      </trkpt>
      <trkpt lat="44.12809" lon="6.69293">
        <ele>2044.3</ele>
        <time>2020-07-28T09:02:14.499Z</time>
      </trkpt>
      <trkpt lat="44.12804" lon="6.69298">
        <ele>2044.4</ele>
        <time>2020-07-28T09:02:19Z</time>
      </trkpt>
      <trkpt lat="44.12799" lon="6.69302">
        <ele>2044.7</ele>
        <time>2020-07-28T09:02:23.499Z</time>
      </trkpt>
      <trkpt lat="44.12794" lon="6.69306">
        <ele>2045.1</ele>
        <time>2020-07-28T09:02:28Z</time>
      </trkpt>
      <trkpt lat="44.1279" lon="6.6931">
        <ele>2046</ele>
        <time>2020-07-28T09:02:32.999Z</time>
      </trkpt>
      <trkpt lat="44.12785" lon="6.69314">
        <ele>2047.1</ele>
        <time>2020-07-28T09:02:38Z</time>
      </trkpt>
      <trkpt lat="44.12782" lon="6.69317">
        <ele>2047.7</ele>
        <time>2020-07-28T09:02:42Z</time>
      </trkpt>
      <trkpt lat="44.12775" lon="6.69322">
        <ele>2049</ele>
        <time>2020-07-28T09:02:49Z</time>
      </trkpt>
      <trkpt lat="44.12772" lon="6.69325">
        <ele>2049.4</ele>
        <time>2020-07-28T09:02:53Z</time>
      </trkpt>
      <trkpt lat="44.12769" lon="6.69329">
        <ele>2049.7</ele>
        <time>2020-07-28T09:02:56Z</time>
      </trkpt>
      <trkpt lat="44.12765" lon="6.69334">
        <ele>2049.9</ele>
        <time>2020-07-28T09:03:01Z</time>
      </trkpt>
      <trkpt lat="44.1276" lon="6.69339">
        <ele>2049.7</ele>
        <time>2020-07-28T09:03:06Z</time>
      </trkpt>
      <trkpt lat="44.12756" lon="6.69346">
        <ele>2049</ele>
        <time>2020-07-28T09:03:11.499Z</time>
      </trkpt>
      <trkpt lat="44.12752" lon="6.69352">
        <ele>2048.3</ele>
        <time>2020-07-28T09:03:17Z</time>
      </trkpt>
      <trkpt lat="44.12748" lon="6.69356">
        <ele>2048</ele>
        <time>2020-07-28T09:03:20.999Z</time>
      </trkpt>
      <trkpt lat="44.12744" lon="6.6936">
        <ele>2048</ele>
        <time>2020-07-28T09:03:25Z</time>
      </trkpt>
      <trkpt lat="44.12741" lon="6.69367">
        <ele>2047.9</ele>
        <time>2020-07-28T09:03:30Z</time>
      </trkpt>
      <trkpt lat="44.12738" lon="6.69372">
        <ele>2047.9</ele>
        <time>2020-07-28T09:03:33.999Z</time>
      </trkpt>
      <trkpt lat="44.12734" lon="6.69377">
        <ele>2048.2</ele>
        <time>2020-07-28T09:03:38Z</time>
      </trkpt>
      <trkpt lat="44.1273" lon="6.69381">
        <ele>2048.4</ele>
        <time>2020-07-28T09:03:43Z</time>
      </trkpt>
      <trkpt lat="44.12726" lon="6.69385">
        <ele>2048.7</ele>
        <time>2020-07-28T09:03:47Z</time>
      </trkpt>
      <trkpt lat="44.1272" lon="6.69394">
        <ele>2048.8</ele>
        <time>2020-07-28T09:03:55Z</time>
      </trkpt>
      <trkpt lat="44.12716" lon="6.69401">
        <ele>2048.5</ele>
        <time>2020-07-28T09:04:01Z</time>
      </trkpt>
      <trkpt lat="44.1271" lon="6.69407">
        <ele>2048.5</ele>
        <time>2020-07-28T09:04:08Z</time>
      </trkpt>
      <trkpt lat="44.12708" lon="6.69409">
        <ele>2048.5</ele>
        <time>2020-07-28T09:04:10Z</time>
      </trkpt>
      <trkpt lat="44.12705" lon="6.69415">
        <ele>2048.1</ele>
        <time>2020-07-28T09:04:14.999Z</time>
      </trkpt>
      <trkpt lat="44.12701" lon="6.69421">
        <ele>2047.9</ele>
        <time>2020-07-28T09:04:20Z</time>
      </trkpt>
      <trkpt lat="44.12699" lon="6.69426">
        <ele>2047.7</ele>
        <time>2020-07-28T09:04:25Z</time>
      </trkpt>
      <trkpt lat="44.12696" lon="6.69427">
        <ele>2048</ele>
        <time>2020-07-28T09:04:28Z</time>
      </trkpt>
      <trkpt lat="44.12693" lon="6.69431">
        <ele>2048.1</ele>
        <time>2020-07-28T09:04:32.499Z</time>
      </trkpt>
      <trkpt lat="44.12689" lon="6.69435">
        <ele>2048.3</ele>
        <time>2020-07-28T09:04:37Z</time>
      </trkpt>
      <trkpt lat="44.12684" lon="6.69439">
        <ele>2048.5</ele>
        <time>2020-07-28T09:04:42Z</time>
      </trkpt>
      <trkpt lat="44.1268" lon="6.69442">
        <ele>2048.7</ele>
        <time>2020-07-28T09:04:45.999Z</time>
      </trkpt>
      <trkpt lat="44.12676" lon="6.69445">
        <ele>2048.9</ele>
        <time>2020-07-28T09:04:50Z</time>
      </trkpt>
      <trkpt lat="44.12671" lon="6.69448">
        <ele>2049.3</ele>
        <time>2020-07-28T09:04:53.999Z</time>
      </trkpt>
      <trkpt lat="44.12666" lon="6.69451">
        <ele>2049.5</ele>
        <time>2020-07-28T09:04:58Z</time>
      </trkpt>
      <trkpt lat="44.12659" lon="6.69456">
        <ele>2049.2</ele>
        <time>2020-07-28T09:05:06Z</time>
      </trkpt>
      <trkpt lat="44.12656" lon="6.69457">
        <ele>2049.1</ele>
        <time>2020-07-28T09:05:08Z</time>
      </trkpt>
      <trkpt lat="44.12648" lon="6.6946">
        <ele>2048.9</ele>
        <time>2020-07-28T09:05:15Z</time>
      </trkpt>
      <trkpt lat="44.12643" lon="6.69463">
        <ele>2048.7</ele>
        <time>2020-07-28T09:05:20Z</time>
      </trkpt>
      <trkpt lat="44.12638" lon="6.69465">
        <ele>2048.5</ele>
        <time>2020-07-28T09:05:23.999Z</time>
      </trkpt>
      <trkpt lat="44.12633" lon="6.69467">
        <ele>2048.2</ele>
        <time>2020-07-28T09:05:28Z</time>
      </trkpt>
      <trkpt lat="44.12629" lon="6.69468">
        <ele>2047.9</ele>
        <time>2020-07-28T09:05:31.500Z</time>
      </trkpt>
      <trkpt lat="44.12624" lon="6.69468">
        <ele>2047.8</ele>
        <time>2020-07-28T09:05:35Z</time>
      </trkpt>
      <trkpt lat="44.12616" lon="6.69473">
        <ele>2047.1</ele>
        <time>2020-07-28T09:05:43Z</time>
      </trkpt>
      <trkpt lat="44.12612" lon="6.69477">
        <ele>2046.7</ele>
        <time>2020-07-28T09:05:47.499Z</time>
      </trkpt>
      <trkpt lat="44.12607" lon="6.6948">
        <ele>2046.4</ele>
        <time>2020-07-28T09:05:52Z</time>
      </trkpt>
      <trkpt lat="44.12603" lon="6.69483">
        <ele>2046.2</ele>
        <time>2020-07-28T09:05:56.499Z</time>
      </trkpt>
      <trkpt lat="44.12598" lon="6.69485">
        <ele>2046.1</ele>
        <time>2020-07-28T09:06:01Z</time>
      </trkpt>
      <trkpt lat="44.12591" lon="6.69488">
        <ele>2045.9</ele>
        <time>2020-07-28T09:06:08Z</time>
      </trkpt>
      <trkpt lat="44.12586" lon="6.69489">
        <ele>2045.8</ele>
        <time>2020-07-28T09:06:12.000Z</time>
      </trkpt>
      <trkpt lat="44.1258" lon="6.69489">
        <ele>2046.3</ele>
        <time>2020-07-28T09:06:16Z</time>
      </trkpt>
      <trkpt lat="44.12576" lon="6.69494">
        <ele>2046.5</ele>
        <time>2020-07-28T09:06:20.499Z</time>
      </trkpt>
      <trkpt lat="44.12572" lon="6.69498">
        <ele>2046.5</ele>
        <time>2020-07-28T09:06:25Z</time>
      </trkpt>
      <trkpt lat="44.12568" lon="6.69502">
        <ele>2046.5</ele>
        <time>2020-07-28T09:06:29Z</time>
      </trkpt>
      <trkpt lat="44.12563" lon="6.69506">
        <ele>2046.7</ele>
        <time>2020-07-28T09:06:33.499Z</time>
      </trkpt>
      <trkpt lat="44.12558" lon="6.69509">
        <ele>2046.8</ele>
        <time>2020-07-28T09:06:38Z</time>
      </trkpt>
      <trkpt lat="44.1255" lon="6.69513">
        <ele>2046.9</ele>
        <time>2020-07-28T09:06:46Z</time>
      </trkpt>
      <trkpt lat="44.12545" lon="6.69513">
        <ele>2047.2</ele>
        <time>2020-07-28T09:06:50.000Z</time>
      </trkpt>
      <trkpt lat="44.12539" lon="6.69513">
        <ele>2047.5</ele>
        <time>2020-07-28T09:06:54Z</time>
      </trkpt>
      <trkpt lat="44.12535" lon="6.69514">
        <ele>2047.6</ele>
        <time>2020-07-28T09:06:57.500Z</time>
      </trkpt>
      <trkpt lat="44.1253" lon="6.69515">
        <ele>2047.7</ele>
        <time>2020-07-28T09:07:01Z</time>
      </trkpt>
      <trkpt lat="44.12523" lon="6.69514">
        <ele>2048.2</ele>
        <time>2020-07-28T09:07:08Z</time>
      </trkpt>
      <trkpt lat="44.12519" lon="6.69512">
        <ele>2048.8</ele>
        <time>2020-07-28T09:07:12Z</time>
      </trkpt>
      <trkpt lat="44.12514" lon="6.69512">
        <ele>2049</ele>
        <time>2020-07-28T09:07:16.000Z</time>
      </trkpt>
      <trkpt lat="44.12509" lon="6.69512">
        <ele>2049.3</ele>
        <time>2020-07-28T09:07:20Z</time>
      </trkpt>
      <trkpt lat="44.12507" lon="6.69512">
        <ele>2049.4</ele>
        <time>2020-07-28T09:07:21Z</time>
      </trkpt>
      <trkpt lat="44.12502" lon="6.69511">
        <ele>2049.9</ele>
        <time>2020-07-28T09:07:25Z</time>
      </trkpt>
      <trkpt lat="44.12498" lon="6.69514">
        <ele>2049.7</ele>
        <time>2020-07-28T09:07:29.499Z</time>
      </trkpt>
      <trkpt lat="44.12493" lon="6.69516">
        <ele>2049.7</ele>
        <time>2020-07-28T09:07:34Z</time>
      </trkpt>
      <trkpt lat="44.12487" lon="6.69518">
        <ele>2049.9</ele>
        <time>2020-07-28T09:07:39Z</time>
      </trkpt>
      <trkpt lat="44.12483" lon="6.6952">
        <ele>2049.8</ele>
        <time>2020-07-28T09:07:42Z</time>
      </trkpt>
      <trkpt lat="44.12481" lon="6.69522">
        <ele>2049.6</ele>
        <time>2020-07-28T09:07:44Z</time>
      </trkpt>
      <trkpt lat="44.12476" lon="6.69529">
        <ele>2048.7</ele>
        <time>2020-07-28T09:07:50Z</time>
      </trkpt>
      <trkpt lat="44.12468" lon="6.69533">
        <ele>2049.1</ele>
        <time>2020-07-28T09:07:57Z</time>
      </trkpt>
      <trkpt lat="44.12461" lon="6.69533">
        <ele>2049.5</ele>
        <time>2020-07-28T09:08:04Z</time>
      </trkpt>
      <trkpt lat="44.12457" lon="6.69536">
        <ele>2049.5</ele>
        <time>2020-07-28T09:08:08.499Z</time>
      </trkpt>
      <trkpt lat="44.12452" lon="6.69539">
        <ele>2049.5</ele>
        <time>2020-07-28T09:08:13Z</time>
      </trkpt>
      <trkpt lat="44.1245" lon="6.69541">
        <ele>2049.4</ele>
        <time>2020-07-28T09:08:15Z</time>
      </trkpt>
      <trkpt lat="44.12446" lon="6.69545">
        <ele>2049.1</ele>
        <time>2020-07-28T09:08:18.999Z</time>
      </trkpt>
      <trkpt lat="44.12441" lon="6.69548">
        <ele>2049.3</ele>
        <time>2020-07-28T09:08:23Z</time>
      </trkpt>
      <trkpt lat="44.12438" lon="6.69552">
        <ele>2049.2</ele>
        <time>2020-07-28T09:08:27.499Z</time>
      </trkpt>
      <trkpt lat="44.12434" lon="6.69556">
        <ele>2049.1</ele>
        <time>2020-07-28T09:08:32Z</time>
      </trkpt>
      <trkpt lat="44.12431" lon="6.69559">
        <ele>2049.4</ele>
        <time>2020-07-28T09:08:35Z</time>
      </trkpt>
      <trkpt lat="44.12429" lon="6.6956">
        <ele>2049.6</ele>
        <time>2020-07-28T09:08:37Z</time>
      </trkpt>
      <trkpt lat="44.12421" lon="6.69564">
        <ele>2050.1</ele>
        <time>2020-07-28T09:08:44Z</time>
      </trkpt>
      <trkpt lat="44.12419" lon="6.69566">
        <ele>2050.1</ele>
        <time>2020-07-28T09:08:46Z</time>
      </trkpt>
      <trkpt lat="44.12415" lon="6.69569">
        <ele>2050.3</ele>
        <time>2020-07-28T09:08:50Z</time>
      </trkpt>
      <trkpt lat="44.12411" lon="6.69573">
        <ele>2050.5</ele>
        <time>2020-07-28T09:08:54.499Z</time>
      </trkpt>
      <trkpt lat="44.12407" lon="6.69576">
        <ele>2050.6</ele>
        <time>2020-07-28T09:08:59Z</time>
      </trkpt>
      <trkpt lat="44.124" lon="6.6958">
        <ele>2050.7</ele>
        <time>2020-07-28T09:09:05Z</time>
      </trkpt>
      <trkpt lat="44.12396" lon="6.69583">
        <ele>2050.5</ele>
        <time>2020-07-28T09:09:08.499Z</time>
      </trkpt>
      <trkpt lat="44.12392" lon="6.69586">
        <ele>2050.7</ele>
        <time>2020-07-28T09:09:12Z</time>
      </trkpt>
      <trkpt lat="44.12386" lon="6.69591">
        <ele>2051</ele>
        <time>2020-07-28T09:09:18Z</time>
      </trkpt>
      <trkpt lat="44.12381" lon="6.69595">
        <ele>2051.3</ele>
        <time>2020-07-28T09:09:23Z</time>
      </trkpt>
      <trkpt lat="44.12376" lon="6.69598">
        <ele>2051.6</ele>
        <time>2020-07-28T09:09:29Z</time>
      </trkpt>
      <trkpt lat="44.12368" lon="6.69596">
        <ele>2052.5</ele>
        <time>2020-07-28T09:09:36Z</time>
      </trkpt>
      <trkpt lat="44.12362" lon="6.69595">
        <ele>2053.1</ele>
        <time>2020-07-28T09:09:43Z</time>
      </trkpt>
      <trkpt lat="44.12357" lon="6.69597">
        <ele>2053.1</ele>
        <time>2020-07-28T09:09:48Z</time>
      </trkpt>
      <trkpt lat="44.12352" lon="6.69597">
        <ele>2053.2</ele>
        <time>2020-07-28T09:09:52.500Z</time>
      </trkpt>
      <trkpt lat="44.12347" lon="6.69596">
        <ele>2053.4</ele>
        <time>2020-07-28T09:09:57Z</time>
      </trkpt>
      <trkpt lat="44.12347" lon="6.69596">
        <ele>2053.4</ele>
        <time>2020-07-28T09:09:58Z</time>
      </trkpt>
      <trkpt lat="44.12345" lon="6.69595">
        <ele>2053.5</ele>
        <time>2020-07-28T09:10:00Z</time>
      </trkpt>
      <trkpt lat="44.12341" lon="6.69593">
        <ele>2053.8</ele>
        <time>2020-07-28T09:10:03.499Z</time>
      </trkpt>
      <trkpt lat="44.12336" lon="6.69591">
        <ele>2054.1</ele>
        <time>2020-07-28T09:10:07Z</time>
      </trkpt>
      <trkpt lat="44.12334" lon="6.69591">
        <ele>2054.2</ele>
        <time>2020-07-28T09:10:09Z</time>
      </trkpt>
      <trkpt lat="44.12326" lon="6.69594">
        <ele>2054.7</ele>
        <time>2020-07-28T09:10:16Z</time>
      </trkpt>
      <trkpt lat="44.12322" lon="6.69598">
        <ele>2054.6</ele>
        <time>2020-07-28T09:10:20.499Z</time>
      </trkpt>
      <trkpt lat="44.12317" lon="6.69601">
        <ele>2054.7</ele>
        <time>2020-07-28T09:10:25Z</time>
      </trkpt>
      <trkpt lat="44.12315" lon="6.69602">
        <ele>2054.7</ele>
        <time>2020-07-28T09:10:26Z</time>
      </trkpt>
      <trkpt lat="44.1231" lon="6.69607">
        <ele>2054.4</ele>
        <time>2020-07-28T09:10:32Z</time>
      </trkpt>
      <trkpt lat="44.12307" lon="6.69612">
        <ele>2053.9</ele>
        <time>2020-07-28T09:10:35.999Z</time>
      </trkpt>
      <trkpt lat="44.12303" lon="6.69616">
        <ele>2054.1</ele>
        <time>2020-07-28T09:10:40Z</time>
      </trkpt>
      <trkpt lat="44.12298" lon="6.6962">
        <ele>2054.3</ele>
        <time>2020-07-28T09:10:45Z</time>
      </trkpt>
      <trkpt lat="44.12294" lon="6.69623">
        <ele>2054.5</ele>
        <time>2020-07-28T09:10:50Z</time>
      </trkpt>
      <trkpt lat="44.12288" lon="6.69623">
        <ele>2054.9</ele>
        <time>2020-07-28T09:10:56Z</time>
      </trkpt>
      <trkpt lat="44.12282" lon="6.69626">
        <ele>2055.1</ele>
        <time>2020-07-28T09:11:02Z</time>
      </trkpt>
      <trkpt lat="44.12275" lon="6.6963">
        <ele>2055</ele>
        <time>2020-07-28T09:11:09Z</time>
      </trkpt>
      <trkpt lat="44.12271" lon="6.69631">
        <ele>2054.9</ele>
        <time>2020-07-28T09:11:13.000Z</time>
      </trkpt>
      <trkpt lat="44.12266" lon="6.69632">
        <ele>2054.7</ele>
        <time>2020-07-28T09:11:17Z</time>
      </trkpt>
      <trkpt lat="44.1226" lon="6.69635">
        <ele>2054.4</ele>
        <time>2020-07-28T09:11:23Z</time>
      </trkpt>
      <trkpt lat="44.12253" lon="6.69639">
        <ele>2054</ele>
        <time>2020-07-28T09:11:31Z</time>
      </trkpt>
      <trkpt lat="44.12251" lon="6.69639">
        <ele>2054</ele>
        <time>2020-07-28T09:11:32Z</time>
      </trkpt>
      <trkpt lat="44.12243" lon="6.69641">
        <ele>2054.5</ele>
        <time>2020-07-28T09:11:40Z</time>
      </trkpt>
      <trkpt lat="44.1224" lon="6.6964">
        <ele>2054.7</ele>
        <time>2020-07-28T09:11:43Z</time>
      </trkpt>
      <trkpt lat="44.12234" lon="6.69641">
        <ele>2055.1</ele>
        <time>2020-07-28T09:11:47Z</time>
      </trkpt>
      <trkpt lat="44.1223" lon="6.69642">
        <ele>2055.4</ele>
        <time>2020-07-28T09:11:50Z</time>
      </trkpt>
      <trkpt lat="44.12226" lon="6.69644">
        <ele>2055.6</ele>
        <time>2020-07-28T09:11:54.000Z</time>
      </trkpt>
      <trkpt lat="44.12221" lon="6.69645">
        <ele>2055.9</ele>
        <time>2020-07-28T09:11:58Z</time>
      </trkpt>
      <trkpt lat="44.12217" lon="6.69647">
        <ele>2056.4</ele>
        <time>2020-07-28T09:12:01.999Z</time>
      </trkpt>
      <trkpt lat="44.12212" lon="6.69649">
        <ele>2056.8</ele>
        <time>2020-07-28T09:12:06Z</time>
      </trkpt>
      <trkpt lat="44.12212" lon="6.6965">
        <ele>2056.8</ele>
        <time>2020-07-28T09:12:07Z</time>
      </trkpt>
      <trkpt lat="44.12206" lon="6.69655">
        <ele>2057.1</ele>
        <time>2020-07-28T09:12:14Z</time>
      </trkpt>
      <trkpt lat="44.12202" lon="6.69656">
        <ele>2057.4</ele>
        <time>2020-07-28T09:12:18.500Z</time>
      </trkpt>
      <trkpt lat="44.12197" lon="6.69656">
        <ele>2057.9</ele>
        <time>2020-07-28T09:12:23Z</time>
      </trkpt>
      <trkpt lat="44.12189" lon="6.69658">
        <ele>2058.2</ele>
        <time>2020-07-28T09:12:32Z</time>
      </trkpt>
      <trkpt lat="44.12189" lon="6.69658">
        <ele>2058.2</ele>
        <time>2020-07-28T09:12:34Z</time>
      </trkpt>
      <trkpt lat="44.12187" lon="6.69657">
        <ele>2058.4</ele>
        <time>2020-07-28T09:12:36Z</time>
      </trkpt>
      <trkpt lat="44.12183" lon="6.69657">
        <ele>2058.6</ele>
        <time>2020-07-28T09:12:41Z</time>
      </trkpt>
      <trkpt lat="44.12177" lon="6.6966">
        <ele>2058.7</ele>
        <time>2020-07-28T09:12:47Z</time>
      </trkpt>
      <trkpt lat="44.12175" lon="6.69661">
        <ele>2058.7</ele>
        <time>2020-07-28T09:12:49Z</time>
      </trkpt>
      <trkpt lat="44.1217" lon="6.69669">
        <ele>2058.8</ele>
        <time>2020-07-28T09:12:56Z</time>
      </trkpt>
      <trkpt lat="44.12166" lon="6.69671">
        <ele>2059.2</ele>
        <time>2020-07-28T09:13:00.500Z</time>
      </trkpt>
      <trkpt lat="44.12161" lon="6.69672">
        <ele>2059.6</ele>
        <time>2020-07-28T09:13:05Z</time>
      </trkpt>
      <trkpt lat="44.12153" lon="6.69677">
        <ele>2060.2</ele>
        <time>2020-07-28T09:13:13Z</time>
      </trkpt>
      <trkpt lat="44.12147" lon="6.69683">
        <ele>2060.6</ele>
        <time>2020-07-28T09:13:21Z</time>
      </trkpt>
      <trkpt lat="44.12142" lon="6.69688">
        <ele>2060.9</ele>
        <time>2020-07-28T09:13:27Z</time>
      </trkpt>
      <trkpt lat="44.12141" lon="6.69689">
        <ele>2060.9</ele>
        <time>2020-07-28T09:13:28Z</time>
      </trkpt>
      <trkpt lat="44.12137" lon="6.69693">
        <ele>2061.1</ele>
        <time>2020-07-28T09:13:32Z</time>
      </trkpt>
      <trkpt lat="44.12133" lon="6.69697">
        <ele>2061.3</ele>
        <time>2020-07-28T09:13:36.499Z</time>
      </trkpt>
      <trkpt lat="44.12128" lon="6.69701">
        <ele>2061.7</ele>
        <time>2020-07-28T09:13:41Z</time>
      </trkpt>
      <trkpt lat="44.12127" lon="6.69701">
        <ele>2061.8</ele>
        <time>2020-07-28T09:13:48Z</time>
      </trkpt>
      <trkpt lat="44.12128" lon="6.69702">
        <ele>2061.8</ele>
        <time>2020-07-28T09:14:00Z</time>
      </trkpt>
      <trkpt lat="44.12129" lon="6.69703">
        <ele>2061.8</ele>
        <time>2020-07-28T09:14:10Z</time>
      </trkpt>
      <trkpt lat="44.1213" lon="6.69703">
        <ele>2061.7</ele>
        <time>2020-07-28T09:14:26Z</time>
      </trkpt>
      <trkpt lat="44.1213" lon="6.69703">
        <ele>2061.7</ele>
        <time>2020-07-28T09:14:36Z</time>
      </trkpt>
      <trkpt lat="44.1213" lon="6.69703">
        <ele>2061.7</ele>
        <time>2020-07-28T09:14:47Z</time>
      </trkpt>
      <trkpt lat="44.12129" lon="6.69704">
        <ele>2061.8</ele>
        <time>2020-07-28T09:14:57Z</time>
      </trkpt>
      <trkpt lat="44.12126" lon="6.69709">
        <ele>2062.2</ele>
        <time>2020-07-28T09:15:06Z</time>
      </trkpt>
      <trkpt lat="44.12123" lon="6.69716">
        <ele>2062.8</ele>
        <time>2020-07-28T09:15:14Z</time>
      </trkpt>
      <trkpt lat="44.12122" lon="6.69716">
        <ele>2062.9</ele>
        <time>2020-07-28T09:15:15Z</time>
      </trkpt>
      <trkpt lat="44.12122" lon="6.69728">
        <ele>2064.1</ele>
        <time>2020-07-28T09:15:24Z</time>
      </trkpt>
      <trkpt lat="44.12121" lon="6.69737">
        <ele>2065.7</ele>
        <time>2020-07-28T09:15:32Z</time>
      </trkpt>
      <trkpt lat="44.12118" lon="6.6974">
        <ele>2066.7</ele>
        <time>2020-07-28T09:15:37Z</time>
      </trkpt>
      <trkpt lat="44.12114" lon="6.69744">
        <ele>2068.2</ele>
        <time>2020-07-28T09:15:44Z</time>
      </trkpt>
      <trkpt lat="44.12114" lon="6.69743">
        <ele>2068</ele>
        <time>2020-07-28T09:15:51Z</time>
      </trkpt>
      <trkpt lat="44.12113" lon="6.69747">
        <ele>2069</ele>
        <time>2020-07-28T09:15:59Z</time>
      </trkpt>
      <trkpt lat="44.12109" lon="6.6975">
        <ele>2069.8</ele>
        <time>2020-07-28T09:16:05Z</time>
      </trkpt>
      <trkpt lat="44.12105" lon="6.69755">
        <ele>2071</ele>
        <time>2020-07-28T09:16:12Z</time>
      </trkpt>
      <trkpt lat="44.12102" lon="6.69758">
        <ele>2071.7</ele>
        <time>2020-07-28T09:16:20Z</time>
      </trkpt>
      <trkpt lat="44.12098" lon="6.69761">
        <ele>2072.4</ele>
        <time>2020-07-28T09:16:28Z</time>
      </trkpt>
      <trkpt lat="44.12095" lon="6.69766">
        <ele>2073.8</ele>
        <time>2020-07-28T09:16:35Z</time>
      </trkpt>
      <trkpt lat="44.12092" lon="6.6977">
        <ele>2074.9</ele>
        <time>2020-07-28T09:16:42Z</time>
      </trkpt>
      <trkpt lat="44.12095" lon="6.69774">
        <ele>2076.3</ele>
        <time>2020-07-28T09:16:47Z</time>
      </trkpt>
      <trkpt lat="44.12099" lon="6.69775">
        <ele>2076.7</ele>
        <time>2020-07-28T09:16:53Z</time>
      </trkpt>
      <trkpt lat="44.12103" lon="6.69777">
        <ele>2077.5</ele>
        <time>2020-07-28T09:17:02Z</time>
      </trkpt>
      <trkpt lat="44.12101" lon="6.69778">
        <ele>2077.7</ele>
        <time>2020-07-28T09:17:09Z</time>
      </trkpt>
      <trkpt lat="44.12097" lon="6.69781">
        <ele>2078.3</ele>
        <time>2020-07-28T09:17:17Z</time>
      </trkpt>
      <trkpt lat="44.12094" lon="6.69782">
        <ele>2078.6</ele>
        <time>2020-07-28T09:17:23Z</time>
      </trkpt>
      <trkpt lat="44.1209" lon="6.69786">
        <ele>2080.1</ele>
        <time>2020-07-28T09:17:31Z</time>
      </trkpt>
      <trkpt lat="44.12088" lon="6.69791">
        <ele>2082.1</ele>
        <time>2020-07-28T09:17:39Z</time>
      </trkpt>
      <trkpt lat="44.12085" lon="6.69794">
        <ele>2083.7</ele>
        <time>2020-07-28T09:17:46Z</time>
      </trkpt>
      <trkpt lat="44.12084" lon="6.69798">
        <ele>2085.6</ele>
        <time>2020-07-28T09:17:55Z</time>
      </trkpt>
      <trkpt lat="44.12082" lon="6.69799">
        <ele>2085.9</ele>
        <time>2020-07-28T09:18:02Z</time>
      </trkpt>
      <trkpt lat="44.12076" lon="6.69803">
        <ele>2086.4</ele>
        <time>2020-07-28T09:18:10Z</time>
      </trkpt>
      <trkpt lat="44.12073" lon="6.69806">
        <ele>2086.9</ele>
        <time>2020-07-28T09:18:18Z</time>
      </trkpt>
      <trkpt lat="44.1207" lon="6.69812">
        <ele>2088.5</ele>
        <time>2020-07-28T09:18:27Z</time>
      </trkpt>
      <trkpt lat="44.12068" lon="6.69816">
        <ele>2089.7</ele>
        <time>2020-07-28T09:18:34Z</time>
      </trkpt>
      <trkpt lat="44.12069" lon="6.69816">
        <ele>2089.9</ele>
        <time>2020-07-28T09:18:42Z</time>
      </trkpt>
      <trkpt lat="44.12063" lon="6.69819">
        <ele>2090</ele>
        <time>2020-07-28T09:18:50Z</time>
      </trkpt>
      <trkpt lat="44.12064" lon="6.69822">
        <ele>2091.4</ele>
        <time>2020-07-28T09:18:54Z</time>
      </trkpt>
      <trkpt lat="44.12071" lon="6.69825">
        <ele>2093.6</ele>
        <time>2020-07-28T09:19:02Z</time>
      </trkpt>
      <trkpt lat="44.12076" lon="6.69825">
        <ele>2094.3</ele>
        <time>2020-07-28T09:19:10Z</time>
      </trkpt>
      <trkpt lat="44.12079" lon="6.69827">
        <ele>2095.4</ele>
        <time>2020-07-28T09:19:17Z</time>
      </trkpt>
      <trkpt lat="44.12085" lon="6.69825">
        <ele>2094.4</ele>
        <time>2020-07-28T09:19:25Z</time>
      </trkpt>
      <trkpt lat="44.12087" lon="6.69825">
        <ele>2093.3</ele>
        <time>2020-07-28T09:19:32Z</time>
      </trkpt>
      <trkpt lat="44.1209" lon="6.69826">
        <ele>2091.9</ele>
        <time>2020-07-28T09:19:39Z</time>
      </trkpt>
      <trkpt lat="44.12094" lon="6.69827">
        <ele>2089.8</ele>
        <time>2020-07-28T09:19:49Z</time>
      </trkpt>
      <trkpt lat="44.12098" lon="6.6983">
        <ele>2088</ele>
        <time>2020-07-28T09:19:57Z</time>
      </trkpt>
      <trkpt lat="44.12099" lon="6.69831">
        <ele>2087.5</ele>
        <time>2020-07-28T09:20:05Z</time>
      </trkpt>
      <trkpt lat="44.12102" lon="6.69834">
        <ele>2086.1</ele>
        <time>2020-07-28T09:20:14Z</time>
      </trkpt>
      <trkpt lat="44.12102" lon="6.69834">
        <ele>2086.1</ele>
        <time>2020-07-28T09:20:21Z</time>
      </trkpt>
      <trkpt lat="44.121" lon="6.69838">
        <ele>2088.5</ele>
        <time>2020-07-28T09:20:29Z</time>
      </trkpt>
      <trkpt lat="44.12097" lon="6.69841">
        <ele>2091.2</ele>
        <time>2020-07-28T09:20:36Z</time>
      </trkpt>
      <trkpt lat="44.12098" lon="6.69844">
        <ele>2091.4</ele>
        <time>2020-07-28T09:20:42Z</time>
      </trkpt>
      <trkpt lat="44.12097" lon="6.69847">
        <ele>2092.8</ele>
        <time>2020-07-28T09:20:49Z</time>
      </trkpt>
      <trkpt lat="44.12094" lon="6.69849">
        <ele>2095.3</ele>
        <time>2020-07-28T09:20:56Z</time>
      </trkpt>
      <trkpt lat="44.12091" lon="6.69851">
        <ele>2097.7</ele>
        <time>2020-07-28T09:21:02Z</time>
      </trkpt>
      <trkpt lat="44.12089" lon="6.69853">
        <ele>2099.4</ele>
        <time>2020-07-28T09:21:10Z</time>
      </trkpt>
      <trkpt lat="44.12087" lon="6.69854">
        <ele>2100.9</ele>
        <time>2020-07-28T09:21:17Z</time>
      </trkpt>
      <trkpt lat="44.12083" lon="6.69854">
        <ele>2103.2</ele>
        <time>2020-07-28T09:21:26Z</time>
      </trkpt>
      <trkpt lat="44.12082" lon="6.69856">
        <ele>2103.7</ele>
        <time>2020-07-28T09:21:34Z</time>
      </trkpt>
      <trkpt lat="44.12078" lon="6.69859">
        <ele>2104.6</ele>
        <time>2020-07-28T09:21:41Z</time>
      </trkpt>
      <trkpt lat="44.12075" lon="6.69864">
        <ele>2105.9</ele>
        <time>2020-07-28T09:21:51Z</time>
      </trkpt>
      <trkpt lat="44.12073" lon="6.69868">
        <ele>2106.9</ele>
        <time>2020-07-28T09:21:59Z</time>
      </trkpt>
      <trkpt lat="44.12072" lon="6.69871">
        <ele>2107.6</ele>
        <time>2020-07-28T09:22:05Z</time>
      </trkpt>
      <trkpt lat="44.12069" lon="6.69874">
        <ele>2108.6</ele>
        <time>2020-07-28T09:22:13Z</time>
      </trkpt>
      <trkpt lat="44.12065" lon="6.69878">
        <ele>2109.9</ele>
        <time>2020-07-28T09:22:21Z</time>
      </trkpt>
      <trkpt lat="44.12063" lon="6.69882">
        <ele>2111.1</ele>
        <time>2020-07-28T09:22:30Z</time>
      </trkpt>
      <trkpt lat="44.12058" lon="6.69887">
        <ele>2113.1</ele>
        <time>2020-07-28T09:22:39Z</time>
      </trkpt>
      <trkpt lat="44.12056" lon="6.6989">
        <ele>2114.3</ele>
        <time>2020-07-28T09:22:46Z</time>
      </trkpt>
      <trkpt lat="44.12053" lon="6.69898">
        <ele>2116.6</ele>
        <time>2020-07-28T09:22:55Z</time>
      </trkpt>
      <trkpt lat="44.12051" lon="6.69902">
        <ele>2117.7</ele>
        <time>2020-07-28T09:23:04Z</time>
      </trkpt>
      <trkpt lat="44.12047" lon="6.69907">
        <ele>2119.1</ele>
        <time>2020-07-28T09:23:12Z</time>
      </trkpt>
      <trkpt lat="44.12044" lon="6.6991">
        <ele>2120</ele>
        <time>2020-07-28T09:23:22Z</time>
      </trkpt>
      <trkpt lat="44.12044" lon="6.69913">
        <ele>2120.9</ele>
        <time>2020-07-28T09:23:29Z</time>
      </trkpt>
      <trkpt lat="44.12043" lon="6.69919">
        <ele>2122.6</ele>
        <time>2020-07-28T09:23:36Z</time>
      </trkpt>
      <trkpt lat="44.12042" lon="6.69924">
        <ele>2124</ele>
        <time>2020-07-28T09:23:42Z</time>
      </trkpt>
      <trkpt lat="44.12037" lon="6.69922">
        <ele>2123.5</ele>
        <time>2020-07-28T09:23:50Z</time>
      </trkpt>
      <trkpt lat="44.12035" lon="6.69922">
        <ele>2123.6</ele>
        <time>2020-07-28T09:23:57Z</time>
      </trkpt>
      <trkpt lat="44.12032" lon="6.69921">
        <ele>2123.3</ele>
        <time>2020-07-28T09:24:03Z</time>
      </trkpt>
      <trkpt lat="44.12029" lon="6.69919">
        <ele>2122.7</ele>
        <time>2020-07-28T09:24:10Z</time>
      </trkpt>
      <trkpt lat="44.12028" lon="6.6992">
        <ele>2123.1</ele>
        <time>2020-07-28T09:24:16Z</time>
      </trkpt>
      <trkpt lat="44.1203" lon="6.69925">
        <ele>2124.6</ele>
        <time>2020-07-28T09:24:23Z</time>
      </trkpt>
      <trkpt lat="44.12029" lon="6.6993">
        <ele>2126.3</ele>
        <time>2020-07-28T09:24:32Z</time>
      </trkpt>
      <trkpt lat="44.12025" lon="6.6993">
        <ele>2126.5</ele>
        <time>2020-07-28T09:24:40Z</time>
      </trkpt>
      <trkpt lat="44.12024" lon="6.69936">
        <ele>2128.5</ele>
        <time>2020-07-28T09:24:47Z</time>
      </trkpt>
      <trkpt lat="44.12023" lon="6.6994">
        <ele>2129.9</ele>
        <time>2020-07-28T09:24:54Z</time>
      </trkpt>
      <trkpt lat="44.12019" lon="6.6994">
        <ele>2130.2</ele>
        <time>2020-07-28T09:25:02Z</time>
      </trkpt>
      <trkpt lat="44.12018" lon="6.69943">
        <ele>2131.2</ele>
        <time>2020-07-28T09:25:09Z</time>
      </trkpt>
      <trkpt lat="44.12019" lon="6.69948">
        <ele>2132.9</ele>
        <time>2020-07-28T09:25:16Z</time>
      </trkpt>
      <trkpt lat="44.12015" lon="6.69946">
        <ele>2132.5</ele>
        <time>2020-07-28T09:25:24Z</time>
      </trkpt>
      <trkpt lat="44.1201" lon="6.69947">
        <ele>2133.2</ele>
        <time>2020-07-28T09:25:31Z</time>
      </trkpt>
      <trkpt lat="44.12005" lon="6.69947">
        <ele>2133.6</ele>
        <time>2020-07-28T09:25:39Z</time>
      </trkpt>
      <trkpt lat="44.12005" lon="6.69953">
        <ele>2135.7</ele>
        <time>2020-07-28T09:25:46Z</time>
      </trkpt>
      <trkpt lat="44.12007" lon="6.69957">
        <ele>2137</ele>
        <time>2020-07-28T09:25:53Z</time>
      </trkpt>
      <trkpt lat="44.12003" lon="6.69958">
        <ele>2137.7</ele>
        <time>2020-07-28T09:26:00Z</time>
      </trkpt>
      <trkpt lat="44.12001" lon="6.69959">
        <ele>2138.2</ele>
        <time>2020-07-28T09:26:07Z</time>
      </trkpt>
      <trkpt lat="44.11999" lon="6.69962">
        <ele>2139.4</ele>
        <time>2020-07-28T09:26:15Z</time>
      </trkpt>
      <trkpt lat="44.11997" lon="6.69962">
        <ele>2139.5</ele>
        <time>2020-07-28T09:26:27Z</time>
      </trkpt>
      <trkpt lat="44.11995" lon="6.69965">
        <ele>2140.7</ele>
        <time>2020-07-28T09:26:34Z</time>
      </trkpt>
      <trkpt lat="44.11997" lon="6.6997">
        <ele>2142.4</ele>
        <time>2020-07-28T09:26:42Z</time>
      </trkpt>
      <trkpt lat="44.11994" lon="6.69973">
        <ele>2143.8</ele>
        <time>2020-07-28T09:26:51Z</time>
      </trkpt>
      <trkpt lat="44.11989" lon="6.69975">
        <ele>2145</ele>
        <time>2020-07-28T09:27:00Z</time>
      </trkpt>
      <trkpt lat="44.11986" lon="6.69976">
        <ele>2145.6</ele>
        <time>2020-07-28T09:27:07Z</time>
      </trkpt>
      <trkpt lat="44.11984" lon="6.69979">
        <ele>2147.1</ele>
        <time>2020-07-28T09:27:13Z</time>
      </trkpt>
      <trkpt lat="44.11981" lon="6.6998">
        <ele>2147.8</ele>
        <time>2020-07-28T09:27:20Z</time>
      </trkpt>
      <trkpt lat="44.11976" lon="6.69979">
        <ele>2147.8</ele>
        <time>2020-07-28T09:27:29Z</time>
      </trkpt>
      <trkpt lat="44.11972" lon="6.6998">
        <ele>2148.7</ele>
        <time>2020-07-28T09:27:36Z</time>
      </trkpt>
      <trkpt lat="44.11971" lon="6.69984">
        <ele>2150.7</ele>
        <time>2020-07-28T09:27:43Z</time>
      </trkpt>
      <trkpt lat="44.11975" lon="6.6999">
        <ele>2153</ele>
        <time>2020-07-28T09:27:50Z</time>
      </trkpt>
      <trkpt lat="44.11976" lon="6.69993">
        <ele>2154.2</ele>
        <time>2020-07-28T09:27:57Z</time>
      </trkpt>
      <trkpt lat="44.11976" lon="6.69993">
        <ele>2154.2</ele>
        <time>2020-07-28T09:28:07Z</time>
      </trkpt>
      <trkpt lat="44.11974" lon="6.69993">
        <ele>2154.5</ele>
        <time>2020-07-28T09:28:19Z</time>
      </trkpt>
      <trkpt lat="44.11969" lon="6.69993">
        <ele>2155.2</ele>
        <time>2020-07-28T09:28:26Z</time>
      </trkpt>
      <trkpt lat="44.11966" lon="6.69995">
        <ele>2156.5</ele>
        <time>2020-07-28T09:28:33Z</time>
      </trkpt>
      <trkpt lat="44.11964" lon="6.69996">
        <ele>2157.1</ele>
        <time>2020-07-28T09:28:41Z</time>
      </trkpt>
      <trkpt lat="44.1196" lon="6.69997">
        <ele>2158.1</ele>
        <time>2020-07-28T09:28:49Z</time>
      </trkpt>
      <trkpt lat="44.11957" lon="6.69999">
        <ele>2159.2</ele>
        <time>2020-07-28T09:28:57Z</time>
      </trkpt>
      <trkpt lat="44.11954" lon="6.70001">
        <ele>2160.3</ele>
        <time>2020-07-28T09:29:03Z</time>
      </trkpt>
      <trkpt lat="44.11956" lon="6.70001">
        <ele>2160.1</ele>
        <time>2020-07-28T09:29:15Z</time>
      </trkpt>
      <trkpt lat="44.1195" lon="6.7">
        <ele>2160.4</ele>
        <time>2020-07-28T09:29:25Z</time>
      </trkpt>
      <trkpt lat="44.11949" lon="6.7">
        <ele>2160.5</ele>
        <time>2020-07-28T09:29:27Z</time>
      </trkpt>
      <trkpt lat="44.11945" lon="6.7">
        <ele>2160.9</ele>
        <time>2020-07-28T09:29:34Z</time>
      </trkpt>
      <trkpt lat="44.1194" lon="6.69999">
        <ele>2163.5</ele>
        <time>2020-07-28T09:29:41Z</time>
      </trkpt>
      <trkpt lat="44.11943" lon="6.70005">
        <ele>2163.6</ele>
        <time>2020-07-28T09:29:48Z</time>
      </trkpt>
      <trkpt lat="44.11944" lon="6.7001">
        <ele>2164.5</ele>
        <time>2020-07-28T09:29:57Z</time>
      </trkpt>
      <trkpt lat="44.11946" lon="6.70012">
        <ele>2164.8</ele>
        <time>2020-07-28T09:30:04Z</time>
      </trkpt>
      <trkpt lat="44.11948" lon="6.70017">
        <ele>2166.4</ele>
        <time>2020-07-28T09:30:10Z</time>
      </trkpt>
      <trkpt lat="44.11948" lon="6.7002">
        <ele>2167.4</ele>
        <time>2020-07-28T09:30:17Z</time>
      </trkpt>
      <trkpt lat="44.11951" lon="6.70025">
        <ele>2169</ele>
        <time>2020-07-28T09:30:25Z</time>
      </trkpt>
      <trkpt lat="44.1195" lon="6.70029">
        <ele>2170.3</ele>
        <time>2020-07-28T09:30:34Z</time>
      </trkpt>
      <trkpt lat="44.1195" lon="6.70032">
        <ele>2171</ele>
        <time>2020-07-28T09:30:40Z</time>
      </trkpt>
      <trkpt lat="44.11952" lon="6.70035">
        <ele>2171.7</ele>
        <time>2020-07-28T09:30:47Z</time>
      </trkpt>
      <trkpt lat="44.11951" lon="6.7004">
        <ele>2172.9</ele>
        <time>2020-07-28T09:30:56Z</time>
      </trkpt>
      <trkpt lat="44.11948" lon="6.7004">
        <ele>2173</ele>
        <time>2020-07-28T09:31:01Z</time>
      </trkpt>
      <trkpt lat="44.11948" lon="6.70042">
        <ele>2173.5</ele>
        <time>2020-07-28T09:31:07Z</time>
      </trkpt>
      <trkpt lat="44.11946" lon="6.70045">
        <ele>2174.3</ele>
        <time>2020-07-28T09:31:14Z</time>
      </trkpt>
      <trkpt lat="44.11944" lon="6.70049">
        <ele>2175.6</ele>
        <time>2020-07-28T09:31:19Z</time>
      </trkpt>
      <trkpt lat="44.11944" lon="6.70056">
        <ele>2177.3</ele>
        <time>2020-07-28T09:31:26Z</time>
      </trkpt>
      <trkpt lat="44.11944" lon="6.70058">
        <ele>2177.5</ele>
        <time>2020-07-28T09:31:32Z</time>
      </trkpt>
      <trkpt lat="44.11942" lon="6.70061">
        <ele>2178.7</ele>
        <time>2020-07-28T09:31:40Z</time>
      </trkpt>
      <trkpt lat="44.11939" lon="6.70067">
        <ele>2180.5</ele>
        <time>2020-07-28T09:31:49Z</time>
      </trkpt>
      <trkpt lat="44.11936" lon="6.70073">
        <ele>2182</ele>
        <time>2020-07-28T09:31:57Z</time>
      </trkpt>
      <trkpt lat="44.11934" lon="6.70077">
        <ele>2182.9</ele>
        <time>2020-07-28T09:32:05Z</time>
      </trkpt>
      <trkpt lat="44.11933" lon="6.70082">
        <ele>2183.4</ele>
        <time>2020-07-28T09:32:13Z</time>
      </trkpt>
      <trkpt lat="44.11932" lon="6.70088">
        <ele>2183.2</ele>
        <time>2020-07-28T09:32:19Z</time>
      </trkpt>
      <trkpt lat="44.11931" lon="6.70093">
        <ele>2182.9</ele>
        <time>2020-07-28T09:32:27Z</time>
      </trkpt>
      <trkpt lat="44.11931" lon="6.70094">
        <ele>2182.8</ele>
        <time>2020-07-28T09:32:41Z</time>
      </trkpt>
      <trkpt lat="44.11931" lon="6.70095">
        <ele>2182.6</ele>
        <time>2020-07-28T09:32:50Z</time>
      </trkpt>
      <trkpt lat="44.11932" lon="6.70095">
        <ele>2182.4</ele>
        <time>2020-07-28T09:32:59Z</time>
      </trkpt>
      <trkpt lat="44.11931" lon="6.70096">
        <ele>2182.5</ele>
        <time>2020-07-28T09:33:14Z</time>
      </trkpt>
      <trkpt lat="44.11931" lon="6.70095">
        <ele>2182.6</ele>
        <time>2020-07-28T09:33:27Z</time>
      </trkpt>
      <trkpt lat="44.11931" lon="6.70095">
        <ele>2182.6</ele>
        <time>2020-07-28T09:33:34Z</time>
      </trkpt>
      <trkpt lat="44.11931" lon="6.70095">
        <ele>2182.6</ele>
        <time>2020-07-28T09:33:53Z</time>
      </trkpt>
      <trkpt lat="44.1193" lon="6.70097">
        <ele>2182.6</ele>
        <time>2020-07-28T09:34:03Z</time>
      </trkpt>
      <trkpt lat="44.11928" lon="6.70102">
        <ele>2182.5</ele>
        <time>2020-07-28T09:34:12Z</time>
      </trkpt>
      <trkpt lat="44.11927" lon="6.70109">
        <ele>2182</ele>
        <time>2020-07-28T09:34:20Z</time>
      </trkpt>
      <trkpt lat="44.11926" lon="6.70114">
        <ele>2182.2</ele>
        <time>2020-07-28T09:34:28Z</time>
      </trkpt>
      <trkpt lat="44.11926" lon="6.7012">
        <ele>2182.5</ele>
        <time>2020-07-28T09:34:34Z</time>
      </trkpt>
      <trkpt lat="44.11925" lon="6.7012">
        <ele>2182.7</ele>
        <time>2020-07-28T09:34:41Z</time>
      </trkpt>
      <trkpt lat="44.11919" lon="6.70116">
        <ele>2183.7</ele>
        <time>2020-07-28T09:34:51Z</time>
      </trkpt>
      <trkpt lat="44.1192" lon="6.70116">
        <ele>2183.5</ele>
        <time>2020-07-28T09:35:02Z</time>
      </trkpt>
      <trkpt lat="44.11921" lon="6.7012">
        <ele>2183.5</ele>
        <time>2020-07-28T09:35:10Z</time>
      </trkpt>
      <trkpt lat="44.11922" lon="6.70122">
        <ele>2183.4</ele>
        <time>2020-07-28T09:35:17Z</time>
      </trkpt>
      <trkpt lat="44.11919" lon="6.70124">
        <ele>2184</ele>
        <time>2020-07-28T09:35:24Z</time>
      </trkpt>
      <trkpt lat="44.11915" lon="6.70131">
        <ele>2185.3</ele>
        <time>2020-07-28T09:35:31Z</time>
      </trkpt>
      <trkpt lat="44.11912" lon="6.70133">
        <ele>2186.3</ele>
        <time>2020-07-28T09:35:39Z</time>
      </trkpt>
      <trkpt lat="44.11911" lon="6.70134">
        <ele>2186.7</ele>
        <time>2020-07-28T09:35:46Z</time>
      </trkpt>
      <trkpt lat="44.11907" lon="6.70136">
        <ele>2188.1</ele>
        <time>2020-07-28T09:35:51Z</time>
      </trkpt>
      <trkpt lat="44.11902" lon="6.70137">
        <ele>2189.7</ele>
        <time>2020-07-28T09:35:58Z</time>
      </trkpt>
      <trkpt lat="44.11897" lon="6.7014">
        <ele>2191.3</ele>
        <time>2020-07-28T09:36:06Z</time>
      </trkpt>
      <trkpt lat="44.11894" lon="6.70144">
        <ele>2192.1</ele>
        <time>2020-07-28T09:36:13Z</time>
      </trkpt>
      <trkpt lat="44.11894" lon="6.70145">
        <ele>2192</ele>
        <time>2020-07-28T09:36:14Z</time>
      </trkpt>
      <trkpt lat="44.11891" lon="6.70152">
        <ele>2192.5</ele>
        <time>2020-07-28T09:36:22Z</time>
      </trkpt>
      <trkpt lat="44.11888" lon="6.70155">
        <ele>2193.1</ele>
        <time>2020-07-28T09:36:29Z</time>
      </trkpt>
      <trkpt lat="44.11884" lon="6.70158">
        <ele>2194.1</ele>
        <time>2020-07-28T09:36:36Z</time>
      </trkpt>
      <trkpt lat="44.11883" lon="6.70161">
        <ele>2194.2</ele>
        <time>2020-07-28T09:36:42Z</time>
      </trkpt>
      <trkpt lat="44.11881" lon="6.70163">
        <ele>2194.7</ele>
        <time>2020-07-28T09:36:51Z</time>
      </trkpt>
      <trkpt lat="44.11881" lon="6.70162">
        <ele>2194.8</ele>
        <time>2020-07-28T09:37:07Z</time>
      </trkpt>
      <trkpt lat="44.1188" lon="6.70165">
        <ele>2195</ele>
        <time>2020-07-28T09:37:13Z</time>
      </trkpt>
      <trkpt lat="44.11877" lon="6.70168">
        <ele>2195.9</ele>
        <time>2020-07-28T09:37:19Z</time>
      </trkpt>
      <trkpt lat="44.11873" lon="6.70173">
        <ele>2197.1</ele>
        <time>2020-07-28T09:37:26Z</time>
      </trkpt>
      <trkpt lat="44.11875" lon="6.70176">
        <ele>2196.5</ele>
        <time>2020-07-28T09:37:34Z</time>
      </trkpt>
      <trkpt lat="44.11875" lon="6.70176">
        <ele>2196.5</ele>
        <time>2020-07-28T09:37:48Z</time>
      </trkpt>
      <trkpt lat="44.11877" lon="6.70177">
        <ele>2195.9</ele>
        <time>2020-07-28T09:38:00Z</time>
      </trkpt>
      <trkpt lat="44.11877" lon="6.70177">
        <ele>2195.9</ele>
        <time>2020-07-28T09:38:14Z</time>
      </trkpt>
      <trkpt lat="44.11875" lon="6.70178">
        <ele>2196.5</ele>
        <time>2020-07-28T09:38:24Z</time>
      </trkpt>
      <trkpt lat="44.1187" lon="6.70184">
        <ele>2197.9</ele>
        <time>2020-07-28T09:38:31Z</time>
      </trkpt>
      <trkpt lat="44.11866" lon="6.70188">
        <ele>2198.9</ele>
        <time>2020-07-28T09:38:37Z</time>
      </trkpt>
      <trkpt lat="44.11866" lon="6.70189">
        <ele>2198.9</ele>
        <time>2020-07-28T09:38:38Z</time>
      </trkpt>
      <trkpt lat="44.11859" lon="6.70195">
        <ele>2200.4</ele>
        <time>2020-07-28T09:38:47Z</time>
      </trkpt>
      <trkpt lat="44.11855" lon="6.702">
        <ele>2201.1</ele>
        <time>2020-07-28T09:38:54Z</time>
      </trkpt>
      <trkpt lat="44.11854" lon="6.70202">
        <ele>2201.3</ele>
        <time>2020-07-28T09:38:56Z</time>
      </trkpt>
      <trkpt lat="44.1185" lon="6.70211">
        <ele>2202</ele>
        <time>2020-07-28T09:39:05Z</time>
      </trkpt>
      <trkpt lat="44.11847" lon="6.70219">
        <ele>2202.5</ele>
        <time>2020-07-28T09:39:13Z</time>
      </trkpt>
      <trkpt lat="44.11844" lon="6.70226">
        <ele>2203</ele>
        <time>2020-07-28T09:39:21Z</time>
      </trkpt>
      <trkpt lat="44.11842" lon="6.70229">
        <ele>2203.3</ele>
        <time>2020-07-28T09:39:28Z</time>
      </trkpt>
      <trkpt lat="44.1184" lon="6.70233">
        <ele>2203.5</ele>
        <time>2020-07-28T09:39:37Z</time>
      </trkpt>
      <trkpt lat="44.11837" lon="6.70242">
        <ele>2203.7</ele>
        <time>2020-07-28T09:39:46Z</time>
      </trkpt>
      <trkpt lat="44.11834" lon="6.70249">
        <ele>2203.9</ele>
        <time>2020-07-28T09:39:54Z</time>
      </trkpt>
      <trkpt lat="44.1183" lon="6.70256">
        <ele>2204.6</ele>
        <time>2020-07-28T09:40:03Z</time>
      </trkpt>
      <trkpt lat="44.11827" lon="6.70264">
        <ele>2205.1</ele>
        <time>2020-07-28T09:40:11Z</time>
      </trkpt>
      <trkpt lat="44.11823" lon="6.7027">
        <ele>2205.9</ele>
        <time>2020-07-28T09:40:19Z</time>
      </trkpt>
      <trkpt lat="44.11821" lon="6.70277">
        <ele>2206.1</ele>
        <time>2020-07-28T09:40:27Z</time>
      </trkpt>
      <trkpt lat="44.11818" lon="6.70284">
        <ele>2206.5</ele>
        <time>2020-07-28T09:40:34Z</time>
      </trkpt>
      <trkpt lat="44.11814" lon="6.70288">
        <ele>2207.2</ele>
        <time>2020-07-28T09:40:41Z</time>
      </trkpt>
      <trkpt lat="44.11811" lon="6.70295">
        <ele>2207.5</ele>
        <time>2020-07-28T09:40:48Z</time>
      </trkpt>
      <trkpt lat="44.11807" lon="6.70301">
        <ele>2208</ele>
        <time>2020-07-28T09:40:56Z</time>
      </trkpt>
      <trkpt lat="44.11802" lon="6.70307">
        <ele>2208.7</ele>
        <time>2020-07-28T09:41:04Z</time>
      </trkpt>
      <trkpt lat="44.11796" lon="6.70314">
        <ele>2210</ele>
        <time>2020-07-28T09:41:13Z</time>
      </trkpt>
      <trkpt lat="44.11794" lon="6.70323">
        <ele>2210.7</ele>
        <time>2020-07-28T09:41:21Z</time>
      </trkpt>
      <trkpt lat="44.11792" lon="6.70329">
        <ele>2211.3</ele>
        <time>2020-07-28T09:41:27Z</time>
      </trkpt>
      <trkpt lat="44.1179" lon="6.70335">
        <ele>2211.7</ele>
        <time>2020-07-28T09:41:35Z</time>
      </trkpt>
      <trkpt lat="44.11786" lon="6.70341">
        <ele>2212.2</ele>
        <time>2020-07-28T09:41:43Z</time>
      </trkpt>
      <trkpt lat="44.11784" lon="6.70344">
        <ele>2212.4</ele>
        <time>2020-07-28T09:41:49Z</time>
      </trkpt>
      <trkpt lat="44.11782" lon="6.70349">
        <ele>2212.6</ele>
        <time>2020-07-28T09:41:57Z</time>
      </trkpt>
      <trkpt lat="44.11777" lon="6.70357">
        <ele>2213.2</ele>
        <time>2020-07-28T09:42:06Z</time>
      </trkpt>
      <trkpt lat="44.11773" lon="6.70364">
        <ele>2213.2</ele>
        <time>2020-07-28T09:42:14Z</time>
      </trkpt>
      <trkpt lat="44.11768" lon="6.70367">
        <ele>2213.4</ele>
        <time>2020-07-28T09:42:22Z</time>
      </trkpt>
      <trkpt lat="44.11767" lon="6.70368">
        <ele>2213.5</ele>
        <time>2020-07-28T09:42:23Z</time>
      </trkpt>
      <trkpt lat="44.11762" lon="6.70369">
        <ele>2213.9</ele>
        <time>2020-07-28T09:42:29Z</time>
      </trkpt>
      <trkpt lat="44.11756" lon="6.70374">
        <ele>2214.4</ele>
        <time>2020-07-28T09:42:37Z</time>
      </trkpt>
      <trkpt lat="44.11754" lon="6.70374">
        <ele>2214.6</ele>
        <time>2020-07-28T09:42:40Z</time>
      </trkpt>
      <trkpt lat="44.11752" lon="6.70375">
        <ele>2214.8</ele>
        <time>2020-07-28T09:42:42Z</time>
      </trkpt>
      <trkpt lat="44.11745" lon="6.70378">
        <ele>2214.8</ele>
        <time>2020-07-28T09:42:50Z</time>
      </trkpt>
      <trkpt lat="44.11744" lon="6.70381">
        <ele>2214.8</ele>
        <time>2020-07-28T09:42:52Z</time>
      </trkpt>
      <trkpt lat="44.1174" lon="6.70388">
        <ele>2214.6</ele>
        <time>2020-07-28T09:43:02Z</time>
      </trkpt>
      <trkpt lat="44.11735" lon="6.70392">
        <ele>2214.7</ele>
        <time>2020-07-28T09:43:10Z</time>
      </trkpt>
      <trkpt lat="44.1173" lon="6.70394">
        <ele>2214.7</ele>
        <time>2020-07-28T09:43:15Z</time>
      </trkpt>
      <trkpt lat="44.11728" lon="6.70394">
        <ele>2214.7</ele>
        <time>2020-07-28T09:43:18Z</time>
      </trkpt>
      <trkpt lat="44.11726" lon="6.70395">
        <ele>2214.7</ele>
        <time>2020-07-28T09:43:20Z</time>
      </trkpt>
      <trkpt lat="44.11722" lon="6.70397">
        <ele>2214.9</ele>
        <time>2020-07-28T09:43:24.999Z</time>
      </trkpt>
      <trkpt lat="44.11717" lon="6.70399">
        <ele>2215.4</ele>
        <time>2020-07-28T09:43:30Z</time>
      </trkpt>
      <trkpt lat="44.11713" lon="6.70399">
        <ele>2215.6</ele>
        <time>2020-07-28T09:43:34Z</time>
      </trkpt>
      <trkpt lat="44.11707" lon="6.70404">
        <ele>2216.4</ele>
        <time>2020-07-28T09:43:42Z</time>
      </trkpt>
      <trkpt lat="44.11706" lon="6.70405">
        <ele>2216.6</ele>
        <time>2020-07-28T09:43:43Z</time>
      </trkpt>
      <trkpt lat="44.11701" lon="6.70406">
        <ele>2216.9</ele>
        <time>2020-07-28T09:43:50Z</time>
      </trkpt>
      <trkpt lat="44.11697" lon="6.70412">
        <ele>2217.6</ele>
        <time>2020-07-28T09:43:57Z</time>
      </trkpt>
      <trkpt lat="44.11696" lon="6.70412">
        <ele>2217.6</ele>
        <time>2020-07-28T09:43:58Z</time>
      </trkpt>
      <trkpt lat="44.11689" lon="6.70414">
        <ele>2218.2</ele>
        <time>2020-07-28T09:44:07Z</time>
      </trkpt>
      <trkpt lat="44.11683" lon="6.70414">
        <ele>2218.7</ele>
        <time>2020-07-28T09:44:13Z</time>
      </trkpt>
      <trkpt lat="44.11679" lon="6.70417">
        <ele>2219.2</ele>
        <time>2020-07-28T09:44:20Z</time>
      </trkpt>
      <trkpt lat="44.11674" lon="6.70418">
        <ele>2219.7</ele>
        <time>2020-07-28T09:44:27Z</time>
      </trkpt>
      <trkpt lat="44.11668" lon="6.70421">
        <ele>2220.4</ele>
        <time>2020-07-28T09:44:35Z</time>
      </trkpt>
      <trkpt lat="44.11662" lon="6.70421">
        <ele>2221.4</ele>
        <time>2020-07-28T09:44:42Z</time>
      </trkpt>
      <trkpt lat="44.11656" lon="6.70423">
        <ele>2222.6</ele>
        <time>2020-07-28T09:44:50Z</time>
      </trkpt>
      <trkpt lat="44.11653" lon="6.7043">
        <ele>2223.4</ele>
        <time>2020-07-28T09:44:58Z</time>
      </trkpt>
      <trkpt lat="44.11648" lon="6.70432">
        <ele>2224.2</ele>
        <time>2020-07-28T09:45:05Z</time>
      </trkpt>
      <trkpt lat="44.11644" lon="6.70434">
        <ele>2224.7</ele>
        <time>2020-07-28T09:45:12Z</time>
      </trkpt>
      <trkpt lat="44.11642" lon="6.70434">
        <ele>2225</ele>
        <time>2020-07-28T09:45:15Z</time>
      </trkpt>
      <trkpt lat="44.1164" lon="6.70435">
        <ele>2225.2</ele>
        <time>2020-07-28T09:45:18Z</time>
      </trkpt>
      <trkpt lat="44.11635" lon="6.70439">
        <ele>2225.6</ele>
        <time>2020-07-28T09:45:26Z</time>
      </trkpt>
      <trkpt lat="44.1163" lon="6.70442">
        <ele>2226.3</ele>
        <time>2020-07-28T09:45:33Z</time>
      </trkpt>
      <trkpt lat="44.11629" lon="6.70443">
        <ele>2226.4</ele>
        <time>2020-07-28T09:45:42Z</time>
      </trkpt>
      <trkpt lat="44.11627" lon="6.70445">
        <ele>2226.8</ele>
        <time>2020-07-28T09:45:49Z</time>
      </trkpt>
      <trkpt lat="44.11621" lon="6.70449">
        <ele>2227.9</ele>
        <time>2020-07-28T09:45:58Z</time>
      </trkpt>
      <trkpt lat="44.11618" lon="6.7045">
        <ele>2228.3</ele>
        <time>2020-07-28T09:46:02Z</time>
      </trkpt>
      <trkpt lat="44.11614" lon="6.70455">
        <ele>2228.8</ele>
        <time>2020-07-28T09:46:11Z</time>
      </trkpt>
      <trkpt lat="44.11609" lon="6.70455">
        <ele>2229</ele>
        <time>2020-07-28T09:46:17Z</time>
      </trkpt>
      <trkpt lat="44.11604" lon="6.70457">
        <ele>2229.1</ele>
        <time>2020-07-28T09:46:23Z</time>
      </trkpt>
      <trkpt lat="44.116" lon="6.70456">
        <ele>2229.2</ele>
        <time>2020-07-28T09:46:29Z</time>
      </trkpt>
      <trkpt lat="44.11593" lon="6.70454">
        <ele>2229.2</ele>
        <time>2020-07-28T09:46:37Z</time>
      </trkpt>
      <trkpt lat="44.11594" lon="6.70455">
        <ele>2229.2</ele>
        <time>2020-07-28T09:46:46Z</time>
      </trkpt>
      <trkpt lat="44.11588" lon="6.70454">
        <ele>2229.3</ele>
        <time>2020-07-28T09:46:54Z</time>
      </trkpt>
      <trkpt lat="44.11582" lon="6.70454">
        <ele>2229.4</ele>
        <time>2020-07-28T09:47:01Z</time>
      </trkpt>
      <trkpt lat="44.11577" lon="6.70455">
        <ele>2229.8</ele>
        <time>2020-07-28T09:47:07Z</time>
      </trkpt>
      <trkpt lat="44.11572" lon="6.70463">
        <ele>2230.5</ele>
        <time>2020-07-28T09:47:16Z</time>
      </trkpt>
      <trkpt lat="44.11567" lon="6.70468">
        <ele>2231</ele>
        <time>2020-07-28T09:47:24Z</time>
      </trkpt>
      <trkpt lat="44.11562" lon="6.70468">
        <ele>2231.4</ele>
        <time>2020-07-28T09:47:31Z</time>
      </trkpt>
      <trkpt lat="44.11558" lon="6.70472">
        <ele>2231.8</ele>
        <time>2020-07-28T09:47:38Z</time>
      </trkpt>
      <trkpt lat="44.11554" lon="6.70477">
        <ele>2232.3</ele>
        <time>2020-07-28T09:47:45Z</time>
      </trkpt>
      <trkpt lat="44.1155" lon="6.7048">
        <ele>2232.7</ele>
        <time>2020-07-28T09:47:51Z</time>
      </trkpt>
      <trkpt lat="44.11545" lon="6.70484">
        <ele>2233.3</ele>
        <time>2020-07-28T09:48:00Z</time>
      </trkpt>
      <trkpt lat="44.11541" lon="6.70489">
        <ele>2234</ele>
        <time>2020-07-28T09:48:06Z</time>
      </trkpt>
      <trkpt lat="44.11538" lon="6.70493">
        <ele>2234.5</ele>
        <time>2020-07-28T09:48:14Z</time>
      </trkpt>
      <trkpt lat="44.11537" lon="6.70491">
        <ele>2234.5</ele>
        <time>2020-07-28T09:48:22Z</time>
      </trkpt>
      <trkpt lat="44.11535" lon="6.70493">
        <ele>2234.8</ele>
        <time>2020-07-28T09:48:27Z</time>
      </trkpt>
      <trkpt lat="44.11529" lon="6.70492">
        <ele>2235.3</ele>
        <time>2020-07-28T09:48:33Z</time>
      </trkpt>
      <trkpt lat="44.11529" lon="6.70495">
        <ele>2235.5</ele>
        <time>2020-07-28T09:48:39Z</time>
      </trkpt>
      <trkpt lat="44.11527" lon="6.70493">
        <ele>2235.6</ele>
        <time>2020-07-28T09:48:48Z</time>
      </trkpt>
      <trkpt lat="44.11526" lon="6.70493">
        <ele>2235.8</ele>
        <time>2020-07-28T09:48:51Z</time>
      </trkpt>
      <trkpt lat="44.11524" lon="6.70493">
        <ele>2236</ele>
        <time>2020-07-28T09:48:53Z</time>
      </trkpt>
      <trkpt lat="44.1152" lon="6.70495">
        <ele>2236.8</ele>
        <time>2020-07-28T09:49:01Z</time>
      </trkpt>
      <trkpt lat="44.11517" lon="6.70495">
        <ele>2237.2</ele>
        <time>2020-07-28T09:49:08Z</time>
      </trkpt>
      <trkpt lat="44.11514" lon="6.70493">
        <ele>2237.5</ele>
        <time>2020-07-28T09:49:15Z</time>
      </trkpt>
      <trkpt lat="44.11511" lon="6.70492">
        <ele>2237.8</ele>
        <time>2020-07-28T09:49:23Z</time>
      </trkpt>
      <trkpt lat="44.11507" lon="6.70491">
        <ele>2238.3</ele>
        <time>2020-07-28T09:49:27Z</time>
      </trkpt>
      <trkpt lat="44.11503" lon="6.7049">
        <ele>2238.8</ele>
        <time>2020-07-28T09:49:31.500Z</time>
      </trkpt>
      <trkpt lat="44.11498" lon="6.70489">
        <ele>2239.5</ele>
        <time>2020-07-28T09:49:36Z</time>
      </trkpt>
      <trkpt lat="44.11492" lon="6.70491">
        <ele>2240.3</ele>
        <time>2020-07-28T09:49:43Z</time>
      </trkpt>
      <trkpt lat="44.11487" lon="6.70492">
        <ele>2240.9</ele>
        <time>2020-07-28T09:49:49Z</time>
      </trkpt>
      <trkpt lat="44.11484" lon="6.70498">
        <ele>2241.2</ele>
        <time>2020-07-28T09:49:55Z</time>
      </trkpt>
      <trkpt lat="44.11479" lon="6.70504">
        <ele>2241.7</ele>
        <time>2020-07-28T09:50:02Z</time>
      </trkpt>
      <trkpt lat="44.11475" lon="6.70511">
        <ele>2242.2</ele>
        <time>2020-07-28T09:50:09Z</time>
      </trkpt>
      <trkpt lat="44.11471" lon="6.70517">
        <ele>2242.7</ele>
        <time>2020-07-28T09:50:16Z</time>
      </trkpt>
      <trkpt lat="44.11469" lon="6.70518">
        <ele>2242.8</ele>
        <time>2020-07-28T09:50:18Z</time>
      </trkpt>
      <trkpt lat="44.11467" lon="6.7052">
        <ele>2243</ele>
        <time>2020-07-28T09:50:20Z</time>
      </trkpt>
      <trkpt lat="44.11461" lon="6.7052">
        <ele>2243.4</ele>
        <time>2020-07-28T09:50:27Z</time>
      </trkpt>
      <trkpt lat="44.11454" lon="6.70521">
        <ele>2243.7</ele>
        <time>2020-07-28T09:50:35Z</time>
      </trkpt>
      <trkpt lat="44.11447" lon="6.7052">
        <ele>2244.1</ele>
        <time>2020-07-28T09:50:43Z</time>
      </trkpt>
      <trkpt lat="44.11439" lon="6.70518">
        <ele>2244.7</ele>
        <time>2020-07-28T09:50:50Z</time>
      </trkpt>
      <trkpt lat="44.11435" lon="6.70522">
        <ele>2244.7</ele>
        <time>2020-07-28T09:50:57Z</time>
      </trkpt>
      <trkpt lat="44.11431" lon="6.70522">
        <ele>2244.9</ele>
        <time>2020-07-28T09:51:01.500Z</time>
      </trkpt>
      <trkpt lat="44.11426" lon="6.70521">
        <ele>2245.2</ele>
        <time>2020-07-28T09:51:06Z</time>
      </trkpt>
      <trkpt lat="44.11425" lon="6.70521">
        <ele>2245.3</ele>
        <time>2020-07-28T09:51:07Z</time>
      </trkpt>
      <trkpt lat="44.11419" lon="6.70523">
        <ele>2245.4</ele>
        <time>2020-07-28T09:51:15Z</time>
      </trkpt>
      <trkpt lat="44.11416" lon="6.70525">
        <ele>2245.4</ele>
        <time>2020-07-28T09:51:20Z</time>
      </trkpt>
      <trkpt lat="44.11415" lon="6.70525">
        <ele>2245.5</ele>
        <time>2020-07-28T09:51:22Z</time>
      </trkpt>
      <trkpt lat="44.11408" lon="6.70527">
        <ele>2246</ele>
        <time>2020-07-28T09:51:29Z</time>
      </trkpt>
      <trkpt lat="44.11404" lon="6.7053">
        <ele>2246.5</ele>
        <time>2020-07-28T09:51:36Z</time>
      </trkpt>
      <trkpt lat="44.11398" lon="6.70535">
        <ele>2247.5</ele>
        <time>2020-07-28T09:51:45Z</time>
      </trkpt>
      <trkpt lat="44.11396" lon="6.70537">
        <ele>2247.9</ele>
        <time>2020-07-28T09:51:53Z</time>
      </trkpt>
      <trkpt lat="44.11397" lon="6.70537">
        <ele>2247.8</ele>
        <time>2020-07-28T09:52:01Z</time>
      </trkpt>
      <trkpt lat="44.11395" lon="6.70538">
        <ele>2248.1</ele>
        <time>2020-07-28T09:52:10Z</time>
      </trkpt>
      <trkpt lat="44.11394" lon="6.70538">
        <ele>2248.2</ele>
        <time>2020-07-28T09:52:18Z</time>
      </trkpt>
      <trkpt lat="44.11391" lon="6.70539">
        <ele>2248.6</ele>
        <time>2020-07-28T09:52:25Z</time>
      </trkpt>
      <trkpt lat="44.11389" lon="6.70539">
        <ele>2248.8</ele>
        <time>2020-07-28T09:52:28Z</time>
      </trkpt>
      <trkpt lat="44.11381" lon="6.70536">
        <ele>2249.7</ele>
        <time>2020-07-28T09:52:36Z</time>
      </trkpt>
      <trkpt lat="44.11377" lon="6.70533">
        <ele>2250.1</ele>
        <time>2020-07-28T09:52:43Z</time>
      </trkpt>
      <trkpt lat="44.1137" lon="6.70532">
        <ele>2251</ele>
        <time>2020-07-28T09:52:51Z</time>
      </trkpt>
      <trkpt lat="44.11364" lon="6.70536">
        <ele>2252.2</ele>
        <time>2020-07-28T09:52:58Z</time>
      </trkpt>
      <trkpt lat="44.11359" lon="6.70539">
        <ele>2253.1</ele>
        <time>2020-07-28T09:53:05Z</time>
      </trkpt>
      <trkpt lat="44.11352" lon="6.70539">
        <ele>2254.1</ele>
        <time>2020-07-28T09:53:13Z</time>
      </trkpt>
      <trkpt lat="44.11348" lon="6.70539">
        <ele>2254.7</ele>
        <time>2020-07-28T09:53:18Z</time>
      </trkpt>
      <trkpt lat="44.11346" lon="6.70538">
        <ele>2254.9</ele>
        <time>2020-07-28T09:53:21Z</time>
      </trkpt>
      <trkpt lat="44.11339" lon="6.70532">
        <ele>2255.5</ele>
        <time>2020-07-28T09:53:29Z</time>
      </trkpt>
      <trkpt lat="44.11337" lon="6.70531">
        <ele>2255.7</ele>
        <time>2020-07-28T09:53:32Z</time>
      </trkpt>
      <trkpt lat="44.11334" lon="6.7053">
        <ele>2256.1</ele>
        <time>2020-07-28T09:53:36Z</time>
      </trkpt>
      <trkpt lat="44.1133" lon="6.70528">
        <ele>2256.9</ele>
        <time>2020-07-28T09:53:41Z</time>
      </trkpt>
      <trkpt lat="44.11324" lon="6.70527">
        <ele>2258.6</ele>
        <time>2020-07-28T09:53:49Z</time>
      </trkpt>
      <trkpt lat="44.11323" lon="6.70532">
        <ele>2258.7</ele>
        <time>2020-07-28T09:53:55Z</time>
      </trkpt>
      <trkpt lat="44.11319" lon="6.70533">
        <ele>2259.7</ele>
        <time>2020-07-28T09:54:02Z</time>
      </trkpt>
      <trkpt lat="44.11314" lon="6.70535">
        <ele>2260.8</ele>
        <time>2020-07-28T09:54:10Z</time>
      </trkpt>
      <trkpt lat="44.11308" lon="6.70537">
        <ele>2262.1</ele>
        <time>2020-07-28T09:54:19Z</time>
      </trkpt>
      <trkpt lat="44.11304" lon="6.70537">
        <ele>2263</ele>
        <time>2020-07-28T09:54:25Z</time>
      </trkpt>
      <trkpt lat="44.113" lon="6.70541">
        <ele>2263.7</ele>
        <time>2020-07-28T09:54:32Z</time>
      </trkpt>
      <trkpt lat="44.11296" lon="6.70543">
        <ele>2264.2</ele>
        <time>2020-07-28T09:54:39Z</time>
      </trkpt>
      <trkpt lat="44.11291" lon="6.70544">
        <ele>2265</ele>
        <time>2020-07-28T09:54:45Z</time>
      </trkpt>
      <trkpt lat="44.11289" lon="6.70545">
        <ele>2265.2</ele>
        <time>2020-07-28T09:54:51Z</time>
      </trkpt>
      <trkpt lat="44.11285" lon="6.70548">
        <ele>2265.2</ele>
        <time>2020-07-28T09:54:57Z</time>
      </trkpt>
      <trkpt lat="44.11281" lon="6.70549">
        <ele>2265.5</ele>
        <time>2020-07-28T09:55:05Z</time>
      </trkpt>
      <trkpt lat="44.11276" lon="6.70552">
        <ele>2265.5</ele>
        <time>2020-07-28T09:55:13Z</time>
      </trkpt>
      <trkpt lat="44.11273" lon="6.70553">
        <ele>2265.9</ele>
        <time>2020-07-28T09:55:20Z</time>
      </trkpt>
      <trkpt lat="44.11268" lon="6.70555">
        <ele>2266.6</ele>
        <time>2020-07-28T09:55:28Z</time>
      </trkpt>
      <trkpt lat="44.11265" lon="6.70557">
        <ele>2267.5</ele>
        <time>2020-07-28T09:55:34Z</time>
      </trkpt>
      <trkpt lat="44.11261" lon="6.7056">
        <ele>2269</ele>
        <time>2020-07-28T09:55:42Z</time>
      </trkpt>
      <trkpt lat="44.11257" lon="6.70564">
        <ele>2270.2</ele>
        <time>2020-07-28T09:55:49Z</time>
      </trkpt>
      <trkpt lat="44.11252" lon="6.70563">
        <ele>2270.9</ele>
        <time>2020-07-28T09:55:56Z</time>
      </trkpt>
      <trkpt lat="44.11249" lon="6.70562">
        <ele>2271.4</ele>
        <time>2020-07-28T09:56:02Z</time>
      </trkpt>
      <trkpt lat="44.11247" lon="6.70561">
        <ele>2271.8</ele>
        <time>2020-07-28T09:56:07Z</time>
      </trkpt>
      <trkpt lat="44.11245" lon="6.7056">
        <ele>2272.2</ele>
        <time>2020-07-28T09:56:10Z</time>
      </trkpt>
      <trkpt lat="44.1124" lon="6.70561">
        <ele>2273.2</ele>
        <time>2020-07-28T09:56:17Z</time>
      </trkpt>
      <trkpt lat="44.11238" lon="6.70563">
        <ele>2273.6</ele>
        <time>2020-07-28T09:56:21Z</time>
      </trkpt>
      <trkpt lat="44.11234" lon="6.70564">
        <ele>2274.4</ele>
        <time>2020-07-28T09:56:29Z</time>
      </trkpt>
      <trkpt lat="44.11231" lon="6.70566">
        <ele>2275</ele>
        <time>2020-07-28T09:56:35Z</time>
      </trkpt>
      <trkpt lat="44.1123" lon="6.70568">
        <ele>2275.1</ele>
        <time>2020-07-28T09:56:43Z</time>
      </trkpt>
      <trkpt lat="44.1123" lon="6.70568">
        <ele>2275.1</ele>
        <time>2020-07-28T09:56:54Z</time>
      </trkpt>
      <trkpt lat="44.1123" lon="6.70569">
        <ele>2275.1</ele>
        <time>2020-07-28T09:57:07Z</time>
      </trkpt>
      <trkpt lat="44.1123" lon="6.70569">
        <ele>2275.1</ele>
        <time>2020-07-28T09:57:15Z</time>
      </trkpt>
      <trkpt lat="44.11228" lon="6.70571">
        <ele>2275.4</ele>
        <time>2020-07-28T09:57:24Z</time>
      </trkpt>
      <trkpt lat="44.11222" lon="6.70572">
        <ele>2276.4</ele>
        <time>2020-07-28T09:57:33Z</time>
      </trkpt>
      <trkpt lat="44.11218" lon="6.70574">
        <ele>2276.7</ele>
        <time>2020-07-28T09:57:42Z</time>
      </trkpt>
      <trkpt lat="44.11215" lon="6.70575">
        <ele>2276.9</ele>
        <time>2020-07-28T09:57:50Z</time>
      </trkpt>
      <trkpt lat="44.11211" lon="6.70576">
        <ele>2277.2</ele>
        <time>2020-07-28T09:57:55Z</time>
      </trkpt>
      <trkpt lat="44.11205" lon="6.7058">
        <ele>2277.4</ele>
        <time>2020-07-28T09:58:02Z</time>
      </trkpt>
      <trkpt lat="44.11198" lon="6.70583">
        <ele>2277.8</ele>
        <time>2020-07-28T09:58:09Z</time>
      </trkpt>
      <trkpt lat="44.11195" lon="6.70586">
        <ele>2278.2</ele>
        <time>2020-07-28T09:58:12Z</time>
      </trkpt>
      <trkpt lat="44.11188" lon="6.70589">
        <ele>2278.5</ele>
        <time>2020-07-28T09:58:19Z</time>
      </trkpt>
      <trkpt lat="44.11184" lon="6.70591">
        <ele>2278.6</ele>
        <time>2020-07-28T09:58:23Z</time>
      </trkpt>
      <trkpt lat="44.11181" lon="6.70593">
        <ele>2278.7</ele>
        <time>2020-07-28T09:58:26Z</time>
      </trkpt>
      <trkpt lat="44.11178" lon="6.70594">
        <ele>2278.7</ele>
        <time>2020-07-28T09:58:28Z</time>
      </trkpt>
      <trkpt lat="44.11171" lon="6.70599">
        <ele>2278.5</ele>
        <time>2020-07-28T09:58:36Z</time>
      </trkpt>
      <trkpt lat="44.11165" lon="6.706">
        <ele>2278.3</ele>
        <time>2020-07-28T09:58:42Z</time>
      </trkpt>
      <trkpt lat="44.11158" lon="6.70601">
        <ele>2277.7</ele>
        <time>2020-07-28T09:58:50Z</time>
      </trkpt>
      <trkpt lat="44.11153" lon="6.706">
        <ele>2277.4</ele>
        <time>2020-07-28T09:58:58Z</time>
      </trkpt>
      <trkpt lat="44.11153" lon="6.706">
        <ele>2277.4</ele>
        <time>2020-07-28T09:58:59Z</time>
      </trkpt>
      <trkpt lat="44.11151" lon="6.706">
        <ele>2277.3</ele>
        <time>2020-07-28T09:59:02Z</time>
      </trkpt>
      <trkpt lat="44.11153" lon="6.7061">
        <ele>2277.1</ele>
        <time>2020-07-28T09:59:11Z</time>
      </trkpt>
      <trkpt lat="44.11148" lon="6.70616">
        <ele>2276.9</ele>
        <time>2020-07-28T09:59:19Z</time>
      </trkpt>
      <trkpt lat="44.11146" lon="6.70613">
        <ele>2276.6</ele>
        <time>2020-07-28T09:59:24Z</time>
      </trkpt>
      <trkpt lat="44.11147" lon="6.70608">
        <ele>2276.7</ele>
        <time>2020-07-28T09:59:31Z</time>
      </trkpt>
      <trkpt lat="44.11147" lon="6.70608">
        <ele>2276.7</ele>
        <time>2020-07-28T09:59:45Z</time>
      </trkpt>
      <trkpt lat="44.11146" lon="6.70603">
        <ele>2276.8</ele>
        <time>2020-07-28T09:59:54Z</time>
      </trkpt>
      <trkpt lat="44.11144" lon="6.706">
        <ele>2276.8</ele>
        <time>2020-07-28T10:00:01Z</time>
      </trkpt>
      <trkpt lat="44.11141" lon="6.70601">
        <ele>2276.5</ele>
        <time>2020-07-28T10:00:05Z</time>
      </trkpt>
      <trkpt lat="44.11134" lon="6.70604">
        <ele>2275.5</ele>
        <time>2020-07-28T10:00:14Z</time>
      </trkpt>
      <trkpt lat="44.1113" lon="6.70605">
        <ele>2274.9</ele>
        <time>2020-07-28T10:00:20Z</time>
      </trkpt>
      <trkpt lat="44.11125" lon="6.70608">
        <ele>2274.1</ele>
        <time>2020-07-28T10:00:26Z</time>
      </trkpt>
      <trkpt lat="44.11122" lon="6.70609">
        <ele>2273.6</ele>
        <time>2020-07-28T10:00:29Z</time>
      </trkpt>
      <trkpt lat="44.11115" lon="6.70614">
        <ele>2272.7</ele>
        <time>2020-07-28T10:00:37Z</time>
      </trkpt>
      <trkpt lat="44.11115" lon="6.70614">
        <ele>2272.7</ele>
        <time>2020-07-28T10:00:38Z</time>
      </trkpt>
      <trkpt lat="44.11109" lon="6.70617">
        <ele>2271.9</ele>
        <time>2020-07-28T10:00:44Z</time>
      </trkpt>
      <trkpt lat="44.11107" lon="6.70619">
        <ele>2271.6</ele>
        <time>2020-07-28T10:00:46Z</time>
      </trkpt>
      <trkpt lat="44.11102" lon="6.7062">
        <ele>2270.9</ele>
        <time>2020-07-28T10:00:50.500Z</time>
      </trkpt>
      <trkpt lat="44.11097" lon="6.7062">
        <ele>2270.1</ele>
        <time>2020-07-28T10:00:55Z</time>
      </trkpt>
      <trkpt lat="44.11089" lon="6.70618">
        <ele>2268.9</ele>
        <time>2020-07-28T10:01:03Z</time>
      </trkpt>
      <trkpt lat="44.11085" lon="6.70614">
        <ele>2268.2</ele>
        <time>2020-07-28T10:01:06.499Z</time>
      </trkpt>
      <trkpt lat="44.11081" lon="6.70609">
        <ele>2268</ele>
        <time>2020-07-28T10:01:10Z</time>
      </trkpt>
      <trkpt lat="44.11077" lon="6.7061">
        <ele>2268</ele>
        <time>2020-07-28T10:01:17Z</time>
      </trkpt>
      <trkpt lat="44.11074" lon="6.7061">
        <ele>2268</ele>
        <time>2020-07-28T10:01:21Z</time>
      </trkpt>
      <trkpt lat="44.11069" lon="6.70609">
        <ele>2268.1</ele>
        <time>2020-07-28T10:01:25Z</time>
      </trkpt>
      <trkpt lat="44.11065" lon="6.70609">
        <ele>2268.1</ele>
        <time>2020-07-28T10:01:28Z</time>
      </trkpt>
      <trkpt lat="44.11059" lon="6.70613">
        <ele>2267.9</ele>
        <time>2020-07-28T10:01:34Z</time>
      </trkpt>
      <trkpt lat="44.11057" lon="6.70613">
        <ele>2267.9</ele>
        <time>2020-07-28T10:01:36Z</time>
      </trkpt>
      <trkpt lat="44.11051" lon="6.70615">
        <ele>2267.7</ele>
        <time>2020-07-28T10:01:41.500Z</time>
      </trkpt>
      <trkpt lat="44.11044" lon="6.70616">
        <ele>2267.7</ele>
        <time>2020-07-28T10:01:47Z</time>
      </trkpt>
      <trkpt lat="44.11039" lon="6.70617">
        <ele>2267.7</ele>
        <time>2020-07-28T10:01:51.000Z</time>
      </trkpt>
      <trkpt lat="44.11033" lon="6.70617">
        <ele>2267.7</ele>
        <time>2020-07-28T10:01:55Z</time>
      </trkpt>
      <trkpt lat="44.11029" lon="6.70616">
        <ele>2267.8</ele>
        <time>2020-07-28T10:01:58Z</time>
      </trkpt>
      <trkpt lat="44.11021" lon="6.70616">
        <ele>2267.6</ele>
        <time>2020-07-28T10:02:05Z</time>
      </trkpt>
      <trkpt lat="44.11017" lon="6.70618">
        <ele>2267.4</ele>
        <time>2020-07-28T10:02:09Z</time>
      </trkpt>
      <trkpt lat="44.11012" lon="6.70617">
        <ele>2267.2</ele>
        <time>2020-07-28T10:02:14Z</time>
      </trkpt>
      <trkpt lat="44.11008" lon="6.70614">
        <ele>2267.2</ele>
        <time>2020-07-28T10:02:18.999Z</time>
      </trkpt>
      <trkpt lat="44.11003" lon="6.70611">
        <ele>2267.1</ele>
        <time>2020-07-28T10:02:24Z</time>
      </trkpt>
      <trkpt lat="44.11001" lon="6.70611">
        <ele>2267</ele>
        <time>2020-07-28T10:02:26Z</time>
      </trkpt>
      <trkpt lat="44.10998" lon="6.7061">
        <ele>2266.9</ele>
        <time>2020-07-28T10:02:29Z</time>
      </trkpt>
      <trkpt lat="44.10994" lon="6.7061">
        <ele>2266.6</ele>
        <time>2020-07-28T10:02:33.000Z</time>
      </trkpt>
      <trkpt lat="44.10989" lon="6.7061">
        <ele>2266.3</ele>
        <time>2020-07-28T10:02:37Z</time>
      </trkpt>
      <trkpt lat="44.10981" lon="6.70611">
        <ele>2265.6</ele>
        <time>2020-07-28T10:02:45Z</time>
      </trkpt>
      <trkpt lat="44.10973" lon="6.7061">
        <ele>2265.1</ele>
        <time>2020-07-28T10:02:52Z</time>
      </trkpt>
      <trkpt lat="44.10968" lon="6.70612">
        <ele>2265</ele>
        <time>2020-07-28T10:02:56.500Z</time>
      </trkpt>
      <trkpt lat="44.10963" lon="6.70613">
        <ele>2264.9</ele>
        <time>2020-07-28T10:03:01Z</time>
      </trkpt>
      <trkpt lat="44.10955" lon="6.70611">
        <ele>2265</ele>
        <time>2020-07-28T10:03:08Z</time>
      </trkpt>
      <trkpt lat="44.10954" lon="6.70614">
        <ele>2264.9</ele>
        <time>2020-07-28T10:03:18Z</time>
      </trkpt>
      <trkpt lat="44.10948" lon="6.70616">
        <ele>2264.8</ele>
        <time>2020-07-28T10:03:25Z</time>
      </trkpt>
      <trkpt lat="44.1094" lon="6.7062">
        <ele>2264.7</ele>
        <time>2020-07-28T10:03:33Z</time>
      </trkpt>
      <trkpt lat="44.10935" lon="6.70623">
        <ele>2264.6</ele>
        <time>2020-07-28T10:03:38Z</time>
      </trkpt>
      <trkpt lat="44.10928" lon="6.70625">
        <ele>2264.5</ele>
        <time>2020-07-28T10:03:46Z</time>
      </trkpt>
      <trkpt lat="44.1092" lon="6.70627">
        <ele>2264.4</ele>
        <time>2020-07-28T10:03:54Z</time>
      </trkpt>
      <trkpt lat="44.10912" lon="6.70629">
        <ele>2264.5</ele>
        <time>2020-07-28T10:04:03Z</time>
      </trkpt>
      <trkpt lat="44.10906" lon="6.70634">
        <ele>2264.5</ele>
        <time>2020-07-28T10:04:11Z</time>
      </trkpt>
      <trkpt lat="44.10899" lon="6.70637">
        <ele>2264.7</ele>
        <time>2020-07-28T10:04:19Z</time>
      </trkpt>
      <trkpt lat="44.10895" lon="6.7064">
        <ele>2264.7</ele>
        <time>2020-07-28T10:04:23.999Z</time>
      </trkpt>
      <trkpt lat="44.1089" lon="6.70642">
        <ele>2264.9</ele>
        <time>2020-07-28T10:04:29Z</time>
      </trkpt>
      <trkpt lat="44.10884" lon="6.70642">
        <ele>2265.2</ele>
        <time>2020-07-28T10:04:35Z</time>
      </trkpt>
      <trkpt lat="44.10876" lon="6.70644">
        <ele>2265.7</ele>
        <time>2020-07-28T10:04:45Z</time>
      </trkpt>
      <trkpt lat="44.10871" lon="6.70645">
        <ele>2266.1</ele>
        <time>2020-07-28T10:04:50Z</time>
      </trkpt>
      <trkpt lat="44.10864" lon="6.70646">
        <ele>2266.5</ele>
        <time>2020-07-28T10:04:58Z</time>
      </trkpt>
      <trkpt lat="44.1086" lon="6.70649">
        <ele>2266.7</ele>
        <time>2020-07-28T10:05:02.499Z</time>
      </trkpt>
      <trkpt lat="44.10855" lon="6.70651">
        <ele>2267.1</ele>
        <time>2020-07-28T10:05:07Z</time>
      </trkpt>
      <trkpt lat="44.1085" lon="6.70652">
        <ele>2267.5</ele>
        <time>2020-07-28T10:05:13Z</time>
      </trkpt>
      <trkpt lat="44.10842" lon="6.70651">
        <ele>2268.3</ele>
        <time>2020-07-28T10:05:22Z</time>
      </trkpt>
      <trkpt lat="44.10835" lon="6.70652">
        <ele>2268.9</ele>
        <time>2020-07-28T10:05:30Z</time>
      </trkpt>
      <trkpt lat="44.10829" lon="6.70652">
        <ele>2269.4</ele>
        <time>2020-07-28T10:05:39Z</time>
      </trkpt>
      <trkpt lat="44.10823" lon="6.70653">
        <ele>2269.7</ele>
        <time>2020-07-28T10:05:48Z</time>
      </trkpt>
      <trkpt lat="44.10821" lon="6.70655">
        <ele>2269.7</ele>
        <time>2020-07-28T10:05:56Z</time>
      </trkpt>
      <trkpt lat="44.10816" lon="6.70654">
        <ele>2270.2</ele>
        <time>2020-07-28T10:06:01.000Z</time>
      </trkpt>
      <trkpt lat="44.1081" lon="6.70653">
        <ele>2270.7</ele>
        <time>2020-07-28T10:06:06Z</time>
      </trkpt>
      <trkpt lat="44.10809" lon="6.70653">
        <ele>2270.7</ele>
        <time>2020-07-28T10:06:07Z</time>
      </trkpt>
      <trkpt lat="44.10805" lon="6.70654">
        <ele>2271</ele>
        <time>2020-07-28T10:06:11Z</time>
      </trkpt>
      <trkpt lat="44.10798" lon="6.70657">
        <ele>2271.3</ele>
        <time>2020-07-28T10:06:20Z</time>
      </trkpt>
      <trkpt lat="44.10791" lon="6.70659">
        <ele>2271.7</ele>
        <time>2020-07-28T10:06:28Z</time>
      </trkpt>
      <trkpt lat="44.10784" lon="6.70661">
        <ele>2272.1</ele>
        <time>2020-07-28T10:06:36Z</time>
      </trkpt>
      <trkpt lat="44.10776" lon="6.70662">
        <ele>2272.6</ele>
        <time>2020-07-28T10:06:44Z</time>
      </trkpt>
      <trkpt lat="44.1077" lon="6.70663">
        <ele>2272.7</ele>
        <time>2020-07-28T10:06:52Z</time>
      </trkpt>
      <trkpt lat="44.10764" lon="6.7066">
        <ele>2273.2</ele>
        <time>2020-07-28T10:07:00Z</time>
      </trkpt>
      <trkpt lat="44.10757" lon="6.70654">
        <ele>2274.1</ele>
        <time>2020-07-28T10:07:08Z</time>
      </trkpt>
      <trkpt lat="44.10751" lon="6.70652">
        <ele>2274.5</ele>
        <time>2020-07-28T10:07:14Z</time>
      </trkpt>
      <trkpt lat="44.10743" lon="6.70654">
        <ele>2274.8</ele>
        <time>2020-07-28T10:07:22Z</time>
      </trkpt>
      <trkpt lat="44.1074" lon="6.70655">
        <ele>2274.8</ele>
        <time>2020-07-28T10:07:25Z</time>
      </trkpt>
      <trkpt lat="44.10732" lon="6.70656">
        <ele>2275.2</ele>
        <time>2020-07-28T10:07:33Z</time>
      </trkpt>
      <trkpt lat="44.10727" lon="6.70655">
        <ele>2275.6</ele>
        <time>2020-07-28T10:07:39Z</time>
      </trkpt>
      <trkpt lat="44.10719" lon="6.70652">
        <ele>2276.2</ele>
        <time>2020-07-28T10:07:49Z</time>
      </trkpt>
      <trkpt lat="44.10716" lon="6.70652">
        <ele>2276.3</ele>
        <time>2020-07-28T10:07:52Z</time>
      </trkpt>
      <trkpt lat="44.1071" lon="6.7065">
        <ele>2276.6</ele>
        <time>2020-07-28T10:07:58Z</time>
      </trkpt>
      <trkpt lat="44.10705" lon="6.70649">
        <ele>2276.9</ele>
        <time>2020-07-28T10:08:03.000Z</time>
      </trkpt>
      <trkpt lat="44.107" lon="6.70648">
        <ele>2277.1</ele>
        <time>2020-07-28T10:08:08Z</time>
      </trkpt>
      <trkpt lat="44.10694" lon="6.70644">
        <ele>2277.7</ele>
        <time>2020-07-28T10:08:15Z</time>
      </trkpt>
      <trkpt lat="44.10688" lon="6.70639">
        <ele>2278.2</ele>
        <time>2020-07-28T10:08:24Z</time>
      </trkpt>
      <trkpt lat="44.10687" lon="6.70637">
        <ele>2278.4</ele>
        <time>2020-07-28T10:08:27Z</time>
      </trkpt>
      <trkpt lat="44.10683" lon="6.70636">
        <ele>2278.5</ele>
        <time>2020-07-28T10:08:32Z</time>
      </trkpt>
      <trkpt lat="44.10681" lon="6.70636">
        <ele>2278.6</ele>
        <time>2020-07-28T10:08:40Z</time>
      </trkpt>
      <trkpt lat="44.1068" lon="6.70637">
        <ele>2278.6</ele>
        <time>2020-07-28T10:08:49Z</time>
      </trkpt>
      <trkpt lat="44.10675" lon="6.70635">
        <ele>2278.8</ele>
        <time>2020-07-28T10:08:57Z</time>
      </trkpt>
      <trkpt lat="44.10673" lon="6.70633">
        <ele>2278.9</ele>
        <time>2020-07-28T10:09:00Z</time>
      </trkpt>
      <trkpt lat="44.10669" lon="6.70632">
        <ele>2279</ele>
        <time>2020-07-28T10:09:05.000Z</time>
      </trkpt>
      <trkpt lat="44.10664" lon="6.70631">
        <ele>2279.1</ele>
        <time>2020-07-28T10:09:10Z</time>
      </trkpt>
      <trkpt lat="44.10658" lon="6.70629">
        <ele>2279.2</ele>
        <time>2020-07-28T10:09:18Z</time>
      </trkpt>
      <trkpt lat="44.10654" lon="6.70627">
        <ele>2279.3</ele>
        <time>2020-07-28T10:09:22.499Z</time>
      </trkpt>
      <trkpt lat="44.10649" lon="6.70624">
        <ele>2279.3</ele>
        <time>2020-07-28T10:09:27Z</time>
      </trkpt>
      <trkpt lat="44.10645" lon="6.70623">
        <ele>2279.3</ele>
        <time>2020-07-28T10:09:31.000Z</time>
      </trkpt>
      <trkpt lat="44.1064" lon="6.70622">
        <ele>2279.4</ele>
        <time>2020-07-28T10:09:35Z</time>
      </trkpt>
      <trkpt lat="44.10639" lon="6.70622">
        <ele>2279.4</ele>
        <time>2020-07-28T10:09:36Z</time>
      </trkpt>
      <trkpt lat="44.10632" lon="6.70623">
        <ele>2279.4</ele>
        <time>2020-07-28T10:09:44Z</time>
      </trkpt>
      <trkpt lat="44.1063" lon="6.70623">
        <ele>2279.4</ele>
        <time>2020-07-28T10:09:47Z</time>
      </trkpt>
      <trkpt lat="44.10623" lon="6.70621">
        <ele>2279.4</ele>
        <time>2020-07-28T10:09:56Z</time>
      </trkpt>
      <trkpt lat="44.10615" lon="6.70617">
        <ele>2279.2</ele>
        <time>2020-07-28T10:10:06Z</time>
      </trkpt>
      <trkpt lat="44.10607" lon="6.70616">
        <ele>2278.8</ele>
        <time>2020-07-28T10:10:15Z</time>
      </trkpt>
      <trkpt lat="44.10601" lon="6.70613">
        <ele>2278</ele>
        <time>2020-07-28T10:10:23Z</time>
      </trkpt>
      <trkpt lat="44.106" lon="6.70615">
        <ele>2278</ele>
        <time>2020-07-28T10:10:29Z</time>
      </trkpt>
      <trkpt lat="44.10598" lon="6.70619">
        <ele>2278</ele>
        <time>2020-07-28T10:10:36Z</time>
      </trkpt>
      <trkpt lat="44.10597" lon="6.7062">
        <ele>2278</ele>
        <time>2020-07-28T10:10:46Z</time>
      </trkpt>
      <trkpt lat="44.10593" lon="6.70619">
        <ele>2277.5</ele>
        <time>2020-07-28T10:10:54Z</time>
      </trkpt>
      <trkpt lat="44.10591" lon="6.70618">
        <ele>2277.3</ele>
        <time>2020-07-28T10:10:58Z</time>
      </trkpt>
      <trkpt lat="44.10586" lon="6.70614">
        <ele>2276.5</ele>
        <time>2020-07-28T10:11:07Z</time>
      </trkpt>
      <trkpt lat="44.1058" lon="6.7061">
        <ele>2275.6</ele>
        <time>2020-07-28T10:11:15Z</time>
      </trkpt>
      <trkpt lat="44.10577" lon="6.70608">
        <ele>2275.2</ele>
        <time>2020-07-28T10:11:22Z</time>
      </trkpt>
      <trkpt lat="44.10573" lon="6.70608">
        <ele>2274.8</ele>
        <time>2020-07-28T10:11:29Z</time>
      </trkpt>
      <trkpt lat="44.1057" lon="6.70602">
        <ele>2274.4</ele>
        <time>2020-07-28T10:11:37Z</time>
      </trkpt>
      <trkpt lat="44.10569" lon="6.70601">
        <ele>2274.3</ele>
        <time>2020-07-28T10:11:39Z</time>
      </trkpt>
      <trkpt lat="44.10562" lon="6.706">
        <ele>2273.6</ele>
        <time>2020-07-28T10:11:46Z</time>
      </trkpt>
      <trkpt lat="44.10558" lon="6.70603">
        <ele>2273.2</ele>
        <time>2020-07-28T10:11:50Z</time>
      </trkpt>
      <trkpt lat="44.1055" lon="6.70608">
        <ele>2273</ele>
        <time>2020-07-28T10:11:59Z</time>
      </trkpt>
      <trkpt lat="44.10548" lon="6.7061">
        <ele>2273</ele>
        <time>2020-07-28T10:12:03Z</time>
      </trkpt>
      <trkpt lat="44.1054" lon="6.7061">
        <ele>2273</ele>
        <time>2020-07-28T10:12:10Z</time>
      </trkpt>
      <trkpt lat="44.10536" lon="6.70611">
        <ele>2273</ele>
        <time>2020-07-28T10:12:15Z</time>
      </trkpt>
      <trkpt lat="44.10529" lon="6.7061">
        <ele>2273</ele>
        <time>2020-07-28T10:12:23Z</time>
      </trkpt>
      <trkpt lat="44.10526" lon="6.70609">
        <ele>2273</ele>
        <time>2020-07-28T10:12:26Z</time>
      </trkpt>
      <trkpt lat="44.10525" lon="6.70607">
        <ele>2273</ele>
        <time>2020-07-28T10:12:28Z</time>
      </trkpt>
      <trkpt lat="44.10517" lon="6.70608">
        <ele>2273.1</ele>
        <time>2020-07-28T10:12:36Z</time>
      </trkpt>
      <trkpt lat="44.10514" lon="6.70614">
        <ele>2273</ele>
        <time>2020-07-28T10:12:43.887Z</time>
      </trkpt>
      <trkpt lat="44.10511" lon="6.70619">
        <ele>2273.1</ele>
        <time>2020-07-28T10:12:50.915Z</time>
      </trkpt>
      <trkpt lat="44.10508" lon="6.70625">
        <ele>2273.1</ele>
        <time>2020-07-28T10:12:58.802Z</time>
      </trkpt>
      <trkpt lat="44.10505" lon="6.7063">
        <ele>2273.1</ele>
        <time>2020-07-28T10:13:05.832Z</time>
      </trkpt>
      <trkpt lat="44.10502" lon="6.70639">
        <ele>2273.1</ele>
        <time>2020-07-28T10:13:16.526Z</time>
      </trkpt>
      <trkpt lat="44.10498" lon="6.70648">
        <ele>2273.3</ele>
        <time>2020-07-28T10:13:27.935Z</time>
      </trkpt>
      <trkpt lat="44.10493" lon="6.70658">
        <ele>2273.4</ele>
        <time>2020-07-28T10:13:41.088Z</time>
      </trkpt>
      <trkpt lat="44.10488" lon="6.70667">
        <ele>2273.6</ele>
        <time>2020-07-28T10:13:53.372Z</time>
      </trkpt>
      <trkpt lat="44.10486" lon="6.70673">
        <ele>2273.9</ele>
        <time>2020-07-28T10:14:00.495Z</time>
      </trkpt>
      <trkpt lat="44.10483" lon="6.70679">
        <ele>2274.1</ele>
        <time>2020-07-28T10:14:08.368Z</time>
      </trkpt>
      <trkpt lat="44.10481" lon="6.70684">
        <ele>2274.3</ele>
        <time>2020-07-28T10:14:14.531Z</time>
      </trkpt>
      <trkpt lat="44.10478" lon="6.7069">
        <ele>2274.4</ele>
        <time>2020-07-28T10:14:22.405Z</time>
      </trkpt>
      <trkpt lat="44.10475" lon="6.70697">
        <ele>2274.5</ele>
        <time>2020-07-28T10:14:31.158Z</time>
      </trkpt>
      <trkpt lat="44.10471" lon="6.70703">
        <ele>2274.8</ele>
        <time>2020-07-28T10:14:39.949Z</time>
      </trkpt>
      <trkpt lat="44.10468" lon="6.7071">
        <ele>2275.1</ele>
        <time>2020-07-28T10:14:48.703Z</time>
      </trkpt>
      <trkpt lat="44.10464" lon="6.70716">
        <ele>2275.3</ele>
        <time>2020-07-28T10:14:57.496Z</time>
      </trkpt>
      <trkpt lat="44.1046" lon="6.70722">
        <ele>2275.2</ele>
        <time>2020-07-28T10:15:06.315Z</time>
      </trkpt>
      <trkpt lat="44.10456" lon="6.70729">
        <ele>2275.4</ele>
        <time>2020-07-28T10:15:15.952Z</time>
      </trkpt>
      <trkpt lat="44.10451" lon="6.70735">
        <ele>2275.4</ele>
        <time>2020-07-28T10:15:25.853Z</time>
      </trkpt>
      <trkpt lat="44.10447" lon="6.70741">
        <ele>2275.5</ele>
        <time>2020-07-28T10:15:34.674Z</time>
      </trkpt>
      <trkpt lat="44.10444" lon="6.70748">
        <ele>2275.7</ele>
        <time>2020-07-28T10:15:43.465Z</time>
      </trkpt>
      <trkpt lat="44.10441" lon="6.70754">
        <ele>2276.1</ele>
        <time>2020-07-28T10:15:51.350Z</time>
      </trkpt>
      <trkpt lat="44.10437" lon="6.70761">
        <ele>2276.5</ele>
        <time>2020-07-28T10:16:00.998Z</time>
      </trkpt>
      <trkpt lat="44.10434" lon="6.70767">
        <ele>2276.9</ele>
        <time>2020-07-28T10:16:08.884Z</time>
      </trkpt>
      <trkpt lat="44.1043" lon="6.70772">
        <ele>2277</ele>
        <time>2020-07-28T10:16:16.960Z</time>
      </trkpt>
      <trkpt lat="44.10426" lon="6.70778">
        <ele>2277</ele>
        <time>2020-07-28T10:16:25.793Z</time>
      </trkpt>
      <trkpt lat="44.10422" lon="6.70783">
        <ele>2277</ele>
        <time>2020-07-28T10:16:33.869Z</time>
      </trkpt>
      <trkpt lat="44.10418" lon="6.70788">
        <ele>2276.9</ele>
        <time>2020-07-28T10:16:41.946Z</time>
      </trkpt>
      <trkpt lat="44.10414" lon="6.70791">
        <ele>2276.8</ele>
        <time>2020-07-28T10:16:48.772Z</time>
      </trkpt>
      <trkpt lat="44.1041" lon="6.70794">
        <ele>2276.9</ele>
        <time>2020-07-28T10:16:55.598Z</time>
      </trkpt>
      <trkpt lat="44.10405" lon="6.70797">
        <ele>2277</ele>
        <time>2020-07-28T10:17:03.779Z</time>
      </trkpt>
      <trkpt lat="44.10401" lon="6.708">
        <ele>2277</ele>
        <time>2020-07-28T10:17:10.606Z</time>
      </trkpt>
      <trkpt lat="44.10397" lon="6.70803">
        <ele>2277.1</ele>
        <time>2020-07-28T10:17:17.437Z</time>
      </trkpt>
      <trkpt lat="44.10393" lon="6.70806">
        <ele>2277.2</ele>
        <time>2020-07-28T10:17:24.269Z</time>
      </trkpt>
      <trkpt lat="44.10389" lon="6.70809">
        <ele>2277.3</ele>
        <time>2020-07-28T10:17:31.101Z</time>
      </trkpt>
      <trkpt lat="44.10385" lon="6.70812">
        <ele>2277.3</ele>
        <time>2020-07-28T10:17:37.934Z</time>
      </trkpt>
      <trkpt lat="44.1038" lon="6.70815">
        <ele>2277.1</ele>
        <time>2020-07-28T10:17:46.108Z</time>
      </trkpt>
      <trkpt lat="44.10375" lon="6.70818">
        <ele>2276.9</ele>
        <time>2020-07-28T10:17:54.283Z</time>
      </trkpt>
      <trkpt lat="44.1037" lon="6.7082">
        <ele>2276.7</ele>
        <time>2020-07-28T10:18:02.094Z</time>
      </trkpt>
      <trkpt lat="44.10365" lon="6.70823">
        <ele>2276.3</ele>
        <time>2020-07-28T10:18:10.270Z</time>
      </trkpt>
      <trkpt lat="44.10361" lon="6.70827">
        <ele>2276</ele>
        <time>2020-07-28T10:18:17.662Z</time>
      </trkpt>
      <trkpt lat="44.10358" lon="6.70831">
        <ele>2275.9</ele>
        <time>2020-07-28T10:18:23.897Z</time>
      </trkpt>
      <trkpt lat="44.10354" lon="6.70835">
        <ele>2275.8</ele>
        <time>2020-07-28T10:18:31.289Z</time>
      </trkpt>
      <trkpt lat="44.1035" lon="6.70839">
        <ele>2275.9</ele>
        <time>2020-07-28T10:18:38.683Z</time>
      </trkpt>
      <trkpt lat="44.10346" lon="6.70844">
        <ele>2276</ele>
        <time>2020-07-28T10:18:46.754Z</time>
      </trkpt>
      <trkpt lat="44.10343" lon="6.70848">
        <ele>2276</ele>
        <time>2020-07-28T10:18:52.991Z</time>
      </trkpt>
      <trkpt lat="44.10339" lon="6.70853">
        <ele>2276</ele>
        <time>2020-07-28T10:19:01.063Z</time>
      </trkpt>
      <trkpt lat="44.10335" lon="6.70857">
        <ele>2276</ele>
        <time>2020-07-28T10:19:08.459Z</time>
      </trkpt>
      <trkpt lat="44.10329" lon="6.70861">
        <ele>2275.7</ele>
        <time>2020-07-28T10:19:18.440Z</time>
      </trkpt>
      <trkpt lat="44.10323" lon="6.70865">
        <ele>2275.5</ele>
        <time>2020-07-28T10:19:28.421Z</time>
      </trkpt>
      <trkpt lat="44.10316" lon="6.70868">
        <ele>2275.3</ele>
        <time>2020-07-28T10:19:39.411Z</time>
      </trkpt>
      <trkpt lat="44.1031" lon="6.70872">
        <ele>2275.1</ele>
        <time>2020-07-28T10:19:49.394Z</time>
      </trkpt>
      <trkpt lat="44.10306" lon="6.70883">
        <ele>2275.6</ele>
        <time>2020-07-28T10:20:02.706Z</time>
      </trkpt>
      <trkpt lat="44.10302" lon="6.70893">
        <ele>2276.4</ele>
        <time>2020-07-28T10:20:15.064Z</time>
      </trkpt>
      <trkpt lat="44.10298" lon="6.70904">
        <ele>2277.7</ele>
        <time>2020-07-28T10:20:28.376Z</time>
      </trkpt>
      <trkpt lat="44.10294" lon="6.70914">
        <ele>2279.2</ele>
        <time>2020-07-28T10:20:40.735Z</time>
      </trkpt>
      <trkpt lat="44.10293" lon="6.7092">
        <ele>2280.2</ele>
        <time>2020-07-28T10:20:47.386Z</time>
      </trkpt>
      <trkpt lat="44.10292" lon="6.70926">
        <ele>2281.4</ele>
        <time>2020-07-28T10:20:54.037Z</time>
      </trkpt>
      <trkpt lat="44.10291" lon="6.70932">
        <ele>2282.6</ele>
        <time>2020-07-28T10:21:00.688Z</time>
      </trkpt>
      <trkpt lat="44.1029" lon="6.70939">
        <ele>2283.8</ele>
        <time>2020-07-28T10:21:08.394Z</time>
      </trkpt>
      <trkpt lat="44.10289" lon="6.70945">
        <ele>2285</ele>
        <time>2020-07-28T10:21:15.045Z</time>
      </trkpt>
      <trkpt lat="44.10288" lon="6.70951">
        <ele>2285.9</ele>
        <time>2020-07-28T10:21:21.696Z</time>
      </trkpt>
      <trkpt lat="44.10287" lon="6.70957">
        <ele>2286.8</ele>
        <time>2020-07-28T10:21:28.347Z</time>
      </trkpt>
      <trkpt lat="44.10286" lon="6.70963">
        <ele>2287.7</ele>
        <time>2020-07-28T10:21:35Z</time>
      </trkpt>
      <trkpt lat="44.10285" lon="6.7097">
        <ele>2288.6</ele>
        <time>2020-07-28T10:21:49.006Z</time>
      </trkpt>
      <trkpt lat="44.10284" lon="6.70977">
        <ele>2289.3</ele>
        <time>2020-07-28T10:22:03.012Z</time>
      </trkpt>
      <trkpt lat="44.10282" lon="6.70983">
        <ele>2289.7</ele>
        <time>2020-07-28T10:22:15.993Z</time>
      </trkpt>
      <trkpt lat="44.10281" lon="6.7099">
        <ele>2289.9</ele>
        <time>2020-07-28T10:22:30Z</time>
      </trkpt>
      <trkpt lat="44.1028" lon="6.70997">
        <ele>2290.2</ele>
        <time>2020-07-28T10:22:36Z</time>
      </trkpt>
      <trkpt lat="44.10279" lon="6.71003">
        <ele>2290.4</ele>
        <time>2020-07-28T10:22:43Z</time>
      </trkpt>
      <trkpt lat="44.10277" lon="6.7101">
        <ele>2290.7</ele>
        <time>2020-07-28T10:22:50Z</time>
      </trkpt>
      <trkpt lat="44.10276" lon="6.71017">
        <ele>2291</ele>
        <time>2020-07-28T10:22:56Z</time>
      </trkpt>
      <trkpt lat="44.10276" lon="6.71025">
        <ele>2291.5</ele>
        <time>2020-07-28T10:23:03Z</time>
      </trkpt>
      <trkpt lat="44.10277" lon="6.7103">
        <ele>2292.1</ele>
        <time>2020-07-28T10:23:10Z</time>
      </trkpt>
      <trkpt lat="44.10277" lon="6.71038">
        <ele>2292.9</ele>
        <time>2020-07-28T10:23:17Z</time>
      </trkpt>
      <trkpt lat="44.10276" lon="6.71044">
        <ele>2293.3</ele>
        <time>2020-07-28T10:23:25Z</time>
      </trkpt>
      <trkpt lat="44.10274" lon="6.7105">
        <ele>2293.3</ele>
        <time>2020-07-28T10:23:46Z</time>
      </trkpt>
      <trkpt lat="44.10274" lon="6.71057">
        <ele>2293.4</ele>
        <time>2020-07-28T10:24:58.921Z</time>
      </trkpt>
      <trkpt lat="44.10273" lon="6.71064">
        <ele>2292.2</ele>
        <time>2020-07-28T10:26:13.273Z</time>
      </trkpt>
      <trkpt lat="44.10277" lon="6.71064">
        <ele>2293.3</ele>
        <time>2020-07-28T10:27:11.582Z</time>
      </trkpt>
      <trkpt lat="44.10285" lon="6.71062">
        <ele>2293.6</ele>
        <time>2020-07-28T10:29:10.065Z</time>
      </trkpt>
      <trkpt lat="44.10288" lon="6.71057">
        <ele>2294.8</ele>
        <time>2020-07-28T10:30:18.204Z</time>
      </trkpt>
      <trkpt lat="44.10291" lon="6.71051">
        <ele>2294.9</ele>
        <time>2020-07-28T10:31:34.663Z</time>
      </trkpt>
      <trkpt lat="44.10292" lon="6.71047">
        <ele>2294.9</ele>
        <time>2020-07-28T10:32:19Z</time>
      </trkpt>
      <trkpt lat="44.10291" lon="6.71043">
        <ele>2294.7</ele>
        <time>2020-07-28T10:32:25.383Z</time>
      </trkpt>
      <trkpt lat="44.10286" lon="6.71044">
        <ele>2294.4</ele>
        <time>2020-07-28T10:32:35.985Z</time>
      </trkpt>
      <trkpt lat="44.10283" lon="6.7104">
        <ele>2293.8</ele>
        <time>2020-07-28T10:32:44.702Z</time>
      </trkpt>
      <trkpt lat="44.1028" lon="6.7104">
        <ele>2293.5</ele>
        <time>2020-07-28T10:32:51Z</time>
      </trkpt>
      <trkpt lat="44.10278" lon="6.71041">
        <ele>2293.4</ele>
        <time>2020-07-28T10:33:47Z</time>
      </trkpt>
      <trkpt lat="44.10275" lon="6.71041">
        <ele>2292.7</ele>
        <time>2020-07-28T10:52:30Z</time>
      </trkpt>
      <trkpt lat="44.10273" lon="6.71044">
        <ele>2292.5</ele>
        <time>2020-07-28T11:11:37Z</time>
      </trkpt>
      <trkpt lat="44.10273" lon="6.71044">
        <ele>2292.5</ele>
        <time>2020-07-28T11:11:38Z</time>
      </trkpt>
      <trkpt lat="44.10274" lon="6.71041">
        <ele>2292.5</ele>
        <time>2020-07-28T11:11:41Z</time>
      </trkpt>
      <trkpt lat="44.10276" lon="6.71032">
        <ele>2292.1</ele>
        <time>2020-07-28T11:11:49Z</time>
      </trkpt>
      <trkpt lat="44.10273" lon="6.71029">
        <ele>2291.2</ele>
        <time>2020-07-28T11:12:02Z</time>
      </trkpt>
      <trkpt lat="44.10273" lon="6.71021">
        <ele>2290.8</ele>
        <time>2020-07-28T11:12:09Z</time>
      </trkpt>
      <trkpt lat="44.10274" lon="6.71012">
        <ele>2290.5</ele>
        <time>2020-07-28T11:12:16Z</time>
      </trkpt>
      <trkpt lat="44.10277" lon="6.71002">
        <ele>2290.1</ele>
        <time>2020-07-28T11:12:23Z</time>
      </trkpt>
      <trkpt lat="44.10277" lon="6.70994">
        <ele>2289.8</ele>
        <time>2020-07-28T11:12:24.812Z</time>
      </trkpt>
      <trkpt lat="44.10279" lon="6.70985">
        <ele>2289.5</ele>
        <time>2020-07-28T11:12:26.941Z</time>
      </trkpt>
      <trkpt lat="44.1028" lon="6.70976">
        <ele>2289.2</ele>
        <time>2020-07-28T11:12:29Z</time>
      </trkpt>
      <trkpt lat="44.10279" lon="6.70969">
        <ele>2288.5</ele>
        <time>2020-07-28T11:12:35.776Z</time>
      </trkpt>
      <trkpt lat="44.10277" lon="6.70961">
        <ele>2287.3</ele>
        <time>2020-07-28T11:12:43.820Z</time>
      </trkpt>
      <trkpt lat="44.10276" lon="6.70953">
        <ele>2286.1</ele>
        <time>2020-07-28T11:12:51.515Z</time>
      </trkpt>
      <trkpt lat="44.10274" lon="6.70946">
        <ele>2284.8</ele>
        <time>2020-07-28T11:12:58.654Z</time>
      </trkpt>
      <trkpt lat="44.10273" lon="6.70938">
        <ele>2283.1</ele>
        <time>2020-07-28T11:13:06.350Z</time>
      </trkpt>
      <trkpt lat="44.10271" lon="6.7093">
        <ele>2281.4</ele>
        <time>2020-07-28T11:13:14.379Z</time>
      </trkpt>
      <trkpt lat="44.10267" lon="6.70928">
        <ele>2280.7</ele>
        <time>2020-07-28T11:13:20.009Z</time>
      </trkpt>
      <trkpt lat="44.10262" lon="6.70926">
        <ele>2280.1</ele>
        <time>2020-07-28T11:13:26.901Z</time>
      </trkpt>
      <trkpt lat="44.10257" lon="6.70926">
        <ele>2279.7</ele>
        <time>2020-07-28T11:13:33.511Z</time>
      </trkpt>
      <trkpt lat="44.10252" lon="6.70925">
        <ele>2279.3</ele>
        <time>2020-07-28T11:13:40.189Z</time>
      </trkpt>
      <trkpt lat="44.10244" lon="6.70928">
        <ele>2279.5</ele>
        <time>2020-07-28T11:13:51.170Z</time>
      </trkpt>
      <trkpt lat="44.10236" lon="6.70926">
        <ele>2279.2</ele>
        <time>2020-07-28T11:14:01.943Z</time>
      </trkpt>
      <trkpt lat="44.10232" lon="6.70915">
        <ele>2278.6</ele>
        <time>2020-07-28T11:14:13.678Z</time>
      </trkpt>
      <trkpt lat="44.10231" lon="6.70908">
        <ele>2278.3</ele>
        <time>2020-07-28T11:14:20.443Z</time>
      </trkpt>
      <trkpt lat="44.10229" lon="6.70901">
        <ele>2278.2</ele>
        <time>2020-07-28T11:14:27.584Z</time>
      </trkpt>
      <trkpt lat="44.10231" lon="6.70891">
        <ele>2277.5</ele>
        <time>2020-07-28T11:14:37.464Z</time>
      </trkpt>
      <trkpt lat="44.1023" lon="6.70881">
        <ele>2277.4</ele>
        <time>2020-07-28T11:14:47.073Z</time>
      </trkpt>
      <trkpt lat="44.10229" lon="6.70871">
        <ele>2277.5</ele>
        <time>2020-07-28T11:14:56.684Z</time>
      </trkpt>
      <trkpt lat="44.10226" lon="6.7086">
        <ele>2277.9</ele>
        <time>2020-07-28T11:15:07.883Z</time>
      </trkpt>
      <trkpt lat="44.10226" lon="6.70854">
        <ele>2277.4</ele>
        <time>2020-07-28T11:15:13.566Z</time>
      </trkpt>
      <trkpt lat="44.10225" lon="6.70847">
        <ele>2276.8</ele>
        <time>2020-07-28T11:15:20.327Z</time>
      </trkpt>
      <trkpt lat="44.10223" lon="6.70841">
        <ele>2276.7</ele>
        <time>2020-07-28T11:15:26.614Z</time>
      </trkpt>
      <trkpt lat="44.1022" lon="6.70834">
        <ele>2276.7</ele>
        <time>2020-07-28T11:15:34.363Z</time>
      </trkpt>
      <trkpt lat="44.10217" lon="6.70826">
        <ele>2276.4</ele>
        <time>2020-07-28T11:15:42.950Z</time>
      </trkpt>
      <trkpt lat="44.10214" lon="6.70817">
        <ele>2276.2</ele>
        <time>2020-07-28T11:15:52.392Z</time>
      </trkpt>
      <trkpt lat="44.10213" lon="6.70807">
        <ele>2275.3</ele>
        <time>2020-07-28T11:16:01.987Z</time>
      </trkpt>
      <trkpt lat="44.10211" lon="6.70796">
        <ele>2275</ele>
        <time>2020-07-28T11:16:12.772Z</time>
      </trkpt>
      <trkpt lat="44.10208" lon="6.70787">
        <ele>2275.3</ele>
        <time>2020-07-28T11:16:22.215Z</time>
      </trkpt>
      <trkpt lat="44.10205" lon="6.70778">
        <ele>2275.4</ele>
        <time>2020-07-28T11:16:31.660Z</time>
      </trkpt>
      <trkpt lat="44.10202" lon="6.70771">
        <ele>2275.6</ele>
        <time>2020-07-28T11:16:39.414Z</time>
      </trkpt>
      <trkpt lat="44.10198" lon="6.70763">
        <ele>2275.6</ele>
        <time>2020-07-28T11:16:48.687Z</time>
      </trkpt>
      <trkpt lat="44.10198" lon="6.70754">
        <ele>2274.8</ele>
        <time>2020-07-28T11:16:57.253Z</time>
      </trkpt>
      <trkpt lat="44.10198" lon="6.70745">
        <ele>2274.4</ele>
        <time>2020-07-28T11:17:05.819Z</time>
      </trkpt>
      <trkpt lat="44.10199" lon="6.70734">
        <ele>2274.3</ele>
        <time>2020-07-28T11:17:16.351Z</time>
      </trkpt>
      <trkpt lat="44.10199" lon="6.70722">
        <ele>2274.2</ele>
        <time>2020-07-28T11:17:27.751Z</time>
      </trkpt>
      <trkpt lat="44.10197" lon="6.70711">
        <ele>2275.3</ele>
        <time>2020-07-28T11:17:38.550Z</time>
      </trkpt>
      <trkpt lat="44.10195" lon="6.70701">
        <ele>2276.5</ele>
        <time>2020-07-28T11:17:48.430Z</time>
      </trkpt>
      <trkpt lat="44.10193" lon="6.7069">
        <ele>2277.7</ele>
        <time>2020-07-28T11:17:59.230Z</time>
      </trkpt>
      <trkpt lat="44.10191" lon="6.70679">
        <ele>2278.9</ele>
        <time>2020-07-28T11:18:10.031Z</time>
      </trkpt>
      <trkpt lat="44.10194" lon="6.70667">
        <ele>2279</ele>
        <time>2020-07-28T11:18:22.124Z</time>
      </trkpt>
      <trkpt lat="44.10197" lon="6.70656">
        <ele>2279</ele>
        <time>2020-07-28T11:18:33.323Z</time>
      </trkpt>
      <trkpt lat="44.102" lon="6.70644">
        <ele>2279</ele>
        <time>2020-07-28T11:18:45.416Z</time>
      </trkpt>
      <trkpt lat="44.10203" lon="6.70632">
        <ele>2278.6</ele>
        <time>2020-07-28T11:18:57.510Z</time>
      </trkpt>
      <trkpt lat="44.10198" lon="6.70629">
        <ele>2279.2</ele>
        <time>2020-07-28T11:19:04.715Z</time>
      </trkpt>
      <trkpt lat="44.10193" lon="6.70627">
        <ele>2279.6</ele>
        <time>2020-07-28T11:19:11.600Z</time>
      </trkpt>
      <trkpt lat="44.10188" lon="6.70624">
        <ele>2279.7</ele>
        <time>2020-07-28T11:19:18.805Z</time>
      </trkpt>
      <trkpt lat="44.10183" lon="6.70621">
        <ele>2279.8</ele>
        <time>2020-07-28T11:19:26.012Z</time>
      </trkpt>
      <trkpt lat="44.10175" lon="6.70626">
        <ele>2280.2</ele>
        <time>2020-07-28T11:19:37.631Z</time>
      </trkpt>
      <trkpt lat="44.10168" lon="6.70631">
        <ele>2280.7</ele>
        <time>2020-07-28T11:19:48.056Z</time>
      </trkpt>
      <trkpt lat="44.1016" lon="6.70636">
        <ele>2280.1</ele>
        <time>2020-07-28T11:19:59.676Z</time>
      </trkpt>
      <trkpt lat="44.10152" lon="6.70641">
        <ele>2279.7</ele>
        <time>2020-07-28T11:20:11.297Z</time>
      </trkpt>
      <trkpt lat="44.10145" lon="6.7064">
        <ele>2278.8</ele>
        <time>2020-07-28T11:20:20.615Z</time>
      </trkpt>
      <trkpt lat="44.10138" lon="6.7064">
        <ele>2278.3</ele>
        <time>2020-07-28T11:20:29.885Z</time>
      </trkpt>
      <trkpt lat="44.1013" lon="6.70639">
        <ele>2279.5</ele>
        <time>2020-07-28T11:20:40.522Z</time>
      </trkpt>
      <trkpt lat="44.10123" lon="6.70638">
        <ele>2280.8</ele>
        <time>2020-07-28T11:20:49.842Z</time>
      </trkpt>
      <trkpt lat="44.1012" lon="6.70631">
        <ele>2281</ele>
        <time>2020-07-28T11:20:57.598Z</time>
      </trkpt>
      <trkpt lat="44.10117" lon="6.70624">
        <ele>2281.3</ele>
        <time>2020-07-28T11:21:05.355Z</time>
      </trkpt>
      <trkpt lat="44.10114" lon="6.70616">
        <ele>2281.6</ele>
        <time>2020-07-28T11:21:13.942Z</time>
      </trkpt>
      <trkpt lat="44.10111" lon="6.70609">
        <ele>2281.9</ele>
        <time>2020-07-28T11:21:21.700Z</time>
      </trkpt>
      <trkpt lat="44.10106" lon="6.70604">
        <ele>2282.8</ele>
        <time>2020-07-28T11:21:29.851Z</time>
      </trkpt>
      <trkpt lat="44.10101" lon="6.70598">
        <ele>2283.5</ele>
        <time>2020-07-28T11:21:38.590Z</time>
      </trkpt>
      <trkpt lat="44.10096" lon="6.70593">
        <ele>2283.9</ele>
        <time>2020-07-28T11:21:46.741Z</time>
      </trkpt>
      <trkpt lat="44.10091" lon="6.70587">
        <ele>2284.2</ele>
        <time>2020-07-28T11:21:55.482Z</time>
      </trkpt>
      <trkpt lat="44.10084" lon="6.70584">
        <ele>2285</ele>
        <time>2020-07-28T11:22:05.189Z</time>
      </trkpt>
      <trkpt lat="44.10077" lon="6.70581">
        <ele>2286</ele>
        <time>2020-07-28T11:22:14.896Z</time>
      </trkpt>
      <trkpt lat="44.1007" lon="6.70578">
        <ele>2287.1</ele>
        <time>2020-07-28T11:22:24.604Z</time>
      </trkpt>
      <trkpt lat="44.10063" lon="6.70575">
        <ele>2288.1</ele>
        <time>2020-07-28T11:22:34.313Z</time>
      </trkpt>
      <trkpt lat="44.10062" lon="6.70569">
        <ele>2288</ele>
        <time>2020-07-28T11:22:40.154Z</time>
      </trkpt>
      <trkpt lat="44.10061" lon="6.70562">
        <ele>2287.7</ele>
        <time>2020-07-28T11:22:46.922Z</time>
      </trkpt>
      <trkpt lat="44.10059" lon="6.70556">
        <ele>2287.5</ele>
        <time>2020-07-28T11:22:53.195Z</time>
      </trkpt>
      <trkpt lat="44.10058" lon="6.7055">
        <ele>2287.7</ele>
        <time>2020-07-28T11:22:59.036Z</time>
      </trkpt>
      <trkpt lat="44.10057" lon="6.70543">
        <ele>2287.9</ele>
        <time>2020-07-28T11:23:05.805Z</time>
      </trkpt>
      <trkpt lat="44.10056" lon="6.70537">
        <ele>2288</ele>
        <time>2020-07-28T11:23:11.646Z</time>
      </trkpt>
      <trkpt lat="44.10054" lon="6.7053">
        <ele>2288.1</ele>
        <time>2020-07-28T11:23:18.791Z</time>
      </trkpt>
      <trkpt lat="44.10053" lon="6.70524">
        <ele>2288.3</ele>
        <time>2020-07-28T11:23:24.634Z</time>
      </trkpt>
      <trkpt lat="44.10052" lon="6.70517">
        <ele>2288.4</ele>
        <time>2020-07-28T11:23:31.427Z</time>
      </trkpt>
      <trkpt lat="44.10051" lon="6.7051">
        <ele>2288.6</ele>
        <time>2020-07-28T11:23:38.220Z</time>
      </trkpt>
      <trkpt lat="44.1005" lon="6.70502">
        <ele>2288.8</ele>
        <time>2020-07-28T11:23:45.948Z</time>
      </trkpt>
      <trkpt lat="44.10049" lon="6.70495">
        <ele>2289.1</ele>
        <time>2020-07-28T11:23:52.742Z</time>
      </trkpt>
      <trkpt lat="44.1005" lon="6.70487">
        <ele>2289.3</ele>
        <time>2020-07-28T11:24:00.443Z</time>
      </trkpt>
      <trkpt lat="44.1005" lon="6.7048">
        <ele>2289.5</ele>
        <time>2020-07-28T11:24:07.081Z</time>
      </trkpt>
      <trkpt lat="44.10051" lon="6.70472">
        <ele>2289.7</ele>
        <time>2020-07-28T11:24:14.782Z</time>
      </trkpt>
      <trkpt lat="44.10052" lon="6.70465">
        <ele>2290.7</ele>
        <time>2020-07-28T11:24:21.551Z</time>
      </trkpt>
      <trkpt lat="44.10052" lon="6.70457">
        <ele>2291.8</ele>
        <time>2020-07-28T11:24:29.138Z</time>
      </trkpt>
      <trkpt lat="44.10053" lon="6.70449">
        <ele>2292.8</ele>
        <time>2020-07-28T11:24:36.840Z</time>
      </trkpt>
      <trkpt lat="44.10053" lon="6.70442">
        <ele>2294.4</ele>
        <time>2020-07-28T11:24:43.479Z</time>
      </trkpt>
      <trkpt lat="44.10054" lon="6.70434">
        <ele>2297</ele>
        <time>2020-07-28T11:24:51.182Z</time>
      </trkpt>
      <trkpt lat="44.10059" lon="6.7043">
        <ele>2297.3</ele>
        <time>2020-07-28T11:24:58.816Z</time>
      </trkpt>
      <trkpt lat="44.10063" lon="6.70427">
        <ele>2297.3</ele>
        <time>2020-07-28T11:25:04.831Z</time>
      </trkpt>
      <trkpt lat="44.10068" lon="6.70423">
        <ele>2297</ele>
        <time>2020-07-28T11:25:12.465Z</time>
      </trkpt>
      <trkpt lat="44.10072" lon="6.70419">
        <ele>2296.5</ele>
        <time>2020-07-28T11:25:18.985Z</time>
      </trkpt>
      <trkpt lat="44.10077" lon="6.70415">
        <ele>2295.8</ele>
        <time>2020-07-28T11:25:26.620Z</time>
      </trkpt>
      <trkpt lat="44.10081" lon="6.70412">
        <ele>2295.1</ele>
        <time>2020-07-28T11:25:32.635Z</time>
      </trkpt>
      <trkpt lat="44.10086" lon="6.70408">
        <ele>2294.6</ele>
        <time>2020-07-28T11:25:40.270Z</time>
      </trkpt>
      <trkpt lat="44.1009" lon="6.70404">
        <ele>2294.1</ele>
        <time>2020-07-28T11:25:46.791Z</time>
      </trkpt>
      <trkpt lat="44.10098" lon="6.70399">
        <ele>2292.8</ele>
        <time>2020-07-28T11:25:58.408Z</time>
      </trkpt>
      <trkpt lat="44.10106" lon="6.70393">
        <ele>2291.2</ele>
        <time>2020-07-28T11:26:10.446Z</time>
      </trkpt>
      <trkpt lat="44.10113" lon="6.70388">
        <ele>2289.7</ele>
        <time>2020-07-28T11:26:20.869Z</time>
      </trkpt>
      <trkpt lat="44.10121" lon="6.70382">
        <ele>2288.5</ele>
        <time>2020-07-28T11:26:32.909Z</time>
      </trkpt>
      <trkpt lat="44.10129" lon="6.7038">
        <ele>2286.7</ele>
        <time>2020-07-28T11:26:43.672Z</time>
      </trkpt>
      <trkpt lat="44.10137" lon="6.70379">
        <ele>2284.6</ele>
        <time>2020-07-28T11:26:54.308Z</time>
      </trkpt>
      <trkpt lat="44.10144" lon="6.70377">
        <ele>2283.7</ele>
        <time>2020-07-28T11:27:03.771Z</time>
      </trkpt>
      <trkpt lat="44.10152" lon="6.70375">
        <ele>2283.1</ele>
        <time>2020-07-28T11:27:14.535Z</time>
      </trkpt>
      <trkpt lat="44.10158" lon="6.70373">
        <ele>2282.4</ele>
        <time>2020-07-28T11:27:22.711Z</time>
      </trkpt>
      <trkpt lat="44.10164" lon="6.70371">
        <ele>2281.7</ele>
        <time>2020-07-28T11:27:30.887Z</time>
      </trkpt>
      <trkpt lat="44.1017" lon="6.70369">
        <ele>2281.3</ele>
        <time>2020-07-28T11:27:39.064Z</time>
      </trkpt>
      <trkpt lat="44.10176" lon="6.70367">
        <ele>2281.2</ele>
        <time>2020-07-28T11:27:47.241Z</time>
      </trkpt>
      <trkpt lat="44.10181" lon="6.70365">
        <ele>2281.2</ele>
        <time>2020-07-28T11:27:54.135Z</time>
      </trkpt>
      <trkpt lat="44.10187" lon="6.70363">
        <ele>2281.1</ele>
        <time>2020-07-28T11:28:02.312Z</time>
      </trkpt>
      <trkpt lat="44.10193" lon="6.70361">
        <ele>2280.9</ele>
        <time>2020-07-28T11:28:10.489Z</time>
      </trkpt>
      <trkpt lat="44.10199" lon="6.70359">
        <ele>2281.1</ele>
        <time>2020-07-28T11:28:18.667Z</time>
      </trkpt>
      <trkpt lat="44.10207" lon="6.70358">
        <ele>2281.7</ele>
        <time>2020-07-28T11:28:29.313Z</time>
      </trkpt>
      <trkpt lat="44.10215" lon="6.70357">
        <ele>2282.4</ele>
        <time>2020-07-28T11:28:39.959Z</time>
      </trkpt>
      <trkpt lat="44.10223" lon="6.70356">
        <ele>2283</ele>
        <time>2020-07-28T11:28:50.606Z</time>
      </trkpt>
      <trkpt lat="44.10231" lon="6.70355">
        <ele>2283.7</ele>
        <time>2020-07-28T11:29:01.253Z</time>
      </trkpt>
      <trkpt lat="44.10239" lon="6.70352">
        <ele>2283.9</ele>
        <time>2020-07-28T11:29:12.225Z</time>
      </trkpt>
      <trkpt lat="44.10247" lon="6.70348">
        <ele>2284.3</ele>
        <time>2020-07-28T11:29:23.482Z</time>
      </trkpt>
      <trkpt lat="44.10255" lon="6.70345">
        <ele>2284.8</ele>
        <time>2020-07-28T11:29:34.454Z</time>
      </trkpt>
      <trkpt lat="44.10263" lon="6.70341">
        <ele>2285.6</ele>
        <time>2020-07-28T11:29:45.712Z</time>
      </trkpt>
      <trkpt lat="44.10268" lon="6.70336">
        <ele>2285.6</ele>
        <time>2020-07-28T11:29:53.855Z</time>
      </trkpt>
      <trkpt lat="44.10272" lon="6.70332">
        <ele>2285.6</ele>
        <time>2020-07-28T11:30:00.369Z</time>
      </trkpt>
      <trkpt lat="44.10277" lon="6.70327">
        <ele>2285.4</ele>
        <time>2020-07-28T11:30:08.512Z</time>
      </trkpt>
      <trkpt lat="44.10282" lon="6.70322">
        <ele>2285.1</ele>
        <time>2020-07-28T11:30:16.655Z</time>
      </trkpt>
      <trkpt lat="44.10286" lon="6.70317">
        <ele>2284.8</ele>
        <time>2020-07-28T11:30:23.766Z</time>
      </trkpt>
      <trkpt lat="44.10291" lon="6.70313">
        <ele>2284.6</ele>
        <time>2020-07-28T11:30:31.394Z</time>
      </trkpt>
      <trkpt lat="44.10295" lon="6.70308">
        <ele>2284.6</ele>
        <time>2020-07-28T11:30:38.505Z</time>
      </trkpt>
      <trkpt lat="44.103" lon="6.70303">
        <ele>2284.4</ele>
        <time>2020-07-28T11:30:46.650Z</time>
      </trkpt>
      <trkpt lat="44.10308" lon="6.703">
        <ele>2284.9</ele>
        <time>2020-07-28T11:30:57.625Z</time>
      </trkpt>
      <trkpt lat="44.10315" lon="6.70298">
        <ele>2285</ele>
        <time>2020-07-28T11:31:07.091Z</time>
      </trkpt>
      <trkpt lat="44.10323" lon="6.70295">
        <ele>2285.1</ele>
        <time>2020-07-28T11:31:18.066Z</time>
      </trkpt>
      <trkpt lat="44.1033" lon="6.70292">
        <ele>2285.2</ele>
        <time>2020-07-28T11:31:27.768Z</time>
      </trkpt>
      <trkpt lat="44.10338" lon="6.70289">
        <ele>2285.7</ele>
        <time>2020-07-28T11:31:38.744Z</time>
      </trkpt>
      <trkpt lat="44.10345" lon="6.70287">
        <ele>2286.4</ele>
        <time>2020-07-28T11:31:48.210Z</time>
      </trkpt>
      <trkpt lat="44.10353" lon="6.70284">
        <ele>2287.1</ele>
        <time>2020-07-28T11:31:59.186Z</time>
      </trkpt>
      <trkpt lat="44.1036" lon="6.70281">
        <ele>2287.7</ele>
        <time>2020-07-28T11:32:08.890Z</time>
      </trkpt>
      <trkpt lat="44.10365" lon="6.70274">
        <ele>2286.5</ele>
        <time>2020-07-28T11:32:18.272Z</time>
      </trkpt>
      <trkpt lat="44.10371" lon="6.70267">
        <ele>2285.4</ele>
        <time>2020-07-28T11:32:28.630Z</time>
      </trkpt>
      <trkpt lat="44.10376" lon="6.70259">
        <ele>2284.6</ele>
        <time>2020-07-28T11:32:38.708Z</time>
      </trkpt>
      <trkpt lat="44.10381" lon="6.70252">
        <ele>2284</ele>
        <time>2020-07-28T11:32:48.091Z</time>
      </trkpt>
      <trkpt lat="44.10385" lon="6.70249">
        <ele>2284</ele>
        <time>2020-07-28T11:32:54.098Z</time>
      </trkpt>
      <trkpt lat="44.1039" lon="6.70245">
        <ele>2283.9</ele>
        <time>2020-07-28T11:33:01.723Z</time>
      </trkpt>
      <trkpt lat="44.10394" lon="6.70242">
        <ele>2283.8</ele>
        <time>2020-07-28T11:33:07.730Z</time>
      </trkpt>
      <trkpt lat="44.10398" lon="6.70239">
        <ele>2283.8</ele>
        <time>2020-07-28T11:33:13.738Z</time>
      </trkpt>
      <trkpt lat="44.10402" lon="6.70235">
        <ele>2283.9</ele>
        <time>2020-07-28T11:33:20.250Z</time>
      </trkpt>
      <trkpt lat="44.10407" lon="6.70232">
        <ele>2284.2</ele>
        <time>2020-07-28T11:33:27.449Z</time>
      </trkpt>
      <trkpt lat="44.10411" lon="6.70228">
        <ele>2284.5</ele>
        <time>2020-07-28T11:33:33.961Z</time>
      </trkpt>
      <trkpt lat="44.10415" lon="6.70225">
        <ele>2285</ele>
        <time>2020-07-28T11:33:39.970Z</time>
      </trkpt>
      <trkpt lat="44.10419" lon="6.7022">
        <ele>2284.6</ele>
        <time>2020-07-28T11:33:47.074Z</time>
      </trkpt>
      <trkpt lat="44.10423" lon="6.70215">
        <ele>2283.8</ele>
        <time>2020-07-28T11:33:54.178Z</time>
      </trkpt>
      <trkpt lat="44.10427" lon="6.7021">
        <ele>2283.1</ele>
        <time>2020-07-28T11:34:01.282Z</time>
      </trkpt>
      <trkpt lat="44.10431" lon="6.70205">
        <ele>2282.4</ele>
        <time>2020-07-28T11:34:08.386Z</time>
      </trkpt>
      <trkpt lat="44.10434" lon="6.70199">
        <ele>2281.9</ele>
        <time>2020-07-28T11:34:15.325Z</time>
      </trkpt>
      <trkpt lat="44.10438" lon="6.70194">
        <ele>2281.5</ele>
        <time>2020-07-28T11:34:22.429Z</time>
      </trkpt>
      <trkpt lat="44.10442" lon="6.70189">
        <ele>2281.2</ele>
        <time>2020-07-28T11:34:29.533Z</time>
      </trkpt>
      <trkpt lat="44.10446" lon="6.70184">
        <ele>2280.9</ele>
        <time>2020-07-28T11:34:36.638Z</time>
      </trkpt>
      <trkpt lat="44.10454" lon="6.70184">
        <ele>2281.1</ele>
        <time>2020-07-28T11:34:47.233Z</time>
      </trkpt>
      <trkpt lat="44.10462" lon="6.70185">
        <ele>2281.4</ele>
        <time>2020-07-28T11:34:57.871Z</time>
      </trkpt>
      <trkpt lat="44.1047" lon="6.70185">
        <ele>2281.6</ele>
        <time>2020-07-28T11:35:08.467Z</time>
      </trkpt>
      <trkpt lat="44.10478" lon="6.70185">
        <ele>2281.3</ele>
        <time>2020-07-28T11:35:19.064Z</time>
      </trkpt>
      <trkpt lat="44.10485" lon="6.70192">
        <ele>2281</ele>
        <time>2020-07-28T11:35:30.482Z</time>
      </trkpt>
      <trkpt lat="44.10492" lon="6.702">
        <ele>2280.9</ele>
        <time>2020-07-28T11:35:42.480Z</time>
      </trkpt>
      <trkpt lat="44.10499" lon="6.70207">
        <ele>2281</ele>
        <time>2020-07-28T11:35:53.898Z</time>
      </trkpt>
      <trkpt lat="44.10506" lon="6.70214">
        <ele>2281.1</ele>
        <time>2020-07-28T11:36:05.317Z</time>
      </trkpt>
      <trkpt lat="44.10511" lon="6.70219">
        <ele>2281.3</ele>
        <time>2020-07-28T11:36:13.452Z</time>
      </trkpt>
      <trkpt lat="44.10517" lon="6.70223">
        <ele>2281.5</ele>
        <time>2020-07-28T11:36:22.244Z</time>
      </trkpt>
      <trkpt lat="44.10522" lon="6.70228">
        <ele>2282</ele>
        <time>2020-07-28T11:36:30.380Z</time>
      </trkpt>
      <trkpt lat="44.10527" lon="6.70232">
        <ele>2282.4</ele>
        <time>2020-07-28T11:36:38.002Z</time>
      </trkpt>
      <trkpt lat="44.10535" lon="6.70228">
        <ele>2282.1</ele>
        <time>2020-07-28T11:36:49.265Z</time>
      </trkpt>
      <trkpt lat="44.10542" lon="6.70224">
        <ele>2281.8</ele>
        <time>2020-07-28T11:36:59.292Z</time>
      </trkpt>
      <trkpt lat="44.10549" lon="6.70225">
        <ele>2282.2</ele>
        <time>2020-07-28T11:37:08.605Z</time>
      </trkpt>
      <trkpt lat="44.10555" lon="6.70227">
        <ele>2282.6</ele>
        <time>2020-07-28T11:37:16.770Z</time>
      </trkpt>
      <trkpt lat="44.10562" lon="6.70228">
        <ele>2282.5</ele>
        <time>2020-07-28T11:37:26.083Z</time>
      </trkpt>
      <trkpt lat="44.10568" lon="6.70229">
        <ele>2282.4</ele>
        <time>2020-07-28T11:37:34.082Z</time>
      </trkpt>
      <trkpt lat="44.10574" lon="6.70229">
        <ele>2282.1</ele>
        <time>2020-07-28T11:37:42.035Z</time>
      </trkpt>
      <trkpt lat="44.1058" lon="6.70229">
        <ele>2281.9</ele>
        <time>2020-07-28T11:37:49.988Z</time>
      </trkpt>
      <trkpt lat="44.10586" lon="6.70237">
        <ele>2282.3</ele>
        <time>2020-07-28T11:38:00.997Z</time>
      </trkpt>
      <trkpt lat="44.10591" lon="6.70244">
        <ele>2282.5</ele>
        <time>2020-07-28T11:38:10.394Z</time>
      </trkpt>
      <trkpt lat="44.10597" lon="6.70246">
        <ele>2282.1</ele>
        <time>2020-07-28T11:38:18.571Z</time>
      </trkpt>
      <trkpt lat="44.10603" lon="6.70248">
        <ele>2281.7</ele>
        <time>2020-07-28T11:38:26.748Z</time>
      </trkpt>
      <trkpt lat="44.10609" lon="6.7025">
        <ele>2281.2</ele>
        <time>2020-07-28T11:38:34.926Z</time>
      </trkpt>
      <trkpt lat="44.10615" lon="6.70252">
        <ele>2281.1</ele>
        <time>2020-07-28T11:38:43.104Z</time>
      </trkpt>
      <trkpt lat="44.10622" lon="6.7025">
        <ele>2280.9</ele>
        <time>2020-07-28T11:38:52.551Z</time>
      </trkpt>
      <trkpt lat="44.10628" lon="6.70247">
        <ele>2280.6</ele>
        <time>2020-07-28T11:39:00.979Z</time>
      </trkpt>
      <trkpt lat="44.10635" lon="6.70245">
        <ele>2280.2</ele>
        <time>2020-07-28T11:39:10.427Z</time>
      </trkpt>
      <trkpt lat="44.10641" lon="6.70242">
        <ele>2279.8</ele>
        <time>2020-07-28T11:39:18.857Z</time>
      </trkpt>
      <trkpt lat="44.10648" lon="6.70235">
        <ele>2278.8</ele>
        <time>2020-07-28T11:39:30.275Z</time>
      </trkpt>
      <trkpt lat="44.10656" lon="6.70228">
        <ele>2277.8</ele>
        <time>2020-07-28T11:39:42.793Z</time>
      </trkpt>
      <trkpt lat="44.10663" lon="6.70221">
        <ele>2276.9</ele>
        <time>2020-07-28T11:39:54.212Z</time>
      </trkpt>
      <trkpt lat="44.1067" lon="6.70214">
        <ele>2276.4</ele>
        <time>2020-07-28T11:40:05.631Z</time>
      </trkpt>
      <trkpt lat="44.10675" lon="6.70212">
        <ele>2276.2</ele>
        <time>2020-07-28T11:40:12.505Z</time>
      </trkpt>
      <trkpt lat="44.1068" lon="6.70209">
        <ele>2276.1</ele>
        <time>2020-07-28T11:40:19.699Z</time>
      </trkpt>
      <trkpt lat="44.10685" lon="6.70207">
        <ele>2275.9</ele>
        <time>2020-07-28T11:40:26.573Z</time>
      </trkpt>
      <trkpt lat="44.1069" lon="6.70205">
        <ele>2275.7</ele>
        <time>2020-07-28T11:40:33.448Z</time>
      </trkpt>
      <trkpt lat="44.10694" lon="6.70202">
        <ele>2275.6</ele>
        <time>2020-07-28T11:40:39.452Z</time>
      </trkpt>
      <trkpt lat="44.10699" lon="6.702">
        <ele>2275.4</ele>
        <time>2020-07-28T11:40:46.327Z</time>
      </trkpt>
      <trkpt lat="44.10704" lon="6.70197">
        <ele>2275.2</ele>
        <time>2020-07-28T11:40:53.522Z</time>
      </trkpt>
      <trkpt lat="44.10709" lon="6.70195">
        <ele>2275.1</ele>
        <time>2020-07-28T11:41:00.398Z</time>
      </trkpt>
      <trkpt lat="44.10716" lon="6.70188">
        <ele>2274.8</ele>
        <time>2020-07-28T11:41:11.815Z</time>
      </trkpt>
      <trkpt lat="44.10722" lon="6.70181">
        <ele>2274.5</ele>
        <time>2020-07-28T11:41:22.184Z</time>
      </trkpt>
      <trkpt lat="44.10729" lon="6.70173">
        <ele>2274.2</ele>
        <time>2020-07-28T11:41:34.181Z</time>
      </trkpt>
      <trkpt lat="44.10735" lon="6.70166">
        <ele>2274</ele>
        <time>2020-07-28T11:41:44.552Z</time>
      </trkpt>
      <trkpt lat="44.10741" lon="6.70161">
        <ele>2274.1</ele>
        <time>2020-07-28T11:41:53.803Z</time>
      </trkpt>
      <trkpt lat="44.10747" lon="6.70157">
        <ele>2274</ele>
        <time>2020-07-28T11:42:02.604Z</time>
      </trkpt>
      <trkpt lat="44.10752" lon="6.70152">
        <ele>2274.2</ele>
        <time>2020-07-28T11:42:10.748Z</time>
      </trkpt>
      <trkpt lat="44.10758" lon="6.70147">
        <ele>2274.6</ele>
        <time>2020-07-28T11:42:20.000Z</time>
      </trkpt>
      <trkpt lat="44.10762" lon="6.70142">
        <ele>2274.9</ele>
        <time>2020-07-28T11:42:24Z</time>
      </trkpt>
      <trkpt lat="44.10767" lon="6.70136">
        <ele>2275.3</ele>
        <time>2020-07-28T11:42:31Z</time>
      </trkpt>
      <trkpt lat="44.10772" lon="6.7013">
        <ele>2275.7</ele>
        <time>2020-07-28T11:42:38Z</time>
      </trkpt>
      <trkpt lat="44.10773" lon="6.70128">
        <ele>2275.7</ele>
        <time>2020-07-28T11:42:40Z</time>
      </trkpt>
      <trkpt lat="44.10777" lon="6.70125">
        <ele>2276</ele>
        <time>2020-07-28T11:42:44.500Z</time>
      </trkpt>
      <trkpt lat="44.10781" lon="6.70122">
        <ele>2276.2</ele>
        <time>2020-07-28T11:42:49Z</time>
      </trkpt>
      <trkpt lat="44.10787" lon="6.70117">
        <ele>2276.7</ele>
        <time>2020-07-28T11:42:56Z</time>
      </trkpt>
      <trkpt lat="44.10794" lon="6.70112">
        <ele>2277.2</ele>
        <time>2020-07-28T11:43:04Z</time>
      </trkpt>
      <trkpt lat="44.10801" lon="6.70105">
        <ele>2277.7</ele>
        <time>2020-07-28T11:43:13Z</time>
      </trkpt>
      <trkpt lat="44.10805" lon="6.70101">
        <ele>2278</ele>
        <time>2020-07-28T11:43:17.500Z</time>
      </trkpt>
      <trkpt lat="44.10809" lon="6.70096">
        <ele>2278.1</ele>
        <time>2020-07-28T11:43:22Z</time>
      </trkpt>
      <trkpt lat="44.10814" lon="6.7009">
        <ele>2278.1</ele>
        <time>2020-07-28T11:43:29Z</time>
      </trkpt>
      <trkpt lat="44.10819" lon="6.70082">
        <ele>2278</ele>
        <time>2020-07-28T11:43:37Z</time>
      </trkpt>
      <trkpt lat="44.10825" lon="6.70076">
        <ele>2278</ele>
        <time>2020-07-28T11:43:45Z</time>
      </trkpt>
      <trkpt lat="44.10831" lon="6.70072">
        <ele>2278</ele>
        <time>2020-07-28T11:43:50.000Z</time>
      </trkpt>
      <trkpt lat="44.10836" lon="6.70068">
        <ele>2278.1</ele>
        <time>2020-07-28T11:43:55Z</time>
      </trkpt>
      <trkpt lat="44.10843" lon="6.70063">
        <ele>2278.6</ele>
        <time>2020-07-28T11:44:02Z</time>
      </trkpt>
      <trkpt lat="44.10845" lon="6.7006">
        <ele>2278.8</ele>
        <time>2020-07-28T11:44:05Z</time>
      </trkpt>
      <trkpt lat="44.10852" lon="6.70055">
        <ele>2279.3</ele>
        <time>2020-07-28T11:44:13Z</time>
      </trkpt>
      <trkpt lat="44.10856" lon="6.70051">
        <ele>2279.5</ele>
        <time>2020-07-28T11:44:17.500Z</time>
      </trkpt>
      <trkpt lat="44.1086" lon="6.70046">
        <ele>2279.6</ele>
        <time>2020-07-28T11:44:22Z</time>
      </trkpt>
      <trkpt lat="44.10864" lon="6.7004">
        <ele>2279.4</ele>
        <time>2020-07-28T11:44:28Z</time>
      </trkpt>
      <trkpt lat="44.10871" lon="6.70033">
        <ele>2279.1</ele>
        <time>2020-07-28T11:44:36Z</time>
      </trkpt>
      <trkpt lat="44.10876" lon="6.70029">
        <ele>2279</ele>
        <time>2020-07-28T11:44:40.500Z</time>
      </trkpt>
      <trkpt lat="44.1088" lon="6.70025">
        <ele>2279</ele>
        <time>2020-07-28T11:44:45Z</time>
      </trkpt>
      <trkpt lat="44.10882" lon="6.70024">
        <ele>2279</ele>
        <time>2020-07-28T11:44:47Z</time>
      </trkpt>
      <trkpt lat="44.10886" lon="6.70019">
        <ele>2279</ele>
        <time>2020-07-28T11:44:51.500Z</time>
      </trkpt>
      <trkpt lat="44.10889" lon="6.70014">
        <ele>2279</ele>
        <time>2020-07-28T11:44:56Z</time>
      </trkpt>
      <trkpt lat="44.10893" lon="6.7001">
        <ele>2279</ele>
        <time>2020-07-28T11:45:00.500Z</time>
      </trkpt>
      <trkpt lat="44.10897" lon="6.70005">
        <ele>2279</ele>
        <time>2020-07-28T11:45:05Z</time>
      </trkpt>
      <trkpt lat="44.10902" lon="6.69999">
        <ele>2279</ele>
        <time>2020-07-28T11:45:12Z</time>
      </trkpt>
      <trkpt lat="44.10908" lon="6.69992">
        <ele>2278.8</ele>
        <time>2020-07-28T11:45:20Z</time>
      </trkpt>
      <trkpt lat="44.10908" lon="6.69992">
        <ele>2278.8</ele>
        <time>2020-07-28T11:45:25Z</time>
      </trkpt>
      <trkpt lat="44.10911" lon="6.69989">
        <ele>2278.7</ele>
        <time>2020-07-28T11:45:29Z</time>
      </trkpt>
      <trkpt lat="44.10917" lon="6.69981">
        <ele>2278.3</ele>
        <time>2020-07-28T11:45:39Z</time>
      </trkpt>
      <trkpt lat="44.1092" lon="6.69976">
        <ele>2278</ele>
        <time>2020-07-28T11:45:46Z</time>
      </trkpt>
      <trkpt lat="44.10924" lon="6.69971">
        <ele>2277.7</ele>
        <time>2020-07-28T11:45:52Z</time>
      </trkpt>
      <trkpt lat="44.10926" lon="6.69968">
        <ele>2277.7</ele>
        <time>2020-07-28T11:45:55Z</time>
      </trkpt>
      <trkpt lat="44.10929" lon="6.69962">
        <ele>2277.6</ele>
        <time>2020-07-28T11:46:00.500Z</time>
      </trkpt>
      <trkpt lat="44.10932" lon="6.69955">
        <ele>2277.4</ele>
        <time>2020-07-28T11:46:06Z</time>
      </trkpt>
      <trkpt lat="44.10936" lon="6.69944">
        <ele>2277.3</ele>
        <time>2020-07-28T11:46:15Z</time>
      </trkpt>
      <trkpt lat="44.10941" lon="6.69938">
        <ele>2277.1</ele>
        <time>2020-07-28T11:46:22Z</time>
      </trkpt>
      <trkpt lat="44.10945" lon="6.69936">
        <ele>2277</ele>
        <time>2020-07-28T11:46:32Z</time>
      </trkpt>
      <trkpt lat="44.10946" lon="6.69934">
        <ele>2276.9</ele>
        <time>2020-07-28T11:46:43Z</time>
      </trkpt>
      <trkpt lat="44.10946" lon="6.69934">
        <ele>2276.9</ele>
        <time>2020-07-28T11:46:56Z</time>
      </trkpt>
      <trkpt lat="44.10949" lon="6.69931">
        <ele>2276.8</ele>
        <time>2020-07-28T11:47:04Z</time>
      </trkpt>
      <trkpt lat="44.10949" lon="6.6993">
        <ele>2276.8</ele>
        <time>2020-07-28T11:47:05Z</time>
      </trkpt>
      <trkpt lat="44.10952" lon="6.69924">
        <ele>2276.7</ele>
        <time>2020-07-28T11:47:09.500Z</time>
      </trkpt>
      <trkpt lat="44.10954" lon="6.69918">
        <ele>2276.6</ele>
        <time>2020-07-28T11:47:14Z</time>
      </trkpt>
      <trkpt lat="44.10956" lon="6.69912">
        <ele>2276.5</ele>
        <time>2020-07-28T11:47:18.500Z</time>
      </trkpt>
      <trkpt lat="44.10958" lon="6.69905">
        <ele>2276.3</ele>
        <time>2020-07-28T11:47:23Z</time>
      </trkpt>
      <trkpt lat="44.10959" lon="6.69897">
        <ele>2276.1</ele>
        <time>2020-07-28T11:47:30Z</time>
      </trkpt>
      <trkpt lat="44.10961" lon="6.69895">
        <ele>2275.9</ele>
        <time>2020-07-28T11:47:32Z</time>
      </trkpt>
      <trkpt lat="44.10963" lon="6.69884">
        <ele>2275.8</ele>
        <time>2020-07-28T11:47:39Z</time>
      </trkpt>
      <trkpt lat="44.10966" lon="6.69879">
        <ele>2275.8</ele>
        <time>2020-07-28T11:47:43.000Z</time>
      </trkpt>
      <trkpt lat="44.10968" lon="6.69873">
        <ele>2275.9</ele>
        <time>2020-07-28T11:47:47Z</time>
      </trkpt>
      <trkpt lat="44.10972" lon="6.69868">
        <ele>2275.8</ele>
        <time>2020-07-28T11:47:51.500Z</time>
      </trkpt>
      <trkpt lat="44.10976" lon="6.69863">
        <ele>2275.5</ele>
        <time>2020-07-28T11:47:56Z</time>
      </trkpt>
      <trkpt lat="44.10979" lon="6.69858">
        <ele>2275.4</ele>
        <time>2020-07-28T11:48:00.000Z</time>
      </trkpt>
      <trkpt lat="44.10982" lon="6.69853">
        <ele>2275.2</ele>
        <time>2020-07-28T11:48:04Z</time>
      </trkpt>
      <trkpt lat="44.10985" lon="6.69848">
        <ele>2275.1</ele>
        <time>2020-07-28T11:48:08.500Z</time>
      </trkpt>
      <trkpt lat="44.10987" lon="6.69842">
        <ele>2275.1</ele>
        <time>2020-07-28T11:48:13Z</time>
      </trkpt>
      <trkpt lat="44.10987" lon="6.6984">
        <ele>2275.2</ele>
        <time>2020-07-28T11:48:14Z</time>
      </trkpt>
      <trkpt lat="44.10988" lon="6.69836">
        <ele>2275.2</ele>
        <time>2020-07-28T11:48:17Z</time>
      </trkpt>
      <trkpt lat="44.10992" lon="6.69831">
        <ele>2274.9</ele>
        <time>2020-07-28T11:48:22.000Z</time>
      </trkpt>
      <trkpt lat="44.10995" lon="6.69825">
        <ele>2274.5</ele>
        <time>2020-07-28T11:48:27Z</time>
      </trkpt>
      <trkpt lat="44.10999" lon="6.6982">
        <ele>2274.1</ele>
        <time>2020-07-28T11:48:32.000Z</time>
      </trkpt>
      <trkpt lat="44.11003" lon="6.69815">
        <ele>2273.5</ele>
        <time>2020-07-28T11:48:37Z</time>
      </trkpt>
      <trkpt lat="44.11007" lon="6.6981">
        <ele>2273</ele>
        <time>2020-07-28T11:48:41.500Z</time>
      </trkpt>
      <trkpt lat="44.11011" lon="6.69805">
        <ele>2272.4</ele>
        <time>2020-07-28T11:48:46Z</time>
      </trkpt>
      <trkpt lat="44.11017" lon="6.69796">
        <ele>2271.3</ele>
        <time>2020-07-28T11:48:55Z</time>
      </trkpt>
      <trkpt lat="44.11023" lon="6.69791">
        <ele>2270.5</ele>
        <time>2020-07-28T11:49:01Z</time>
      </trkpt>
      <trkpt lat="44.11028" lon="6.69789">
        <ele>2270</ele>
        <time>2020-07-28T11:49:05.500Z</time>
      </trkpt>
      <trkpt lat="44.11032" lon="6.69786">
        <ele>2269.4</ele>
        <time>2020-07-28T11:49:10Z</time>
      </trkpt>
      <trkpt lat="44.11034" lon="6.69783">
        <ele>2269.1</ele>
        <time>2020-07-28T11:49:13Z</time>
      </trkpt>
      <trkpt lat="44.11038" lon="6.69776">
        <ele>2268.6</ele>
        <time>2020-07-28T11:49:21Z</time>
      </trkpt>
      <trkpt lat="44.11039" lon="6.69775">
        <ele>2268.4</ele>
        <time>2020-07-28T11:49:22Z</time>
      </trkpt>
      <trkpt lat="44.11043" lon="6.69766">
        <ele>2268</ele>
        <time>2020-07-28T11:49:29Z</time>
      </trkpt>
      <trkpt lat="44.1105" lon="6.6976">
        <ele>2267.3</ele>
        <time>2020-07-28T11:49:38Z</time>
      </trkpt>
      <trkpt lat="44.11054" lon="6.69757">
        <ele>2266.9</ele>
        <time>2020-07-28T11:49:42.000Z</time>
      </trkpt>
      <trkpt lat="44.11058" lon="6.69754">
        <ele>2266.4</ele>
        <time>2020-07-28T11:49:46Z</time>
      </trkpt>
      <trkpt lat="44.11065" lon="6.69751">
        <ele>2265.3</ele>
        <time>2020-07-28T11:49:54Z</time>
      </trkpt>
      <trkpt lat="44.11068" lon="6.6975">
        <ele>2264.8</ele>
        <time>2020-07-28T11:49:57Z</time>
      </trkpt>
      <trkpt lat="44.11072" lon="6.69748">
        <ele>2264.1</ele>
        <time>2020-07-28T11:50:02Z</time>
      </trkpt>
      <trkpt lat="44.11076" lon="6.69742">
        <ele>2263.6</ele>
        <time>2020-07-28T11:50:06.500Z</time>
      </trkpt>
      <trkpt lat="44.11079" lon="6.69736">
        <ele>2263.3</ele>
        <time>2020-07-28T11:50:11Z</time>
      </trkpt>
      <trkpt lat="44.11083" lon="6.69731">
        <ele>2262.7</ele>
        <time>2020-07-28T11:50:15.500Z</time>
      </trkpt>
      <trkpt lat="44.11087" lon="6.69725">
        <ele>2262.5</ele>
        <time>2020-07-28T11:50:20Z</time>
      </trkpt>
      <trkpt lat="44.11091" lon="6.69721">
        <ele>2262.2</ele>
        <time>2020-07-28T11:50:24.500Z</time>
      </trkpt>
      <trkpt lat="44.11094" lon="6.69716">
        <ele>2261.8</ele>
        <time>2020-07-28T11:50:29Z</time>
      </trkpt>
      <trkpt lat="44.11099" lon="6.69712">
        <ele>2261.3</ele>
        <time>2020-07-28T11:50:34.000Z</time>
      </trkpt>
      <trkpt lat="44.11104" lon="6.69707">
        <ele>2260.8</ele>
        <time>2020-07-28T11:50:39Z</time>
      </trkpt>
      <trkpt lat="44.11108" lon="6.69703">
        <ele>2260.3</ele>
        <time>2020-07-28T11:50:43.000Z</time>
      </trkpt>
      <trkpt lat="44.11111" lon="6.69699">
        <ele>2260</ele>
        <time>2020-07-28T11:50:47Z</time>
      </trkpt>
      <trkpt lat="44.11115" lon="6.69693">
        <ele>2259.7</ele>
        <time>2020-07-28T11:50:52.000Z</time>
      </trkpt>
      <trkpt lat="44.11118" lon="6.69687">
        <ele>2259.5</ele>
        <time>2020-07-28T11:50:57Z</time>
      </trkpt>
      <trkpt lat="44.1112" lon="6.69685">
        <ele>2259.4</ele>
        <time>2020-07-28T11:51:00Z</time>
      </trkpt>
      <trkpt lat="44.11124" lon="6.69681">
        <ele>2259.1</ele>
        <time>2020-07-28T11:51:04.500Z</time>
      </trkpt>
      <trkpt lat="44.11127" lon="6.69676">
        <ele>2258.9</ele>
        <time>2020-07-28T11:51:09Z</time>
      </trkpt>
      <trkpt lat="44.11128" lon="6.69675">
        <ele>2258.8</ele>
        <time>2020-07-28T11:51:10Z</time>
      </trkpt>
      <trkpt lat="44.11132" lon="6.69672">
        <ele>2258.5</ele>
        <time>2020-07-28T11:51:14.000Z</time>
      </trkpt>
      <trkpt lat="44.11136" lon="6.69669">
        <ele>2258.2</ele>
        <time>2020-07-28T11:51:18Z</time>
      </trkpt>
      <trkpt lat="44.11141" lon="6.69665">
        <ele>2257.8</ele>
        <time>2020-07-28T11:51:22Z</time>
      </trkpt>
      <trkpt lat="44.11145" lon="6.69662">
        <ele>2257.3</ele>
        <time>2020-07-28T11:51:26.500Z</time>
      </trkpt>
      <trkpt lat="44.11149" lon="6.69659">
        <ele>2256.9</ele>
        <time>2020-07-28T11:51:31Z</time>
      </trkpt>
      <trkpt lat="44.11153" lon="6.69656">
        <ele>2256.5</ele>
        <time>2020-07-28T11:51:35.000Z</time>
      </trkpt>
      <trkpt lat="44.11157" lon="6.69652">
        <ele>2256</ele>
        <time>2020-07-28T11:51:39Z</time>
      </trkpt>
      <trkpt lat="44.1116" lon="6.6965">
        <ele>2255.7</ele>
        <time>2020-07-28T11:51:42Z</time>
      </trkpt>
      <trkpt lat="44.11165" lon="6.69648">
        <ele>2255.2</ele>
        <time>2020-07-28T11:51:47.000Z</time>
      </trkpt>
      <trkpt lat="44.1117" lon="6.69645">
        <ele>2254.9</ele>
        <time>2020-07-28T11:51:52Z</time>
      </trkpt>
      <trkpt lat="44.11174" lon="6.69645">
        <ele>2254.7</ele>
        <time>2020-07-28T11:51:56Z</time>
      </trkpt>
      <trkpt lat="44.11179" lon="6.69642">
        <ele>2254.6</ele>
        <time>2020-07-28T11:52:00.000Z</time>
      </trkpt>
      <trkpt lat="44.11183" lon="6.69639">
        <ele>2254.4</ele>
        <time>2020-07-28T11:52:04Z</time>
      </trkpt>
      <trkpt lat="44.11191" lon="6.69635">
        <ele>2254.1</ele>
        <time>2020-07-28T11:52:12Z</time>
      </trkpt>
      <trkpt lat="44.11196" lon="6.69633">
        <ele>2253.9</ele>
        <time>2020-07-28T11:52:16.500Z</time>
      </trkpt>
      <trkpt lat="44.11201" lon="6.6963">
        <ele>2253.8</ele>
        <time>2020-07-28T11:52:21Z</time>
      </trkpt>
      <trkpt lat="44.11208" lon="6.69627">
        <ele>2253.5</ele>
        <time>2020-07-28T11:52:26.500Z</time>
      </trkpt>
      <trkpt lat="44.11214" lon="6.69623">
        <ele>2253.3</ele>
        <time>2020-07-28T11:52:32Z</time>
      </trkpt>
      <trkpt lat="44.1122" lon="6.6962">
        <ele>2253.1</ele>
        <time>2020-07-28T11:52:38Z</time>
      </trkpt>
      <trkpt lat="44.11225" lon="6.69616">
        <ele>2252.9</ele>
        <time>2020-07-28T11:52:43.000Z</time>
      </trkpt>
      <trkpt lat="44.11229" lon="6.69612">
        <ele>2252.8</ele>
        <time>2020-07-28T11:52:48Z</time>
      </trkpt>
      <trkpt lat="44.11235" lon="6.69604">
        <ele>2252.2</ele>
        <time>2020-07-28T11:52:56Z</time>
      </trkpt>
      <trkpt lat="44.11239" lon="6.696">
        <ele>2251.8</ele>
        <time>2020-07-28T11:53:01.000Z</time>
      </trkpt>
      <trkpt lat="44.11243" lon="6.69595">
        <ele>2251.2</ele>
        <time>2020-07-28T11:53:06Z</time>
      </trkpt>
      <trkpt lat="44.11247" lon="6.69591">
        <ele>2250.7</ele>
        <time>2020-07-28T11:53:10.500Z</time>
      </trkpt>
      <trkpt lat="44.1125" lon="6.69586">
        <ele>2250.2</ele>
        <time>2020-07-28T11:53:15Z</time>
      </trkpt>
      <trkpt lat="44.11254" lon="6.69582">
        <ele>2249.7</ele>
        <time>2020-07-28T11:53:19.500Z</time>
      </trkpt>
      <trkpt lat="44.11257" lon="6.69577">
        <ele>2249.2</ele>
        <time>2020-07-28T11:53:24Z</time>
      </trkpt>
      <trkpt lat="44.11258" lon="6.69576">
        <ele>2249.1</ele>
        <time>2020-07-28T11:53:28Z</time>
      </trkpt>
      <trkpt lat="44.1126" lon="6.69573">
        <ele>2248.8</ele>
        <time>2020-07-28T11:53:31Z</time>
      </trkpt>
      <trkpt lat="44.11265" lon="6.69571">
        <ele>2248.2</ele>
        <time>2020-07-28T11:53:35.500Z</time>
      </trkpt>
      <trkpt lat="44.11269" lon="6.69569">
        <ele>2247.8</ele>
        <time>2020-07-28T11:53:40Z</time>
      </trkpt>
      <trkpt lat="44.11276" lon="6.69566">
        <ele>2246.9</ele>
        <time>2020-07-28T11:53:47Z</time>
      </trkpt>
      <trkpt lat="44.1128" lon="6.69563">
        <ele>2246.5</ele>
        <time>2020-07-28T11:53:51.000Z</time>
      </trkpt>
      <trkpt lat="44.11284" lon="6.6956">
        <ele>2246.3</ele>
        <time>2020-07-28T11:53:55Z</time>
      </trkpt>
      <trkpt lat="44.11286" lon="6.69559">
        <ele>2246.2</ele>
        <time>2020-07-28T11:53:57Z</time>
      </trkpt>
      <trkpt lat="44.11293" lon="6.69555">
        <ele>2246</ele>
        <time>2020-07-28T11:54:04Z</time>
      </trkpt>
      <trkpt lat="44.11298" lon="6.69555">
        <ele>2246</ele>
        <time>2020-07-28T11:54:08.000Z</time>
      </trkpt>
      <trkpt lat="44.11302" lon="6.69554">
        <ele>2245.9</ele>
        <time>2020-07-28T11:54:12Z</time>
      </trkpt>
      <trkpt lat="44.11309" lon="6.69552">
        <ele>2245.9</ele>
        <time>2020-07-28T11:54:19Z</time>
      </trkpt>
      <trkpt lat="44.11317" lon="6.6955">
        <ele>2245.9</ele>
        <time>2020-07-28T11:54:27Z</time>
      </trkpt>
      <trkpt lat="44.11321" lon="6.69546">
        <ele>2245.7</ele>
        <time>2020-07-28T11:54:31.500Z</time>
      </trkpt>
      <trkpt lat="44.11325" lon="6.69542">
        <ele>2245.4</ele>
        <time>2020-07-28T11:54:36Z</time>
      </trkpt>
      <trkpt lat="44.1133" lon="6.69536">
        <ele>2244.9</ele>
        <time>2020-07-28T11:54:43Z</time>
      </trkpt>
      <trkpt lat="44.11336" lon="6.69531">
        <ele>2244.4</ele>
        <time>2020-07-28T11:54:49Z</time>
      </trkpt>
      <trkpt lat="44.11341" lon="6.69522">
        <ele>2243.7</ele>
        <time>2020-07-28T11:54:57Z</time>
      </trkpt>
      <trkpt lat="44.11345" lon="6.69517">
        <ele>2243.4</ele>
        <time>2020-07-28T11:55:01.500Z</time>
      </trkpt>
      <trkpt lat="44.11349" lon="6.69512">
        <ele>2243.1</ele>
        <time>2020-07-28T11:55:06Z</time>
      </trkpt>
      <trkpt lat="44.11353" lon="6.69508">
        <ele>2242.8</ele>
        <time>2020-07-28T11:55:10.500Z</time>
      </trkpt>
      <trkpt lat="44.11356" lon="6.69503">
        <ele>2242.4</ele>
        <time>2020-07-28T11:55:15Z</time>
      </trkpt>
      <trkpt lat="44.11361" lon="6.69498">
        <ele>2242</ele>
        <time>2020-07-28T11:55:20.000Z</time>
      </trkpt>
      <trkpt lat="44.11366" lon="6.69493">
        <ele>2242</ele>
        <time>2020-07-28T11:55:25Z</time>
      </trkpt>
      <trkpt lat="44.11371" lon="6.69489">
        <ele>2242</ele>
        <time>2020-07-28T11:55:30Z</time>
      </trkpt>
      <trkpt lat="44.11376" lon="6.69484">
        <ele>2242</ele>
        <time>2020-07-28T11:55:35.000Z</time>
      </trkpt>
      <trkpt lat="44.11381" lon="6.69479">
        <ele>2242</ele>
        <time>2020-07-28T11:55:40Z</time>
      </trkpt>
      <trkpt lat="44.11387" lon="6.69472">
        <ele>2242</ele>
        <time>2020-07-28T11:55:47Z</time>
      </trkpt>
      <trkpt lat="44.11392" lon="6.69466">
        <ele>2241.8</ele>
        <time>2020-07-28T11:55:53.000Z</time>
      </trkpt>
      <trkpt lat="44.11397" lon="6.69459">
        <ele>2241.5</ele>
        <time>2020-07-28T11:55:59Z</time>
      </trkpt>
      <trkpt lat="44.11401" lon="6.69454">
        <ele>2241.3</ele>
        <time>2020-07-28T11:56:04Z</time>
      </trkpt>
      <trkpt lat="44.11404" lon="6.69451">
        <ele>2241.2</ele>
        <time>2020-07-28T11:56:08Z</time>
      </trkpt>
      <trkpt lat="44.11409" lon="6.69448">
        <ele>2241.1</ele>
        <time>2020-07-28T11:56:12.500Z</time>
      </trkpt>
      <trkpt lat="44.11414" lon="6.69445">
        <ele>2241</ele>
        <time>2020-07-28T11:56:17Z</time>
      </trkpt>
      <trkpt lat="44.11418" lon="6.69442">
        <ele>2240.9</ele>
        <time>2020-07-28T11:56:21Z</time>
      </trkpt>
      <trkpt lat="44.11423" lon="6.69438">
        <ele>2240.5</ele>
        <time>2020-07-28T11:56:25Z</time>
      </trkpt>
      <trkpt lat="44.11427" lon="6.69434">
        <ele>2240.3</ele>
        <time>2020-07-28T11:56:29.500Z</time>
      </trkpt>
      <trkpt lat="44.1143" lon="6.6943">
        <ele>2240</ele>
        <time>2020-07-28T11:56:34Z</time>
      </trkpt>
      <trkpt lat="44.11435" lon="6.69422">
        <ele>2239.5</ele>
        <time>2020-07-28T11:56:42Z</time>
      </trkpt>
      <trkpt lat="44.11439" lon="6.69418">
        <ele>2239.2</ele>
        <time>2020-07-28T11:56:50Z</time>
      </trkpt>
      <trkpt lat="44.1144" lon="6.69418">
        <ele>2239.2</ele>
        <time>2020-07-28T11:56:57Z</time>
      </trkpt>
      <trkpt lat="44.1144" lon="6.69417">
        <ele>2239.2</ele>
        <time>2020-07-28T11:57:02Z</time>
      </trkpt>
      <trkpt lat="44.11442" lon="6.6941">
        <ele>2239.3</ele>
        <time>2020-07-28T11:57:07Z</time>
      </trkpt>
      <trkpt lat="44.11448" lon="6.69402">
        <ele>2239.5</ele>
        <time>2020-07-28T11:57:14Z</time>
      </trkpt>
      <trkpt lat="44.11453" lon="6.69396">
        <ele>2239.5</ele>
        <time>2020-07-28T11:57:20Z</time>
      </trkpt>
      <trkpt lat="44.11454" lon="6.69395">
        <ele>2239.5</ele>
        <time>2020-07-28T11:57:21Z</time>
      </trkpt>
      <trkpt lat="44.11459" lon="6.69391">
        <ele>2239.4</ele>
        <time>2020-07-28T11:57:25.500Z</time>
      </trkpt>
      <trkpt lat="44.11463" lon="6.69386">
        <ele>2239.4</ele>
        <time>2020-07-28T11:57:30Z</time>
      </trkpt>
      <trkpt lat="44.11469" lon="6.69382">
        <ele>2239.4</ele>
        <time>2020-07-28T11:57:34.500Z</time>
      </trkpt>
      <trkpt lat="44.11474" lon="6.69377">
        <ele>2239.4</ele>
        <time>2020-07-28T11:57:39Z</time>
      </trkpt>
      <trkpt lat="44.11477" lon="6.69375">
        <ele>2239.3</ele>
        <time>2020-07-28T11:57:42Z</time>
      </trkpt>
      <trkpt lat="44.11479" lon="6.69372">
        <ele>2239.4</ele>
        <time>2020-07-28T11:57:45Z</time>
      </trkpt>
      <trkpt lat="44.11483" lon="6.69369">
        <ele>2239.3</ele>
        <time>2020-07-28T11:57:48.500Z</time>
      </trkpt>
      <trkpt lat="44.11487" lon="6.69365">
        <ele>2239.3</ele>
        <time>2020-07-28T11:57:52Z</time>
      </trkpt>
      <trkpt lat="44.1149" lon="6.69363">
        <ele>2239.3</ele>
        <time>2020-07-28T11:57:55Z</time>
      </trkpt>
      <trkpt lat="44.11494" lon="6.69359">
        <ele>2239.3</ele>
        <time>2020-07-28T11:57:59.000Z</time>
      </trkpt>
      <trkpt lat="44.11497" lon="6.69355">
        <ele>2239.3</ele>
        <time>2020-07-28T11:58:03Z</time>
      </trkpt>
      <trkpt lat="44.11502" lon="6.69352">
        <ele>2239.3</ele>
        <time>2020-07-28T11:58:07.500Z</time>
      </trkpt>
      <trkpt lat="44.11506" lon="6.69349">
        <ele>2239.2</ele>
        <time>2020-07-28T11:58:12Z</time>
      </trkpt>
      <trkpt lat="44.11511" lon="6.69345">
        <ele>2239.2</ele>
        <time>2020-07-28T11:58:16.500Z</time>
      </trkpt>
      <trkpt lat="44.11516" lon="6.69341">
        <ele>2239.1</ele>
        <time>2020-07-28T11:58:21Z</time>
      </trkpt>
      <trkpt lat="44.1152" lon="6.69336">
        <ele>2239.2</ele>
        <time>2020-07-28T11:58:28Z</time>
      </trkpt>
      <trkpt lat="44.1152" lon="6.69336">
        <ele>2239.2</ele>
        <time>2020-07-28T11:58:31Z</time>
      </trkpt>
      <trkpt lat="44.11523" lon="6.69333">
        <ele>2239.2</ele>
        <time>2020-07-28T11:58:34Z</time>
      </trkpt>
      <trkpt lat="44.11528" lon="6.6933">
        <ele>2239.2</ele>
        <time>2020-07-28T11:58:38.500Z</time>
      </trkpt>
      <trkpt lat="44.11532" lon="6.69326">
        <ele>2239.5</ele>
        <time>2020-07-28T11:58:43Z</time>
      </trkpt>
      <trkpt lat="44.11538" lon="6.69321">
        <ele>2239.9</ele>
        <time>2020-07-28T11:58:49Z</time>
      </trkpt>
      <trkpt lat="44.11545" lon="6.69316">
        <ele>2240.2</ele>
        <time>2020-07-28T11:58:56Z</time>
      </trkpt>
      <trkpt lat="44.11547" lon="6.69314">
        <ele>2240.4</ele>
        <time>2020-07-28T11:58:58Z</time>
      </trkpt>
      <trkpt lat="44.1155" lon="6.69311">
        <ele>2240.6</ele>
        <time>2020-07-28T11:59:01Z</time>
      </trkpt>
      <trkpt lat="44.11556" lon="6.69308">
        <ele>2240.8</ele>
        <time>2020-07-28T11:59:06.000Z</time>
      </trkpt>
      <trkpt lat="44.11562" lon="6.69304">
        <ele>2240.6</ele>
        <time>2020-07-28T11:59:11Z</time>
      </trkpt>
      <trkpt lat="44.1157" lon="6.69299">
        <ele>2240.4</ele>
        <time>2020-07-28T11:59:19Z</time>
      </trkpt>
      <trkpt lat="44.11575" lon="6.69296">
        <ele>2240.3</ele>
        <time>2020-07-28T11:59:23.000Z</time>
      </trkpt>
      <trkpt lat="44.11579" lon="6.69293">
        <ele>2240.2</ele>
        <time>2020-07-28T11:59:27Z</time>
      </trkpt>
      <trkpt lat="44.11583" lon="6.69289">
        <ele>2240.2</ele>
        <time>2020-07-28T11:59:31.500Z</time>
      </trkpt>
      <trkpt lat="44.11587" lon="6.69285">
        <ele>2240.2</ele>
        <time>2020-07-28T11:59:36Z</time>
      </trkpt>
      <trkpt lat="44.11589" lon="6.69283">
        <ele>2240.2</ele>
        <time>2020-07-28T11:59:38Z</time>
      </trkpt>
      <trkpt lat="44.11594" lon="6.69279">
        <ele>2240.1</ele>
        <time>2020-07-28T11:59:43.000Z</time>
      </trkpt>
      <trkpt lat="44.11598" lon="6.69274">
        <ele>2240.2</ele>
        <time>2020-07-28T11:59:48Z</time>
      </trkpt>
      <trkpt lat="44.11603" lon="6.69272">
        <ele>2240</ele>
        <time>2020-07-28T11:59:52.000Z</time>
      </trkpt>
      <trkpt lat="44.11607" lon="6.69269">
        <ele>2239.9</ele>
        <time>2020-07-28T11:59:56Z</time>
      </trkpt>
      <trkpt lat="44.11611" lon="6.69266">
        <ele>2239.9</ele>
        <time>2020-07-28T12:00:00.500Z</time>
      </trkpt>
      <trkpt lat="44.11615" lon="6.69263">
        <ele>2239.6</ele>
        <time>2020-07-28T12:00:05Z</time>
      </trkpt>
      <trkpt lat="44.11622" lon="6.69257">
        <ele>2239.3</ele>
        <time>2020-07-28T12:00:13Z</time>
      </trkpt>
      <trkpt lat="44.11627" lon="6.69255">
        <ele>2238.9</ele>
        <time>2020-07-28T12:00:17.000Z</time>
      </trkpt>
      <trkpt lat="44.11631" lon="6.69252">
        <ele>2238.7</ele>
        <time>2020-07-28T12:00:21Z</time>
      </trkpt>
      <trkpt lat="44.11636" lon="6.6925">
        <ele>2238.3</ele>
        <time>2020-07-28T12:00:25.000Z</time>
      </trkpt>
      <trkpt lat="44.1164" lon="6.69247">
        <ele>2238.1</ele>
        <time>2020-07-28T12:00:29Z</time>
      </trkpt>
      <trkpt lat="44.11646" lon="6.69243">
        <ele>2238</ele>
        <time>2020-07-28T12:00:34Z</time>
      </trkpt>
      <trkpt lat="44.11651" lon="6.69242">
        <ele>2237.7</ele>
        <time>2020-07-28T12:00:38.000Z</time>
      </trkpt>
      <trkpt lat="44.11656" lon="6.6924">
        <ele>2237.5</ele>
        <time>2020-07-28T12:00:42Z</time>
      </trkpt>
      <trkpt lat="44.11661" lon="6.69238">
        <ele>2237.3</ele>
        <time>2020-07-28T12:00:46Z</time>
      </trkpt>
      <trkpt lat="44.11666" lon="6.69235">
        <ele>2237.1</ele>
        <time>2020-07-28T12:00:51.000Z</time>
      </trkpt>
      <trkpt lat="44.11671" lon="6.69232">
        <ele>2237</ele>
        <time>2020-07-28T12:00:56Z</time>
      </trkpt>
      <trkpt lat="44.11676" lon="6.69229">
        <ele>2236.8</ele>
        <time>2020-07-28T12:01:00.000Z</time>
      </trkpt>
      <trkpt lat="44.11681" lon="6.69226">
        <ele>2236.7</ele>
        <time>2020-07-28T12:01:04Z</time>
      </trkpt>
      <trkpt lat="44.11687" lon="6.69222">
        <ele>2236.6</ele>
        <time>2020-07-28T12:01:11Z</time>
      </trkpt>
      <trkpt lat="44.11692" lon="6.69219">
        <ele>2236.4</ele>
        <time>2020-07-28T12:01:15.500Z</time>
      </trkpt>
      <trkpt lat="44.11697" lon="6.69216">
        <ele>2236.3</ele>
        <time>2020-07-28T12:01:20Z</time>
      </trkpt>
      <trkpt lat="44.11702" lon="6.69214">
        <ele>2236</ele>
        <time>2020-07-28T12:01:24.000Z</time>
      </trkpt>
      <trkpt lat="44.11707" lon="6.69212">
        <ele>2235.8</ele>
        <time>2020-07-28T12:01:28Z</time>
      </trkpt>
      <trkpt lat="44.11715" lon="6.69208">
        <ele>2235.5</ele>
        <time>2020-07-28T12:01:36Z</time>
      </trkpt>
      <trkpt lat="44.1172" lon="6.69206">
        <ele>2235.3</ele>
        <time>2020-07-28T12:01:40.500Z</time>
      </trkpt>
      <trkpt lat="44.11725" lon="6.69203">
        <ele>2235.4</ele>
        <time>2020-07-28T12:01:45Z</time>
      </trkpt>
      <trkpt lat="44.1173" lon="6.69201">
        <ele>2235.5</ele>
        <time>2020-07-28T12:01:49.000Z</time>
      </trkpt>
      <trkpt lat="44.11734" lon="6.69198">
        <ele>2235.7</ele>
        <time>2020-07-28T12:01:53Z</time>
      </trkpt>
      <trkpt lat="44.11742" lon="6.69195">
        <ele>2236</ele>
        <time>2020-07-28T12:02:00Z</time>
      </trkpt>
      <trkpt lat="44.1175" lon="6.6919">
        <ele>2236.5</ele>
        <time>2020-07-28T12:02:08Z</time>
      </trkpt>
      <trkpt lat="44.11755" lon="6.69188">
        <ele>2236.7</ele>
        <time>2020-07-28T12:02:13.000Z</time>
      </trkpt>
      <trkpt lat="44.1176" lon="6.69186">
        <ele>2236.8</ele>
        <time>2020-07-28T12:02:18Z</time>
      </trkpt>
      <trkpt lat="44.11768" lon="6.69181">
        <ele>2237.1</ele>
        <time>2020-07-28T12:02:25Z</time>
      </trkpt>
      <trkpt lat="44.11768" lon="6.69181">
        <ele>2237.1</ele>
        <time>2020-07-28T12:02:26Z</time>
      </trkpt>
      <trkpt lat="44.11776" lon="6.69177">
        <ele>2237.3</ele>
        <time>2020-07-28T12:02:33Z</time>
      </trkpt>
      <trkpt lat="44.11781" lon="6.69176">
        <ele>2237.3</ele>
        <time>2020-07-28T12:02:37.000Z</time>
      </trkpt>
      <trkpt lat="44.11786" lon="6.69174">
        <ele>2237.3</ele>
        <time>2020-07-28T12:02:41Z</time>
      </trkpt>
      <trkpt lat="44.11793" lon="6.69174">
        <ele>2237.1</ele>
        <time>2020-07-28T12:02:48Z</time>
      </trkpt>
      <trkpt lat="44.11801" lon="6.69172">
        <ele>2236.9</ele>
        <time>2020-07-28T12:02:55Z</time>
      </trkpt>
      <trkpt lat="44.11807" lon="6.69169">
        <ele>2237</ele>
        <time>2020-07-28T12:03:01Z</time>
      </trkpt>
      <trkpt lat="44.11812" lon="6.69168">
        <ele>2237.2</ele>
        <time>2020-07-28T12:03:05.000Z</time>
      </trkpt>
      <trkpt lat="44.11816" lon="6.69166">
        <ele>2237.4</ele>
        <time>2020-07-28T12:03:09Z</time>
      </trkpt>
      <trkpt lat="44.11821" lon="6.69163">
        <ele>2237.7</ele>
        <time>2020-07-28T12:03:13.500Z</time>
      </trkpt>
      <trkpt lat="44.11826" lon="6.6916">
        <ele>2237.9</ele>
        <time>2020-07-28T12:03:18Z</time>
      </trkpt>
      <trkpt lat="44.11833" lon="6.69154">
        <ele>2238</ele>
        <time>2020-07-28T12:03:26Z</time>
      </trkpt>
      <trkpt lat="44.11838" lon="6.69151">
        <ele>2238.1</ele>
        <time>2020-07-28T12:03:30.000Z</time>
      </trkpt>
      <trkpt lat="44.11842" lon="6.69148">
        <ele>2238.2</ele>
        <time>2020-07-28T12:03:34Z</time>
      </trkpt>
      <trkpt lat="44.11848" lon="6.69145">
        <ele>2238.4</ele>
        <time>2020-07-28T12:03:39.000Z</time>
      </trkpt>
      <trkpt lat="44.11854" lon="6.69141">
        <ele>2238.7</ele>
        <time>2020-07-28T12:03:44Z</time>
      </trkpt>
      <trkpt lat="44.1186" lon="6.69138">
        <ele>2239</ele>
        <time>2020-07-28T12:03:51Z</time>
      </trkpt>
      <trkpt lat="44.11867" lon="6.69136">
        <ele>2239.5</ele>
        <time>2020-07-28T12:03:57Z</time>
      </trkpt>
      <trkpt lat="44.11875" lon="6.69132">
        <ele>2240.2</ele>
        <time>2020-07-28T12:04:05Z</time>
      </trkpt>
      <trkpt lat="44.1188" lon="6.69131">
        <ele>2240.6</ele>
        <time>2020-07-28T12:04:09.500Z</time>
      </trkpt>
      <trkpt lat="44.11884" lon="6.6913">
        <ele>2241</ele>
        <time>2020-07-28T12:04:14Z</time>
      </trkpt>
      <trkpt lat="44.11892" lon="6.69127">
        <ele>2241.4</ele>
        <time>2020-07-28T12:04:22Z</time>
      </trkpt>
      <trkpt lat="44.11897" lon="6.69125">
        <ele>2241.4</ele>
        <time>2020-07-28T12:04:26.500Z</time>
      </trkpt>
      <trkpt lat="44.11901" lon="6.69123">
        <ele>2241.3</ele>
        <time>2020-07-28T12:04:31Z</time>
      </trkpt>
      <trkpt lat="44.11906" lon="6.69121">
        <ele>2241.2</ele>
        <time>2020-07-28T12:04:35.000Z</time>
      </trkpt>
      <trkpt lat="44.1191" lon="6.69119">
        <ele>2241.2</ele>
        <time>2020-07-28T12:04:39Z</time>
      </trkpt>
      <trkpt lat="44.11918" lon="6.69115">
        <ele>2241</ele>
        <time>2020-07-28T12:04:47Z</time>
      </trkpt>
      <trkpt lat="44.11926" lon="6.69111">
        <ele>2240.7</ele>
        <time>2020-07-28T12:04:55Z</time>
      </trkpt>
      <trkpt lat="44.11931" lon="6.69109">
        <ele>2240.6</ele>
        <time>2020-07-28T12:04:59.500Z</time>
      </trkpt>
      <trkpt lat="44.11935" lon="6.69107">
        <ele>2240.4</ele>
        <time>2020-07-28T12:05:04Z</time>
      </trkpt>
      <trkpt lat="44.11942" lon="6.69105">
        <ele>2240.1</ele>
        <time>2020-07-28T12:05:11Z</time>
      </trkpt>
      <trkpt lat="44.1195" lon="6.691">
        <ele>2239.4</ele>
        <time>2020-07-28T12:05:19Z</time>
      </trkpt>
      <trkpt lat="44.11956" lon="6.69098">
        <ele>2238.8</ele>
        <time>2020-07-28T12:05:23.500Z</time>
      </trkpt>
      <trkpt lat="44.11961" lon="6.69095">
        <ele>2238.2</ele>
        <time>2020-07-28T12:05:28Z</time>
      </trkpt>
      <trkpt lat="44.11966" lon="6.69094">
        <ele>2237.7</ele>
        <time>2020-07-28T12:05:32.000Z</time>
      </trkpt>
      <trkpt lat="44.11971" lon="6.69092">
        <ele>2237.1</ele>
        <time>2020-07-28T12:05:36Z</time>
      </trkpt>
      <trkpt lat="44.11976" lon="6.6909">
        <ele>2236.7</ele>
        <time>2020-07-28T12:05:40.500Z</time>
      </trkpt>
      <trkpt lat="44.1198" lon="6.69088">
        <ele>2236.3</ele>
        <time>2020-07-28T12:05:45Z</time>
      </trkpt>
      <trkpt lat="44.11988" lon="6.69083">
        <ele>2235.3</ele>
        <time>2020-07-28T12:05:53Z</time>
      </trkpt>
      <trkpt lat="44.11993" lon="6.6908">
        <ele>2234.8</ele>
        <time>2020-07-28T12:05:57.500Z</time>
      </trkpt>
      <trkpt lat="44.11997" lon="6.69077">
        <ele>2234.3</ele>
        <time>2020-07-28T12:06:02Z</time>
      </trkpt>
      <trkpt lat="44.12002" lon="6.69075">
        <ele>2234.1</ele>
        <time>2020-07-28T12:06:06.000Z</time>
      </trkpt>
      <trkpt lat="44.12007" lon="6.69073">
        <ele>2234.2</ele>
        <time>2020-07-28T12:06:10Z</time>
      </trkpt>
      <trkpt lat="44.12011" lon="6.6907">
        <ele>2234.2</ele>
        <time>2020-07-28T12:06:14Z</time>
      </trkpt>
      <trkpt lat="44.12016" lon="6.69068">
        <ele>2234.3</ele>
        <time>2020-07-28T12:06:18.500Z</time>
      </trkpt>
      <trkpt lat="44.1202" lon="6.69065">
        <ele>2234.2</ele>
        <time>2020-07-28T12:06:23Z</time>
      </trkpt>
      <trkpt lat="44.12025" lon="6.69063">
        <ele>2234.2</ele>
        <time>2020-07-28T12:06:28Z</time>
      </trkpt>
      <trkpt lat="44.1203" lon="6.69062">
        <ele>2234.1</ele>
        <time>2020-07-28T12:06:32.000Z</time>
      </trkpt>
      <trkpt lat="44.12035" lon="6.6906">
        <ele>2233.7</ele>
        <time>2020-07-28T12:06:36Z</time>
      </trkpt>
      <trkpt lat="44.12039" lon="6.69057">
        <ele>2233.3</ele>
        <time>2020-07-28T12:06:40.500Z</time>
      </trkpt>
      <trkpt lat="44.12043" lon="6.69054">
        <ele>2232.9</ele>
        <time>2020-07-28T12:06:45Z</time>
      </trkpt>
      <trkpt lat="44.12048" lon="6.6905">
        <ele>2232.5</ele>
        <time>2020-07-28T12:06:50.000Z</time>
      </trkpt>
      <trkpt lat="44.12053" lon="6.69046">
        <ele>2232.2</ele>
        <time>2020-07-28T12:06:55Z</time>
      </trkpt>
      <trkpt lat="44.12057" lon="6.69043">
        <ele>2231.9</ele>
        <time>2020-07-28T12:06:59.500Z</time>
      </trkpt>
      <trkpt lat="44.12061" lon="6.6904">
        <ele>2231.6</ele>
        <time>2020-07-28T12:07:04Z</time>
      </trkpt>
      <trkpt lat="44.12066" lon="6.69037">
        <ele>2231.1</ele>
        <time>2020-07-28T12:07:08.500Z</time>
      </trkpt>
      <trkpt lat="44.12071" lon="6.69033">
        <ele>2230.5</ele>
        <time>2020-07-28T12:07:13Z</time>
      </trkpt>
      <trkpt lat="44.12075" lon="6.69032">
        <ele>2230.1</ele>
        <time>2020-07-28T12:07:18Z</time>
      </trkpt>
      <trkpt lat="44.12078" lon="6.69031">
        <ele>2229.8</ele>
        <time>2020-07-28T12:07:21Z</time>
      </trkpt>
      <trkpt lat="44.12085" lon="6.69026">
        <ele>2228.8</ele>
        <time>2020-07-28T12:07:29Z</time>
      </trkpt>
      <trkpt lat="44.12087" lon="6.69027">
        <ele>2228.6</ele>
        <time>2020-07-28T12:07:36Z</time>
      </trkpt>
      <trkpt lat="44.12092" lon="6.69027">
        <ele>2228.1</ele>
        <time>2020-07-28T12:07:40.000Z</time>
      </trkpt>
      <trkpt lat="44.12096" lon="6.69026">
        <ele>2227.6</ele>
        <time>2020-07-28T12:07:44Z</time>
      </trkpt>
      <trkpt lat="44.12102" lon="6.69024">
        <ele>2227</ele>
        <time>2020-07-28T12:07:50Z</time>
      </trkpt>
      <trkpt lat="44.1211" lon="6.69021">
        <ele>2226.1</ele>
        <time>2020-07-28T12:07:59Z</time>
      </trkpt>
      <trkpt lat="44.12116" lon="6.6902">
        <ele>2225.3</ele>
        <time>2020-07-28T12:08:03.500Z</time>
      </trkpt>
      <trkpt lat="44.12121" lon="6.69019">
        <ele>2224.7</ele>
        <time>2020-07-28T12:08:08Z</time>
      </trkpt>
      <trkpt lat="44.12126" lon="6.69018">
        <ele>2224</ele>
        <time>2020-07-28T12:08:12.000Z</time>
      </trkpt>
      <trkpt lat="44.1213" lon="6.69016">
        <ele>2223.6</ele>
        <time>2020-07-28T12:08:16Z</time>
      </trkpt>
      <trkpt lat="44.12135" lon="6.69014">
        <ele>2223</ele>
        <time>2020-07-28T12:08:21.000Z</time>
      </trkpt>
      <trkpt lat="44.1214" lon="6.69012">
        <ele>2222.4</ele>
        <time>2020-07-28T12:08:26Z</time>
      </trkpt>
      <trkpt lat="44.12146" lon="6.69009">
        <ele>2221.7</ele>
        <time>2020-07-28T12:08:35Z</time>
      </trkpt>
      <trkpt lat="44.12152" lon="6.69007">
        <ele>2221</ele>
        <time>2020-07-28T12:08:43Z</time>
      </trkpt>
      <trkpt lat="44.12158" lon="6.69004">
        <ele>2220.2</ele>
        <time>2020-07-28T12:08:49Z</time>
      </trkpt>
      <trkpt lat="44.12165" lon="6.69003">
        <ele>2219.2</ele>
        <time>2020-07-28T12:08:57Z</time>
      </trkpt>
      <trkpt lat="44.1217" lon="6.69001">
        <ele>2218.8</ele>
        <time>2020-07-28T12:09:02.000Z</time>
      </trkpt>
      <trkpt lat="44.12174" lon="6.68999">
        <ele>2218.5</ele>
        <time>2020-07-28T12:09:07Z</time>
      </trkpt>
      <trkpt lat="44.12176" lon="6.68999">
        <ele>2218.3</ele>
        <time>2020-07-28T12:09:09Z</time>
      </trkpt>
      <trkpt lat="44.1218" lon="6.68995">
        <ele>2218</ele>
        <time>2020-07-28T12:09:14Z</time>
      </trkpt>
      <trkpt lat="44.12186" lon="6.68996">
        <ele>2217.5</ele>
        <time>2020-07-28T12:09:18.500Z</time>
      </trkpt>
      <trkpt lat="44.12191" lon="6.68996">
        <ele>2217.1</ele>
        <time>2020-07-28T12:09:23Z</time>
      </trkpt>
      <trkpt lat="44.12196" lon="6.68996">
        <ele>2216.8</ele>
        <time>2020-07-28T12:09:26.500Z</time>
      </trkpt>
      <trkpt lat="44.122" lon="6.68996">
        <ele>2216.5</ele>
        <time>2020-07-28T12:09:30Z</time>
      </trkpt>
      <trkpt lat="44.12207" lon="6.68996">
        <ele>2216</ele>
        <time>2020-07-28T12:09:36Z</time>
      </trkpt>
      <trkpt lat="44.12212" lon="6.68997">
        <ele>2215.7</ele>
        <time>2020-07-28T12:09:40.000Z</time>
      </trkpt>
      <trkpt lat="44.12217" lon="6.68998">
        <ele>2215.4</ele>
        <time>2020-07-28T12:09:44Z</time>
      </trkpt>
      <trkpt lat="44.12222" lon="6.68999">
        <ele>2215</ele>
        <time>2020-07-28T12:09:47.500Z</time>
      </trkpt>
      <trkpt lat="44.12226" lon="6.68999">
        <ele>2214.9</ele>
        <time>2020-07-28T12:09:51Z</time>
      </trkpt>
      <trkpt lat="44.12231" lon="6.69">
        <ele>2214.7</ele>
        <time>2020-07-28T12:09:54.500Z</time>
      </trkpt>
      <trkpt lat="44.12235" lon="6.69">
        <ele>2214.5</ele>
        <time>2020-07-28T12:09:58Z</time>
      </trkpt>
      <trkpt lat="44.1224" lon="6.69001">
        <ele>2214.3</ele>
        <time>2020-07-28T12:10:02.000Z</time>
      </trkpt>
      <trkpt lat="44.12245" lon="6.69002">
        <ele>2214.1</ele>
        <time>2020-07-28T12:10:06Z</time>
      </trkpt>
      <trkpt lat="44.12252" lon="6.69001">
        <ele>2214</ele>
        <time>2020-07-28T12:10:13Z</time>
      </trkpt>
      <trkpt lat="44.12257" lon="6.69">
        <ele>2214.3</ele>
        <time>2020-07-28T12:10:18Z</time>
      </trkpt>
      <trkpt lat="44.12262" lon="6.68999">
        <ele>2214.5</ele>
        <time>2020-07-28T12:10:24Z</time>
      </trkpt>
      <trkpt lat="44.12268" lon="6.68999">
        <ele>2214.7</ele>
        <time>2020-07-28T12:10:28.500Z</time>
      </trkpt>
      <trkpt lat="44.12273" lon="6.68999">
        <ele>2214.9</ele>
        <time>2020-07-28T12:10:33Z</time>
      </trkpt>
      <trkpt lat="44.12281" lon="6.68999">
        <ele>2215.4</ele>
        <time>2020-07-28T12:10:39Z</time>
      </trkpt>
      <trkpt lat="44.12288" lon="6.68999">
        <ele>2216.1</ele>
        <time>2020-07-28T12:10:45Z</time>
      </trkpt>
      <trkpt lat="44.12296" lon="6.68996">
        <ele>2217</ele>
        <time>2020-07-28T12:10:53Z</time>
      </trkpt>
      <trkpt lat="44.12303" lon="6.68996">
        <ele>2217.7</ele>
        <time>2020-07-28T12:11:00Z</time>
      </trkpt>
      <trkpt lat="44.12308" lon="6.68994">
        <ele>2218.3</ele>
        <time>2020-07-28T12:11:06Z</time>
      </trkpt>
      <trkpt lat="44.12312" lon="6.68992">
        <ele>2218.8</ele>
        <time>2020-07-28T12:11:10Z</time>
      </trkpt>
      <trkpt lat="44.12316" lon="6.68991">
        <ele>2219.2</ele>
        <time>2020-07-28T12:11:15Z</time>
      </trkpt>
      <trkpt lat="44.12323" lon="6.68991">
        <ele>2220.1</ele>
        <time>2020-07-28T12:11:22Z</time>
      </trkpt>
      <trkpt lat="44.12329" lon="6.68993">
        <ele>2220.7</ele>
        <time>2020-07-28T12:11:28Z</time>
      </trkpt>
      <trkpt lat="44.1233" lon="6.68993">
        <ele>2220.9</ele>
        <time>2020-07-28T12:11:31Z</time>
      </trkpt>
      <trkpt lat="44.12333" lon="6.68993">
        <ele>2221.2</ele>
        <time>2020-07-28T12:11:34Z</time>
      </trkpt>
      <trkpt lat="44.12336" lon="6.68992">
        <ele>2221.4</ele>
        <time>2020-07-28T12:11:36Z</time>
      </trkpt>
      <trkpt lat="44.12343" lon="6.68993">
        <ele>2221.7</ele>
        <time>2020-07-28T12:11:43Z</time>
      </trkpt>
      <trkpt lat="44.12347" lon="6.68995">
        <ele>2221.8</ele>
        <time>2020-07-28T12:11:48Z</time>
      </trkpt>
      <trkpt lat="44.12353" lon="6.68995">
        <ele>2222</ele>
        <time>2020-07-28T12:11:54Z</time>
      </trkpt>
      <trkpt lat="44.12358" lon="6.68996">
        <ele>2222.2</ele>
        <time>2020-07-28T12:11:58.000Z</time>
      </trkpt>
      <trkpt lat="44.12363" lon="6.68997">
        <ele>2222.3</ele>
        <time>2020-07-28T12:12:02Z</time>
      </trkpt>
      <trkpt lat="44.12367" lon="6.68999">
        <ele>2222.3</ele>
        <time>2020-07-28T12:12:08Z</time>
      </trkpt>
      <trkpt lat="44.12372" lon="6.68998">
        <ele>2222.5</ele>
        <time>2020-07-28T12:12:14Z</time>
      </trkpt>
      <trkpt lat="44.12376" lon="6.68996">
        <ele>2222.8</ele>
        <time>2020-07-28T12:12:18Z</time>
      </trkpt>
      <trkpt lat="44.12384" lon="6.68994">
        <ele>2223.3</ele>
        <time>2020-07-28T12:12:25Z</time>
      </trkpt>
      <trkpt lat="44.12392" lon="6.68991">
        <ele>2223.6</ele>
        <time>2020-07-28T12:12:33Z</time>
      </trkpt>
      <trkpt lat="44.12397" lon="6.68989">
        <ele>2223.7</ele>
        <time>2020-07-28T12:12:37.500Z</time>
      </trkpt>
      <trkpt lat="44.12401" lon="6.68987">
        <ele>2223.7</ele>
        <time>2020-07-28T12:12:42Z</time>
      </trkpt>
      <trkpt lat="44.12409" lon="6.68983">
        <ele>2223.8</ele>
        <time>2020-07-28T12:12:49Z</time>
      </trkpt>
      <trkpt lat="44.12417" lon="6.68979">
        <ele>2223.7</ele>
        <time>2020-07-28T12:12:57Z</time>
      </trkpt>
      <trkpt lat="44.12422" lon="6.68978">
        <ele>2223.4</ele>
        <time>2020-07-28T12:13:01.000Z</time>
      </trkpt>
      <trkpt lat="44.12426" lon="6.68976">
        <ele>2223.2</ele>
        <time>2020-07-28T12:13:05Z</time>
      </trkpt>
      <trkpt lat="44.12434" lon="6.68971">
        <ele>2222.9</ele>
        <time>2020-07-28T12:13:13Z</time>
      </trkpt>
      <trkpt lat="44.12441" lon="6.68968">
        <ele>2222.7</ele>
        <time>2020-07-28T12:13:19Z</time>
      </trkpt>
      <trkpt lat="44.12446" lon="6.68967">
        <ele>2222.5</ele>
        <time>2020-07-28T12:13:23.000Z</time>
      </trkpt>
      <trkpt lat="44.1245" lon="6.68966">
        <ele>2222.3</ele>
        <time>2020-07-28T12:13:27Z</time>
      </trkpt>
      <trkpt lat="44.12457" lon="6.68963">
        <ele>2222.1</ele>
        <time>2020-07-28T12:13:34Z</time>
      </trkpt>
      <trkpt lat="44.12462" lon="6.68958">
        <ele>2222.3</ele>
        <time>2020-07-28T12:13:41Z</time>
      </trkpt>
      <trkpt lat="44.12468" lon="6.68959">
        <ele>2221.7</ele>
        <time>2020-07-28T12:13:46.000Z</time>
      </trkpt>
      <trkpt lat="44.12473" lon="6.68959">
        <ele>2221.4</ele>
        <time>2020-07-28T12:13:51Z</time>
      </trkpt>
      <trkpt lat="44.1248" lon="6.68958">
        <ele>2221.3</ele>
        <time>2020-07-28T12:13:57Z</time>
      </trkpt>
      <trkpt lat="44.12485" lon="6.68958">
        <ele>2221.1</ele>
        <time>2020-07-28T12:14:00.500Z</time>
      </trkpt>
      <trkpt lat="44.12489" lon="6.68957">
        <ele>2221</ele>
        <time>2020-07-28T12:14:04Z</time>
      </trkpt>
      <trkpt lat="44.12494" lon="6.68955">
        <ele>2221.1</ele>
        <time>2020-07-28T12:14:09.000Z</time>
      </trkpt>
      <trkpt lat="44.12499" lon="6.68953">
        <ele>2221.1</ele>
        <time>2020-07-28T12:14:14Z</time>
      </trkpt>
      <trkpt lat="44.12504" lon="6.68952">
        <ele>2220.9</ele>
        <time>2020-07-28T12:14:18.000Z</time>
      </trkpt>
      <trkpt lat="44.12508" lon="6.6895">
        <ele>2220.9</ele>
        <time>2020-07-28T12:14:22Z</time>
      </trkpt>
      <trkpt lat="44.12513" lon="6.68951">
        <ele>2220.5</ele>
        <time>2020-07-28T12:14:27.500Z</time>
      </trkpt>
      <trkpt lat="44.12518" lon="6.68952">
        <ele>2220.1</ele>
        <time>2020-07-28T12:14:33Z</time>
      </trkpt>
      <trkpt lat="44.12525" lon="6.68951">
        <ele>2219.7</ele>
        <time>2020-07-28T12:14:38.000Z</time>
      </trkpt>
      <trkpt lat="44.12531" lon="6.6895">
        <ele>2219.8</ele>
        <time>2020-07-28T12:14:43Z</time>
      </trkpt>
      <trkpt lat="44.12536" lon="6.6895">
        <ele>2220.1</ele>
        <time>2020-07-28T12:14:48.000Z</time>
      </trkpt>
      <trkpt lat="44.12541" lon="6.68949">
        <ele>2220.5</ele>
        <time>2020-07-28T12:14:53Z</time>
      </trkpt>
      <trkpt lat="44.12542" lon="6.68949">
        <ele>2220.6</ele>
        <time>2020-07-28T12:14:54Z</time>
      </trkpt>
      <trkpt lat="44.12547" lon="6.68951">
        <ele>2220.7</ele>
        <time>2020-07-28T12:14:59.000Z</time>
      </trkpt>
      <trkpt lat="44.12552" lon="6.68952">
        <ele>2221</ele>
        <time>2020-07-28T12:15:04Z</time>
      </trkpt>
      <trkpt lat="44.12559" lon="6.68948">
        <ele>2221.5</ele>
        <time>2020-07-28T12:15:12Z</time>
      </trkpt>
      <trkpt lat="44.12561" lon="6.68948">
        <ele>2221.4</ele>
        <time>2020-07-28T12:15:14Z</time>
      </trkpt>
      <trkpt lat="44.12567" lon="6.68945">
        <ele>2221.5</ele>
        <time>2020-07-28T12:15:20Z</time>
      </trkpt>
      <trkpt lat="44.12575" lon="6.68944">
        <ele>2221.4</ele>
        <time>2020-07-28T12:15:27Z</time>
      </trkpt>
      <trkpt lat="44.12582" lon="6.68943">
        <ele>2221.3</ele>
        <time>2020-07-28T12:15:34Z</time>
      </trkpt>
      <trkpt lat="44.12583" lon="6.68942">
        <ele>2221.4</ele>
        <time>2020-07-28T12:15:35Z</time>
      </trkpt>
      <trkpt lat="44.12586" lon="6.68939">
        <ele>2221.9</ele>
        <time>2020-07-28T12:15:39Z</time>
      </trkpt>
      <trkpt lat="44.12592" lon="6.68937">
        <ele>2221.9</ele>
        <time>2020-07-28T12:15:44.000Z</time>
      </trkpt>
      <trkpt lat="44.12597" lon="6.68934">
        <ele>2222.2</ele>
        <time>2020-07-28T12:15:49Z</time>
      </trkpt>
      <trkpt lat="44.12601" lon="6.68931">
        <ele>2222.5</ele>
        <time>2020-07-28T12:15:53.500Z</time>
      </trkpt>
      <trkpt lat="44.12605" lon="6.68928">
        <ele>2222.7</ele>
        <time>2020-07-28T12:15:58Z</time>
      </trkpt>
      <trkpt lat="44.12608" lon="6.68925">
        <ele>2223</ele>
        <time>2020-07-28T12:16:02Z</time>
      </trkpt>
      <trkpt lat="44.12613" lon="6.68925">
        <ele>2222.9</ele>
        <time>2020-07-28T12:16:06.000Z</time>
      </trkpt>
      <trkpt lat="44.12617" lon="6.68924">
        <ele>2223.2</ele>
        <time>2020-07-28T12:16:10Z</time>
      </trkpt>
      <trkpt lat="44.12625" lon="6.68925">
        <ele>2223.4</ele>
        <time>2020-07-28T12:16:18Z</time>
      </trkpt>
      <trkpt lat="44.12631" lon="6.68923">
        <ele>2224</ele>
        <time>2020-07-28T12:16:24Z</time>
      </trkpt>
      <trkpt lat="44.12634" lon="6.68923">
        <ele>2224.1</ele>
        <time>2020-07-28T12:16:27Z</time>
      </trkpt>
      <trkpt lat="44.12638" lon="6.68919">
        <ele>2224.7</ele>
        <time>2020-07-28T12:16:32Z</time>
      </trkpt>
      <trkpt lat="44.12642" lon="6.68919">
        <ele>2224.7</ele>
        <time>2020-07-28T12:16:42Z</time>
      </trkpt>
      <trkpt lat="44.12642" lon="6.68919">
        <ele>2224.7</ele>
        <time>2020-07-28T12:16:44Z</time>
      </trkpt>
      <trkpt lat="44.12645" lon="6.68916">
        <ele>2225.1</ele>
        <time>2020-07-28T12:16:47Z</time>
      </trkpt>
      <trkpt lat="44.12653" lon="6.68913">
        <ele>2225.5</ele>
        <time>2020-07-28T12:16:55Z</time>
      </trkpt>
      <trkpt lat="44.12659" lon="6.68909">
        <ele>2226</ele>
        <time>2020-07-28T12:17:01Z</time>
      </trkpt>
      <trkpt lat="44.12664" lon="6.68906">
        <ele>2226.2</ele>
        <time>2020-07-28T12:17:05.500Z</time>
      </trkpt>
      <trkpt lat="44.12668" lon="6.68902">
        <ele>2226.3</ele>
        <time>2020-07-28T12:17:10Z</time>
      </trkpt>
      <trkpt lat="44.12675" lon="6.68897">
        <ele>2225.2</ele>
        <time>2020-07-28T12:17:18Z</time>
      </trkpt>
      <trkpt lat="44.1268" lon="6.68894">
        <ele>2224.5</ele>
        <time>2020-07-28T12:17:22.500Z</time>
      </trkpt>
      <trkpt lat="44.12685" lon="6.68891">
        <ele>2223.8</ele>
        <time>2020-07-28T12:17:27Z</time>
      </trkpt>
      <trkpt lat="44.12688" lon="6.68886">
        <ele>2223.8</ele>
        <time>2020-07-28T12:17:35Z</time>
      </trkpt>
      <trkpt lat="44.12692" lon="6.68881">
        <ele>2223.7</ele>
        <time>2020-07-28T12:17:40.500Z</time>
      </trkpt>
      <trkpt lat="44.12696" lon="6.68876">
        <ele>2223.6</ele>
        <time>2020-07-28T12:17:46Z</time>
      </trkpt>
      <trkpt lat="44.127" lon="6.68873">
        <ele>2223.3</ele>
        <time>2020-07-28T12:17:50.000Z</time>
      </trkpt>
      <trkpt lat="44.12704" lon="6.6887">
        <ele>2223.1</ele>
        <time>2020-07-28T12:17:54Z</time>
      </trkpt>
      <trkpt lat="44.12709" lon="6.68866">
        <ele>2223</ele>
        <time>2020-07-28T12:17:59.000Z</time>
      </trkpt>
      <trkpt lat="44.12713" lon="6.68862">
        <ele>2223.2</ele>
        <time>2020-07-28T12:18:04Z</time>
      </trkpt>
      <trkpt lat="44.12718" lon="6.68859">
        <ele>2223.1</ele>
        <time>2020-07-28T12:18:09Z</time>
      </trkpt>
      <trkpt lat="44.12724" lon="6.68854">
        <ele>2223.1</ele>
        <time>2020-07-28T12:18:15.000Z</time>
      </trkpt>
      <trkpt lat="44.12729" lon="6.68848">
        <ele>2223.1</ele>
        <time>2020-07-28T12:18:21Z</time>
      </trkpt>
      <trkpt lat="44.12734" lon="6.68841">
        <ele>2223.6</ele>
        <time>2020-07-28T12:18:28Z</time>
      </trkpt>
      <trkpt lat="44.12738" lon="6.68838">
        <ele>2223.4</ele>
        <time>2020-07-28T12:18:33.000Z</time>
      </trkpt>
      <trkpt lat="44.12742" lon="6.68835">
        <ele>2223.3</ele>
        <time>2020-07-28T12:18:38Z</time>
      </trkpt>
      <trkpt lat="44.12744" lon="6.68831">
        <ele>2224</ele>
        <time>2020-07-28T12:18:47Z</time>
      </trkpt>
      <trkpt lat="44.12751" lon="6.68826">
        <ele>2224.3</ele>
        <time>2020-07-28T12:18:55Z</time>
      </trkpt>
      <trkpt lat="44.12755" lon="6.68823">
        <ele>2225.1</ele>
        <time>2020-07-28T12:19:00Z</time>
      </trkpt>
      <trkpt lat="44.12757" lon="6.68823">
        <ele>2224.9</ele>
        <time>2020-07-28T12:19:02Z</time>
      </trkpt>
      <trkpt lat="44.12765" lon="6.68823">
        <ele>2224.5</ele>
        <time>2020-07-28T12:19:09Z</time>
      </trkpt>
      <trkpt lat="44.12769" lon="6.68822">
        <ele>2224.6</ele>
        <time>2020-07-28T12:19:14Z</time>
      </trkpt>
      <trkpt lat="44.12776" lon="6.68817">
        <ele>2226</ele>
        <time>2020-07-28T12:19:23Z</time>
      </trkpt>
      <trkpt lat="44.12779" lon="6.68816">
        <ele>2226.2</ele>
        <time>2020-07-28T12:19:26Z</time>
      </trkpt>
      <trkpt lat="44.12784" lon="6.68814">
        <ele>2226.6</ele>
        <time>2020-07-28T12:19:32Z</time>
      </trkpt>
      <trkpt lat="44.1279" lon="6.68811">
        <ele>2227.2</ele>
        <time>2020-07-28T12:19:39Z</time>
      </trkpt>
      <trkpt lat="44.12795" lon="6.68811">
        <ele>2226.9</ele>
        <time>2020-07-28T12:19:47Z</time>
      </trkpt>
      <trkpt lat="44.12795" lon="6.68812">
        <ele>2226.6</ele>
        <time>2020-07-28T12:19:51Z</time>
      </trkpt>
      <trkpt lat="44.128" lon="6.6881">
        <ele>2226.9</ele>
        <time>2020-07-28T12:19:58Z</time>
      </trkpt>
      <trkpt lat="44.12803" lon="6.68805">
        <ele>2228.3</ele>
        <time>2020-07-28T12:20:06Z</time>
      </trkpt>
      <trkpt lat="44.12806" lon="6.68801">
        <ele>2229.2</ele>
        <time>2020-07-28T12:20:15Z</time>
      </trkpt>
      <trkpt lat="44.12808" lon="6.68797">
        <ele>2229.6</ele>
        <time>2020-07-28T12:20:22Z</time>
      </trkpt>
      <trkpt lat="44.12812" lon="6.68791">
        <ele>2230.1</ele>
        <time>2020-07-28T12:20:31Z</time>
      </trkpt>
      <trkpt lat="44.12814" lon="6.68785">
        <ele>2231.3</ele>
        <time>2020-07-28T12:20:38Z</time>
      </trkpt>
      <trkpt lat="44.12815" lon="6.68783">
        <ele>2231.6</ele>
        <time>2020-07-28T12:20:40Z</time>
      </trkpt>
      <trkpt lat="44.12819" lon="6.68775">
        <ele>2233.2</ele>
        <time>2020-07-28T12:20:48Z</time>
      </trkpt>
      <trkpt lat="44.12823" lon="6.68771">
        <ele>2233.7</ele>
        <time>2020-07-28T12:20:53.500Z</time>
      </trkpt>
      <trkpt lat="44.12827" lon="6.68766">
        <ele>2234.7</ele>
        <time>2020-07-28T12:20:59Z</time>
      </trkpt>
      <trkpt lat="44.12829" lon="6.68766">
        <ele>2234.2</ele>
        <time>2020-07-28T12:21:02Z</time>
      </trkpt>
      <trkpt lat="44.12833" lon="6.68764">
        <ele>2234</ele>
        <time>2020-07-28T12:21:06Z</time>
      </trkpt>
      <trkpt lat="44.12836" lon="6.68763">
        <ele>2234.3</ele>
        <time>2020-07-28T12:21:10Z</time>
      </trkpt>
      <trkpt lat="44.12843" lon="6.68766">
        <ele>2232.8</ele>
        <time>2020-07-28T12:21:18Z</time>
      </trkpt>
      <trkpt lat="44.12846" lon="6.68766">
        <ele>2232.8</ele>
        <time>2020-07-28T12:21:22Z</time>
      </trkpt>
      <trkpt lat="44.12853" lon="6.68767">
        <ele>2232.3</ele>
        <time>2020-07-28T12:21:30Z</time>
      </trkpt>
      <trkpt lat="44.12854" lon="6.68768">
        <ele>2231.9</ele>
        <time>2020-07-28T12:21:40Z</time>
      </trkpt>
      <trkpt lat="44.12856" lon="6.68768">
        <ele>2231.9</ele>
        <time>2020-07-28T12:21:42Z</time>
      </trkpt>
      <trkpt lat="44.12863" lon="6.68766">
        <ele>2232.2</ele>
        <time>2020-07-28T12:21:50Z</time>
      </trkpt>
      <trkpt lat="44.1287" lon="6.68766">
        <ele>2231.5</ele>
        <time>2020-07-28T12:21:58Z</time>
      </trkpt>
      <trkpt lat="44.12875" lon="6.68765">
        <ele>2231.2</ele>
        <time>2020-07-28T12:22:02Z</time>
      </trkpt>
      <trkpt lat="44.1288" lon="6.68763">
        <ele>2231.2</ele>
        <time>2020-07-28T12:22:10Z</time>
      </trkpt>
      <trkpt lat="44.12883" lon="6.68761">
        <ele>2231.3</ele>
        <time>2020-07-28T12:22:13Z</time>
      </trkpt>
      <trkpt lat="44.12887" lon="6.6876">
        <ele>2231.1</ele>
        <time>2020-07-28T12:22:18Z</time>
      </trkpt>
      <trkpt lat="44.12895" lon="6.68759">
        <ele>2229.5</ele>
        <time>2020-07-28T12:22:27Z</time>
      </trkpt>
      <trkpt lat="44.12901" lon="6.68757">
        <ele>2228.4</ele>
        <time>2020-07-28T12:22:34Z</time>
      </trkpt>
      <trkpt lat="44.12907" lon="6.68757">
        <ele>2226.9</ele>
        <time>2020-07-28T12:22:41Z</time>
      </trkpt>
      <trkpt lat="44.12911" lon="6.68758">
        <ele>2225.7</ele>
        <time>2020-07-28T12:22:46Z</time>
      </trkpt>
      <trkpt lat="44.12915" lon="6.6876">
        <ele>2224.3</ele>
        <time>2020-07-28T12:22:53Z</time>
      </trkpt>
      <trkpt lat="44.12917" lon="6.68761">
        <ele>2223.6</ele>
        <time>2020-07-28T12:22:59Z</time>
      </trkpt>
      <trkpt lat="44.12921" lon="6.68758">
        <ele>2223.5</ele>
        <time>2020-07-28T12:23:03Z</time>
      </trkpt>
      <trkpt lat="44.12927" lon="6.68755">
        <ele>2223.1</ele>
        <time>2020-07-28T12:23:11Z</time>
      </trkpt>
      <trkpt lat="44.12928" lon="6.68754">
        <ele>2223.1</ele>
        <time>2020-07-28T12:23:13Z</time>
      </trkpt>
      <trkpt lat="44.12933" lon="6.68753">
        <ele>2222.4</ele>
        <time>2020-07-28T12:23:18Z</time>
      </trkpt>
      <trkpt lat="44.12937" lon="6.68753">
        <ele>2221.7</ele>
        <time>2020-07-28T12:23:22Z</time>
      </trkpt>
      <trkpt lat="44.12942" lon="6.68753">
        <ele>2220.8</ele>
        <time>2020-07-28T12:23:26.500Z</time>
      </trkpt>
      <trkpt lat="44.12947" lon="6.68752">
        <ele>2220.1</ele>
        <time>2020-07-28T12:23:31Z</time>
      </trkpt>
      <trkpt lat="44.12948" lon="6.68752">
        <ele>2219.9</ele>
        <time>2020-07-28T12:23:35Z</time>
      </trkpt>
      <trkpt lat="44.12953" lon="6.68751">
        <ele>2219.2</ele>
        <time>2020-07-28T12:23:40Z</time>
      </trkpt>
      <trkpt lat="44.12957" lon="6.68751">
        <ele>2218.5</ele>
        <time>2020-07-28T12:23:43Z</time>
      </trkpt>
      <trkpt lat="44.12963" lon="6.68749">
        <ele>2217.9</ele>
        <time>2020-07-28T12:23:51Z</time>
      </trkpt>
      <trkpt lat="44.12967" lon="6.68747">
        <ele>2217.8</ele>
        <time>2020-07-28T12:23:58Z</time>
      </trkpt>
      <trkpt lat="44.12969" lon="6.68746">
        <ele>2217.7</ele>
        <time>2020-07-28T12:24:00Z</time>
      </trkpt>
      <trkpt lat="44.12975" lon="6.68745">
        <ele>2217.1</ele>
        <time>2020-07-28T12:24:05.000Z</time>
      </trkpt>
      <trkpt lat="44.1298" lon="6.68744">
        <ele>2216.8</ele>
        <time>2020-07-28T12:24:10Z</time>
      </trkpt>
      <trkpt lat="44.12986" lon="6.68743">
        <ele>2216.4</ele>
        <time>2020-07-28T12:24:15.000Z</time>
      </trkpt>
      <trkpt lat="44.12991" lon="6.68742">
        <ele>2216.1</ele>
        <time>2020-07-28T12:24:20Z</time>
      </trkpt>
      <trkpt lat="44.12997" lon="6.68741">
        <ele>2215.6</ele>
        <time>2020-07-28T12:24:25.000Z</time>
      </trkpt>
      <trkpt lat="44.13002" lon="6.6874">
        <ele>2215.2</ele>
        <time>2020-07-28T12:24:30Z</time>
      </trkpt>
      <trkpt lat="44.13005" lon="6.68739">
        <ele>2215</ele>
        <time>2020-07-28T12:24:37Z</time>
      </trkpt>
      <trkpt lat="44.13009" lon="6.68736">
        <ele>2215.1</ele>
        <time>2020-07-28T12:24:45Z</time>
      </trkpt>
      <trkpt lat="44.1301" lon="6.68737">
        <ele>2214.7</ele>
        <time>2020-07-28T12:24:51Z</time>
      </trkpt>
      <trkpt lat="44.1301" lon="6.68736">
        <ele>2214.9</ele>
        <time>2020-07-28T12:25:01Z</time>
      </trkpt>
      <trkpt lat="44.1301" lon="6.68736">
        <ele>2214.9</ele>
        <time>2020-07-28T12:25:12Z</time>
      </trkpt>
      <trkpt lat="44.13011" lon="6.68735">
        <ele>2215</ele>
        <time>2020-07-28T12:25:19Z</time>
      </trkpt>
      <trkpt lat="44.13011" lon="6.68735">
        <ele>2215</ele>
        <time>2020-07-28T12:25:36Z</time>
      </trkpt>
      <trkpt lat="44.13011" lon="6.68735">
        <ele>2215</ele>
        <time>2020-07-28T12:25:55Z</time>
      </trkpt>
      <trkpt lat="44.13011" lon="6.68735">
        <ele>2215</ele>
        <time>2020-07-28T12:26:09Z</time>
      </trkpt>
      <trkpt lat="44.13011" lon="6.68735">
        <ele>2215</ele>
        <time>2020-07-28T12:26:27Z</time>
      </trkpt>
      <trkpt lat="44.13011" lon="6.68735">
        <ele>2215</ele>
        <time>2020-07-28T12:26:41Z</time>
      </trkpt>
      <trkpt lat="44.13013" lon="6.68735">
        <ele>2214.7</ele>
        <time>2020-07-28T12:26:52Z</time>
      </trkpt>
      <trkpt lat="44.13014" lon="6.68735">
        <ele>2214.5</ele>
        <time>2020-07-28T12:26:57Z</time>
      </trkpt>
      <trkpt lat="44.13016" lon="6.68735">
        <ele>2214.2</ele>
        <time>2020-07-28T12:27:05Z</time>
      </trkpt>
      <trkpt lat="44.13018" lon="6.68734">
        <ele>2214.1</ele>
        <time>2020-07-28T12:27:12Z</time>
      </trkpt>
      <trkpt lat="44.13023" lon="6.68731">
        <ele>2213.9</ele>
        <time>2020-07-28T12:27:19Z</time>
      </trkpt>
      <trkpt lat="44.13031" lon="6.68728">
        <ele>2213.2</ele>
        <time>2020-07-28T12:27:28Z</time>
      </trkpt>
      <trkpt lat="44.13032" lon="6.68728">
        <ele>2213</ele>
        <time>2020-07-28T12:27:29Z</time>
      </trkpt>
      <trkpt lat="44.13038" lon="6.68725">
        <ele>2212.6</ele>
        <time>2020-07-28T12:27:34.500Z</time>
      </trkpt>
      <trkpt lat="44.13043" lon="6.68721">
        <ele>2212.5</ele>
        <time>2020-07-28T12:27:40Z</time>
      </trkpt>
      <trkpt lat="44.13046" lon="6.68718">
        <ele>2212.5</ele>
        <time>2020-07-28T12:27:44Z</time>
      </trkpt>
      <trkpt lat="44.13049" lon="6.68718">
        <ele>2211.9</ele>
        <time>2020-07-28T12:27:46Z</time>
      </trkpt>
      <trkpt lat="44.13054" lon="6.68716">
        <ele>2211.4</ele>
        <time>2020-07-28T12:27:54Z</time>
      </trkpt>
      <trkpt lat="44.13054" lon="6.68716">
        <ele>2211.4</ele>
        <time>2020-07-28T12:28:05Z</time>
      </trkpt>
      <trkpt lat="44.13054" lon="6.68717">
        <ele>2211.2</ele>
        <time>2020-07-28T12:28:12Z</time>
      </trkpt>
      <trkpt lat="44.13055" lon="6.68717">
        <ele>2211</ele>
        <time>2020-07-28T12:28:24Z</time>
      </trkpt>
      <trkpt lat="44.13057" lon="6.68716">
        <ele>2210.8</ele>
        <time>2020-07-28T12:28:33Z</time>
      </trkpt>
      <trkpt lat="44.13058" lon="6.68714">
        <ele>2210.9</ele>
        <time>2020-07-28T12:28:44Z</time>
      </trkpt>
      <trkpt lat="44.13062" lon="6.68711">
        <ele>2210.6</ele>
        <time>2020-07-28T12:28:48.500Z</time>
      </trkpt>
      <trkpt lat="44.13066" lon="6.68708">
        <ele>2210.3</ele>
        <time>2020-07-28T12:28:53Z</time>
      </trkpt>
      <trkpt lat="44.13074" lon="6.68703">
        <ele>2209.7</ele>
        <time>2020-07-28T12:29:01Z</time>
      </trkpt>
      <trkpt lat="44.13077" lon="6.68699">
        <ele>2210.1</ele>
        <time>2020-07-28T12:29:05Z</time>
      </trkpt>
      <trkpt lat="44.13083" lon="6.68694">
        <ele>2210.2</ele>
        <time>2020-07-28T12:29:14Z</time>
      </trkpt>
      <trkpt lat="44.13085" lon="6.68692">
        <ele>2209.8</ele>
        <time>2020-07-28T12:29:22Z</time>
      </trkpt>
      <trkpt lat="44.13085" lon="6.68691">
        <ele>2210</ele>
        <time>2020-07-28T12:29:40Z</time>
      </trkpt>
      <trkpt lat="44.13088" lon="6.68684">
        <ele>2210.3</ele>
        <time>2020-07-28T12:29:49Z</time>
      </trkpt>
      <trkpt lat="44.13094" lon="6.68679">
        <ele>2209.2</ele>
        <time>2020-07-28T12:29:57Z</time>
      </trkpt>
      <trkpt lat="44.13099" lon="6.68679">
        <ele>2207.3</ele>
        <time>2020-07-28T12:30:05Z</time>
      </trkpt>
      <trkpt lat="44.13102" lon="6.68674">
        <ele>2207.7</ele>
        <time>2020-07-28T12:30:13Z</time>
      </trkpt>
      <trkpt lat="44.13105" lon="6.68673">
        <ele>2206.9</ele>
        <time>2020-07-28T12:30:19Z</time>
      </trkpt>
      <trkpt lat="44.13113" lon="6.68671">
        <ele>2204.5</ele>
        <time>2020-07-28T12:30:27Z</time>
      </trkpt>
      <trkpt lat="44.13114" lon="6.6867">
        <ele>2204.3</ele>
        <time>2020-07-28T12:30:35Z</time>
      </trkpt>
      <trkpt lat="44.13119" lon="6.68668">
        <ele>2202.5</ele>
        <time>2020-07-28T12:30:40.500Z</time>
      </trkpt>
      <trkpt lat="44.13124" lon="6.68665">
        <ele>2200.9</ele>
        <time>2020-07-28T12:30:46Z</time>
      </trkpt>
      <trkpt lat="44.13128" lon="6.68661">
        <ele>2199.9</ele>
        <time>2020-07-28T12:30:51.500Z</time>
      </trkpt>
      <trkpt lat="44.13131" lon="6.68656">
        <ele>2199.7</ele>
        <time>2020-07-28T12:30:57Z</time>
      </trkpt>
      <trkpt lat="44.13137" lon="6.68648">
        <ele>2198.7</ele>
        <time>2020-07-28T12:31:06Z</time>
      </trkpt>
      <trkpt lat="44.13137" lon="6.68647">
        <ele>2198.9</ele>
        <time>2020-07-28T12:31:07Z</time>
      </trkpt>
      <trkpt lat="44.13143" lon="6.68639">
        <ele>2197.5</ele>
        <time>2020-07-28T12:31:16Z</time>
      </trkpt>
      <trkpt lat="44.13148" lon="6.68638">
        <ele>2194.7</ele>
        <time>2020-07-28T12:31:23Z</time>
      </trkpt>
      <trkpt lat="44.13152" lon="6.68634">
        <ele>2193.7</ele>
        <time>2020-07-28T12:31:30Z</time>
      </trkpt>
      <trkpt lat="44.13154" lon="6.6863">
        <ele>2194</ele>
        <time>2020-07-28T12:31:38Z</time>
      </trkpt>
      <trkpt lat="44.13156" lon="6.68628">
        <ele>2193.5</ele>
        <time>2020-07-28T12:31:48Z</time>
      </trkpt>
      <trkpt lat="44.13158" lon="6.68625">
        <ele>2193.5</ele>
        <time>2020-07-28T12:31:51Z</time>
      </trkpt>
      <trkpt lat="44.13162" lon="6.68619">
        <ele>2193.5</ele>
        <time>2020-07-28T12:31:56.500Z</time>
      </trkpt>
      <trkpt lat="44.13166" lon="6.68613">
        <ele>2193.6</ele>
        <time>2020-07-28T12:32:02Z</time>
      </trkpt>
      <trkpt lat="44.13172" lon="6.68608">
        <ele>2193.5</ele>
        <time>2020-07-28T12:32:11Z</time>
      </trkpt>
      <trkpt lat="44.13179" lon="6.68605">
        <ele>2192.6</ele>
        <time>2020-07-28T12:32:20Z</time>
      </trkpt>
      <trkpt lat="44.13182" lon="6.68604">
        <ele>2192.1</ele>
        <time>2020-07-28T12:32:27Z</time>
      </trkpt>
      <trkpt lat="44.13187" lon="6.68605">
        <ele>2190.2</ele>
        <time>2020-07-28T12:32:34Z</time>
      </trkpt>
      <trkpt lat="44.13194" lon="6.68605">
        <ele>2188</ele>
        <time>2020-07-28T12:32:42Z</time>
      </trkpt>
      <trkpt lat="44.13199" lon="6.68601">
        <ele>2188.8</ele>
        <time>2020-07-28T12:32:50Z</time>
      </trkpt>
      <trkpt lat="44.132" lon="6.686">
        <ele>2189</ele>
        <time>2020-07-28T12:33:01Z</time>
      </trkpt>
      <trkpt lat="44.132" lon="6.68599">
        <ele>2189.5</ele>
        <time>2020-07-28T12:33:13Z</time>
      </trkpt>
      <trkpt lat="44.13201" lon="6.68599">
        <ele>2189.3</ele>
        <time>2020-07-28T12:33:24Z</time>
      </trkpt>
      <trkpt lat="44.13201" lon="6.68599">
        <ele>2189.3</ele>
        <time>2020-07-28T12:33:39Z</time>
      </trkpt>
      <trkpt lat="44.13202" lon="6.68599">
        <ele>2189.1</ele>
        <time>2020-07-28T12:33:45Z</time>
      </trkpt>
      <trkpt lat="44.13204" lon="6.68601">
        <ele>2187.8</ele>
        <time>2020-07-28T12:33:48Z</time>
      </trkpt>
      <trkpt lat="44.13209" lon="6.68601">
        <ele>2186.7</ele>
        <time>2020-07-28T12:33:53.000Z</time>
      </trkpt>
      <trkpt lat="44.13213" lon="6.686">
        <ele>2186.3</ele>
        <time>2020-07-28T12:33:58Z</time>
      </trkpt>
      <trkpt lat="44.13221" lon="6.68599">
        <ele>2185.1</ele>
        <time>2020-07-28T12:34:08Z</time>
      </trkpt>
      <trkpt lat="44.13227" lon="6.686">
        <ele>2183</ele>
        <time>2020-07-28T12:34:16Z</time>
      </trkpt>
      <trkpt lat="44.13229" lon="6.68599">
        <ele>2182.8</ele>
        <time>2020-07-28T12:34:18Z</time>
      </trkpt>
      <trkpt lat="44.13237" lon="6.68597">
        <ele>2181.3</ele>
        <time>2020-07-28T12:34:28Z</time>
      </trkpt>
      <trkpt lat="44.13244" lon="6.68594">
        <ele>2180.5</ele>
        <time>2020-07-28T12:34:37Z</time>
      </trkpt>
      <trkpt lat="44.13249" lon="6.68591">
        <ele>2180.3</ele>
        <time>2020-07-28T12:34:42.000Z</time>
      </trkpt>
      <trkpt lat="44.13253" lon="6.68587">
        <ele>2180.5</ele>
        <time>2020-07-28T12:34:47Z</time>
      </trkpt>
      <trkpt lat="44.13253" lon="6.68588">
        <ele>2180.1</ele>
        <time>2020-07-28T12:34:55Z</time>
      </trkpt>
      <trkpt lat="44.13256" lon="6.68586">
        <ele>2180</ele>
        <time>2020-07-28T12:35:06Z</time>
      </trkpt>
      <trkpt lat="44.13262" lon="6.68581">
        <ele>2179.8</ele>
        <time>2020-07-28T12:35:15Z</time>
      </trkpt>
      <trkpt lat="44.13268" lon="6.6858">
        <ele>2178.1</ele>
        <time>2020-07-28T12:35:23Z</time>
      </trkpt>
      <trkpt lat="44.13275" lon="6.68577">
        <ele>2176.5</ele>
        <time>2020-07-28T12:35:31Z</time>
      </trkpt>
      <trkpt lat="44.13279" lon="6.68574">
        <ele>2175.8</ele>
        <time>2020-07-28T12:35:36.000Z</time>
      </trkpt>
      <trkpt lat="44.13283" lon="6.68571">
        <ele>2174.9</ele>
        <time>2020-07-28T12:35:41Z</time>
      </trkpt>
      <trkpt lat="44.1329" lon="6.68565">
        <ele>2173.6</ele>
        <time>2020-07-28T12:35:50Z</time>
      </trkpt>
      <trkpt lat="44.13296" lon="6.68562">
        <ele>2172</ele>
        <time>2020-07-28T12:35:59Z</time>
      </trkpt>
      <trkpt lat="44.13298" lon="6.68562">
        <ele>2171.2</ele>
        <time>2020-07-28T12:36:09Z</time>
      </trkpt>
      <trkpt lat="44.133" lon="6.68562">
        <ele>2170.4</ele>
        <time>2020-07-28T12:36:11Z</time>
      </trkpt>
      <trkpt lat="44.13304" lon="6.6856">
        <ele>2169.3</ele>
        <time>2020-07-28T12:36:18Z</time>
      </trkpt>
      <trkpt lat="44.1331" lon="6.68555">
        <ele>2168.3</ele>
        <time>2020-07-28T12:36:27Z</time>
      </trkpt>
      <trkpt lat="44.13315" lon="6.68552">
        <ele>2167</ele>
        <time>2020-07-28T12:36:34Z</time>
      </trkpt>
      <trkpt lat="44.13316" lon="6.68552">
        <ele>2166.6</ele>
        <time>2020-07-28T12:36:35Z</time>
      </trkpt>
      <trkpt lat="44.13323" lon="6.68545">
        <ele>2165.6</ele>
        <time>2020-07-28T12:36:45Z</time>
      </trkpt>
      <trkpt lat="44.13326" lon="6.68543">
        <ele>2164.9</ele>
        <time>2020-07-28T12:36:51Z</time>
      </trkpt>
      <trkpt lat="44.13329" lon="6.6854">
        <ele>2164.4</ele>
        <time>2020-07-28T12:36:55Z</time>
      </trkpt>
      <trkpt lat="44.13336" lon="6.68535">
        <ele>2162.7</ele>
        <time>2020-07-28T12:37:04Z</time>
      </trkpt>
      <trkpt lat="44.1334" lon="6.68532">
        <ele>2161.8</ele>
        <time>2020-07-28T12:37:12Z</time>
      </trkpt>
      <trkpt lat="44.13341" lon="6.68532">
        <ele>2161.3</ele>
        <time>2020-07-28T12:37:13Z</time>
      </trkpt>
      <trkpt lat="44.13346" lon="6.68526">
        <ele>2161</ele>
        <time>2020-07-28T12:37:22Z</time>
      </trkpt>
      <trkpt lat="44.13346" lon="6.68526">
        <ele>2161</ele>
        <time>2020-07-28T12:37:34Z</time>
      </trkpt>
      <trkpt lat="44.13346" lon="6.68526">
        <ele>2161</ele>
        <time>2020-07-28T12:37:47Z</time>
      </trkpt>
      <trkpt lat="44.13346" lon="6.68526">
        <ele>2161</ele>
        <time>2020-07-28T12:38:04Z</time>
      </trkpt>
      <trkpt lat="44.13346" lon="6.68526">
        <ele>2161</ele>
        <time>2020-07-28T12:38:22Z</time>
      </trkpt>
      <trkpt lat="44.13346" lon="6.68525">
        <ele>2161.2</ele>
        <time>2020-07-28T12:38:39Z</time>
      </trkpt>
      <trkpt lat="44.13346" lon="6.68525">
        <ele>2161.2</ele>
        <time>2020-07-28T12:38:55Z</time>
      </trkpt>
      <trkpt lat="44.13346" lon="6.68525">
        <ele>2161.2</ele>
        <time>2020-07-28T12:39:07Z</time>
      </trkpt>
      <trkpt lat="44.13346" lon="6.68525">
        <ele>2161.2</ele>
        <time>2020-07-28T12:39:24Z</time>
      </trkpt>
      <trkpt lat="44.13346" lon="6.68525">
        <ele>2161.2</ele>
        <time>2020-07-28T12:39:42Z</time>
      </trkpt>
      <trkpt lat="44.13347" lon="6.68525">
        <ele>2160.8</ele>
        <time>2020-07-28T12:39:59Z</time>
      </trkpt>
      <trkpt lat="44.13347" lon="6.68525">
        <ele>2160.8</ele>
        <time>2020-07-28T12:40:12Z</time>
      </trkpt>
      <trkpt lat="44.13347" lon="6.68525">
        <ele>2160.8</ele>
        <time>2020-07-28T12:40:22Z</time>
      </trkpt>
      <trkpt lat="44.13347" lon="6.68525">
        <ele>2160.8</ele>
        <time>2020-07-28T12:40:34Z</time>
      </trkpt>
      <trkpt lat="44.13347" lon="6.68525">
        <ele>2160.8</ele>
        <time>2020-07-28T12:40:49Z</time>
      </trkpt>
      <trkpt lat="44.13347" lon="6.68525">
        <ele>2160.8</ele>
        <time>2020-07-28T12:41:03Z</time>
      </trkpt>
      <trkpt lat="44.13347" lon="6.68524">
        <ele>2161</ele>
        <time>2020-07-28T12:41:13Z</time>
      </trkpt>
      <trkpt lat="44.13348" lon="6.68524">
        <ele>2160.6</ele>
        <time>2020-07-28T12:41:26Z</time>
      </trkpt>
      <trkpt lat="44.13348" lon="6.68524">
        <ele>2160.6</ele>
        <time>2020-07-28T12:41:40Z</time>
      </trkpt>
      <trkpt lat="44.13348" lon="6.68524">
        <ele>2160.6</ele>
        <time>2020-07-28T12:41:56Z</time>
      </trkpt>
      <trkpt lat="44.13348" lon="6.68524">
        <ele>2160.6</ele>
        <time>2020-07-28T12:42:09Z</time>
      </trkpt>
      <trkpt lat="44.13349" lon="6.68524">
        <ele>2160.2</ele>
        <time>2020-07-28T12:42:27Z</time>
      </trkpt>
      <trkpt lat="44.13349" lon="6.68525">
        <ele>2159.9</ele>
        <time>2020-07-28T12:42:43Z</time>
      </trkpt>
      <trkpt lat="44.1335" lon="6.68525">
        <ele>2159.5</ele>
        <time>2020-07-28T12:42:57Z</time>
      </trkpt>
      <trkpt lat="44.13351" lon="6.68524">
        <ele>2159.3</ele>
        <time>2020-07-28T12:43:08Z</time>
      </trkpt>
      <trkpt lat="44.13351" lon="6.68524">
        <ele>2159.3</ele>
        <time>2020-07-28T12:43:21Z</time>
      </trkpt>
      <trkpt lat="44.1335" lon="6.68524">
        <ele>2159.8</ele>
        <time>2020-07-28T12:43:34Z</time>
      </trkpt>
      <trkpt lat="44.1335" lon="6.68524">
        <ele>2159.8</ele>
        <time>2020-07-28T12:43:47Z</time>
      </trkpt>
      <trkpt lat="44.1335" lon="6.68524">
        <ele>2159.8</ele>
        <time>2020-07-28T12:44:06Z</time>
      </trkpt>
      <trkpt lat="44.13351" lon="6.68524">
        <ele>2159.3</ele>
        <time>2020-07-28T12:44:19Z</time>
      </trkpt>
      <trkpt lat="44.13351" lon="6.68524">
        <ele>2159.3</ele>
        <time>2020-07-28T12:44:32Z</time>
      </trkpt>
      <trkpt lat="44.13351" lon="6.68524">
        <ele>2159.3</ele>
        <time>2020-07-28T12:44:43Z</time>
      </trkpt>
      <trkpt lat="44.13351" lon="6.68524">
        <ele>2159.3</ele>
        <time>2020-07-28T12:44:59Z</time>
      </trkpt>
      <trkpt lat="44.13351" lon="6.68524">
        <ele>2159.3</ele>
        <time>2020-07-28T12:45:11Z</time>
      </trkpt>
      <trkpt lat="44.13352" lon="6.68523">
        <ele>2159.1</ele>
        <time>2020-07-28T12:45:23Z</time>
      </trkpt>
      <trkpt lat="44.13351" lon="6.68524">
        <ele>2159.3</ele>
        <time>2020-07-28T12:45:28Z</time>
      </trkpt>
      <trkpt lat="44.13351" lon="6.68523">
        <ele>2159.6</ele>
        <time>2020-07-28T12:45:43Z</time>
      </trkpt>
      <trkpt lat="44.13351" lon="6.68523">
        <ele>2159.6</ele>
        <time>2020-07-28T12:45:53Z</time>
      </trkpt>
      <trkpt lat="44.13351" lon="6.68524">
        <ele>2159.3</ele>
        <time>2020-07-28T12:46:06Z</time>
      </trkpt>
      <trkpt lat="44.13351" lon="6.68524">
        <ele>2159.3</ele>
        <time>2020-07-28T12:46:16Z</time>
      </trkpt>
      <trkpt lat="44.13351" lon="6.68524">
        <ele>2159.3</ele>
        <time>2020-07-28T12:46:28Z</time>
      </trkpt>
      <trkpt lat="44.13351" lon="6.68524">
        <ele>2159.3</ele>
        <time>2020-07-28T12:46:44Z</time>
      </trkpt>
      <trkpt lat="44.13351" lon="6.68524">
        <ele>2159.3</ele>
        <time>2020-07-28T12:46:56Z</time>
      </trkpt>
      <trkpt lat="44.13351" lon="6.68524">
        <ele>2159.3</ele>
        <time>2020-07-28T12:47:11Z</time>
      </trkpt>
      <trkpt lat="44.13351" lon="6.68524">
        <ele>2159.3</ele>
        <time>2020-07-28T12:47:20Z</time>
      </trkpt>
      <trkpt lat="44.13351" lon="6.68524">
        <ele>2159.3</ele>
        <time>2020-07-28T12:47:29Z</time>
      </trkpt>
      <trkpt lat="44.13351" lon="6.68524">
        <ele>2159.3</ele>
        <time>2020-07-28T12:47:47Z</time>
      </trkpt>
      <trkpt lat="44.13351" lon="6.68524">
        <ele>2159.3</ele>
        <time>2020-07-28T12:48:02Z</time>
      </trkpt>
      <trkpt lat="44.13351" lon="6.68524">
        <ele>2159.3</ele>
        <time>2020-07-28T12:48:15Z</time>
      </trkpt>
      <trkpt lat="44.13351" lon="6.68524">
        <ele>2159.3</ele>
        <time>2020-07-28T12:48:26Z</time>
      </trkpt>
      <trkpt lat="44.13351" lon="6.68524">
        <ele>2159.3</ele>
        <time>2020-07-28T12:48:37Z</time>
      </trkpt>
      <trkpt lat="44.13351" lon="6.68523">
        <ele>2159.6</ele>
        <time>2020-07-28T12:48:54Z</time>
      </trkpt>
      <trkpt lat="44.13351" lon="6.68523">
        <ele>2159.6</ele>
        <time>2020-07-28T12:49:11Z</time>
      </trkpt>
      <trkpt lat="44.13351" lon="6.68523">
        <ele>2159.6</ele>
        <time>2020-07-28T12:49:31Z</time>
      </trkpt>
      <trkpt lat="44.13351" lon="6.68524">
        <ele>2159.3</ele>
        <time>2020-07-28T12:49:45Z</time>
      </trkpt>
      <trkpt lat="44.13352" lon="6.68523">
        <ele>2159.1</ele>
        <time>2020-07-28T12:49:59Z</time>
      </trkpt>
      <trkpt lat="44.13358" lon="6.68517">
        <ele>2158.1</ele>
        <time>2020-07-28T12:50:08Z</time>
      </trkpt>
      <trkpt lat="44.13365" lon="6.68515">
        <ele>2155.5</ele>
        <time>2020-07-28T12:50:18Z</time>
      </trkpt>
      <trkpt lat="44.1337" lon="6.68513">
        <ele>2153.7</ele>
        <time>2020-07-28T12:50:23.500Z</time>
      </trkpt>
      <trkpt lat="44.13374" lon="6.6851">
        <ele>2152.7</ele>
        <time>2020-07-28T12:50:29Z</time>
      </trkpt>
      <trkpt lat="44.13374" lon="6.6851">
        <ele>2152.7</ele>
        <time>2020-07-28T12:50:42Z</time>
      </trkpt>
      <trkpt lat="44.13375" lon="6.68509">
        <ele>2152.6</ele>
        <time>2020-07-28T12:50:48Z</time>
      </trkpt>
      <trkpt lat="44.13379" lon="6.68506">
        <ele>2151.6</ele>
        <time>2020-07-28T12:50:57Z</time>
      </trkpt>
      <trkpt lat="44.13379" lon="6.68506">
        <ele>2151.6</ele>
        <time>2020-07-28T12:51:08Z</time>
      </trkpt>
      <trkpt lat="44.1338" lon="6.68505">
        <ele>2151.5</ele>
        <time>2020-07-28T12:51:21Z</time>
      </trkpt>
      <trkpt lat="44.13386" lon="6.68498">
        <ele>2150.6</ele>
        <time>2020-07-28T12:51:30Z</time>
      </trkpt>
      <trkpt lat="44.13391" lon="6.68493">
        <ele>2149.4</ele>
        <time>2020-07-28T12:51:38Z</time>
      </trkpt>
      <trkpt lat="44.13396" lon="6.68488">
        <ele>2148.2</ele>
        <time>2020-07-28T12:51:46Z</time>
      </trkpt>
      <trkpt lat="44.13401" lon="6.68483">
        <ele>2147.1</ele>
        <time>2020-07-28T12:51:55Z</time>
      </trkpt>
      <trkpt lat="44.13408" lon="6.68478">
        <ele>2145.2</ele>
        <time>2020-07-28T12:52:04Z</time>
      </trkpt>
      <trkpt lat="44.13413" lon="6.68471">
        <ele>2144.7</ele>
        <time>2020-07-28T12:52:13Z</time>
      </trkpt>
      <trkpt lat="44.1342" lon="6.68468">
        <ele>2142.3</ele>
        <time>2020-07-28T12:52:22Z</time>
      </trkpt>
      <trkpt lat="44.13425" lon="6.68463">
        <ele>2141.2</ele>
        <time>2020-07-28T12:52:30Z</time>
      </trkpt>
      <trkpt lat="44.13429" lon="6.68459">
        <ele>2140.3</ele>
        <time>2020-07-28T12:52:37Z</time>
      </trkpt>
      <trkpt lat="44.13434" lon="6.68456">
        <ele>2138.8</ele>
        <time>2020-07-28T12:52:45Z</time>
      </trkpt>
      <trkpt lat="44.1344" lon="6.68453">
        <ele>2137</ele>
        <time>2020-07-28T12:52:54Z</time>
      </trkpt>
      <trkpt lat="44.13443" lon="6.68451">
        <ele>2136.2</ele>
        <time>2020-07-28T12:52:58Z</time>
      </trkpt>
      <trkpt lat="44.13445" lon="6.68449">
        <ele>2135.8</ele>
        <time>2020-07-28T12:53:00Z</time>
      </trkpt>
      <trkpt lat="44.13446" lon="6.68448">
        <ele>2135.6</ele>
        <time>2020-07-28T12:53:02Z</time>
      </trkpt>
      <trkpt lat="44.13453" lon="6.68442">
        <ele>2133.9</ele>
        <time>2020-07-28T12:53:11Z</time>
      </trkpt>
      <trkpt lat="44.13457" lon="6.68437">
        <ele>2132.8</ele>
        <time>2020-07-28T12:53:20Z</time>
      </trkpt>
      <trkpt lat="44.13464" lon="6.68434">
        <ele>2130.4</ele>
        <time>2020-07-28T12:53:28Z</time>
      </trkpt>
      <trkpt lat="44.1347" lon="6.68433">
        <ele>2128.1</ele>
        <time>2020-07-28T12:53:36Z</time>
      </trkpt>
      <trkpt lat="44.13475" lon="6.68427">
        <ele>2126.7</ele>
        <time>2020-07-28T12:53:43Z</time>
      </trkpt>
      <trkpt lat="44.13479" lon="6.68424">
        <ele>2125.5</ele>
        <time>2020-07-28T12:53:48.000Z</time>
      </trkpt>
      <trkpt lat="44.13483" lon="6.6842">
        <ele>2124.3</ele>
        <time>2020-07-28T12:53:53Z</time>
      </trkpt>
      <trkpt lat="44.13486" lon="6.68415">
        <ele>2123.8</ele>
        <time>2020-07-28T12:53:59Z</time>
      </trkpt>
      <trkpt lat="44.13487" lon="6.68414">
        <ele>2123.6</ele>
        <time>2020-07-28T12:54:00Z</time>
      </trkpt>
      <trkpt lat="44.13492" lon="6.68409">
        <ele>2122.5</ele>
        <time>2020-07-28T12:54:06.000Z</time>
      </trkpt>
      <trkpt lat="44.13497" lon="6.68403">
        <ele>2121.6</ele>
        <time>2020-07-28T12:54:12Z</time>
      </trkpt>
      <trkpt lat="44.13498" lon="6.68401">
        <ele>2121.6</ele>
        <time>2020-07-28T12:54:14Z</time>
      </trkpt>
      <trkpt lat="44.13503" lon="6.68397">
        <ele>2120.6</ele>
        <time>2020-07-28T12:54:19.000Z</time>
      </trkpt>
      <trkpt lat="44.13508" lon="6.68393">
        <ele>2119.5</ele>
        <time>2020-07-28T12:54:24Z</time>
      </trkpt>
      <trkpt lat="44.13513" lon="6.6839">
        <ele>2118.2</ele>
        <time>2020-07-28T12:54:28.500Z</time>
      </trkpt>
      <trkpt lat="44.13517" lon="6.68386">
        <ele>2117.2</ele>
        <time>2020-07-28T12:54:33Z</time>
      </trkpt>
      <trkpt lat="44.13523" lon="6.68384">
        <ele>2115.3</ele>
        <time>2020-07-28T12:54:38.500Z</time>
      </trkpt>
      <trkpt lat="44.13529" lon="6.68381">
        <ele>2113.6</ele>
        <time>2020-07-28T12:54:44Z</time>
      </trkpt>
      <trkpt lat="44.13536" lon="6.68377">
        <ele>2112.2</ele>
        <time>2020-07-28T12:54:52Z</time>
      </trkpt>
      <trkpt lat="44.13536" lon="6.68376">
        <ele>2112.2</ele>
        <time>2020-07-28T12:55:00Z</time>
      </trkpt>
      <trkpt lat="44.13536" lon="6.68376">
        <ele>2112.2</ele>
        <time>2020-07-28T12:55:11Z</time>
      </trkpt>
      <trkpt lat="44.13537" lon="6.68374">
        <ele>2112.1</ele>
        <time>2020-07-28T12:55:24Z</time>
      </trkpt>
      <trkpt lat="44.1354" lon="6.68372">
        <ele>2111.3</ele>
        <time>2020-07-28T12:55:31Z</time>
      </trkpt>
      <trkpt lat="44.13547" lon="6.68365">
        <ele>2109.1</ele>
        <time>2020-07-28T12:55:39Z</time>
      </trkpt>
      <trkpt lat="44.13551" lon="6.68362">
        <ele>2107.7</ele>
        <time>2020-07-28T12:55:44.000Z</time>
      </trkpt>
      <trkpt lat="44.13555" lon="6.68358">
        <ele>2106.4</ele>
        <time>2020-07-28T12:55:49Z</time>
      </trkpt>
      <trkpt lat="44.13559" lon="6.68353">
        <ele>2105.9</ele>
        <time>2020-07-28T12:55:54.500Z</time>
      </trkpt>
      <trkpt lat="44.13563" lon="6.68348">
        <ele>2105.4</ele>
        <time>2020-07-28T12:56:00Z</time>
      </trkpt>
      <trkpt lat="44.13569" lon="6.68343">
        <ele>2104.1</ele>
        <time>2020-07-28T12:56:06.500Z</time>
      </trkpt>
      <trkpt lat="44.13574" lon="6.68338">
        <ele>2102.8</ele>
        <time>2020-07-28T12:56:13Z</time>
      </trkpt>
      <trkpt lat="44.13578" lon="6.68334">
        <ele>2101.6</ele>
        <time>2020-07-28T12:56:18.500Z</time>
      </trkpt>
      <trkpt lat="44.13582" lon="6.68329">
        <ele>2100.7</ele>
        <time>2020-07-28T12:56:24Z</time>
      </trkpt>
      <trkpt lat="44.13583" lon="6.68328">
        <ele>2100.5</ele>
        <time>2020-07-28T12:56:33Z</time>
      </trkpt>
      <trkpt lat="44.13588" lon="6.68323">
        <ele>2099.8</ele>
        <time>2020-07-28T12:56:38.500Z</time>
      </trkpt>
      <trkpt lat="44.13592" lon="6.68317">
        <ele>2099.2</ele>
        <time>2020-07-28T12:56:44Z</time>
      </trkpt>
      <trkpt lat="44.13596" lon="6.68313">
        <ele>2098.5</ele>
        <time>2020-07-28T12:56:49.000Z</time>
      </trkpt>
      <trkpt lat="44.136" lon="6.68309">
        <ele>2097.7</ele>
        <time>2020-07-28T12:56:54Z</time>
      </trkpt>
      <trkpt lat="44.13606" lon="6.68307">
        <ele>2096.3</ele>
        <time>2020-07-28T12:56:59.500Z</time>
      </trkpt>
      <trkpt lat="44.13611" lon="6.68305">
        <ele>2095.1</ele>
        <time>2020-07-28T12:57:05Z</time>
      </trkpt>
      <trkpt lat="44.13617" lon="6.68302">
        <ele>2094.4</ele>
        <time>2020-07-28T12:57:11.000Z</time>
      </trkpt>
      <trkpt lat="44.13623" lon="6.68299">
        <ele>2093.7</ele>
        <time>2020-07-28T12:57:17Z</time>
      </trkpt>
      <trkpt lat="44.13628" lon="6.68296">
        <ele>2093</ele>
        <time>2020-07-28T12:57:22.000Z</time>
      </trkpt>
      <trkpt lat="44.13632" lon="6.68293">
        <ele>2092.6</ele>
        <time>2020-07-28T12:57:27Z</time>
      </trkpt>
      <trkpt lat="44.13637" lon="6.68291">
        <ele>2091.8</ele>
        <time>2020-07-28T12:57:32.000Z</time>
      </trkpt>
      <trkpt lat="44.13641" lon="6.68288">
        <ele>2091.2</ele>
        <time>2020-07-28T12:57:37Z</time>
      </trkpt>
      <trkpt lat="44.13643" lon="6.68284">
        <ele>2090.9</ele>
        <time>2020-07-28T12:57:41Z</time>
      </trkpt>
      <trkpt lat="44.13648" lon="6.6828">
        <ele>2090</ele>
        <time>2020-07-28T12:57:46Z</time>
      </trkpt>
      <trkpt lat="44.13654" lon="6.68272">
        <ele>2088.4</ele>
        <time>2020-07-28T12:57:56Z</time>
      </trkpt>
      <trkpt lat="44.13659" lon="6.68269">
        <ele>2087.1</ele>
        <time>2020-07-28T12:58:01.500Z</time>
      </trkpt>
      <trkpt lat="44.13664" lon="6.68265">
        <ele>2085.7</ele>
        <time>2020-07-28T12:58:07Z</time>
      </trkpt>
      <trkpt lat="44.13668" lon="6.68257">
        <ele>2084.2</ele>
        <time>2020-07-28T12:58:15Z</time>
      </trkpt>
      <trkpt lat="44.13675" lon="6.68253">
        <ele>2082.4</ele>
        <time>2020-07-28T12:58:24Z</time>
      </trkpt>
      <trkpt lat="44.1368" lon="6.68253">
        <ele>2081.2</ele>
        <time>2020-07-28T12:58:30Z</time>
      </trkpt>
      <trkpt lat="44.13683" lon="6.68255">
        <ele>2080.6</ele>
        <time>2020-07-28T12:58:34Z</time>
      </trkpt>
      <trkpt lat="44.1369" lon="6.68256">
        <ele>2079</ele>
        <time>2020-07-28T12:58:43Z</time>
      </trkpt>
      <trkpt lat="44.13697" lon="6.68254">
        <ele>2077.4</ele>
        <time>2020-07-28T12:58:52Z</time>
      </trkpt>
      <trkpt lat="44.13702" lon="6.68249">
        <ele>2076.1</ele>
        <time>2020-07-28T12:59:00Z</time>
      </trkpt>
      <trkpt lat="44.13706" lon="6.68242">
        <ele>2074.7</ele>
        <time>2020-07-28T12:59:09Z</time>
      </trkpt>
      <trkpt lat="44.13707" lon="6.68242">
        <ele>2074.4</ele>
        <time>2020-07-28T12:59:10Z</time>
      </trkpt>
      <trkpt lat="44.13712" lon="6.68238">
        <ele>2072.9</ele>
        <time>2020-07-28T12:59:19Z</time>
      </trkpt>
      <trkpt lat="44.13713" lon="6.68237">
        <ele>2072.5</ele>
        <time>2020-07-28T12:59:25Z</time>
      </trkpt>
      <trkpt lat="44.13715" lon="6.68234">
        <ele>2071.8</ele>
        <time>2020-07-28T12:59:29Z</time>
      </trkpt>
      <trkpt lat="44.13719" lon="6.68229">
        <ele>2070.4</ele>
        <time>2020-07-28T12:59:34.000Z</time>
      </trkpt>
      <trkpt lat="44.13722" lon="6.68223">
        <ele>2069.1</ele>
        <time>2020-07-28T12:59:39Z</time>
      </trkpt>
      <trkpt lat="44.13727" lon="6.68216">
        <ele>2067.5</ele>
        <time>2020-07-28T12:59:46Z</time>
      </trkpt>
      <trkpt lat="44.13729" lon="6.68209">
        <ele>2066.4</ele>
        <time>2020-07-28T12:59:51Z</time>
      </trkpt>
      <trkpt lat="44.13731" lon="6.68203">
        <ele>2065.3</ele>
        <time>2020-07-28T12:59:56.500Z</time>
      </trkpt>
      <trkpt lat="44.13733" lon="6.68196">
        <ele>2064.2</ele>
        <time>2020-07-28T13:00:02Z</time>
      </trkpt>
      <trkpt lat="44.13735" lon="6.68189">
        <ele>2063.1</ele>
        <time>2020-07-28T13:00:07.000Z</time>
      </trkpt>
      <trkpt lat="44.13736" lon="6.68181">
        <ele>2062.1</ele>
        <time>2020-07-28T13:00:12Z</time>
      </trkpt>
      <trkpt lat="44.13737" lon="6.68171">
        <ele>2060.8</ele>
        <time>2020-07-28T13:00:19Z</time>
      </trkpt>
      <trkpt lat="44.13739" lon="6.68167">
        <ele>2060</ele>
        <time>2020-07-28T13:00:22Z</time>
      </trkpt>
      <trkpt lat="44.13743" lon="6.68158">
        <ele>2058.8</ele>
        <time>2020-07-28T13:00:30Z</time>
      </trkpt>
      <trkpt lat="44.13747" lon="6.68151">
        <ele>2057.5</ele>
        <time>2020-07-28T13:00:37Z</time>
      </trkpt>
      <trkpt lat="44.13749" lon="6.68142">
        <ele>2056.5</ele>
        <time>2020-07-28T13:00:45Z</time>
      </trkpt>
      <trkpt lat="44.13748" lon="6.68135">
        <ele>2056.3</ele>
        <time>2020-07-28T13:00:50Z</time>
      </trkpt>
      <trkpt lat="44.13749" lon="6.68129">
        <ele>2055.9</ele>
        <time>2020-07-28T13:00:55.000Z</time>
      </trkpt>
      <trkpt lat="44.1375" lon="6.68122">
        <ele>2055.4</ele>
        <time>2020-07-28T13:01:00Z</time>
      </trkpt>
      <trkpt lat="44.13749" lon="6.68118">
        <ele>2055.4</ele>
        <time>2020-07-28T13:01:03Z</time>
      </trkpt>
      <trkpt lat="44.13747" lon="6.68113">
        <ele>2055.6</ele>
        <time>2020-07-28T13:01:07.499Z</time>
      </trkpt>
      <trkpt lat="44.13744" lon="6.68107">
        <ele>2055.2</ele>
        <time>2020-07-28T13:01:12Z</time>
      </trkpt>
      <trkpt lat="44.13738" lon="6.681">
        <ele>2054.8</ele>
        <time>2020-07-28T13:01:19Z</time>
      </trkpt>
      <trkpt lat="44.13736" lon="6.68098">
        <ele>2054.7</ele>
        <time>2020-07-28T13:01:21Z</time>
      </trkpt>
      <trkpt lat="44.13732" lon="6.68094">
        <ele>2054.5</ele>
        <time>2020-07-28T13:01:26.999Z</time>
      </trkpt>
      <trkpt lat="44.13728" lon="6.6809">
        <ele>2054.4</ele>
        <time>2020-07-28T13:01:33Z</time>
      </trkpt>
      <trkpt lat="44.13727" lon="6.68087">
        <ele>2053.9</ele>
        <time>2020-07-28T13:01:35Z</time>
      </trkpt>
      <trkpt lat="44.13724" lon="6.68082">
        <ele>2053.4</ele>
        <time>2020-07-28T13:01:39.999Z</time>
      </trkpt>
      <trkpt lat="44.13721" lon="6.68077">
        <ele>2053.1</ele>
        <time>2020-07-28T13:01:45Z</time>
      </trkpt>
      <trkpt lat="44.13717" lon="6.68068">
        <ele>2052.2</ele>
        <time>2020-07-28T13:01:53Z</time>
      </trkpt>
      <trkpt lat="44.13714" lon="6.68061">
        <ele>2051.5</ele>
        <time>2020-07-28T13:02:00Z</time>
      </trkpt>
      <trkpt lat="44.13711" lon="6.68054">
        <ele>2050.7</ele>
        <time>2020-07-28T13:02:07Z</time>
      </trkpt>
      <trkpt lat="44.13706" lon="6.68051">
        <ele>2051.1</ele>
        <time>2020-07-28T13:02:12Z</time>
      </trkpt>
      <trkpt lat="44.13705" lon="6.68047">
        <ele>2050.6</ele>
        <time>2020-07-28T13:02:16Z</time>
      </trkpt>
      <trkpt lat="44.13706" lon="6.68035">
        <ele>2048.3</ele>
        <time>2020-07-28T13:02:26Z</time>
      </trkpt>
      <trkpt lat="44.13707" lon="6.68027">
        <ele>2046.8</ele>
        <time>2020-07-28T13:02:35Z</time>
      </trkpt>
      <trkpt lat="44.13706" lon="6.6802">
        <ele>2046.2</ele>
        <time>2020-07-28T13:02:44Z</time>
      </trkpt>
      <trkpt lat="44.13704" lon="6.68014">
        <ele>2046.1</ele>
        <time>2020-07-28T13:02:48.999Z</time>
      </trkpt>
      <trkpt lat="44.13702" lon="6.68007">
        <ele>2045.9</ele>
        <time>2020-07-28T13:02:54Z</time>
      </trkpt>
      <trkpt lat="44.13704" lon="6.67998">
        <ele>2044.4</ele>
        <time>2020-07-28T13:03:02Z</time>
      </trkpt>
      <trkpt lat="44.13702" lon="6.67987">
        <ele>2043.7</ele>
        <time>2020-07-28T13:03:12Z</time>
      </trkpt>
      <trkpt lat="44.137" lon="6.67978">
        <ele>2043.2</ele>
        <time>2020-07-28T13:03:20Z</time>
      </trkpt>
      <trkpt lat="44.13704" lon="6.67972">
        <ele>2041.6</ele>
        <time>2020-07-28T13:03:28Z</time>
      </trkpt>
      <trkpt lat="44.13706" lon="6.67964">
        <ele>2040.4</ele>
        <time>2020-07-28T13:03:35Z</time>
      </trkpt>
      <trkpt lat="44.13707" lon="6.67962">
        <ele>2040.1</ele>
        <time>2020-07-28T13:03:42Z</time>
      </trkpt>
      <trkpt lat="44.13708" lon="6.6796">
        <ele>2039.7</ele>
        <time>2020-07-28T13:03:44Z</time>
      </trkpt>
      <trkpt lat="44.13711" lon="6.67954">
        <ele>2038.6</ele>
        <time>2020-07-28T13:03:49.500Z</time>
      </trkpt>
      <trkpt lat="44.13714" lon="6.67948">
        <ele>2037.7</ele>
        <time>2020-07-28T13:03:55Z</time>
      </trkpt>
      <trkpt lat="44.13718" lon="6.67945">
        <ele>2036.8</ele>
        <time>2020-07-28T13:04:00.000Z</time>
      </trkpt>
      <trkpt lat="44.13722" lon="6.67942">
        <ele>2036.5</ele>
        <time>2020-07-28T13:04:05Z</time>
      </trkpt>
      <trkpt lat="44.13727" lon="6.67938">
        <ele>2036.7</ele>
        <time>2020-07-28T13:04:12Z</time>
      </trkpt>
      <trkpt lat="44.13732" lon="6.67935">
        <ele>2036.8</ele>
        <time>2020-07-28T13:04:20Z</time>
      </trkpt>
      <trkpt lat="44.13733" lon="6.67935">
        <ele>2036.7</ele>
        <time>2020-07-28T13:04:22Z</time>
      </trkpt>
      <trkpt lat="44.13738" lon="6.6794">
        <ele>2035.2</ele>
        <time>2020-07-28T13:04:27Z</time>
      </trkpt>
      <trkpt lat="44.13745" lon="6.67944">
        <ele>2033.6</ele>
        <time>2020-07-28T13:04:36Z</time>
      </trkpt>
      <trkpt lat="44.13749" lon="6.67944">
        <ele>2033.2</ele>
        <time>2020-07-28T13:04:42Z</time>
      </trkpt>
      <trkpt lat="44.13753" lon="6.67944">
        <ele>2032.8</ele>
        <time>2020-07-28T13:04:46Z</time>
      </trkpt>
      <trkpt lat="44.13757" lon="6.67945">
        <ele>2032.2</ele>
        <time>2020-07-28T13:04:50Z</time>
      </trkpt>
      <trkpt lat="44.13762" lon="6.67945">
        <ele>2031.6</ele>
        <time>2020-07-28T13:04:55.500Z</time>
      </trkpt>
      <trkpt lat="44.13767" lon="6.67945">
        <ele>2031.1</ele>
        <time>2020-07-28T13:05:01Z</time>
      </trkpt>
      <trkpt lat="44.13772" lon="6.67945">
        <ele>2030.5</ele>
        <time>2020-07-28T13:05:05.500Z</time>
      </trkpt>
      <trkpt lat="44.13777" lon="6.67945">
        <ele>2030</ele>
        <time>2020-07-28T13:05:10Z</time>
      </trkpt>
      <trkpt lat="44.13785" lon="6.67941">
        <ele>2029.7</ele>
        <time>2020-07-28T13:05:19Z</time>
      </trkpt>
      <trkpt lat="44.1379" lon="6.67936">
        <ele>2029.9</ele>
        <time>2020-07-28T13:05:27Z</time>
      </trkpt>
      <trkpt lat="44.13794" lon="6.67932">
        <ele>2030.1</ele>
        <time>2020-07-28T13:05:31.500Z</time>
      </trkpt>
      <trkpt lat="44.13797" lon="6.67928">
        <ele>2030.4</ele>
        <time>2020-07-28T13:05:36Z</time>
      </trkpt>
      <trkpt lat="44.13804" lon="6.67929">
        <ele>2029</ele>
        <time>2020-07-28T13:05:43Z</time>
      </trkpt>
      <trkpt lat="44.13806" lon="6.67929">
        <ele>2028.7</ele>
        <time>2020-07-28T13:05:45Z</time>
      </trkpt>
      <trkpt lat="44.13813" lon="6.67928">
        <ele>2027.6</ele>
        <time>2020-07-28T13:05:54Z</time>
      </trkpt>
      <trkpt lat="44.13819" lon="6.67927">
        <ele>2026.7</ele>
        <time>2020-07-28T13:06:00Z</time>
      </trkpt>
      <trkpt lat="44.13827" lon="6.67922">
        <ele>2026.2</ele>
        <time>2020-07-28T13:06:09Z</time>
      </trkpt>
      <trkpt lat="44.13831" lon="6.67918">
        <ele>2026.2</ele>
        <time>2020-07-28T13:06:17Z</time>
      </trkpt>
      <trkpt lat="44.13834" lon="6.67916">
        <ele>2026</ele>
        <time>2020-07-28T13:06:21Z</time>
      </trkpt>
      <trkpt lat="44.1384" lon="6.6791">
        <ele>2025.7</ele>
        <time>2020-07-28T13:06:30Z</time>
      </trkpt>
      <trkpt lat="44.13844" lon="6.67907">
        <ele>2025.3</ele>
        <time>2020-07-28T13:06:37Z</time>
      </trkpt>
      <trkpt lat="44.1385" lon="6.67904">
        <ele>2024.6</ele>
        <time>2020-07-28T13:06:44Z</time>
      </trkpt>
      <trkpt lat="44.13855" lon="6.67903">
        <ele>2023.7</ele>
        <time>2020-07-28T13:06:51Z</time>
      </trkpt>
      <trkpt lat="44.13859" lon="6.67902">
        <ele>2023</ele>
        <time>2020-07-28T13:06:55Z</time>
      </trkpt>
      <trkpt lat="44.13866" lon="6.67898">
        <ele>2022.1</ele>
        <time>2020-07-28T13:07:03Z</time>
      </trkpt>
      <trkpt lat="44.13868" lon="6.67897">
        <ele>2021.8</ele>
        <time>2020-07-28T13:07:05Z</time>
      </trkpt>
      <trkpt lat="44.13873" lon="6.67897">
        <ele>2020.9</ele>
        <time>2020-07-28T13:07:10.000Z</time>
      </trkpt>
      <trkpt lat="44.13877" lon="6.67896">
        <ele>2020.2</ele>
        <time>2020-07-28T13:07:15Z</time>
      </trkpt>
      <trkpt lat="44.13878" lon="6.67896">
        <ele>2020</ele>
        <time>2020-07-28T13:07:16Z</time>
      </trkpt>
      <trkpt lat="44.13884" lon="6.67896">
        <ele>2018.9</ele>
        <time>2020-07-28T13:07:24Z</time>
      </trkpt>
      <trkpt lat="44.13892" lon="6.67897">
        <ele>2017.3</ele>
        <time>2020-07-28T13:07:33Z</time>
      </trkpt>
      <trkpt lat="44.13898" lon="6.67901">
        <ele>2015.6</ele>
        <time>2020-07-28T13:07:40Z</time>
      </trkpt>
      <trkpt lat="44.13899" lon="6.67902">
        <ele>2015.3</ele>
        <time>2020-07-28T13:07:41Z</time>
      </trkpt>
      <trkpt lat="44.13906" lon="6.67902">
        <ele>2014</ele>
        <time>2020-07-28T13:07:49Z</time>
      </trkpt>
      <trkpt lat="44.13911" lon="6.67902">
        <ele>2013.1</ele>
        <time>2020-07-28T13:07:53.500Z</time>
      </trkpt>
      <trkpt lat="44.13915" lon="6.67901">
        <ele>2012.6</ele>
        <time>2020-07-28T13:07:58Z</time>
      </trkpt>
      <trkpt lat="44.13921" lon="6.67896">
        <ele>2012.2</ele>
        <time>2020-07-28T13:08:07Z</time>
      </trkpt>
      <trkpt lat="44.13926" lon="6.67898">
        <ele>2011</ele>
        <time>2020-07-28T13:08:12.000Z</time>
      </trkpt>
      <trkpt lat="44.1393" lon="6.679">
        <ele>2010</ele>
        <time>2020-07-28T13:08:17Z</time>
      </trkpt>
      <trkpt lat="44.13932" lon="6.679">
        <ele>2009.6</ele>
        <time>2020-07-28T13:08:23Z</time>
      </trkpt>
      <trkpt lat="44.1394" lon="6.67896">
        <ele>2008.8</ele>
        <time>2020-07-28T13:08:32Z</time>
      </trkpt>
      <trkpt lat="44.13947" lon="6.67893">
        <ele>2007.9</ele>
        <time>2020-07-28T13:08:41Z</time>
      </trkpt>
      <trkpt lat="44.13954" lon="6.67892">
        <ele>2006.8</ele>
        <time>2020-07-28T13:08:50Z</time>
      </trkpt>
      <trkpt lat="44.13959" lon="6.67893">
        <ele>2005.8</ele>
        <time>2020-07-28T13:08:55.000Z</time>
      </trkpt>
      <trkpt lat="44.13963" lon="6.67894">
        <ele>2004.9</ele>
        <time>2020-07-28T13:09:00Z</time>
      </trkpt>
      <trkpt lat="44.13965" lon="6.67895">
        <ele>2004.4</ele>
        <time>2020-07-28T13:09:02Z</time>
      </trkpt>
      <trkpt lat="44.13972" lon="6.67897">
        <ele>2002.9</ele>
        <time>2020-07-28T13:09:10Z</time>
      </trkpt>
      <trkpt lat="44.1398" lon="6.67897">
        <ele>2001.2</ele>
        <time>2020-07-28T13:09:18Z</time>
      </trkpt>
      <trkpt lat="44.13988" lon="6.67893">
        <ele>2000.3</ele>
        <time>2020-07-28T13:09:27Z</time>
      </trkpt>
      <trkpt lat="44.13989" lon="6.67892">
        <ele>2000.3</ele>
        <time>2020-07-28T13:09:30Z</time>
      </trkpt>
      <trkpt lat="44.13994" lon="6.67893">
        <ele>1999.1</ele>
        <time>2020-07-28T13:09:35.000Z</time>
      </trkpt>
      <trkpt lat="44.13998" lon="6.67893">
        <ele>1998.4</ele>
        <time>2020-07-28T13:09:40Z</time>
      </trkpt>
      <trkpt lat="44.14001" lon="6.67892">
        <ele>1998</ele>
        <time>2020-07-28T13:09:52Z</time>
      </trkpt>
      <trkpt lat="44.14006" lon="6.67892">
        <ele>1996.9</ele>
        <time>2020-07-28T13:09:58.000Z</time>
      </trkpt>
      <trkpt lat="44.14011" lon="6.67891">
        <ele>1996.1</ele>
        <time>2020-07-28T13:10:04Z</time>
      </trkpt>
      <trkpt lat="44.14014" lon="6.67888">
        <ele>1996.1</ele>
        <time>2020-07-28T13:10:12Z</time>
      </trkpt>
      <trkpt lat="44.14014" lon="6.67888">
        <ele>1996.1</ele>
        <time>2020-07-28T13:10:20Z</time>
      </trkpt>
      <trkpt lat="44.14017" lon="6.67887">
        <ele>1995.6</ele>
        <time>2020-07-28T13:10:28Z</time>
      </trkpt>
      <trkpt lat="44.14022" lon="6.67886">
        <ele>1994.7</ele>
        <time>2020-07-28T13:10:33.000Z</time>
      </trkpt>
      <trkpt lat="44.14026" lon="6.67885">
        <ele>1993.9</ele>
        <time>2020-07-28T13:10:38Z</time>
      </trkpt>
      <trkpt lat="44.14033" lon="6.67883">
        <ele>1992.4</ele>
        <time>2020-07-28T13:10:48Z</time>
      </trkpt>
      <trkpt lat="44.14037" lon="6.67882">
        <ele>1991.4</ele>
        <time>2020-07-28T13:10:56Z</time>
      </trkpt>
      <trkpt lat="44.14045" lon="6.67881">
        <ele>1989.4</ele>
        <time>2020-07-28T13:11:05Z</time>
      </trkpt>
      <trkpt lat="44.14052" lon="6.67878">
        <ele>1987.9</ele>
        <time>2020-07-28T13:11:13Z</time>
      </trkpt>
      <trkpt lat="44.14057" lon="6.67876">
        <ele>1986.9</ele>
        <time>2020-07-28T13:11:21Z</time>
      </trkpt>
      <trkpt lat="44.14064" lon="6.67876">
        <ele>1985.1</ele>
        <time>2020-07-28T13:11:30Z</time>
      </trkpt>
      <trkpt lat="44.14071" lon="6.67876">
        <ele>1983.2</ele>
        <time>2020-07-28T13:11:38Z</time>
      </trkpt>
      <trkpt lat="44.14079" lon="6.67876">
        <ele>1981</ele>
        <time>2020-07-28T13:11:47Z</time>
      </trkpt>
      <trkpt lat="44.14082" lon="6.67876">
        <ele>1980.2</ele>
        <time>2020-07-28T13:11:51Z</time>
      </trkpt>
      <trkpt lat="44.1409" lon="6.67874">
        <ele>1978.4</ele>
        <time>2020-07-28T13:12:01Z</time>
      </trkpt>
      <trkpt lat="44.14096" lon="6.67873">
        <ele>1976.9</ele>
        <time>2020-07-28T13:12:09Z</time>
      </trkpt>
      <trkpt lat="44.14104" lon="6.6787">
        <ele>1975.3</ele>
        <time>2020-07-28T13:12:18Z</time>
      </trkpt>
      <trkpt lat="44.14108" lon="6.67867">
        <ele>1974.7</ele>
        <time>2020-07-28T13:12:24.000Z</time>
      </trkpt>
      <trkpt lat="44.14112" lon="6.67863">
        <ele>1974.4</ele>
        <time>2020-07-28T13:12:30Z</time>
      </trkpt>
      <trkpt lat="44.14118" lon="6.67857">
        <ele>1973.6</ele>
        <time>2020-07-28T13:12:38Z</time>
      </trkpt>
      <trkpt lat="44.14123" lon="6.67853">
        <ele>1972.7</ele>
        <time>2020-07-28T13:12:44Z</time>
      </trkpt>
      <trkpt lat="44.14127" lon="6.6785">
        <ele>1972</ele>
        <time>2020-07-28T13:12:49.000Z</time>
      </trkpt>
      <trkpt lat="44.14131" lon="6.67846">
        <ele>1971.4</ele>
        <time>2020-07-28T13:12:54Z</time>
      </trkpt>
      <trkpt lat="44.14136" lon="6.67843">
        <ele>1970.4</ele>
        <time>2020-07-28T13:13:01Z</time>
      </trkpt>
      <trkpt lat="44.1414" lon="6.6784">
        <ele>1969.8</ele>
        <time>2020-07-28T13:13:11Z</time>
      </trkpt>
      <trkpt lat="44.14145" lon="6.67837">
        <ele>1968.9</ele>
        <time>2020-07-28T13:13:19Z</time>
      </trkpt>
      <trkpt lat="44.14149" lon="6.6783">
        <ele>1969.2</ele>
        <time>2020-07-28T13:13:27Z</time>
      </trkpt>
      <trkpt lat="44.14156" lon="6.67827">
        <ele>1968.1</ele>
        <time>2020-07-28T13:13:36Z</time>
      </trkpt>
      <trkpt lat="44.14164" lon="6.67824">
        <ele>1966.7</ele>
        <time>2020-07-28T13:13:45Z</time>
      </trkpt>
      <trkpt lat="44.14168" lon="6.67822">
        <ele>1966.1</ele>
        <time>2020-07-28T13:13:50Z</time>
      </trkpt>
      <trkpt lat="44.14175" lon="6.67819">
        <ele>1965</ele>
        <time>2020-07-28T13:13:59Z</time>
      </trkpt>
      <trkpt lat="44.14183" lon="6.67816">
        <ele>1963.6</ele>
        <time>2020-07-28T13:14:08Z</time>
      </trkpt>
      <trkpt lat="44.14188" lon="6.67812">
        <ele>1963.2</ele>
        <time>2020-07-28T13:14:15Z</time>
      </trkpt>
      <trkpt lat="44.14193" lon="6.67811">
        <ele>1962.2</ele>
        <time>2020-07-28T13:14:20.000Z</time>
      </trkpt>
      <trkpt lat="44.14197" lon="6.67809">
        <ele>1961.5</ele>
        <time>2020-07-28T13:14:25Z</time>
      </trkpt>
      <trkpt lat="44.14204" lon="6.6781">
        <ele>1959.2</ele>
        <time>2020-07-28T13:14:34Z</time>
      </trkpt>
      <trkpt lat="44.14212" lon="6.67806">
        <ele>1957.8</ele>
        <time>2020-07-28T13:14:43Z</time>
      </trkpt>
      <trkpt lat="44.14215" lon="6.67802">
        <ele>1958</ele>
        <time>2020-07-28T13:14:48Z</time>
      </trkpt>
      <trkpt lat="44.14223" lon="6.67799">
        <ele>1956.4</ele>
        <time>2020-07-28T13:14:57Z</time>
      </trkpt>
      <trkpt lat="44.1423" lon="6.67795">
        <ele>1955.1</ele>
        <time>2020-07-28T13:15:06Z</time>
      </trkpt>
      <trkpt lat="44.14237" lon="6.6779">
        <ele>1954.2</ele>
        <time>2020-07-28T13:15:14Z</time>
      </trkpt>
      <trkpt lat="44.14244" lon="6.67786">
        <ele>1953.2</ele>
        <time>2020-07-28T13:15:23Z</time>
      </trkpt>
      <trkpt lat="44.14251" lon="6.67781">
        <ele>1952.6</ele>
        <time>2020-07-28T13:15:31Z</time>
      </trkpt>
      <trkpt lat="44.14257" lon="6.67778">
        <ele>1951.4</ele>
        <time>2020-07-28T13:15:37Z</time>
      </trkpt>
      <trkpt lat="44.14262" lon="6.67777">
        <ele>1949.9</ele>
        <time>2020-07-28T13:15:41.000Z</time>
      </trkpt>
      <trkpt lat="44.14266" lon="6.67776">
        <ele>1948.7</ele>
        <time>2020-07-28T13:15:45Z</time>
      </trkpt>
      <trkpt lat="44.14274" lon="6.67771">
        <ele>1947.3</ele>
        <time>2020-07-28T13:15:55Z</time>
      </trkpt>
      <trkpt lat="44.14281" lon="6.67766">
        <ele>1946.1</ele>
        <time>2020-07-28T13:16:05Z</time>
      </trkpt>
      <trkpt lat="44.14287" lon="6.67763">
        <ele>1944.6</ele>
        <time>2020-07-28T13:16:13Z</time>
      </trkpt>
      <trkpt lat="44.14291" lon="6.6776">
        <ele>1944.2</ele>
        <time>2020-07-28T13:16:18.000Z</time>
      </trkpt>
      <trkpt lat="44.14295" lon="6.67756">
        <ele>1944.2</ele>
        <time>2020-07-28T13:16:23Z</time>
      </trkpt>
      <trkpt lat="44.143" lon="6.67753">
        <ele>1943.6</ele>
        <time>2020-07-28T13:16:28.000Z</time>
      </trkpt>
      <trkpt lat="44.14304" lon="6.67749">
        <ele>1943.8</ele>
        <time>2020-07-28T13:16:33Z</time>
      </trkpt>
      <trkpt lat="44.1431" lon="6.67744">
        <ele>1943.1</ele>
        <time>2020-07-28T13:16:41Z</time>
      </trkpt>
      <trkpt lat="44.14312" lon="6.67741">
        <ele>1943.3</ele>
        <time>2020-07-28T13:16:44Z</time>
      </trkpt>
      <trkpt lat="44.14316" lon="6.67736">
        <ele>1943.4</ele>
        <time>2020-07-28T13:16:48.500Z</time>
      </trkpt>
      <trkpt lat="44.14319" lon="6.67731">
        <ele>1944</ele>
        <time>2020-07-28T13:16:53Z</time>
      </trkpt>
      <trkpt lat="44.14323" lon="6.67722">
        <ele>1945.8</ele>
        <time>2020-07-28T13:17:00Z</time>
      </trkpt>
      <trkpt lat="44.14329" lon="6.67717">
        <ele>1945</ele>
        <time>2020-07-28T13:17:08Z</time>
      </trkpt>
      <trkpt lat="44.14334" lon="6.6771">
        <ele>1945.2</ele>
        <time>2020-07-28T13:17:16Z</time>
      </trkpt>
      <trkpt lat="44.14336" lon="6.67701">
        <ele>1946.9</ele>
        <time>2020-07-28T13:17:24Z</time>
      </trkpt>
      <trkpt lat="44.14341" lon="6.67694">
        <ele>1946.8</ele>
        <time>2020-07-28T13:17:32Z</time>
      </trkpt>
      <trkpt lat="44.14347" lon="6.67687">
        <ele>1946.2</ele>
        <time>2020-07-28T13:17:39Z</time>
      </trkpt>
      <trkpt lat="44.14354" lon="6.67683">
        <ele>1944.6</ele>
        <time>2020-07-28T13:17:43.500Z</time>
      </trkpt>
      <trkpt lat="44.1436" lon="6.67679">
        <ele>1943.4</ele>
        <time>2020-07-28T13:17:48Z</time>
      </trkpt>
      <trkpt lat="44.14366" lon="6.67672">
        <ele>1942.9</ele>
        <time>2020-07-28T13:17:56Z</time>
      </trkpt>
      <trkpt lat="44.1437" lon="6.67667">
        <ele>1942.7</ele>
        <time>2020-07-28T13:18:05Z</time>
      </trkpt>
      <trkpt lat="44.14376" lon="6.67664">
        <ele>1941</ele>
        <time>2020-07-28T13:18:09.500Z</time>
      </trkpt>
      <trkpt lat="44.14382" lon="6.67661">
        <ele>1939.3</ele>
        <time>2020-07-28T13:18:14Z</time>
      </trkpt>
      <trkpt lat="44.14388" lon="6.67656">
        <ele>1938.6</ele>
        <time>2020-07-28T13:18:21Z</time>
      </trkpt>
      <trkpt lat="44.14394" lon="6.67651">
        <ele>1937.4</ele>
        <time>2020-07-28T13:18:28Z</time>
      </trkpt>
      <trkpt lat="44.14398" lon="6.67649">
        <ele>1936</ele>
        <time>2020-07-28T13:18:35Z</time>
      </trkpt>
      <trkpt lat="44.14401" lon="6.67642">
        <ele>1937.5</ele>
        <time>2020-07-28T13:18:42Z</time>
      </trkpt>
      <trkpt lat="44.14404" lon="6.67636">
        <ele>1938.5</ele>
        <time>2020-07-28T13:18:48Z</time>
      </trkpt>
      <trkpt lat="44.14409" lon="6.67631">
        <ele>1938</ele>
        <time>2020-07-28T13:18:57Z</time>
      </trkpt>
      <trkpt lat="44.14415" lon="6.6763">
        <ele>1935.6</ele>
        <time>2020-07-28T13:19:06Z</time>
      </trkpt>
      <trkpt lat="44.14421" lon="6.67627">
        <ele>1933.6</ele>
        <time>2020-07-28T13:19:11.000Z</time>
      </trkpt>
      <trkpt lat="44.14426" lon="6.67624">
        <ele>1932.1</ele>
        <time>2020-07-28T13:19:16Z</time>
      </trkpt>
      <trkpt lat="44.14432" lon="6.67619">
        <ele>1931</ele>
        <time>2020-07-28T13:19:23Z</time>
      </trkpt>
      <trkpt lat="44.14433" lon="6.67616">
        <ele>1931.9</ele>
        <time>2020-07-28T13:19:26Z</time>
      </trkpt>
      <trkpt lat="44.14439" lon="6.6761">
        <ele>1931.4</ele>
        <time>2020-07-28T13:19:34Z</time>
      </trkpt>
      <trkpt lat="44.14445" lon="6.67603">
        <ele>1931.2</ele>
        <time>2020-07-28T13:19:42Z</time>
      </trkpt>
      <trkpt lat="44.14449" lon="6.67598">
        <ele>1930.9</ele>
        <time>2020-07-28T13:19:50Z</time>
      </trkpt>
      <trkpt lat="44.14451" lon="6.67596">
        <ele>1930.5</ele>
        <time>2020-07-28T13:19:57Z</time>
      </trkpt>
      <trkpt lat="44.14456" lon="6.67596">
        <ele>1927.5</ele>
        <time>2020-07-28T13:20:04Z</time>
      </trkpt>
      <trkpt lat="44.14462" lon="6.67594">
        <ele>1924.8</ele>
        <time>2020-07-28T13:20:09.500Z</time>
      </trkpt>
      <trkpt lat="44.14467" lon="6.67592">
        <ele>1922.8</ele>
        <time>2020-07-28T13:20:15Z</time>
      </trkpt>
      <trkpt lat="44.14471" lon="6.67589">
        <ele>1921.9</ele>
        <time>2020-07-28T13:20:19.500Z</time>
      </trkpt>
      <trkpt lat="44.14475" lon="6.67585">
        <ele>1921.2</ele>
        <time>2020-07-28T13:20:24Z</time>
      </trkpt>
      <trkpt lat="44.1448" lon="6.67579">
        <ele>1920.2</ele>
        <time>2020-07-28T13:20:31Z</time>
      </trkpt>
      <trkpt lat="44.14484" lon="6.67573">
        <ele>1919.8</ele>
        <time>2020-07-28T13:20:38Z</time>
      </trkpt>
      <trkpt lat="44.14489" lon="6.67567">
        <ele>1918.7</ele>
        <time>2020-07-28T13:20:46Z</time>
      </trkpt>
      <trkpt lat="44.14495" lon="6.67561">
        <ele>1917.1</ele>
        <time>2020-07-28T13:20:53Z</time>
      </trkpt>
      <trkpt lat="44.14496" lon="6.67554">
        <ele>1919.3</ele>
        <time>2020-07-28T13:21:01Z</time>
      </trkpt>
      <trkpt lat="44.145" lon="6.67549">
        <ele>1918.6</ele>
        <time>2020-07-28T13:21:10Z</time>
      </trkpt>
      <trkpt lat="44.14506" lon="6.67543">
        <ele>1916.6</ele>
        <time>2020-07-28T13:21:17Z</time>
      </trkpt>
      <trkpt lat="44.14511" lon="6.67536">
        <ele>1915.5</ele>
        <time>2020-07-28T13:21:25Z</time>
      </trkpt>
      <trkpt lat="44.14515" lon="6.67531">
        <ele>1914.4</ele>
        <time>2020-07-28T13:21:32Z</time>
      </trkpt>
      <trkpt lat="44.14517" lon="6.67526">
        <ele>1914.7</ele>
        <time>2020-07-28T13:21:38Z</time>
      </trkpt>
      <trkpt lat="44.14519" lon="6.67522">
        <ele>1914.4</ele>
        <time>2020-07-28T13:21:47Z</time>
      </trkpt>
      <trkpt lat="44.14524" lon="6.6752">
        <ele>1911.3</ele>
        <time>2020-07-28T13:21:53Z</time>
      </trkpt>
      <trkpt lat="44.14529" lon="6.67514">
        <ele>1909.6</ele>
        <time>2020-07-28T13:22:01Z</time>
      </trkpt>
      <trkpt lat="44.14532" lon="6.67507">
        <ele>1909.6</ele>
        <time>2020-07-28T13:22:09Z</time>
      </trkpt>
      <trkpt lat="44.14535" lon="6.67502">
        <ele>1908.9</ele>
        <time>2020-07-28T13:22:17Z</time>
      </trkpt>
      <trkpt lat="44.14536" lon="6.67498">
        <ele>1909.3</ele>
        <time>2020-07-28T13:22:24Z</time>
      </trkpt>
      <trkpt lat="44.14539" lon="6.67489">
        <ele>1909.5</ele>
        <time>2020-07-28T13:22:32Z</time>
      </trkpt>
      <trkpt lat="44.1454" lon="6.67484">
        <ele>1910.1</ele>
        <time>2020-07-28T13:22:40Z</time>
      </trkpt>
      <trkpt lat="44.14541" lon="6.67479">
        <ele>1910.7</ele>
        <time>2020-07-28T13:22:49Z</time>
      </trkpt>
      <trkpt lat="44.14544" lon="6.67477">
        <ele>1908.9</ele>
        <time>2020-07-28T13:22:57Z</time>
      </trkpt>
      <trkpt lat="44.14546" lon="6.67476">
        <ele>1907.6</ele>
        <time>2020-07-28T13:23:04Z</time>
      </trkpt>
      <trkpt lat="44.14547" lon="6.67473">
        <ele>1907.6</ele>
        <time>2020-07-28T13:23:12Z</time>
      </trkpt>
      <trkpt lat="44.14549" lon="6.67471">
        <ele>1906.6</ele>
        <time>2020-07-28T13:23:17Z</time>
      </trkpt>
      <trkpt lat="44.14551" lon="6.67469">
        <ele>1905.8</ele>
        <time>2020-07-28T13:23:25Z</time>
      </trkpt>
      <trkpt lat="44.14552" lon="6.67468">
        <ele>1905.3</ele>
        <time>2020-07-28T13:23:32Z</time>
      </trkpt>
      <trkpt lat="44.14553" lon="6.67469">
        <ele>1904.2</ele>
        <time>2020-07-28T13:23:38Z</time>
      </trkpt>
      <trkpt lat="44.14553" lon="6.67473">
        <ele>1902.8</ele>
        <time>2020-07-28T13:23:46Z</time>
      </trkpt>
      <trkpt lat="44.14552" lon="6.67475">
        <ele>1903.1</ele>
        <time>2020-07-28T13:23:53Z</time>
      </trkpt>
      <trkpt lat="44.14552" lon="6.67478">
        <ele>1902.3</ele>
        <time>2020-07-28T13:24:00Z</time>
      </trkpt>
      <trkpt lat="44.14555" lon="6.67481">
        <ele>1899.2</ele>
        <time>2020-07-28T13:24:08Z</time>
      </trkpt>
      <trkpt lat="44.14558" lon="6.67478">
        <ele>1897.6</ele>
        <time>2020-07-28T13:24:15Z</time>
      </trkpt>
      <trkpt lat="44.14561" lon="6.67472">
        <ele>1896.8</ele>
        <time>2020-07-28T13:24:22Z</time>
      </trkpt>
      <trkpt lat="44.14564" lon="6.67468">
        <ele>1895.7</ele>
        <time>2020-07-28T13:24:30Z</time>
      </trkpt>
      <trkpt lat="44.14565" lon="6.6747">
        <ele>1894.2</ele>
        <time>2020-07-28T13:24:37Z</time>
      </trkpt>
      <trkpt lat="44.14566" lon="6.67471">
        <ele>1893.1</ele>
        <time>2020-07-28T13:24:45Z</time>
      </trkpt>
      <trkpt lat="44.14566" lon="6.67476">
        <ele>1891.9</ele>
        <time>2020-07-28T13:24:52Z</time>
      </trkpt>
      <trkpt lat="44.14564" lon="6.67485">
        <ele>1891.4</ele>
        <time>2020-07-28T13:25:00Z</time>
      </trkpt>
      <trkpt lat="44.14563" lon="6.6749">
        <ele>1891</ele>
        <time>2020-07-28T13:25:08Z</time>
      </trkpt>
      <trkpt lat="44.14563" lon="6.67495">
        <ele>1889.8</ele>
        <time>2020-07-28T13:25:15Z</time>
      </trkpt>
      <trkpt lat="44.14562" lon="6.67498">
        <ele>1889.8</ele>
        <time>2020-07-28T13:25:23Z</time>
      </trkpt>
      <trkpt lat="44.14561" lon="6.67499">
        <ele>1890.3</ele>
        <time>2020-07-28T13:25:36Z</time>
      </trkpt>
      <trkpt lat="44.14559" lon="6.6751">
        <ele>1888.8</ele>
        <time>2020-07-28T13:25:45Z</time>
      </trkpt>
      <trkpt lat="44.14558" lon="6.67519">
        <ele>1887</ele>
        <time>2020-07-28T13:25:53Z</time>
      </trkpt>
      <trkpt lat="44.14557" lon="6.67528">
        <ele>1885.1</ele>
        <time>2020-07-28T13:26:01Z</time>
      </trkpt>
      <trkpt lat="44.14553" lon="6.67536">
        <ele>1885.4</ele>
        <time>2020-07-28T13:26:09Z</time>
      </trkpt>
      <trkpt lat="44.14552" lon="6.67541">
        <ele>1884.6</ele>
        <time>2020-07-28T13:26:16Z</time>
      </trkpt>
      <trkpt lat="44.14556" lon="6.67536">
        <ele>1883.4</ele>
        <time>2020-07-28T13:26:23Z</time>
      </trkpt>
      <trkpt lat="44.14561" lon="6.67531">
        <ele>1882</ele>
        <time>2020-07-28T13:26:31Z</time>
      </trkpt>
      <trkpt lat="44.14565" lon="6.67524">
        <ele>1881.5</ele>
        <time>2020-07-28T13:26:39Z</time>
      </trkpt>
      <trkpt lat="44.1457" lon="6.67516">
        <ele>1880.2</ele>
        <time>2020-07-28T13:26:49Z</time>
      </trkpt>
      <trkpt lat="44.14577" lon="6.67511">
        <ele>1876.6</ele>
        <time>2020-07-28T13:26:57Z</time>
      </trkpt>
      <trkpt lat="44.14579" lon="6.67506">
        <ele>1876.1</ele>
        <time>2020-07-28T13:27:06Z</time>
      </trkpt>
      <trkpt lat="44.14579" lon="6.67514">
        <ele>1874.8</ele>
        <time>2020-07-28T13:27:14Z</time>
      </trkpt>
      <trkpt lat="44.14579" lon="6.6752">
        <ele>1873.8</ele>
        <time>2020-07-28T13:27:21Z</time>
      </trkpt>
      <trkpt lat="44.14579" lon="6.6753">
        <ele>1872</ele>
        <time>2020-07-28T13:27:32Z</time>
      </trkpt>
      <trkpt lat="44.14578" lon="6.67532">
        <ele>1872.1</ele>
        <time>2020-07-28T13:27:34Z</time>
      </trkpt>
      <trkpt lat="44.1458" lon="6.67536">
        <ele>1870.1</ele>
        <time>2020-07-28T13:27:41Z</time>
      </trkpt>
      <trkpt lat="44.14585" lon="6.67531">
        <ele>1868.6</ele>
        <time>2020-07-28T13:27:50Z</time>
      </trkpt>
      <trkpt lat="44.14591" lon="6.67527">
        <ele>1866.8</ele>
        <time>2020-07-28T13:28:01Z</time>
      </trkpt>
      <trkpt lat="44.14591" lon="6.67533">
        <ele>1865.8</ele>
        <time>2020-07-28T13:28:08Z</time>
      </trkpt>
      <trkpt lat="44.14591" lon="6.67536">
        <ele>1865.3</ele>
        <time>2020-07-28T13:28:17Z</time>
      </trkpt>
      <trkpt lat="44.14595" lon="6.67534">
        <ele>1864.1</ele>
        <time>2020-07-28T13:28:26Z</time>
      </trkpt>
      <trkpt lat="44.14599" lon="6.67532">
        <ele>1862.7</ele>
        <time>2020-07-28T13:28:35Z</time>
      </trkpt>
      <trkpt lat="44.146" lon="6.67539">
        <ele>1861.6</ele>
        <time>2020-07-28T13:28:44Z</time>
      </trkpt>
      <trkpt lat="44.14603" lon="6.6754">
        <ele>1860.4</ele>
        <time>2020-07-28T13:28:52Z</time>
      </trkpt>
      <trkpt lat="44.14608" lon="6.67537">
        <ele>1858.8</ele>
        <time>2020-07-28T13:29:01Z</time>
      </trkpt>
      <trkpt lat="44.14615" lon="6.67533">
        <ele>1857.1</ele>
        <time>2020-07-28T13:29:10Z</time>
      </trkpt>
      <trkpt lat="44.14621" lon="6.67529">
        <ele>1855.9</ele>
        <time>2020-07-28T13:29:19Z</time>
      </trkpt>
      <trkpt lat="44.14626" lon="6.67529">
        <ele>1854.8</ele>
        <time>2020-07-28T13:29:24.500Z</time>
      </trkpt>
      <trkpt lat="44.1463" lon="6.67528">
        <ele>1853.9</ele>
        <time>2020-07-28T13:29:30Z</time>
      </trkpt>
      <trkpt lat="44.14635" lon="6.67525">
        <ele>1852.6</ele>
        <time>2020-07-28T13:29:39Z</time>
      </trkpt>
      <trkpt lat="44.14641" lon="6.67527">
        <ele>1851.6</ele>
        <time>2020-07-28T13:29:48Z</time>
      </trkpt>
      <trkpt lat="44.14648" lon="6.67527">
        <ele>1850.6</ele>
        <time>2020-07-28T13:29:56Z</time>
      </trkpt>
      <trkpt lat="44.14654" lon="6.67527">
        <ele>1849.7</ele>
        <time>2020-07-28T13:30:01.000Z</time>
      </trkpt>
      <trkpt lat="44.1466" lon="6.67526">
        <ele>1848.7</ele>
        <time>2020-07-28T13:30:06Z</time>
      </trkpt>
      <trkpt lat="44.14668" lon="6.67526">
        <ele>1847.6</ele>
        <time>2020-07-28T13:30:15Z</time>
      </trkpt>
      <trkpt lat="44.14676" lon="6.67523">
        <ele>1846.4</ele>
        <time>2020-07-28T13:30:24Z</time>
      </trkpt>
      <trkpt lat="44.1468" lon="6.67523">
        <ele>1846</ele>
        <time>2020-07-28T13:30:34Z</time>
      </trkpt>
      <trkpt lat="44.14685" lon="6.67523">
        <ele>1845.4</ele>
        <time>2020-07-28T13:30:41Z</time>
      </trkpt>
      <trkpt lat="44.14689" lon="6.67522">
        <ele>1844.9</ele>
        <time>2020-07-28T13:30:48Z</time>
      </trkpt>
      <trkpt lat="44.14692" lon="6.6752">
        <ele>1844.4</ele>
        <time>2020-07-28T13:30:56Z</time>
      </trkpt>
      <trkpt lat="44.14696" lon="6.67518">
        <ele>1843.6</ele>
        <time>2020-07-28T13:31:04Z</time>
      </trkpt>
      <trkpt lat="44.14702" lon="6.67517">
        <ele>1842.4</ele>
        <time>2020-07-28T13:31:11Z</time>
      </trkpt>
      <trkpt lat="44.1471" lon="6.67518">
        <ele>1841</ele>
        <time>2020-07-28T13:31:18Z</time>
      </trkpt>
      <trkpt lat="44.14712" lon="6.67519">
        <ele>1840.7</ele>
        <time>2020-07-28T13:31:26Z</time>
      </trkpt>
      <trkpt lat="44.14715" lon="6.67515">
        <ele>1839.9</ele>
        <time>2020-07-28T13:31:35Z</time>
      </trkpt>
      <trkpt lat="44.14712" lon="6.6751">
        <ele>1840.1</ele>
        <time>2020-07-28T13:31:42Z</time>
      </trkpt>
      <trkpt lat="44.14711" lon="6.67505">
        <ele>1839.9</ele>
        <time>2020-07-28T13:31:48Z</time>
      </trkpt>
      <trkpt lat="44.14713" lon="6.67499">
        <ele>1839.3</ele>
        <time>2020-07-28T13:31:55Z</time>
      </trkpt>
      <trkpt lat="44.14716" lon="6.67496">
        <ele>1838.7</ele>
        <time>2020-07-28T13:32:03Z</time>
      </trkpt>
      <trkpt lat="44.1472" lon="6.67496">
        <ele>1838.2</ele>
        <time>2020-07-28T13:32:09Z</time>
      </trkpt>
      <trkpt lat="44.14725" lon="6.67498">
        <ele>1836.8</ele>
        <time>2020-07-28T13:32:14.000Z</time>
      </trkpt>
      <trkpt lat="44.14729" lon="6.67499">
        <ele>1835.3</ele>
        <time>2020-07-28T13:32:19Z</time>
      </trkpt>
      <trkpt lat="44.14735" lon="6.67496">
        <ele>1832.7</ele>
        <time>2020-07-28T13:32:28Z</time>
      </trkpt>
      <trkpt lat="44.14738" lon="6.67495">
        <ele>1831.5</ele>
        <time>2020-07-28T13:32:35Z</time>
      </trkpt>
      <trkpt lat="44.14744" lon="6.67499">
        <ele>1829.3</ele>
        <time>2020-07-28T13:32:42Z</time>
      </trkpt>
      <trkpt lat="44.14746" lon="6.67501">
        <ele>1828.6</ele>
        <time>2020-07-28T13:32:50Z</time>
      </trkpt>
      <trkpt lat="44.1475" lon="6.67509">
        <ele>1827</ele>
        <time>2020-07-28T13:32:57Z</time>
      </trkpt>
      <trkpt lat="44.1475" lon="6.67516">
        <ele>1827</ele>
        <time>2020-07-28T13:33:05Z</time>
      </trkpt>
      <trkpt lat="44.14752" lon="6.67521">
        <ele>1825.8</ele>
        <time>2020-07-28T13:33:13Z</time>
      </trkpt>
      <trkpt lat="44.14753" lon="6.6753">
        <ele>1825.1</ele>
        <time>2020-07-28T13:33:21Z</time>
      </trkpt>
      <trkpt lat="44.14755" lon="6.67536">
        <ele>1823.5</ele>
        <time>2020-07-28T13:33:26.000Z</time>
      </trkpt>
      <trkpt lat="44.14756" lon="6.67542">
        <ele>1822.5</ele>
        <time>2020-07-28T13:33:31Z</time>
      </trkpt>
      <trkpt lat="44.14756" lon="6.67544">
        <ele>1822.4</ele>
        <time>2020-07-28T13:33:38Z</time>
      </trkpt>
      <trkpt lat="44.14757" lon="6.67546">
        <ele>1821.7</ele>
        <time>2020-07-28T13:33:46Z</time>
      </trkpt>
      <trkpt lat="44.14759" lon="6.67552">
        <ele>1820.1</ele>
        <time>2020-07-28T13:33:53Z</time>
      </trkpt>
      <trkpt lat="44.14761" lon="6.67561">
        <ele>1818.6</ele>
        <time>2020-07-28T13:34:00Z</time>
      </trkpt>
      <trkpt lat="44.14763" lon="6.67562">
        <ele>1817.4</ele>
        <time>2020-07-28T13:34:07Z</time>
      </trkpt>
      <trkpt lat="44.14766" lon="6.67553">
        <ele>1816</ele>
        <time>2020-07-28T13:34:16Z</time>
      </trkpt>
      <trkpt lat="44.14767" lon="6.67547">
        <ele>1815.8</ele>
        <time>2020-07-28T13:34:23Z</time>
      </trkpt>
      <trkpt lat="44.14767" lon="6.67542">
        <ele>1816.2</ele>
        <time>2020-07-28T13:34:28Z</time>
      </trkpt>
      <trkpt lat="44.1477" lon="6.67533">
        <ele>1815.1</ele>
        <time>2020-07-28T13:34:37Z</time>
      </trkpt>
      <trkpt lat="44.14775" lon="6.67527">
        <ele>1812.6</ele>
        <time>2020-07-28T13:34:46Z</time>
      </trkpt>
      <trkpt lat="44.14777" lon="6.67531">
        <ele>1811.2</ele>
        <time>2020-07-28T13:34:53Z</time>
      </trkpt>
      <trkpt lat="44.14779" lon="6.67535">
        <ele>1809.7</ele>
        <time>2020-07-28T13:35:00Z</time>
      </trkpt>
      <trkpt lat="44.14782" lon="6.67539">
        <ele>1807.5</ele>
        <time>2020-07-28T13:35:08Z</time>
      </trkpt>
      <trkpt lat="44.14785" lon="6.67545">
        <ele>1805.2</ele>
        <time>2020-07-28T13:35:15Z</time>
      </trkpt>
      <trkpt lat="44.14786" lon="6.67548">
        <ele>1804.4</ele>
        <time>2020-07-28T13:35:23Z</time>
      </trkpt>
      <trkpt lat="44.14789" lon="6.67552">
        <ele>1802.3</ele>
        <time>2020-07-28T13:35:32Z</time>
      </trkpt>
      <trkpt lat="44.14791" lon="6.67557">
        <ele>1800.9</ele>
        <time>2020-07-28T13:35:38Z</time>
      </trkpt>
      <trkpt lat="44.14794" lon="6.67563">
        <ele>1799.1</ele>
        <time>2020-07-28T13:35:46Z</time>
      </trkpt>
      <trkpt lat="44.14795" lon="6.67566">
        <ele>1798.6</ele>
        <time>2020-07-28T13:35:53Z</time>
      </trkpt>
      <trkpt lat="44.14797" lon="6.67566">
        <ele>1797.4</ele>
        <time>2020-07-28T13:36:00Z</time>
      </trkpt>
      <trkpt lat="44.14803" lon="6.67569">
        <ele>1794</ele>
        <time>2020-07-28T13:36:08Z</time>
      </trkpt>
      <trkpt lat="44.14806" lon="6.67574">
        <ele>1792.5</ele>
        <time>2020-07-28T13:36:17Z</time>
      </trkpt>
      <trkpt lat="44.14812" lon="6.67572">
        <ele>1790.2</ele>
        <time>2020-07-28T13:36:25Z</time>
      </trkpt>
      <trkpt lat="44.14812" lon="6.67569">
        <ele>1790</ele>
        <time>2020-07-28T13:36:32Z</time>
      </trkpt>
      <trkpt lat="44.14816" lon="6.67563">
        <ele>1788.2</ele>
        <time>2020-07-28T13:36:40Z</time>
      </trkpt>
      <trkpt lat="44.14817" lon="6.67558">
        <ele>1787.6</ele>
        <time>2020-07-28T13:36:47Z</time>
      </trkpt>
      <trkpt lat="44.14818" lon="6.67556">
        <ele>1787.1</ele>
        <time>2020-07-28T13:36:55Z</time>
      </trkpt>
      <trkpt lat="44.14818" lon="6.67551">
        <ele>1786.9</ele>
        <time>2020-07-28T13:37:02Z</time>
      </trkpt>
      <trkpt lat="44.14821" lon="6.67548">
        <ele>1785.4</ele>
        <time>2020-07-28T13:37:10Z</time>
      </trkpt>
      <trkpt lat="44.14822" lon="6.67547">
        <ele>1784.9</ele>
        <time>2020-07-28T13:37:17Z</time>
      </trkpt>
      <trkpt lat="44.14823" lon="6.67538">
        <ele>1783.7</ele>
        <time>2020-07-28T13:37:26Z</time>
      </trkpt>
      <trkpt lat="44.14824" lon="6.67539">
        <ele>1783.3</ele>
        <time>2020-07-28T13:37:36Z</time>
      </trkpt>
      <trkpt lat="44.14825" lon="6.67539">
        <ele>1782.8</ele>
        <time>2020-07-28T13:37:43Z</time>
      </trkpt>
      <trkpt lat="44.14826" lon="6.6754">
        <ele>1782.4</ele>
        <time>2020-07-28T13:37:49Z</time>
      </trkpt>
      <trkpt lat="44.14827" lon="6.6754">
        <ele>1781.9</ele>
        <time>2020-07-28T13:37:56Z</time>
      </trkpt>
      <trkpt lat="44.14828" lon="6.67541">
        <ele>1781.5</ele>
        <time>2020-07-28T13:38:07Z</time>
      </trkpt>
      <trkpt lat="44.1483" lon="6.67542">
        <ele>1780.7</ele>
        <time>2020-07-28T13:38:16Z</time>
      </trkpt>
      <trkpt lat="44.14832" lon="6.67542">
        <ele>1779.7</ele>
        <time>2020-07-28T13:38:33Z</time>
      </trkpt>
      <trkpt lat="44.14834" lon="6.67543">
        <ele>1779.2</ele>
        <time>2020-07-28T13:38:45Z</time>
      </trkpt>
      <trkpt lat="44.14835" lon="6.67544">
        <ele>1779.4</ele>
        <time>2020-07-28T13:38:56Z</time>
      </trkpt>
      <trkpt lat="44.14836" lon="6.67545">
        <ele>1779.6</ele>
        <time>2020-07-28T13:39:07Z</time>
      </trkpt>
      <trkpt lat="44.14836" lon="6.67546">
        <ele>1779.7</ele>
        <time>2020-07-28T13:39:15Z</time>
      </trkpt>
      <trkpt lat="44.14837" lon="6.67546">
        <ele>1779.8</ele>
        <time>2020-07-28T13:39:31Z</time>
      </trkpt>
      <trkpt lat="44.14837" lon="6.67546">
        <ele>1779.8</ele>
        <time>2020-07-28T13:39:43Z</time>
      </trkpt>
      <trkpt lat="44.14838" lon="6.67545">
        <ele>1779.6</ele>
        <time>2020-07-28T13:39:56Z</time>
      </trkpt>
      <trkpt lat="44.14838" lon="6.67545">
        <ele>1779.6</ele>
        <time>2020-07-28T13:40:06Z</time>
      </trkpt>
      <trkpt lat="44.14836" lon="6.67545">
        <ele>1779.6</ele>
        <time>2020-07-28T13:40:15Z</time>
      </trkpt>
      <trkpt lat="44.14831" lon="6.67543">
        <ele>1780.3</ele>
        <time>2020-07-28T13:40:24Z</time>
      </trkpt>
      <trkpt lat="44.14831" lon="6.67542">
        <ele>1780.2</ele>
        <time>2020-07-28T13:40:25Z</time>
      </trkpt>
      <trkpt lat="44.14825" lon="6.6754">
        <ele>1782.9</ele>
        <time>2020-07-28T13:40:32Z</time>
      </trkpt>
      <trkpt lat="44.14823" lon="6.6754">
        <ele>1783.9</ele>
        <time>2020-07-28T13:40:40Z</time>
      </trkpt>
      <trkpt lat="44.14822" lon="6.67529">
        <ele>1783.6</ele>
        <time>2020-07-28T13:40:48Z</time>
      </trkpt>
      <trkpt lat="44.14821" lon="6.67519">
        <ele>1784.2</ele>
        <time>2020-07-28T13:40:55Z</time>
      </trkpt>
      <trkpt lat="44.14822" lon="6.67511">
        <ele>1783.6</ele>
        <time>2020-07-28T13:41:02Z</time>
      </trkpt>
      <trkpt lat="44.14822" lon="6.67502">
        <ele>1783.6</ele>
        <time>2020-07-28T13:41:10Z</time>
      </trkpt>
      <trkpt lat="44.14824" lon="6.67493">
        <ele>1781.1</ele>
        <time>2020-07-28T13:41:19Z</time>
      </trkpt>
      <trkpt lat="44.14827" lon="6.67483">
        <ele>1777.7</ele>
        <time>2020-07-28T13:41:27Z</time>
      </trkpt>
      <trkpt lat="44.14831" lon="6.67484">
        <ele>1774.9</ele>
        <time>2020-07-28T13:41:34Z</time>
      </trkpt>
      <trkpt lat="44.14832" lon="6.67486">
        <ele>1774.4</ele>
        <time>2020-07-28T13:41:41Z</time>
      </trkpt>
      <trkpt lat="44.14835" lon="6.67487">
        <ele>1772.8</ele>
        <time>2020-07-28T13:41:50Z</time>
      </trkpt>
      <trkpt lat="44.14836" lon="6.67487">
        <ele>1772.4</ele>
        <time>2020-07-28T13:41:59Z</time>
      </trkpt>
      <trkpt lat="44.14838" lon="6.67486">
        <ele>1771.3</ele>
        <time>2020-07-28T13:42:07Z</time>
      </trkpt>
      <trkpt lat="44.1484" lon="6.67484">
        <ele>1770.1</ele>
        <time>2020-07-28T13:42:15Z</time>
      </trkpt>
      <trkpt lat="44.14843" lon="6.67482">
        <ele>1768.3</ele>
        <time>2020-07-28T13:42:22Z</time>
      </trkpt>
      <trkpt lat="44.14843" lon="6.67474">
        <ele>1767.1</ele>
        <time>2020-07-28T13:42:30Z</time>
      </trkpt>
      <trkpt lat="44.14842" lon="6.6747">
        <ele>1766.8</ele>
        <time>2020-07-28T13:42:36Z</time>
      </trkpt>
      <trkpt lat="44.14842" lon="6.67464">
        <ele>1765.2</ele>
        <time>2020-07-28T13:42:44Z</time>
      </trkpt>
      <trkpt lat="44.14848" lon="6.67467">
        <ele>1762.9</ele>
        <time>2020-07-28T13:42:53Z</time>
      </trkpt>
      <trkpt lat="44.14853" lon="6.67468">
        <ele>1760.5</ele>
        <time>2020-07-28T13:43:01Z</time>
      </trkpt>
      <trkpt lat="44.14855" lon="6.6747">
        <ele>1759.8</ele>
        <time>2020-07-28T13:43:09Z</time>
      </trkpt>
      <trkpt lat="44.14857" lon="6.67467">
        <ele>1758.2</ele>
        <time>2020-07-28T13:43:18Z</time>
      </trkpt>
      <trkpt lat="44.14859" lon="6.67465">
        <ele>1756.8</ele>
        <time>2020-07-28T13:43:25Z</time>
      </trkpt>
      <trkpt lat="44.1486" lon="6.67467">
        <ele>1756.6</ele>
        <time>2020-07-28T13:43:34Z</time>
      </trkpt>
      <trkpt lat="44.1486" lon="6.6747">
        <ele>1757.2</ele>
        <time>2020-07-28T13:43:41Z</time>
      </trkpt>
      <trkpt lat="44.14863" lon="6.67475">
        <ele>1758.1</ele>
        <time>2020-07-28T13:43:41.512Z</time>
      </trkpt>
      <trkpt lat="44.14861" lon="6.67481">
        <ele>1759.4</ele>
        <time>2020-07-28T13:43:42.027Z</time>
      </trkpt>
      <trkpt lat="44.14858" lon="6.67486">
        <ele>1761.9</ele>
        <time>2020-07-28T13:43:42.536Z</time>
      </trkpt>
      <trkpt lat="44.14859" lon="6.67491">
        <ele>1762.7</ele>
        <time>2020-07-28T13:43:42.944Z</time>
      </trkpt>
      <trkpt lat="44.14864" lon="6.67501">
        <ele>1765.4</ele>
        <time>2020-07-28T13:43:43.903Z</time>
      </trkpt>
      <trkpt lat="44.14857" lon="6.67507">
        <ele>1768.3</ele>
        <time>2020-07-28T13:43:44.804Z</time>
      </trkpt>
      <trkpt lat="44.14855" lon="6.67513">
        <ele>1771.1</ele>
        <time>2020-07-28T13:43:45.322Z</time>
      </trkpt>
      <trkpt lat="44.14852" lon="6.67519">
        <ele>1773.6</ele>
        <time>2020-07-28T13:43:45.895Z</time>
      </trkpt>
      <trkpt lat="44.14853" lon="6.67528">
        <ele>1776.3</ele>
        <time>2020-07-28T13:43:46.611Z</time>
      </trkpt>
      <trkpt lat="44.14849" lon="6.67534">
        <ele>1777.7</ele>
        <time>2020-07-28T13:43:47.255Z</time>
      </trkpt>
      <trkpt lat="44.14852" lon="6.6754">
        <ele>1779</ele>
        <time>2020-07-28T13:43:47.830Z</time>
      </trkpt>
      <trkpt lat="44.14849" lon="6.6755">
        <ele>1781</ele>
        <time>2020-07-28T13:43:48.683Z</time>
      </trkpt>
      <trkpt lat="44.14852" lon="6.67543">
        <ele>1779.6</ele>
        <time>2020-07-28T13:43:49.324Z</time>
      </trkpt>
      <trkpt lat="44.1485" lon="6.67537">
        <ele>1778.3</ele>
        <time>2020-07-28T13:43:49.844Z</time>
      </trkpt>
      <trkpt lat="44.14854" lon="6.6753">
        <ele>1776.8</ele>
        <time>2020-07-28T13:43:50.548Z</time>
      </trkpt>
      <trkpt lat="44.14852" lon="6.67523">
        <ele>1774.8</ele>
        <time>2020-07-28T13:43:51.141Z</time>
      </trkpt>
      <trkpt lat="44.14855" lon="6.67517">
        <ele>1772.4</ele>
        <time>2020-07-28T13:43:51.715Z</time>
      </trkpt>
      <trkpt lat="44.14857" lon="6.67511">
        <ele>1769.6</ele>
        <time>2020-07-28T13:43:52.234Z</time>
      </trkpt>
      <trkpt lat="44.1486" lon="6.67504">
        <ele>1766.4</ele>
        <time>2020-07-28T13:43:52.874Z</time>
      </trkpt>
      <trkpt lat="44.14862" lon="6.67498">
        <ele>1763.8</ele>
        <time>2020-07-28T13:43:53.394Z</time>
      </trkpt>
      <trkpt lat="44.14857" lon="6.67493">
        <ele>1764</ele>
        <time>2020-07-28T13:43:54.069Z</time>
      </trkpt>
      <trkpt lat="44.14859" lon="6.67485">
        <ele>1761.1</ele>
        <time>2020-07-28T13:43:54.736Z</time>
      </trkpt>
      <trkpt lat="44.14861" lon="6.67476">
        <ele>1758</ele>
        <time>2020-07-28T13:43:55.478Z</time>
      </trkpt>
      <trkpt lat="44.14859" lon="6.6747">
        <ele>1757.7</ele>
        <time>2020-07-28T13:43:56Z</time>
      </trkpt>
      <trkpt lat="44.14859" lon="6.67469">
        <ele>1757.5</ele>
        <time>2020-07-28T13:44:10Z</time>
      </trkpt>
      <trkpt lat="44.14858" lon="6.67466">
        <ele>1757.5</ele>
        <time>2020-07-28T13:44:16Z</time>
      </trkpt>
      <trkpt lat="44.14857" lon="6.67462">
        <ele>1757.2</ele>
        <time>2020-07-28T13:44:23Z</time>
      </trkpt>
      <trkpt lat="44.14856" lon="6.6746">
        <ele>1757.3</ele>
        <time>2020-07-28T13:44:32Z</time>
      </trkpt>
      <trkpt lat="44.14855" lon="6.67457">
        <ele>1757.2</ele>
        <time>2020-07-28T13:44:41Z</time>
      </trkpt>
      <trkpt lat="44.14855" lon="6.67456">
        <ele>1757</ele>
        <time>2020-07-28T13:44:47Z</time>
      </trkpt>
      <trkpt lat="44.14857" lon="6.67457">
        <ele>1756.2</ele>
        <time>2020-07-28T13:44:57Z</time>
      </trkpt>
      <trkpt lat="44.14859" lon="6.67456">
        <ele>1755.1</ele>
        <time>2020-07-28T13:45:05Z</time>
      </trkpt>
      <trkpt lat="44.1486" lon="6.67455">
        <ele>1754.4</ele>
        <time>2020-07-28T13:45:13Z</time>
      </trkpt>
      <trkpt lat="44.14861" lon="6.67455">
        <ele>1754</ele>
        <time>2020-07-28T13:45:22Z</time>
      </trkpt>
      <trkpt lat="44.14862" lon="6.67455">
        <ele>1754</ele>
        <time>2020-07-28T13:45:32Z</time>
      </trkpt>
      <trkpt lat="44.14863" lon="6.67455">
        <ele>1754.1</ele>
        <time>2020-07-28T13:45:46Z</time>
      </trkpt>
      <trkpt lat="44.14863" lon="6.67455">
        <ele>1754.1</ele>
        <time>2020-07-28T13:46:00Z</time>
      </trkpt>
      <trkpt lat="44.14866" lon="6.67455">
        <ele>1754.3</ele>
        <time>2020-07-28T13:46:18Z</time>
      </trkpt>
      <trkpt lat="44.14866" lon="6.67455">
        <ele>1754.3</ele>
        <time>2020-07-28T13:46:31Z</time>
      </trkpt>
      <trkpt lat="44.14863" lon="6.67455">
        <ele>1754.1</ele>
        <time>2020-07-28T13:46:39Z</time>
      </trkpt>
      <trkpt lat="44.14857" lon="6.67457">
        <ele>1756.2</ele>
        <time>2020-07-28T13:46:47Z</time>
      </trkpt>
      <trkpt lat="44.14853" lon="6.67453">
        <ele>1757.3</ele>
        <time>2020-07-28T13:46:55Z</time>
      </trkpt>
      <trkpt lat="44.14848" lon="6.67453">
        <ele>1759.6</ele>
        <time>2020-07-28T13:47:02Z</time>
      </trkpt>
      <trkpt lat="44.14843" lon="6.67451">
        <ele>1761.5</ele>
        <time>2020-07-28T13:47:09Z</time>
      </trkpt>
      <trkpt lat="44.14842" lon="6.67451">
        <ele>1761.9</ele>
        <time>2020-07-28T13:47:15Z</time>
      </trkpt>
      <trkpt lat="44.14841" lon="6.6745">
        <ele>1762.1</ele>
        <time>2020-07-28T13:47:25Z</time>
      </trkpt>
      <trkpt lat="44.1484" lon="6.67447">
        <ele>1761.8</ele>
        <time>2020-07-28T13:47:33Z</time>
      </trkpt>
      <trkpt lat="44.14838" lon="6.67443">
        <ele>1761.6</ele>
        <time>2020-07-28T13:47:43Z</time>
      </trkpt>
      <trkpt lat="44.14833" lon="6.67441">
        <ele>1763.3</ele>
        <time>2020-07-28T13:47:50Z</time>
      </trkpt>
      <trkpt lat="44.14832" lon="6.67435">
        <ele>1762.4</ele>
        <time>2020-07-28T13:47:58Z</time>
      </trkpt>
      <trkpt lat="44.1483" lon="6.67429">
        <ele>1762</ele>
        <time>2020-07-28T13:48:05Z</time>
      </trkpt>
      <trkpt lat="44.14829" lon="6.67426">
        <ele>1761.7</ele>
        <time>2020-07-28T13:48:11Z</time>
      </trkpt>
      <trkpt lat="44.14833" lon="6.67428">
        <ele>1760</ele>
        <time>2020-07-28T13:48:19Z</time>
      </trkpt>
      <trkpt lat="44.14835" lon="6.67426">
        <ele>1758.7</ele>
        <time>2020-07-28T13:48:25Z</time>
      </trkpt>
      <trkpt lat="44.14839" lon="6.67423">
        <ele>1756.5</ele>
        <time>2020-07-28T13:48:33Z</time>
      </trkpt>
      <trkpt lat="44.14845" lon="6.67422">
        <ele>1754</ele>
        <time>2020-07-28T13:48:40Z</time>
      </trkpt>
      <trkpt lat="44.14844" lon="6.67419">
        <ele>1753.7</ele>
        <time>2020-07-28T13:48:47Z</time>
      </trkpt>
      <trkpt lat="44.14843" lon="6.67416">
        <ele>1753.3</ele>
        <time>2020-07-28T13:48:53Z</time>
      </trkpt>
      <trkpt lat="44.14842" lon="6.67409">
        <ele>1751.8</ele>
        <time>2020-07-28T13:49:00Z</time>
      </trkpt>
      <trkpt lat="44.14838" lon="6.674">
        <ele>1750.6</ele>
        <time>2020-07-28T13:49:07Z</time>
      </trkpt>
      <trkpt lat="44.14838" lon="6.67388">
        <ele>1747.3</ele>
        <time>2020-07-28T13:49:15Z</time>
      </trkpt>
      <trkpt lat="44.14837" lon="6.67378">
        <ele>1745.9</ele>
        <time>2020-07-28T13:49:25Z</time>
      </trkpt>
      <trkpt lat="44.14839" lon="6.6737">
        <ele>1743.8</ele>
        <time>2020-07-28T13:49:33Z</time>
      </trkpt>
      <trkpt lat="44.14841" lon="6.67365">
        <ele>1742.2</ele>
        <time>2020-07-28T13:49:40Z</time>
      </trkpt>
      <trkpt lat="44.14845" lon="6.67362">
        <ele>1740.4</ele>
        <time>2020-07-28T13:49:47Z</time>
      </trkpt>
      <trkpt lat="44.14849" lon="6.67361">
        <ele>1738.9</ele>
        <time>2020-07-28T13:49:55Z</time>
      </trkpt>
      <trkpt lat="44.14852" lon="6.67361">
        <ele>1737.9</ele>
        <time>2020-07-28T13:50:02Z</time>
      </trkpt>
      <trkpt lat="44.14857" lon="6.67366">
        <ele>1737.2</ele>
        <time>2020-07-28T13:50:11Z</time>
      </trkpt>
      <trkpt lat="44.1486" lon="6.67365">
        <ele>1736.1</ele>
        <time>2020-07-28T13:50:18Z</time>
      </trkpt>
      <trkpt lat="44.1486" lon="6.67365">
        <ele>1736.1</ele>
        <time>2020-07-28T13:50:30Z</time>
      </trkpt>
      <trkpt lat="44.14861" lon="6.67364">
        <ele>1735.6</ele>
        <time>2020-07-28T13:50:41Z</time>
      </trkpt>
      <trkpt lat="44.14861" lon="6.67364">
        <ele>1735.6</ele>
        <time>2020-07-28T13:50:51Z</time>
      </trkpt>
      <trkpt lat="44.14862" lon="6.67364">
        <ele>1735.5</ele>
        <time>2020-07-28T13:51:00Z</time>
      </trkpt>
      <trkpt lat="44.14862" lon="6.67364">
        <ele>1735.5</ele>
        <time>2020-07-28T13:51:13Z</time>
      </trkpt>
      <trkpt lat="44.14862" lon="6.67363">
        <ele>1735.3</ele>
        <time>2020-07-28T13:51:19Z</time>
      </trkpt>
      <trkpt lat="44.14864" lon="6.67359">
        <ele>1734.4</ele>
        <time>2020-07-28T13:51:28Z</time>
      </trkpt>
      <trkpt lat="44.14864" lon="6.67352">
        <ele>1733.1</ele>
        <time>2020-07-28T13:51:32.000Z</time>
      </trkpt>
      <trkpt lat="44.14864" lon="6.67344">
        <ele>1731.6</ele>
        <time>2020-07-28T13:51:36Z</time>
      </trkpt>
      <trkpt lat="44.14867" lon="6.67339">
        <ele>1730.3</ele>
        <time>2020-07-28T13:51:45Z</time>
      </trkpt>
      <trkpt lat="44.14869" lon="6.67346">
        <ele>1731.3</ele>
        <time>2020-07-28T13:51:46.647Z</time>
      </trkpt>
      <trkpt lat="44.14871" lon="6.67352">
        <ele>1732.4</ele>
        <time>2020-07-28T13:51:48.094Z</time>
      </trkpt>
      <trkpt lat="44.14871" lon="6.67356">
        <ele>1733.2</ele>
        <time>2020-07-28T13:51:48.969Z</time>
      </trkpt>
      <trkpt lat="44.14871" lon="6.67365">
        <ele>1735.1</ele>
        <time>2020-07-28T13:51:50.938Z</time>
      </trkpt>
      <trkpt lat="44.14869" lon="6.67374">
        <ele>1737</ele>
        <time>2020-07-28T13:51:53Z</time>
      </trkpt>
      <trkpt lat="44.1487" lon="6.67369">
        <ele>1736</ele>
        <time>2020-07-28T13:51:54.298Z</time>
      </trkpt>
      <trkpt lat="44.14872" lon="6.67366">
        <ele>1735.2</ele>
        <time>2020-07-28T13:51:55.322Z</time>
      </trkpt>
      <trkpt lat="44.14873" lon="6.67359">
        <ele>1733.7</ele>
        <time>2020-07-28T13:51:57.108Z</time>
      </trkpt>
      <trkpt lat="44.1487" lon="6.67348">
        <ele>1731.7</ele>
        <time>2020-07-28T13:52:00.053Z</time>
      </trkpt>
      <trkpt lat="44.14867" lon="6.67337">
        <ele>1729.9</ele>
        <time>2020-07-28T13:52:03Z</time>
      </trkpt>
      <trkpt lat="44.14865" lon="6.67332">
        <ele>1729.2</ele>
        <time>2020-07-28T13:52:14Z</time>
      </trkpt>
      <trkpt lat="44.14865" lon="6.67331">
        <ele>1729.1</ele>
        <time>2020-07-28T13:52:23Z</time>
      </trkpt>
      <trkpt lat="44.14866" lon="6.67328">
        <ele>1728.4</ele>
        <time>2020-07-28T13:52:34Z</time>
      </trkpt>
      <trkpt lat="44.14866" lon="6.67325">
        <ele>1727.9</ele>
        <time>2020-07-28T13:52:43Z</time>
      </trkpt>
      <trkpt lat="44.14867" lon="6.67318">
        <ele>1726.6</ele>
        <time>2020-07-28T13:52:49Z</time>
      </trkpt>
      <trkpt lat="44.14869" lon="6.67314">
        <ele>1725.5</ele>
        <time>2020-07-28T13:52:57Z</time>
      </trkpt>
      <trkpt lat="44.14872" lon="6.67311">
        <ele>1724.3</ele>
        <time>2020-07-28T13:53:04Z</time>
      </trkpt>
      <trkpt lat="44.14872" lon="6.67311">
        <ele>1724.3</ele>
        <time>2020-07-28T13:53:12Z</time>
      </trkpt>
      <trkpt lat="44.14873" lon="6.67312">
        <ele>1724.2</ele>
        <time>2020-07-28T13:53:22Z</time>
      </trkpt>
      <trkpt lat="44.14874" lon="6.67311">
        <ele>1723.8</ele>
        <time>2020-07-28T13:53:39Z</time>
      </trkpt>
      <trkpt lat="44.14877" lon="6.67308">
        <ele>1722.5</ele>
        <time>2020-07-28T13:53:46Z</time>
      </trkpt>
      <trkpt lat="44.1488" lon="6.67307">
        <ele>1721.6</ele>
        <time>2020-07-28T13:53:56Z</time>
      </trkpt>
      <trkpt lat="44.14879" lon="6.67307">
        <ele>1721.8</ele>
        <time>2020-07-28T13:54:09Z</time>
      </trkpt>
      <trkpt lat="44.14879" lon="6.67306">
        <ele>1721.6</ele>
        <time>2020-07-28T13:54:24Z</time>
      </trkpt>
      <trkpt lat="44.14883" lon="6.67308">
        <ele>1721</ele>
        <time>2020-07-28T13:54:33Z</time>
      </trkpt>
      <trkpt lat="44.14887" lon="6.67309">
        <ele>1720.3</ele>
        <time>2020-07-28T13:54:42Z</time>
      </trkpt>
      <trkpt lat="44.14887" lon="6.67303">
        <ele>1718.9</ele>
        <time>2020-07-28T13:54:50Z</time>
      </trkpt>
      <trkpt lat="44.14888" lon="6.67302">
        <ele>1718.5</ele>
        <time>2020-07-28T13:54:59Z</time>
      </trkpt>
      <trkpt lat="44.14889" lon="6.67301">
        <ele>1718</ele>
        <time>2020-07-28T13:55:09Z</time>
      </trkpt>
      <trkpt lat="44.14891" lon="6.67298">
        <ele>1717.8</ele>
        <time>2020-07-28T13:55:17Z</time>
      </trkpt>
      <trkpt lat="44.14891" lon="6.67299">
        <ele>1718</ele>
        <time>2020-07-28T13:55:25Z</time>
      </trkpt>
      <trkpt lat="44.14891" lon="6.67299">
        <ele>1718</ele>
        <time>2020-07-28T13:55:37Z</time>
      </trkpt>
      <trkpt lat="44.14889" lon="6.67299">
        <ele>1717.6</ele>
        <time>2020-07-28T13:55:47Z</time>
      </trkpt>
      <trkpt lat="44.14887" lon="6.67298">
        <ele>1717.9</ele>
        <time>2020-07-28T13:55:54Z</time>
      </trkpt>
      <trkpt lat="44.14884" lon="6.67293">
        <ele>1717.8</ele>
        <time>2020-07-28T13:56:03Z</time>
      </trkpt>
      <trkpt lat="44.14882" lon="6.6729">
        <ele>1717.8</ele>
        <time>2020-07-28T13:56:09Z</time>
      </trkpt>
      <trkpt lat="44.14882" lon="6.67288">
        <ele>1717.4</ele>
        <time>2020-07-28T13:56:16Z</time>
      </trkpt>
      <trkpt lat="44.1488" lon="6.67284">
        <ele>1717.3</ele>
        <time>2020-07-28T13:56:24Z</time>
      </trkpt>
      <trkpt lat="44.14879" lon="6.67272">
        <ele>1716.2</ele>
        <time>2020-07-28T13:56:33Z</time>
      </trkpt>
      <trkpt lat="44.14881" lon="6.67266">
        <ele>1714.9</ele>
        <time>2020-07-28T13:56:41Z</time>
      </trkpt>
      <trkpt lat="44.14885" lon="6.67267">
        <ele>1713.4</ele>
        <time>2020-07-28T13:56:49Z</time>
      </trkpt>
      <trkpt lat="44.14885" lon="6.67267">
        <ele>1713.4</ele>
        <time>2020-07-28T13:56:58Z</time>
      </trkpt>
      <trkpt lat="44.14885" lon="6.67269">
        <ele>1713.6</ele>
        <time>2020-07-28T13:57:06Z</time>
      </trkpt>
      <trkpt lat="44.14887" lon="6.67269">
        <ele>1712.8</ele>
        <time>2020-07-28T13:57:14Z</time>
      </trkpt>
      <trkpt lat="44.14888" lon="6.67269">
        <ele>1712.4</ele>
        <time>2020-07-28T13:57:28Z</time>
      </trkpt>
      <trkpt lat="44.14888" lon="6.6727">
        <ele>1712.5</ele>
        <time>2020-07-28T13:57:39Z</time>
      </trkpt>
      <trkpt lat="44.14889" lon="6.67269">
        <ele>1712.1</ele>
        <time>2020-07-28T13:57:56Z</time>
      </trkpt>
      <trkpt lat="44.14888" lon="6.67271">
        <ele>1712.6</ele>
        <time>2020-07-28T13:58:06Z</time>
      </trkpt>
      <trkpt lat="44.14886" lon="6.67268">
        <ele>1713.1</ele>
        <time>2020-07-28T13:58:14Z</time>
      </trkpt>
      <trkpt lat="44.14883" lon="6.67263">
        <ele>1713.9</ele>
        <time>2020-07-28T13:58:17.999Z</time>
      </trkpt>
      <trkpt lat="44.1488" lon="6.67258">
        <ele>1714.7</ele>
        <time>2020-07-28T13:58:22Z</time>
      </trkpt>
      <trkpt lat="44.14876" lon="6.67249">
        <ele>1716.1</ele>
        <time>2020-07-28T13:58:30Z</time>
      </trkpt>
      <trkpt lat="44.14872" lon="6.67246">
        <ele>1718</ele>
        <time>2020-07-28T13:58:40Z</time>
      </trkpt>
      <trkpt lat="44.14872" lon="6.67246">
        <ele>1718</ele>
        <time>2020-07-28T13:58:54Z</time>
      </trkpt>
      <trkpt lat="44.14872" lon="6.67245">
        <ele>1718.1</ele>
        <time>2020-07-28T13:59:04Z</time>
      </trkpt>
      <trkpt lat="44.14873" lon="6.67245">
        <ele>1717.6</ele>
        <time>2020-07-28T13:59:17Z</time>
      </trkpt>
      <trkpt lat="44.14873" lon="6.67245">
        <ele>1717.6</ele>
        <time>2020-07-28T13:59:26Z</time>
      </trkpt>
      <trkpt lat="44.14876" lon="6.67243">
        <ele>1716.3</ele>
        <time>2020-07-28T13:59:34Z</time>
      </trkpt>
      <trkpt lat="44.14878" lon="6.67237">
        <ele>1715.6</ele>
        <time>2020-07-28T13:59:41Z</time>
      </trkpt>
      <trkpt lat="44.14881" lon="6.67228">
        <ele>1714.5</ele>
        <time>2020-07-28T13:59:49Z</time>
      </trkpt>
      <trkpt lat="44.14878" lon="6.67218">
        <ele>1716.5</ele>
        <time>2020-07-28T13:59:58Z</time>
      </trkpt>
      <trkpt lat="44.1488" lon="6.67212">
        <ele>1716</ele>
        <time>2020-07-28T14:00:02.000Z</time>
      </trkpt>
      <trkpt lat="44.14881" lon="6.67205">
        <ele>1716.1</ele>
        <time>2020-07-28T14:00:06Z</time>
      </trkpt>
      <trkpt lat="44.14884" lon="6.67198">
        <ele>1715.2</ele>
        <time>2020-07-28T14:00:12Z</time>
      </trkpt>
      <trkpt lat="44.14886" lon="6.67192">
        <ele>1714.7</ele>
        <time>2020-07-28T14:00:17.000Z</time>
      </trkpt>
      <trkpt lat="44.14888" lon="6.67185">
        <ele>1714.1</ele>
        <time>2020-07-28T14:00:22Z</time>
      </trkpt>
      <trkpt lat="44.14888" lon="6.67175">
        <ele>1714.9</ele>
        <time>2020-07-28T14:00:29Z</time>
      </trkpt>
      <trkpt lat="44.14889" lon="6.67168">
        <ele>1714.9</ele>
        <time>2020-07-28T14:00:36Z</time>
      </trkpt>
      <trkpt lat="44.1489" lon="6.67162">
        <ele>1715.2</ele>
        <time>2020-07-28T14:00:43Z</time>
      </trkpt>
      <trkpt lat="44.1489" lon="6.67158">
        <ele>1715.8</ele>
        <time>2020-07-28T14:00:48Z</time>
      </trkpt>
      <trkpt lat="44.1489" lon="6.67148">
        <ele>1717.2</ele>
        <time>2020-07-28T14:00:54Z</time>
      </trkpt>
      <trkpt lat="44.14891" lon="6.67143">
        <ele>1717.3</ele>
        <time>2020-07-28T14:01:02Z</time>
      </trkpt>
      <trkpt lat="44.14895" lon="6.67136">
        <ele>1716.4</ele>
        <time>2020-07-28T14:01:09Z</time>
      </trkpt>
      <trkpt lat="44.14898" lon="6.6713">
        <ele>1716.3</ele>
        <time>2020-07-28T14:01:16Z</time>
      </trkpt>
      <trkpt lat="44.14902" lon="6.67125">
        <ele>1715.4</ele>
        <time>2020-07-28T14:01:24Z</time>
      </trkpt>
      <trkpt lat="44.14907" lon="6.6712">
        <ele>1714</ele>
        <time>2020-07-28T14:01:31Z</time>
      </trkpt>
      <trkpt lat="44.14911" lon="6.67114">
        <ele>1713.3</ele>
        <time>2020-07-28T14:01:39Z</time>
      </trkpt>
      <trkpt lat="44.14916" lon="6.67109">
        <ele>1712</ele>
        <time>2020-07-28T14:01:46Z</time>
      </trkpt>
      <trkpt lat="44.14923" lon="6.67103">
        <ele>1711.2</ele>
        <time>2020-07-28T14:01:55Z</time>
      </trkpt>
      <trkpt lat="44.14929" lon="6.67098">
        <ele>1710.4</ele>
        <time>2020-07-28T14:02:02Z</time>
      </trkpt>
      <trkpt lat="44.14934" lon="6.67095">
        <ele>1709.3</ele>
        <time>2020-07-28T14:02:08Z</time>
      </trkpt>
      <trkpt lat="44.14939" lon="6.67092">
        <ele>1708.2</ele>
        <time>2020-07-28T14:02:14Z</time>
      </trkpt>
      <trkpt lat="44.14943" lon="6.67088">
        <ele>1707.5</ele>
        <time>2020-07-28T14:02:18.000Z</time>
      </trkpt>
      <trkpt lat="44.14946" lon="6.67084">
        <ele>1707.5</ele>
        <time>2020-07-28T14:02:22Z</time>
      </trkpt>
      <trkpt lat="44.14952" lon="6.67081">
        <ele>1706.5</ele>
        <time>2020-07-28T14:02:29Z</time>
      </trkpt>
      <trkpt lat="44.14958" lon="6.67077">
        <ele>1705.5</ele>
        <time>2020-07-28T14:02:37Z</time>
      </trkpt>
      <trkpt lat="44.14965" lon="6.67072">
        <ele>1704.3</ele>
        <time>2020-07-28T14:02:45Z</time>
      </trkpt>
      <trkpt lat="44.14971" lon="6.67067">
        <ele>1703.1</ele>
        <time>2020-07-28T14:02:51Z</time>
      </trkpt>
      <trkpt lat="44.14977" lon="6.6706">
        <ele>1702.7</ele>
        <time>2020-07-28T14:02:58Z</time>
      </trkpt>
      <trkpt lat="44.14981" lon="6.67055">
        <ele>1702.5</ele>
        <time>2020-07-28T14:03:06Z</time>
      </trkpt>
      <trkpt lat="44.14981" lon="6.67056">
        <ele>1702.4</ele>
        <time>2020-07-28T14:03:19Z</time>
      </trkpt>
      <trkpt lat="44.1498" lon="6.67056">
        <ele>1702.6</ele>
        <time>2020-07-28T14:03:31Z</time>
      </trkpt>
      <trkpt lat="44.14979" lon="6.67056">
        <ele>1702.7</ele>
        <time>2020-07-28T14:03:41Z</time>
      </trkpt>
      <trkpt lat="44.14979" lon="6.67058">
        <ele>1702.6</ele>
        <time>2020-07-28T14:03:58Z</time>
      </trkpt>
      <trkpt lat="44.14979" lon="6.67058">
        <ele>1702.6</ele>
        <time>2020-07-28T14:04:15Z</time>
      </trkpt>
      <trkpt lat="44.14978" lon="6.67058">
        <ele>1702.8</ele>
        <time>2020-07-28T14:04:31Z</time>
      </trkpt>
      <trkpt lat="44.14978" lon="6.67058">
        <ele>1702.8</ele>
        <time>2020-07-28T14:04:40Z</time>
      </trkpt>
      <trkpt lat="44.14978" lon="6.67062">
        <ele>1702.4</ele>
        <time>2020-07-28T14:04:47Z</time>
      </trkpt>
      <trkpt lat="44.14978" lon="6.6706">
        <ele>1702.6</ele>
        <time>2020-07-28T14:04:56Z</time>
      </trkpt>
      <trkpt lat="44.14979" lon="6.6706">
        <ele>1702.4</ele>
        <time>2020-07-28T14:05:03Z</time>
      </trkpt>
      <trkpt lat="44.14979" lon="6.67059">
        <ele>1702.5</ele>
        <time>2020-07-28T14:05:15Z</time>
      </trkpt>
      <trkpt lat="44.14979" lon="6.67057">
        <ele>1702.7</ele>
        <time>2020-07-28T14:05:26Z</time>
      </trkpt>
      <trkpt lat="44.14979" lon="6.67057">
        <ele>1702.7</ele>
        <time>2020-07-28T14:05:37Z</time>
      </trkpt>
      <trkpt lat="44.14979" lon="6.67055">
        <ele>1702.9</ele>
        <time>2020-07-28T14:05:47Z</time>
      </trkpt>
      <trkpt lat="44.14981" lon="6.6705">
        <ele>1703.1</ele>
        <time>2020-07-28T14:05:53Z</time>
      </trkpt>
      <trkpt lat="44.14986" lon="6.67046">
        <ele>1702.6</ele>
        <time>2020-07-28T14:06:00Z</time>
      </trkpt>
      <trkpt lat="44.1499" lon="6.67043">
        <ele>1702</ele>
        <time>2020-07-28T14:06:04.000Z</time>
      </trkpt>
      <trkpt lat="44.14994" lon="6.67039">
        <ele>1701.5</ele>
        <time>2020-07-28T14:06:08Z</time>
      </trkpt>
      <trkpt lat="44.14999" lon="6.6703">
        <ele>1701.1</ele>
        <time>2020-07-28T14:06:16Z</time>
      </trkpt>
      <trkpt lat="44.15001" lon="6.67028">
        <ele>1700.8</ele>
        <time>2020-07-28T14:06:25Z</time>
      </trkpt>
      <trkpt lat="44.15004" lon="6.67022">
        <ele>1701</ele>
        <time>2020-07-28T14:06:30.000Z</time>
      </trkpt>
      <trkpt lat="44.15006" lon="6.67015">
        <ele>1701.3</ele>
        <time>2020-07-28T14:06:35Z</time>
      </trkpt>
      <trkpt lat="44.15008" lon="6.67007">
        <ele>1701.7</ele>
        <time>2020-07-28T14:06:42Z</time>
      </trkpt>
      <trkpt lat="44.15013" lon="6.66997">
        <ele>1701.4</ele>
        <time>2020-07-28T14:06:51Z</time>
      </trkpt>
      <trkpt lat="44.15013" lon="6.66996">
        <ele>1701.5</ele>
        <time>2020-07-28T14:06:52Z</time>
      </trkpt>
      <trkpt lat="44.15019" lon="6.66988">
        <ele>1700.8</ele>
        <time>2020-07-28T14:07:01Z</time>
      </trkpt>
      <trkpt lat="44.15023" lon="6.66981">
        <ele>1700.4</ele>
        <time>2020-07-28T14:07:08Z</time>
      </trkpt>
      <trkpt lat="44.15027" lon="6.66978">
        <ele>1699.8</ele>
        <time>2020-07-28T14:07:14Z</time>
      </trkpt>
      <trkpt lat="44.15029" lon="6.6697">
        <ele>1700</ele>
        <time>2020-07-28T14:07:20Z</time>
      </trkpt>
      <trkpt lat="44.1503" lon="6.66965">
        <ele>1700.2</ele>
        <time>2020-07-28T14:07:27Z</time>
      </trkpt>
      <trkpt lat="44.15034" lon="6.66954">
        <ele>1700.3</ele>
        <time>2020-07-28T14:07:34Z</time>
      </trkpt>
      <trkpt lat="44.15036" lon="6.66942">
        <ele>1700.7</ele>
        <time>2020-07-28T14:07:41Z</time>
      </trkpt>
      <trkpt lat="44.15038" lon="6.66935">
        <ele>1700.9</ele>
        <time>2020-07-28T14:07:48Z</time>
      </trkpt>
      <trkpt lat="44.15039" lon="6.66931">
        <ele>1701</ele>
        <time>2020-07-28T14:07:51Z</time>
      </trkpt>
      <trkpt lat="44.1504" lon="6.66921">
        <ele>1701.6</ele>
        <time>2020-07-28T14:07:58Z</time>
      </trkpt>
      <trkpt lat="44.15044" lon="6.66915">
        <ele>1701.1</ele>
        <time>2020-07-28T14:08:05Z</time>
      </trkpt>
      <trkpt lat="44.15048" lon="6.6691">
        <ele>1700.8</ele>
        <time>2020-07-28T14:08:10.000Z</time>
      </trkpt>
      <trkpt lat="44.15051" lon="6.66905">
        <ele>1700.5</ele>
        <time>2020-07-28T14:08:15Z</time>
      </trkpt>
      <trkpt lat="44.15055" lon="6.66897">
        <ele>1700.3</ele>
        <time>2020-07-28T14:08:22Z</time>
      </trkpt>
      <trkpt lat="44.15057" lon="6.6689">
        <ele>1700.6</ele>
        <time>2020-07-28T14:08:29Z</time>
      </trkpt>
      <trkpt lat="44.15058" lon="6.66887">
        <ele>1700.7</ele>
        <time>2020-07-28T14:08:33Z</time>
      </trkpt>
      <trkpt lat="44.15058" lon="6.66875">
        <ele>1702.4</ele>
        <time>2020-07-28T14:08:40Z</time>
      </trkpt>
      <trkpt lat="44.15063" lon="6.66868">
        <ele>1702</ele>
        <time>2020-07-28T14:08:47Z</time>
      </trkpt>
      <trkpt lat="44.15068" lon="6.66863">
        <ele>1701.2</ele>
        <time>2020-07-28T14:08:51.500Z</time>
      </trkpt>
      <trkpt lat="44.15072" lon="6.66858">
        <ele>1700.8</ele>
        <time>2020-07-28T14:08:56Z</time>
      </trkpt>
      <trkpt lat="44.15077" lon="6.6685">
        <ele>1700.7</ele>
        <time>2020-07-28T14:09:04Z</time>
      </trkpt>
      <trkpt lat="44.15081" lon="6.66841">
        <ele>1700.8</ele>
        <time>2020-07-28T14:09:12Z</time>
      </trkpt>
      <trkpt lat="44.15085" lon="6.66837">
        <ele>1700.1</ele>
        <time>2020-07-28T14:09:16.000Z</time>
      </trkpt>
      <trkpt lat="44.15088" lon="6.66833">
        <ele>1700.1</ele>
        <time>2020-07-28T14:09:20Z</time>
      </trkpt>
      <trkpt lat="44.1509" lon="6.66828">
        <ele>1700.6</ele>
        <time>2020-07-28T14:09:26Z</time>
      </trkpt>
      <trkpt lat="44.15093" lon="6.66821">
        <ele>1701.1</ele>
        <time>2020-07-28T14:09:33Z</time>
      </trkpt>
      <trkpt lat="44.15095" lon="6.66809">
        <ele>1702.6</ele>
        <time>2020-07-28T14:09:41Z</time>
      </trkpt>
      <trkpt lat="44.15097" lon="6.66804">
        <ele>1702.9</ele>
        <time>2020-07-28T14:09:48Z</time>
      </trkpt>
      <trkpt lat="44.15097" lon="6.66802">
        <ele>1703.3</ele>
        <time>2020-07-28T14:09:49Z</time>
      </trkpt>
      <trkpt lat="44.15101" lon="6.66799">
        <ele>1702.6</ele>
        <time>2020-07-28T14:09:53Z</time>
      </trkpt>
      <trkpt lat="44.15109" lon="6.66794">
        <ele>1700.5</ele>
        <time>2020-07-28T14:09:59Z</time>
      </trkpt>
      <trkpt lat="44.15112" lon="6.66788">
        <ele>1700.3</ele>
        <time>2020-07-28T14:10:03Z</time>
      </trkpt>
      <trkpt lat="44.15115" lon="6.6678">
        <ele>1700.6</ele>
        <time>2020-07-28T14:10:09Z</time>
      </trkpt>
      <trkpt lat="44.1512" lon="6.66776">
        <ele>1699.8</ele>
        <time>2020-07-28T14:10:13.500Z</time>
      </trkpt>
      <trkpt lat="44.15124" lon="6.66771">
        <ele>1699.7</ele>
        <time>2020-07-28T14:10:18Z</time>
      </trkpt>
      <trkpt lat="44.15127" lon="6.66769">
        <ele>1699.1</ele>
        <time>2020-07-28T14:10:23Z</time>
      </trkpt>
      <trkpt lat="44.15135" lon="6.66765">
        <ele>1697.2</ele>
        <time>2020-07-28T14:10:32Z</time>
      </trkpt>
      <trkpt lat="44.1514" lon="6.66759">
        <ele>1696.5</ele>
        <time>2020-07-28T14:10:39Z</time>
      </trkpt>
      <trkpt lat="44.15146" lon="6.66756">
        <ele>1695.5</ele>
        <time>2020-07-28T14:10:46Z</time>
      </trkpt>
      <trkpt lat="44.15149" lon="6.66754">
        <ele>1695</ele>
        <time>2020-07-28T14:10:52Z</time>
      </trkpt>
      <trkpt lat="44.15152" lon="6.6675">
        <ele>1694.7</ele>
        <time>2020-07-28T14:10:59Z</time>
      </trkpt>
      <trkpt lat="44.15157" lon="6.66744">
        <ele>1694.1</ele>
        <time>2020-07-28T14:11:05Z</time>
      </trkpt>
      <trkpt lat="44.15161" lon="6.6674">
        <ele>1693.4</ele>
        <time>2020-07-28T14:11:11Z</time>
      </trkpt>
      <trkpt lat="44.15166" lon="6.66735">
        <ele>1692.3</ele>
        <time>2020-07-28T14:11:16Z</time>
      </trkpt>
      <trkpt lat="44.15171" lon="6.66729">
        <ele>1691.8</ele>
        <time>2020-07-28T14:11:21.000Z</time>
      </trkpt>
      <trkpt lat="44.15175" lon="6.66723">
        <ele>1691.5</ele>
        <time>2020-07-28T14:11:26Z</time>
      </trkpt>
      <trkpt lat="44.15178" lon="6.66718">
        <ele>1691.4</ele>
        <time>2020-07-28T14:11:32Z</time>
      </trkpt>
      <trkpt lat="44.15185" lon="6.66711">
        <ele>1690.5</ele>
        <time>2020-07-28T14:11:40Z</time>
      </trkpt>
      <trkpt lat="44.1519" lon="6.66708">
        <ele>1689.6</ele>
        <time>2020-07-28T14:11:43.500Z</time>
      </trkpt>
      <trkpt lat="44.15194" lon="6.66704">
        <ele>1688.8</ele>
        <time>2020-07-28T14:11:47Z</time>
      </trkpt>
      <trkpt lat="44.15199" lon="6.667">
        <ele>1688.5</ele>
        <time>2020-07-28T14:11:50.500Z</time>
      </trkpt>
      <trkpt lat="44.15204" lon="6.66695">
        <ele>1688.3</ele>
        <time>2020-07-28T14:11:54Z</time>
      </trkpt>
      <trkpt lat="44.15205" lon="6.66693">
        <ele>1688.3</ele>
        <time>2020-07-28T14:11:56Z</time>
      </trkpt>
      <trkpt lat="44.15209" lon="6.66688">
        <ele>1688.2</ele>
        <time>2020-07-28T14:11:59.500Z</time>
      </trkpt>
      <trkpt lat="44.15212" lon="6.66683">
        <ele>1687.9</ele>
        <time>2020-07-28T14:12:03Z</time>
      </trkpt>
      <trkpt lat="44.15217" lon="6.66675">
        <ele>1687.2</ele>
        <time>2020-07-28T14:12:10Z</time>
      </trkpt>
      <trkpt lat="44.15219" lon="6.66667">
        <ele>1686.7</ele>
        <time>2020-07-28T14:12:16Z</time>
      </trkpt>
      <trkpt lat="44.15221" lon="6.66657">
        <ele>1686.6</ele>
        <time>2020-07-28T14:12:23Z</time>
      </trkpt>
      <trkpt lat="44.15225" lon="6.66646">
        <ele>1686.6</ele>
        <time>2020-07-28T14:12:31Z</time>
      </trkpt>
      <trkpt lat="44.15227" lon="6.66638">
        <ele>1686.7</ele>
        <time>2020-07-28T14:12:40Z</time>
      </trkpt>
      <trkpt lat="44.15228" lon="6.66629">
        <ele>1687.1</ele>
        <time>2020-07-28T14:12:48Z</time>
      </trkpt>
      <trkpt lat="44.1523" lon="6.66624">
        <ele>1687.2</ele>
        <time>2020-07-28T14:12:56Z</time>
      </trkpt>
      <trkpt lat="44.15232" lon="6.66616">
        <ele>1687.4</ele>
        <time>2020-07-28T14:13:03Z</time>
      </trkpt>
      <trkpt lat="44.15236" lon="6.66607">
        <ele>1687.2</ele>
        <time>2020-07-28T14:13:10Z</time>
      </trkpt>
      <trkpt lat="44.15237" lon="6.66604">
        <ele>1687.2</ele>
        <time>2020-07-28T14:13:12Z</time>
      </trkpt>
      <trkpt lat="44.15238" lon="6.66602">
        <ele>1687.2</ele>
        <time>2020-07-28T14:13:14Z</time>
      </trkpt>
      <trkpt lat="44.15239" lon="6.66596">
        <ele>1687.2</ele>
        <time>2020-07-28T14:13:21Z</time>
      </trkpt>
      <trkpt lat="44.15241" lon="6.66595">
        <ele>1686.9</ele>
        <time>2020-07-28T14:13:32Z</time>
      </trkpt>
      <trkpt lat="44.1524" lon="6.66589">
        <ele>1687.3</ele>
        <time>2020-07-28T14:13:40Z</time>
      </trkpt>
      <trkpt lat="44.15243" lon="6.66579">
        <ele>1687</ele>
        <time>2020-07-28T14:13:48Z</time>
      </trkpt>
      <trkpt lat="44.15246" lon="6.66571">
        <ele>1686.6</ele>
        <time>2020-07-28T14:13:55Z</time>
      </trkpt>
      <trkpt lat="44.15249" lon="6.66564">
        <ele>1686</ele>
        <time>2020-07-28T14:14:04Z</time>
      </trkpt>
      <trkpt lat="44.15248" lon="6.6656">
        <ele>1686.5</ele>
        <time>2020-07-28T14:14:11Z</time>
      </trkpt>
      <trkpt lat="44.15252" lon="6.66557">
        <ele>1685.7</ele>
        <time>2020-07-28T14:14:18Z</time>
      </trkpt>
      <trkpt lat="44.15256" lon="6.66549">
        <ele>1685.5</ele>
        <time>2020-07-28T14:14:26Z</time>
      </trkpt>
      <trkpt lat="44.1526" lon="6.66546">
        <ele>1684.9</ele>
        <time>2020-07-28T14:14:32Z</time>
      </trkpt>
      <trkpt lat="44.15263" lon="6.66536">
        <ele>1684.5</ele>
        <time>2020-07-28T14:14:40Z</time>
      </trkpt>
      <trkpt lat="44.15265" lon="6.6653">
        <ele>1684.2</ele>
        <time>2020-07-28T14:14:44.000Z</time>
      </trkpt>
      <trkpt lat="44.15267" lon="6.66524">
        <ele>1683.9</ele>
        <time>2020-07-28T14:14:48Z</time>
      </trkpt>
      <trkpt lat="44.15268" lon="6.66522">
        <ele>1683.7</ele>
        <time>2020-07-28T14:14:50Z</time>
      </trkpt>
      <trkpt lat="44.15273" lon="6.66516">
        <ele>1682.7</ele>
        <time>2020-07-28T14:14:57Z</time>
      </trkpt>
      <trkpt lat="44.15275" lon="6.66506">
        <ele>1682.6</ele>
        <time>2020-07-28T14:15:04Z</time>
      </trkpt>
      <trkpt lat="44.15275" lon="6.66505">
        <ele>1682.6</ele>
        <time>2020-07-28T14:15:05Z</time>
      </trkpt>
      <trkpt lat="44.15278" lon="6.66499">
        <ele>1682</ele>
        <time>2020-07-28T14:15:09.000Z</time>
      </trkpt>
      <trkpt lat="44.1528" lon="6.66492">
        <ele>1682.1</ele>
        <time>2020-07-28T14:15:13Z</time>
      </trkpt>
      <trkpt lat="44.15282" lon="6.66487">
        <ele>1682.1</ele>
        <time>2020-07-28T14:15:17Z</time>
      </trkpt>
      <trkpt lat="44.15284" lon="6.6648">
        <ele>1682</ele>
        <time>2020-07-28T14:15:21.000Z</time>
      </trkpt>
      <trkpt lat="44.15285" lon="6.66473">
        <ele>1682</ele>
        <time>2020-07-28T14:15:25Z</time>
      </trkpt>
      <trkpt lat="44.15288" lon="6.66465">
        <ele>1682</ele>
        <time>2020-07-28T14:15:30.000Z</time>
      </trkpt>
      <trkpt lat="44.1529" lon="6.66457">
        <ele>1682.2</ele>
        <time>2020-07-28T14:15:35Z</time>
      </trkpt>
      <trkpt lat="44.15294" lon="6.66453">
        <ele>1681.5</ele>
        <time>2020-07-28T14:15:39.000Z</time>
      </trkpt>
      <trkpt lat="44.15297" lon="6.66448">
        <ele>1681</ele>
        <time>2020-07-28T14:15:43Z</time>
      </trkpt>
      <trkpt lat="44.15301" lon="6.66444">
        <ele>1680.2</ele>
        <time>2020-07-28T14:15:47.500Z</time>
      </trkpt>
      <trkpt lat="44.15304" lon="6.66439">
        <ele>1680.2</ele>
        <time>2020-07-28T14:15:52Z</time>
      </trkpt>
      <trkpt lat="44.15304" lon="6.66438">
        <ele>1680.3</ele>
        <time>2020-07-28T14:15:53Z</time>
      </trkpt>
      <trkpt lat="44.15308" lon="6.66435">
        <ele>1680.2</ele>
        <time>2020-07-28T14:15:56Z</time>
      </trkpt>
      <trkpt lat="44.15313" lon="6.66431">
        <ele>1680.4</ele>
        <time>2020-07-28T14:16:01.000Z</time>
      </trkpt>
      <trkpt lat="44.15317" lon="6.66426">
        <ele>1680.6</ele>
        <time>2020-07-28T14:16:06Z</time>
      </trkpt>
      <trkpt lat="44.15324" lon="6.66421">
        <ele>1680.1</ele>
        <time>2020-07-28T14:16:13Z</time>
      </trkpt>
      <trkpt lat="44.15329" lon="6.66415">
        <ele>1679.8</ele>
        <time>2020-07-28T14:16:20Z</time>
      </trkpt>
      <trkpt lat="44.15336" lon="6.66408">
        <ele>1679.8</ele>
        <time>2020-07-28T14:16:28Z</time>
      </trkpt>
      <trkpt lat="44.1534" lon="6.66402">
        <ele>1680</ele>
        <time>2020-07-28T14:16:35Z</time>
      </trkpt>
      <trkpt lat="44.15345" lon="6.66397">
        <ele>1679.8</ele>
        <time>2020-07-28T14:16:40.000Z</time>
      </trkpt>
      <trkpt lat="44.1535" lon="6.66392">
        <ele>1679.5</ele>
        <time>2020-07-28T14:16:45Z</time>
      </trkpt>
      <trkpt lat="44.15355" lon="6.66387">
        <ele>1679</ele>
        <time>2020-07-28T14:16:49.000Z</time>
      </trkpt>
      <trkpt lat="44.15359" lon="6.66382">
        <ele>1678.6</ele>
        <time>2020-07-28T14:16:53Z</time>
      </trkpt>
      <trkpt lat="44.15362" lon="6.66377">
        <ele>1678.4</ele>
        <time>2020-07-28T14:16:57.000Z</time>
      </trkpt>
      <trkpt lat="44.15365" lon="6.66372">
        <ele>1678.4</ele>
        <time>2020-07-28T14:17:01Z</time>
      </trkpt>
      <trkpt lat="44.15369" lon="6.66367">
        <ele>1678.3</ele>
        <time>2020-07-28T14:17:05.500Z</time>
      </trkpt>
      <trkpt lat="44.15372" lon="6.66362">
        <ele>1678.2</ele>
        <time>2020-07-28T14:17:10Z</time>
      </trkpt>
      <trkpt lat="44.15377" lon="6.66356">
        <ele>1678</ele>
        <time>2020-07-28T14:17:15.500Z</time>
      </trkpt>
      <trkpt lat="44.15381" lon="6.66349">
        <ele>1677.8</ele>
        <time>2020-07-28T14:17:21Z</time>
      </trkpt>
      <trkpt lat="44.15387" lon="6.6634">
        <ele>1677.2</ele>
        <time>2020-07-28T14:17:31Z</time>
      </trkpt>
      <trkpt lat="44.15392" lon="6.66335">
        <ele>1676.8</ele>
        <time>2020-07-28T14:17:36.000Z</time>
      </trkpt>
      <trkpt lat="44.15396" lon="6.6633">
        <ele>1676.6</ele>
        <time>2020-07-28T14:17:41Z</time>
      </trkpt>
      <trkpt lat="44.15401" lon="6.66324">
        <ele>1676.3</ele>
        <time>2020-07-28T14:17:46.000Z</time>
      </trkpt>
      <trkpt lat="44.15406" lon="6.66317">
        <ele>1676</ele>
        <time>2020-07-28T14:17:51Z</time>
      </trkpt>
      <trkpt lat="44.1541" lon="6.66311">
        <ele>1675.7</ele>
        <time>2020-07-28T14:17:55.500Z</time>
      </trkpt>
      <trkpt lat="44.15414" lon="6.66305">
        <ele>1675.3</ele>
        <time>2020-07-28T14:18:00Z</time>
      </trkpt>
      <trkpt lat="44.15419" lon="6.66298">
        <ele>1675.2</ele>
        <time>2020-07-28T14:18:09Z</time>
      </trkpt>
      <trkpt lat="44.1542" lon="6.66296">
        <ele>1675.3</ele>
        <time>2020-07-28T14:18:17Z</time>
      </trkpt>
      <trkpt lat="44.15421" lon="6.66295">
        <ele>1675.3</ele>
        <time>2020-07-28T14:18:18Z</time>
      </trkpt>
      <trkpt lat="44.15423" lon="6.66293">
        <ele>1675.2</ele>
        <time>2020-07-28T14:18:20Z</time>
      </trkpt>
      <trkpt lat="44.15429" lon="6.66286">
        <ele>1675.1</ele>
        <time>2020-07-28T14:18:26.000Z</time>
      </trkpt>
      <trkpt lat="44.15434" lon="6.66278">
        <ele>1674.8</ele>
        <time>2020-07-28T14:18:32Z</time>
      </trkpt>
      <trkpt lat="44.15436" lon="6.66275">
        <ele>1674.7</ele>
        <time>2020-07-28T14:18:34Z</time>
      </trkpt>
      <trkpt lat="44.15441" lon="6.66271">
        <ele>1674.5</ele>
        <time>2020-07-28T14:18:38.500Z</time>
      </trkpt>
      <trkpt lat="44.15445" lon="6.66266">
        <ele>1674.4</ele>
        <time>2020-07-28T14:18:43Z</time>
      </trkpt>
      <trkpt lat="44.15449" lon="6.6626">
        <ele>1674.6</ele>
        <time>2020-07-28T14:18:50Z</time>
      </trkpt>
      <trkpt lat="44.15452" lon="6.66254">
        <ele>1674.7</ele>
        <time>2020-07-28T14:18:57Z</time>
      </trkpt>
      <trkpt lat="44.15459" lon="6.66251">
        <ele>1674.5</ele>
        <time>2020-07-28T14:19:04Z</time>
      </trkpt>
      <trkpt lat="44.15463" lon="6.66249">
        <ele>1674.4</ele>
        <time>2020-07-28T14:19:08Z</time>
      </trkpt>
      <trkpt lat="44.15468" lon="6.66246">
        <ele>1674.2</ele>
        <time>2020-07-28T14:19:12.000Z</time>
      </trkpt>
      <trkpt lat="44.15472" lon="6.66243">
        <ele>1674</ele>
        <time>2020-07-28T14:19:16Z</time>
      </trkpt>
      <trkpt lat="44.15478" lon="6.66238">
        <ele>1674.2</ele>
        <time>2020-07-28T14:19:22Z</time>
      </trkpt>
      <trkpt lat="44.15482" lon="6.66234">
        <ele>1674.3</ele>
        <time>2020-07-28T14:19:26.500Z</time>
      </trkpt>
      <trkpt lat="44.15485" lon="6.6623">
        <ele>1674.3</ele>
        <time>2020-07-28T14:19:31Z</time>
      </trkpt>
      <trkpt lat="44.15489" lon="6.66224">
        <ele>1674.1</ele>
        <time>2020-07-28T14:19:35.500Z</time>
      </trkpt>
      <trkpt lat="44.15492" lon="6.66217">
        <ele>1673.9</ele>
        <time>2020-07-28T14:19:40Z</time>
      </trkpt>
      <trkpt lat="44.15496" lon="6.66209">
        <ele>1673.7</ele>
        <time>2020-07-28T14:19:48Z</time>
      </trkpt>
      <trkpt lat="44.15499" lon="6.66198">
        <ele>1673.2</ele>
        <time>2020-07-28T14:19:55Z</time>
      </trkpt>
      <trkpt lat="44.15502" lon="6.66193">
        <ele>1673.1</ele>
        <time>2020-07-28T14:19:58.500Z</time>
      </trkpt>
      <trkpt lat="44.15505" lon="6.66187">
        <ele>1673.2</ele>
        <time>2020-07-28T14:20:02Z</time>
      </trkpt>
      <trkpt lat="44.15507" lon="6.66181">
        <ele>1673.1</ele>
        <time>2020-07-28T14:20:06.000Z</time>
      </trkpt>
      <trkpt lat="44.15508" lon="6.66175">
        <ele>1673</ele>
        <time>2020-07-28T14:20:10Z</time>
      </trkpt>
      <trkpt lat="44.15509" lon="6.66169">
        <ele>1672.8</ele>
        <time>2020-07-28T14:20:13.500Z</time>
      </trkpt>
      <trkpt lat="44.1551" lon="6.66162">
        <ele>1672.6</ele>
        <time>2020-07-28T14:20:17Z</time>
      </trkpt>
      <trkpt lat="44.15513" lon="6.66155">
        <ele>1672.3</ele>
        <time>2020-07-28T14:20:21Z</time>
      </trkpt>
      <trkpt lat="44.15514" lon="6.66149">
        <ele>1672.2</ele>
        <time>2020-07-28T14:20:25Z</time>
      </trkpt>
      <trkpt lat="44.15516" lon="6.66142">
        <ele>1671.9</ele>
        <time>2020-07-28T14:20:29.500Z</time>
      </trkpt>
      <trkpt lat="44.15517" lon="6.66135">
        <ele>1671.6</ele>
        <time>2020-07-28T14:20:34Z</time>
      </trkpt>
      <trkpt lat="44.15519" lon="6.66125">
        <ele>1670.9</ele>
        <time>2020-07-28T14:20:42Z</time>
      </trkpt>
      <trkpt lat="44.1552" lon="6.66118">
        <ele>1670.5</ele>
        <time>2020-07-28T14:20:46Z</time>
      </trkpt>
      <trkpt lat="44.15521" lon="6.66107">
        <ele>1669.8</ele>
        <time>2020-07-28T14:20:52Z</time>
      </trkpt>
      <trkpt lat="44.15521" lon="6.66101">
        <ele>1669.6</ele>
        <time>2020-07-28T14:20:56Z</time>
      </trkpt>
      <trkpt lat="44.15522" lon="6.66096">
        <ele>1669.3</ele>
        <time>2020-07-28T14:20:59Z</time>
      </trkpt>
      <trkpt lat="44.15523" lon="6.66089">
        <ele>1668.9</ele>
        <time>2020-07-28T14:21:03.000Z</time>
      </trkpt>
      <trkpt lat="44.15523" lon="6.66082">
        <ele>1668.6</ele>
        <time>2020-07-28T14:21:07Z</time>
      </trkpt>
      <trkpt lat="44.15523" lon="6.66075">
        <ele>1668.4</ele>
        <time>2020-07-28T14:21:11Z</time>
      </trkpt>
      <trkpt lat="44.15522" lon="6.66067">
        <ele>1668.4</ele>
        <time>2020-07-28T14:21:15.499Z</time>
      </trkpt>
      <trkpt lat="44.1552" lon="6.66058">
        <ele>1668.5</ele>
        <time>2020-07-28T14:21:20Z</time>
      </trkpt>
      <trkpt lat="44.1552" lon="6.66052">
        <ele>1668.2</ele>
        <time>2020-07-28T14:21:23.500Z</time>
      </trkpt>
      <trkpt lat="44.1552" lon="6.66045">
        <ele>1667.7</ele>
        <time>2020-07-28T14:21:27Z</time>
      </trkpt>
      <trkpt lat="44.15519" lon="6.66034">
        <ele>1667.3</ele>
        <time>2020-07-28T14:21:34Z</time>
      </trkpt>
      <trkpt lat="44.15519" lon="6.66026">
        <ele>1666.8</ele>
        <time>2020-07-28T14:21:38.499Z</time>
      </trkpt>
      <trkpt lat="44.15518" lon="6.66018">
        <ele>1666.8</ele>
        <time>2020-07-28T14:21:43Z</time>
      </trkpt>
      <trkpt lat="44.15517" lon="6.66009">
        <ele>1666.7</ele>
        <time>2020-07-28T14:21:48Z</time>
      </trkpt>
      <trkpt lat="44.15515" lon="6.65998">
        <ele>1666.6</ele>
        <time>2020-07-28T14:21:55Z</time>
      </trkpt>
      <trkpt lat="44.15512" lon="6.65987">
        <ele>1666.5</ele>
        <time>2020-07-28T14:22:03Z</time>
      </trkpt>
      <trkpt lat="44.15508" lon="6.65976">
        <ele>1666.5</ele>
        <time>2020-07-28T14:22:10Z</time>
      </trkpt>
      <trkpt lat="44.15507" lon="6.65965">
        <ele>1666.1</ele>
        <time>2020-07-28T14:22:18Z</time>
      </trkpt>
      <trkpt lat="44.15506" lon="6.65959">
        <ele>1666</ele>
        <time>2020-07-28T14:22:21.999Z</time>
      </trkpt>
      <trkpt lat="44.15504" lon="6.65952">
        <ele>1666.2</ele>
        <time>2020-07-28T14:22:26Z</time>
      </trkpt>
      <trkpt lat="44.15501" lon="6.65944">
        <ele>1666.7</ele>
        <time>2020-07-28T14:22:33Z</time>
      </trkpt>
      <trkpt lat="44.15499" lon="6.65938">
        <ele>1667.1</ele>
        <time>2020-07-28T14:22:37.499Z</time>
      </trkpt>
      <trkpt lat="44.15497" lon="6.65932">
        <ele>1667.7</ele>
        <time>2020-07-28T14:22:42Z</time>
      </trkpt>
      <trkpt lat="44.15497" lon="6.65925">
        <ele>1667.5</ele>
        <time>2020-07-28T14:22:46.499Z</time>
      </trkpt>
      <trkpt lat="44.15496" lon="6.65917">
        <ele>1667.6</ele>
        <time>2020-07-28T14:22:51Z</time>
      </trkpt>
      <trkpt lat="44.15496" lon="6.6591">
        <ele>1667.6</ele>
        <time>2020-07-28T14:22:56.500Z</time>
      </trkpt>
      <trkpt lat="44.15496" lon="6.65902">
        <ele>1667.7</ele>
        <time>2020-07-28T14:23:02Z</time>
      </trkpt>
      <trkpt lat="44.15498" lon="6.65896">
        <ele>1666.8</ele>
        <time>2020-07-28T14:23:06.000Z</time>
      </trkpt>
      <trkpt lat="44.15499" lon="6.6589">
        <ele>1666.4</ele>
        <time>2020-07-28T14:23:10Z</time>
      </trkpt>
      <trkpt lat="44.155" lon="6.65879">
        <ele>1666.4</ele>
        <time>2020-07-28T14:23:19Z</time>
      </trkpt>
      <trkpt lat="44.15502" lon="6.65873">
        <ele>1665.9</ele>
        <time>2020-07-28T14:23:23.500Z</time>
      </trkpt>
      <trkpt lat="44.15503" lon="6.65867">
        <ele>1665.8</ele>
        <time>2020-07-28T14:23:28Z</time>
      </trkpt>
      <trkpt lat="44.15506" lon="6.65858">
        <ele>1665.2</ele>
        <time>2020-07-28T14:23:35Z</time>
      </trkpt>
      <trkpt lat="44.15509" lon="6.65852">
        <ele>1664.5</ele>
        <time>2020-07-28T14:23:39.500Z</time>
      </trkpt>
      <trkpt lat="44.15511" lon="6.65845">
        <ele>1664.2</ele>
        <time>2020-07-28T14:23:44Z</time>
      </trkpt>
      <trkpt lat="44.15513" lon="6.6584">
        <ele>1663.9</ele>
        <time>2020-07-28T14:23:47Z</time>
      </trkpt>
      <trkpt lat="44.15516" lon="6.65835">
        <ele>1663.3</ele>
        <time>2020-07-28T14:23:52.000Z</time>
      </trkpt>
      <trkpt lat="44.15519" lon="6.6583">
        <ele>1662.8</ele>
        <time>2020-07-28T14:23:57Z</time>
      </trkpt>
      <trkpt lat="44.15519" lon="6.65826">
        <ele>1663.1</ele>
        <time>2020-07-28T14:24:03Z</time>
      </trkpt>
      <trkpt lat="44.15523" lon="6.65822">
        <ele>1662.2</ele>
        <time>2020-07-28T14:24:12Z</time>
      </trkpt>
      <trkpt lat="44.15526" lon="6.65821">
        <ele>1661.4</ele>
        <time>2020-07-28T14:24:18Z</time>
      </trkpt>
      <trkpt lat="44.15531" lon="6.65819">
        <ele>1660.3</ele>
        <time>2020-07-28T14:24:22.000Z</time>
      </trkpt>
      <trkpt lat="44.15536" lon="6.65816">
        <ele>1659.5</ele>
        <time>2020-07-28T14:24:26Z</time>
      </trkpt>
      <trkpt lat="44.1554" lon="6.65813">
        <ele>1658.8</ele>
        <time>2020-07-28T14:24:29.500Z</time>
      </trkpt>
      <trkpt lat="44.15544" lon="6.65809">
        <ele>1658.2</ele>
        <time>2020-07-28T14:24:33Z</time>
      </trkpt>
      <trkpt lat="44.15552" lon="6.65809">
        <ele>1656.5</ele>
        <time>2020-07-28T14:24:41Z</time>
      </trkpt>
      <trkpt lat="44.15557" lon="6.65808">
        <ele>1655.6</ele>
        <time>2020-07-28T14:24:44.500Z</time>
      </trkpt>
      <trkpt lat="44.15561" lon="6.65807">
        <ele>1655.1</ele>
        <time>2020-07-28T14:24:48Z</time>
      </trkpt>
      <trkpt lat="44.15563" lon="6.65806">
        <ele>1654.9</ele>
        <time>2020-07-28T14:24:49Z</time>
      </trkpt>
      <trkpt lat="44.15565" lon="6.65806">
        <ele>1654.6</ele>
        <time>2020-07-28T14:24:51Z</time>
      </trkpt>
      <trkpt lat="44.1557" lon="6.65807">
        <ele>1653.8</ele>
        <time>2020-07-28T14:24:55.500Z</time>
      </trkpt>
      <trkpt lat="44.15575" lon="6.65807">
        <ele>1653.1</ele>
        <time>2020-07-28T14:25:00Z</time>
      </trkpt>
      <trkpt lat="44.15582" lon="6.65806">
        <ele>1652.2</ele>
        <time>2020-07-28T14:25:27.500Z</time>
      </trkpt>
      <trkpt lat="44.15588" lon="6.65806">
        <ele>1651.3</ele>
        <time>2020-07-28T14:25:33Z</time>
      </trkpt>
      <trkpt lat="44.15594" lon="6.65805">
        <ele>1650.5</ele>
        <time>2020-07-28T14:25:37.500Z</time>
      </trkpt>
      <trkpt lat="44.15599" lon="6.65804">
        <ele>1649.8</ele>
        <time>2020-07-28T14:25:42Z</time>
      </trkpt>
      <trkpt lat="44.15607" lon="6.658">
        <ele>1648.8</ele>
        <time>2020-07-28T14:25:50Z</time>
      </trkpt>
      <trkpt lat="44.15613" lon="6.65793">
        <ele>1648.4</ele>
        <time>2020-07-28T14:25:58Z</time>
      </trkpt>
      <trkpt lat="44.15614" lon="6.65792">
        <ele>1648.4</ele>
        <time>2020-07-28T14:25:59Z</time>
      </trkpt>
      <trkpt lat="44.15618" lon="6.65787">
        <ele>1648.3</ele>
        <time>2020-07-28T14:26:04.000Z</time>
      </trkpt>
      <trkpt lat="44.15622" lon="6.65781">
        <ele>1648.2</ele>
        <time>2020-07-28T14:26:09Z</time>
      </trkpt>
      <trkpt lat="44.15627" lon="6.65773">
        <ele>1648</ele>
        <time>2020-07-28T14:26:17Z</time>
      </trkpt>
      <trkpt lat="44.15627" lon="6.65772">
        <ele>1648</ele>
        <time>2020-07-28T14:26:18Z</time>
      </trkpt>
      <trkpt lat="44.15629" lon="6.65769">
        <ele>1647.9</ele>
        <time>2020-07-28T14:26:20Z</time>
      </trkpt>
      <trkpt lat="44.15632" lon="6.65764">
        <ele>1647.7</ele>
        <time>2020-07-28T14:26:24Z</time>
      </trkpt>
      <trkpt lat="44.15636" lon="6.6576">
        <ele>1647.3</ele>
        <time>2020-07-28T14:26:28.000Z</time>
      </trkpt>
      <trkpt lat="44.15639" lon="6.65755">
        <ele>1647</ele>
        <time>2020-07-28T14:26:32Z</time>
      </trkpt>
      <trkpt lat="44.15642" lon="6.6575">
        <ele>1646.8</ele>
        <time>2020-07-28T14:26:36.000Z</time>
      </trkpt>
      <trkpt lat="44.15645" lon="6.65744">
        <ele>1646.7</ele>
        <time>2020-07-28T14:26:40Z</time>
      </trkpt>
      <trkpt lat="44.15652" lon="6.65737">
        <ele>1646.1</ele>
        <time>2020-07-28T14:26:48Z</time>
      </trkpt>
      <trkpt lat="44.15655" lon="6.65733">
        <ele>1645.7</ele>
        <time>2020-07-28T14:26:52Z</time>
      </trkpt>
      <trkpt lat="44.15658" lon="6.65725">
        <ele>1645.3</ele>
        <time>2020-07-28T14:27:00Z</time>
      </trkpt>
      <trkpt lat="44.1566" lon="6.65723">
        <ele>1645</ele>
        <time>2020-07-28T14:27:08Z</time>
      </trkpt>
      <trkpt lat="44.15664" lon="6.65715">
        <ele>1644.4</ele>
        <time>2020-07-28T14:27:16Z</time>
      </trkpt>
      <trkpt lat="44.15667" lon="6.65709">
        <ele>1644</ele>
        <time>2020-07-28T14:27:22Z</time>
      </trkpt>
      <trkpt lat="44.15668" lon="6.65706">
        <ele>1643.9</ele>
        <time>2020-07-28T14:27:24Z</time>
      </trkpt>
      <trkpt lat="44.1567" lon="6.65702">
        <ele>1643.7</ele>
        <time>2020-07-28T14:27:27Z</time>
      </trkpt>
      <trkpt lat="44.15673" lon="6.65696">
        <ele>1643.4</ele>
        <time>2020-07-28T14:27:31.000Z</time>
      </trkpt>
      <trkpt lat="44.15675" lon="6.65689">
        <ele>1643.2</ele>
        <time>2020-07-28T14:27:35Z</time>
      </trkpt>
      <trkpt lat="44.15678" lon="6.65683">
        <ele>1642.9</ele>
        <time>2020-07-28T14:27:39.500Z</time>
      </trkpt>
      <trkpt lat="44.1568" lon="6.65676">
        <ele>1642.6</ele>
        <time>2020-07-28T14:27:44Z</time>
      </trkpt>
      <trkpt lat="44.15683" lon="6.6567">
        <ele>1642.1</ele>
        <time>2020-07-28T14:27:49.000Z</time>
      </trkpt>
      <trkpt lat="44.15685" lon="6.65663">
        <ele>1641.8</ele>
        <time>2020-07-28T14:27:54Z</time>
      </trkpt>
      <trkpt lat="44.15687" lon="6.65656">
        <ele>1641.5</ele>
        <time>2020-07-28T14:27:58.000Z</time>
      </trkpt>
      <trkpt lat="44.15689" lon="6.65648">
        <ele>1641.2</ele>
        <time>2020-07-28T14:28:02Z</time>
      </trkpt>
      <trkpt lat="44.1569" lon="6.6564">
        <ele>1641.1</ele>
        <time>2020-07-28T14:28:07.500Z</time>
      </trkpt>
      <trkpt lat="44.1569" lon="6.65631">
        <ele>1641.5</ele>
        <time>2020-07-28T14:28:13Z</time>
      </trkpt>
      <trkpt lat="44.15691" lon="6.65619">
        <ele>1641.8</ele>
        <time>2020-07-28T14:28:21Z</time>
      </trkpt>
      <trkpt lat="44.15692" lon="6.65613">
        <ele>1641.7</ele>
        <time>2020-07-28T14:28:25.500Z</time>
      </trkpt>
      <trkpt lat="44.15692" lon="6.65606">
        <ele>1642.2</ele>
        <time>2020-07-28T14:28:30Z</time>
      </trkpt>
      <trkpt lat="44.15694" lon="6.65596">
        <ele>1642.2</ele>
        <time>2020-07-28T14:28:37Z</time>
      </trkpt>
      <trkpt lat="44.15694" lon="6.65593">
        <ele>1642.5</ele>
        <time>2020-07-28T14:28:39Z</time>
      </trkpt>
      <trkpt lat="44.15696" lon="6.65581">
        <ele>1642.8</ele>
        <time>2020-07-28T14:28:47Z</time>
      </trkpt>
      <trkpt lat="44.15696" lon="6.6558">
        <ele>1642.9</ele>
        <time>2020-07-28T14:28:48Z</time>
      </trkpt>
      <trkpt lat="44.157" lon="6.65569">
        <ele>1642.7</ele>
        <time>2020-07-28T14:28:57Z</time>
      </trkpt>
      <trkpt lat="44.15703" lon="6.65564">
        <ele>1642.2</ele>
        <time>2020-07-28T14:29:01.000Z</time>
      </trkpt>
      <trkpt lat="44.15705" lon="6.65558">
        <ele>1642</ele>
        <time>2020-07-28T14:29:05Z</time>
      </trkpt>
      <trkpt lat="44.1571" lon="6.65549">
        <ele>1641.2</ele>
        <time>2020-07-28T14:29:12Z</time>
      </trkpt>
      <trkpt lat="44.15715" lon="6.65541">
        <ele>1640.3</ele>
        <time>2020-07-28T14:29:18Z</time>
      </trkpt>
      <trkpt lat="44.1572" lon="6.65538">
        <ele>1638.7</ele>
        <time>2020-07-28T14:29:22.500Z</time>
      </trkpt>
      <trkpt lat="44.15725" lon="6.65534">
        <ele>1637.6</ele>
        <time>2020-07-28T14:29:27Z</time>
      </trkpt>
      <trkpt lat="44.15732" lon="6.65532">
        <ele>1635.8</ele>
        <time>2020-07-28T14:29:35Z</time>
      </trkpt>
      <trkpt lat="44.15735" lon="6.65528">
        <ele>1635.3</ele>
        <time>2020-07-28T14:29:42Z</time>
      </trkpt>
      <trkpt lat="44.15738" lon="6.65526">
        <ele>1634.7</ele>
        <time>2020-07-28T14:29:49Z</time>
      </trkpt>
      <trkpt lat="44.15742" lon="6.65525">
        <ele>1633.7</ele>
        <time>2020-07-28T14:29:53Z</time>
      </trkpt>
      <trkpt lat="44.1575" lon="6.65525">
        <ele>1631.3</ele>
        <time>2020-07-28T14:30:02Z</time>
      </trkpt>
      <trkpt lat="44.15756" lon="6.65527">
        <ele>1629.6</ele>
        <time>2020-07-28T14:30:11Z</time>
      </trkpt>
      <trkpt lat="44.15757" lon="6.65526">
        <ele>1629.4</ele>
        <time>2020-07-28T14:30:22Z</time>
      </trkpt>
      <trkpt lat="44.15758" lon="6.65525">
        <ele>1629.3</ele>
        <time>2020-07-28T14:30:35Z</time>
      </trkpt>
      <trkpt lat="44.15758" lon="6.65524">
        <ele>1629.4</ele>
        <time>2020-07-28T14:30:47Z</time>
      </trkpt>
      <trkpt lat="44.15757" lon="6.65524">
        <ele>1629.6</ele>
        <time>2020-07-28T14:30:57Z</time>
      </trkpt>
      <trkpt lat="44.15757" lon="6.65524">
        <ele>1629.6</ele>
        <time>2020-07-28T14:30:58Z</time>
      </trkpt>
      <trkpt lat="44.15757" lon="6.65524">
        <ele>1629.6</ele>
        <time>2020-07-28T14:31:00Z</time>
      </trkpt>
      <trkpt lat="44.15757" lon="6.65524">
        <ele>1629.6</ele>
        <time>2020-07-28T14:31:01Z</time>
      </trkpt>
      <trkpt lat="44.15757" lon="6.65524">
        <ele>1629.6</ele>
        <time>2020-07-28T14:31:02Z</time>
      </trkpt>
      <trkpt lat="44.15757" lon="6.65524">
        <ele>1629.6</ele>
        <time>2020-07-28T14:31:08Z</time>
      </trkpt>
      <trkpt lat="44.15757" lon="6.65524">
        <ele>1629.6</ele>
        <time>2020-07-28T14:31:11Z</time>
      </trkpt>
      <trkpt lat="44.15757" lon="6.65524">
        <ele>1629.6</ele>
        <time>2020-07-28T14:31:12Z</time>
      </trkpt>
      <trkpt lat="44.15757" lon="6.65524">
        <ele>1629.6</ele>
        <time>2020-07-28T14:31:13Z</time>
      </trkpt>
    </trkseg>
  </trk>
</gpx>